<?xml version="1.0" encoding="UTF-8" standalone="no" ?>
<gpx xmlns="http://www.topografix.com/GPX/1/1" xmlns:xsi="http://www.w3.org/2001/XMLSchema-instance" xsi:schemaLocation="http://www.topografix.com/GPX/1/1 http://www.topografix.com/GPX/1/1/gpx.xsd" version="1.1" creator="VisuGPX - https://www.visugpx.com">
  <metadata>
    <name>fin goulier</name>
  </metadata>
  <trk>
    <name><![CDATA[190427142741 on GPSies.com]]></name>
    <trkseg>
      <trkpt lat="42.75404" lon="1.50466">
        <ele>1123</ele>
        <time>2019-04-27T14:27:45Z</time>
      </trkpt>
      <trkpt lat="42.75399" lon="1.50467">
        <ele>1122</ele>
        <time>2019-04-27T14:27:46Z</time>
      </trkpt>
      <trkpt lat="42.75393" lon="1.50468">
        <ele>1121</ele>
        <time>2019-04-27T14:27:47Z</time>
      </trkpt>
      <trkpt lat="42.75387" lon="1.50469">
        <ele>1121</ele>
        <time>2019-04-27T14:27:48Z</time>
      </trkpt>
      <trkpt lat="42.75381" lon="1.5047">
        <ele>1121</ele>
        <time>2019-04-27T14:27:49Z</time>
      </trkpt>
      <trkpt lat="42.75375" lon="1.5047">
        <ele>1121</ele>
        <time>2019-04-27T14:27:50Z</time>
      </trkpt>
      <trkpt lat="42.7537" lon="1.50467">
        <ele>1121</ele>
        <time>2019-04-27T14:27:51Z</time>
      </trkpt>
      <trkpt lat="42.75364" lon="1.50464">
        <ele>1121</ele>
        <time>2019-04-27T14:27:52Z</time>
      </trkpt>
      <trkpt lat="42.75359" lon="1.5046">
        <ele>1121</ele>
        <time>2019-04-27T14:27:53Z</time>
      </trkpt>
      <trkpt lat="42.75353" lon="1.50456">
        <ele>1121</ele>
        <time>2019-04-27T14:27:54Z</time>
      </trkpt>
      <trkpt lat="42.75348" lon="1.50452">
        <ele>1121</ele>
        <time>2019-04-27T14:27:55Z</time>
      </trkpt>
      <trkpt lat="42.75343" lon="1.50447">
        <ele>1121</ele>
        <time>2019-04-27T14:27:56Z</time>
      </trkpt>
      <trkpt lat="42.75338" lon="1.50442">
        <ele>1121</ele>
        <time>2019-04-27T14:27:57Z</time>
      </trkpt>
      <trkpt lat="42.75333" lon="1.50437">
        <ele>1121</ele>
        <time>2019-04-27T14:27:58Z</time>
      </trkpt>
      <trkpt lat="42.75328" lon="1.50432">
        <ele>1121</ele>
        <time>2019-04-27T14:27:59Z</time>
      </trkpt>
      <trkpt lat="42.75323" lon="1.50427">
        <ele>1121</ele>
        <time>2019-04-27T14:28:00Z</time>
      </trkpt>
      <trkpt lat="42.75317" lon="1.50422">
        <ele>1121</ele>
        <time>2019-04-27T14:28:01Z</time>
      </trkpt>
      <trkpt lat="42.75312" lon="1.50417">
        <ele>1121</ele>
        <time>2019-04-27T14:28:02Z</time>
      </trkpt>
      <trkpt lat="42.75302" lon="1.50406">
        <ele>1121</ele>
        <time>2019-04-27T14:28:04Z</time>
      </trkpt>
      <trkpt lat="42.75296" lon="1.50401">
        <ele>1121</ele>
        <time>2019-04-27T14:28:05Z</time>
      </trkpt>
      <trkpt lat="42.75291" lon="1.50395">
        <ele>1121</ele>
        <time>2019-04-27T14:28:06Z</time>
      </trkpt>
      <trkpt lat="42.75286" lon="1.5039">
        <ele>1121</ele>
        <time>2019-04-27T14:28:07Z</time>
      </trkpt>
      <trkpt lat="42.75281" lon="1.50384">
        <ele>1121</ele>
        <time>2019-04-27T14:28:08Z</time>
      </trkpt>
      <trkpt lat="42.75275" lon="1.50378">
        <ele>1120</ele>
        <time>2019-04-27T14:28:09Z</time>
      </trkpt>
      <trkpt lat="42.7527" lon="1.50371">
        <ele>1120</ele>
        <time>2019-04-27T14:28:10Z</time>
      </trkpt>
      <trkpt lat="42.75265" lon="1.50365">
        <ele>1120</ele>
        <time>2019-04-27T14:28:11Z</time>
      </trkpt>
      <trkpt lat="42.75259" lon="1.50359">
        <ele>1121</ele>
        <time>2019-04-27T14:28:12Z</time>
      </trkpt>
      <trkpt lat="42.75254" lon="1.50354">
        <ele>1121</ele>
        <time>2019-04-27T14:28:13Z</time>
      </trkpt>
      <trkpt lat="42.75248" lon="1.50349">
        <ele>1121</ele>
        <time>2019-04-27T14:28:14Z</time>
      </trkpt>
      <trkpt lat="42.75242" lon="1.50345">
        <ele>1120</ele>
        <time>2019-04-27T14:28:15Z</time>
      </trkpt>
      <trkpt lat="42.75235" lon="1.50342">
        <ele>1120</ele>
        <time>2019-04-27T14:28:16Z</time>
      </trkpt>
      <trkpt lat="42.75228" lon="1.50341">
        <ele>1120</ele>
        <time>2019-04-27T14:28:17Z</time>
      </trkpt>
      <trkpt lat="42.75222" lon="1.5034">
        <ele>1121</ele>
        <time>2019-04-27T14:28:18Z</time>
      </trkpt>
      <trkpt lat="42.75215" lon="1.50339">
        <ele>1121</ele>
        <time>2019-04-27T14:28:19Z</time>
      </trkpt>
      <trkpt lat="42.75209" lon="1.5034">
        <ele>1121</ele>
        <time>2019-04-27T14:28:20Z</time>
      </trkpt>
      <trkpt lat="42.75203" lon="1.50341">
        <ele>1122</ele>
        <time>2019-04-27T14:28:21Z</time>
      </trkpt>
      <trkpt lat="42.75198" lon="1.50342">
        <ele>1122</ele>
        <time>2019-04-27T14:28:22Z</time>
      </trkpt>
      <trkpt lat="42.75193" lon="1.50343">
        <ele>1123</ele>
        <time>2019-04-27T14:28:23Z</time>
      </trkpt>
      <trkpt lat="42.75188" lon="1.50344">
        <ele>1124</ele>
        <time>2019-04-27T14:28:24Z</time>
      </trkpt>
      <trkpt lat="42.75184" lon="1.50344">
        <ele>1124</ele>
        <time>2019-04-27T14:28:25Z</time>
      </trkpt>
      <trkpt lat="42.75179" lon="1.50345">
        <ele>1125</ele>
        <time>2019-04-27T14:28:26Z</time>
      </trkpt>
      <trkpt lat="42.75175" lon="1.50346">
        <ele>1125</ele>
        <time>2019-04-27T14:28:27Z</time>
      </trkpt>
      <trkpt lat="42.75172" lon="1.50348">
        <ele>1126</ele>
        <time>2019-04-27T14:28:28Z</time>
      </trkpt>
      <trkpt lat="42.75168" lon="1.50349">
        <ele>1127</ele>
        <time>2019-04-27T14:28:29Z</time>
      </trkpt>
      <trkpt lat="42.75164" lon="1.5035">
        <ele>1127</ele>
        <time>2019-04-27T14:28:30Z</time>
      </trkpt>
      <trkpt lat="42.75161" lon="1.50351">
        <ele>1127</ele>
        <time>2019-04-27T14:28:31Z</time>
      </trkpt>
      <trkpt lat="42.75157" lon="1.50352">
        <ele>1127</ele>
        <time>2019-04-27T14:28:32Z</time>
      </trkpt>
      <trkpt lat="42.75153" lon="1.50354">
        <ele>1128</ele>
        <time>2019-04-27T14:28:33Z</time>
      </trkpt>
      <trkpt lat="42.7515" lon="1.50356">
        <ele>1129</ele>
        <time>2019-04-27T14:28:34Z</time>
      </trkpt>
      <trkpt lat="42.75146" lon="1.50357">
        <ele>1129</ele>
        <time>2019-04-27T14:28:35Z</time>
      </trkpt>
      <trkpt lat="42.75143" lon="1.50358">
        <ele>1130</ele>
        <time>2019-04-27T14:28:36Z</time>
      </trkpt>
      <trkpt lat="42.7514" lon="1.50359">
        <ele>1130</ele>
        <time>2019-04-27T14:28:37Z</time>
      </trkpt>
      <trkpt lat="42.75137" lon="1.50361">
        <ele>1130</ele>
        <time>2019-04-27T14:28:38Z</time>
      </trkpt>
      <trkpt lat="42.75133" lon="1.50363">
        <ele>1131</ele>
        <time>2019-04-27T14:28:39Z</time>
      </trkpt>
      <trkpt lat="42.7513" lon="1.50366">
        <ele>1131</ele>
        <time>2019-04-27T14:28:40Z</time>
      </trkpt>
      <trkpt lat="42.75127" lon="1.50369">
        <ele>1132</ele>
        <time>2019-04-27T14:28:41Z</time>
      </trkpt>
      <trkpt lat="42.75125" lon="1.50372">
        <ele>1132</ele>
        <time>2019-04-27T14:28:42Z</time>
      </trkpt>
      <trkpt lat="42.75123" lon="1.50375">
        <ele>1132</ele>
        <time>2019-04-27T14:28:43Z</time>
      </trkpt>
      <trkpt lat="42.75121" lon="1.50379">
        <ele>1132</ele>
        <time>2019-04-27T14:28:44Z</time>
      </trkpt>
      <trkpt lat="42.75119" lon="1.50382">
        <ele>1132</ele>
        <time>2019-04-27T14:28:45Z</time>
      </trkpt>
      <trkpt lat="42.75118" lon="1.50386">
        <ele>1133</ele>
        <time>2019-04-27T14:28:46Z</time>
      </trkpt>
      <trkpt lat="42.75115" lon="1.5039">
        <ele>1133</ele>
        <time>2019-04-27T14:28:47Z</time>
      </trkpt>
      <trkpt lat="42.75113" lon="1.50393">
        <ele>1133</ele>
        <time>2019-04-27T14:28:48Z</time>
      </trkpt>
      <trkpt lat="42.7511" lon="1.50396">
        <ele>1134</ele>
        <time>2019-04-27T14:28:49Z</time>
      </trkpt>
      <trkpt lat="42.75108" lon="1.50399">
        <ele>1134</ele>
        <time>2019-04-27T14:28:50Z</time>
      </trkpt>
      <trkpt lat="42.75106" lon="1.50401">
        <ele>1135</ele>
        <time>2019-04-27T14:28:51Z</time>
      </trkpt>
      <trkpt lat="42.75103" lon="1.50404">
        <ele>1135</ele>
        <time>2019-04-27T14:28:52Z</time>
      </trkpt>
      <trkpt lat="42.751" lon="1.50409">
        <ele>1135</ele>
        <time>2019-04-27T14:28:53Z</time>
      </trkpt>
      <trkpt lat="42.75098" lon="1.50413">
        <ele>1135</ele>
        <time>2019-04-27T14:28:54Z</time>
      </trkpt>
      <trkpt lat="42.75095" lon="1.50416">
        <ele>1135</ele>
        <time>2019-04-27T14:28:55Z</time>
      </trkpt>
      <trkpt lat="42.75092" lon="1.50419">
        <ele>1136</ele>
        <time>2019-04-27T14:28:56Z</time>
      </trkpt>
      <trkpt lat="42.75089" lon="1.50421">
        <ele>1136</ele>
        <time>2019-04-27T14:28:57Z</time>
      </trkpt>
      <trkpt lat="42.75086" lon="1.50423">
        <ele>1137</ele>
        <time>2019-04-27T14:28:58Z</time>
      </trkpt>
      <trkpt lat="42.75083" lon="1.50425">
        <ele>1137</ele>
        <time>2019-04-27T14:28:59Z</time>
      </trkpt>
      <trkpt lat="42.75079" lon="1.50426">
        <ele>1138</ele>
        <time>2019-04-27T14:29:00Z</time>
      </trkpt>
      <trkpt lat="42.75076" lon="1.50426">
        <ele>1138</ele>
        <time>2019-04-27T14:29:01Z</time>
      </trkpt>
      <trkpt lat="42.75072" lon="1.50427">
        <ele>1138</ele>
        <time>2019-04-27T14:29:02Z</time>
      </trkpt>
      <trkpt lat="42.75069" lon="1.50428">
        <ele>1138</ele>
        <time>2019-04-27T14:29:03Z</time>
      </trkpt>
      <trkpt lat="42.75065" lon="1.50429">
        <ele>1139</ele>
        <time>2019-04-27T14:29:04Z</time>
      </trkpt>
      <trkpt lat="42.75062" lon="1.5043">
        <ele>1139</ele>
        <time>2019-04-27T14:29:05Z</time>
      </trkpt>
      <trkpt lat="42.75059" lon="1.5043">
        <ele>1140</ele>
        <time>2019-04-27T14:29:06Z</time>
      </trkpt>
      <trkpt lat="42.75056" lon="1.50431">
        <ele>1140</ele>
        <time>2019-04-27T14:29:07Z</time>
      </trkpt>
      <trkpt lat="42.75052" lon="1.50431">
        <ele>1140</ele>
        <time>2019-04-27T14:29:08Z</time>
      </trkpt>
      <trkpt lat="42.75049" lon="1.50431">
        <ele>1141</ele>
        <time>2019-04-27T14:29:09Z</time>
      </trkpt>
      <trkpt lat="42.75046" lon="1.50431">
        <ele>1142</ele>
        <time>2019-04-27T14:29:10Z</time>
      </trkpt>
      <trkpt lat="42.75043" lon="1.50431">
        <ele>1142</ele>
        <time>2019-04-27T14:29:11Z</time>
      </trkpt>
      <trkpt lat="42.7504" lon="1.50432">
        <ele>1142</ele>
        <time>2019-04-27T14:29:12Z</time>
      </trkpt>
      <trkpt lat="42.75037" lon="1.50433">
        <ele>1142</ele>
        <time>2019-04-27T14:29:13Z</time>
      </trkpt>
      <trkpt lat="42.75034" lon="1.50434">
        <ele>1142</ele>
        <time>2019-04-27T14:29:14Z</time>
      </trkpt>
      <trkpt lat="42.7503" lon="1.50434">
        <ele>1143</ele>
        <time>2019-04-27T14:29:15Z</time>
      </trkpt>
      <trkpt lat="42.75027" lon="1.50435">
        <ele>1143</ele>
        <time>2019-04-27T14:29:16Z</time>
      </trkpt>
      <trkpt lat="42.75025" lon="1.50436">
        <ele>1144</ele>
        <time>2019-04-27T14:29:17Z</time>
      </trkpt>
      <trkpt lat="42.75022" lon="1.50438">
        <ele>1144</ele>
        <time>2019-04-27T14:29:18Z</time>
      </trkpt>
      <trkpt lat="42.7502" lon="1.50439">
        <ele>1144</ele>
        <time>2019-04-27T14:29:19Z</time>
      </trkpt>
      <trkpt lat="42.75017" lon="1.50441">
        <ele>1144</ele>
        <time>2019-04-27T14:29:20Z</time>
      </trkpt>
      <trkpt lat="42.75015" lon="1.50444">
        <ele>1144</ele>
        <time>2019-04-27T14:29:21Z</time>
      </trkpt>
      <trkpt lat="42.75013" lon="1.50447">
        <ele>1144</ele>
        <time>2019-04-27T14:29:22Z</time>
      </trkpt>
      <trkpt lat="42.75012" lon="1.50452">
        <ele>1144</ele>
        <time>2019-04-27T14:29:23Z</time>
      </trkpt>
      <trkpt lat="42.75012" lon="1.50456">
        <ele>1144</ele>
        <time>2019-04-27T14:29:24Z</time>
      </trkpt>
      <trkpt lat="42.75014" lon="1.50459">
        <ele>1145</ele>
        <time>2019-04-27T14:29:25Z</time>
      </trkpt>
      <trkpt lat="42.75015" lon="1.50463">
        <ele>1145</ele>
        <time>2019-04-27T14:29:26Z</time>
      </trkpt>
      <trkpt lat="42.75018" lon="1.50466">
        <ele>1145</ele>
        <time>2019-04-27T14:29:27Z</time>
      </trkpt>
      <trkpt lat="42.75021" lon="1.50467">
        <ele>1145</ele>
        <time>2019-04-27T14:29:28Z</time>
      </trkpt>
      <trkpt lat="42.75025" lon="1.50468">
        <ele>1145</ele>
        <time>2019-04-27T14:29:29Z</time>
      </trkpt>
      <trkpt lat="42.75028" lon="1.50469">
        <ele>1146</ele>
        <time>2019-04-27T14:29:30Z</time>
      </trkpt>
      <trkpt lat="42.75031" lon="1.50468">
        <ele>1147</ele>
        <time>2019-04-27T14:29:31Z</time>
      </trkpt>
      <trkpt lat="42.75035" lon="1.50468">
        <ele>1147</ele>
        <time>2019-04-27T14:29:32Z</time>
      </trkpt>
      <trkpt lat="42.75038" lon="1.50468">
        <ele>1148</ele>
        <time>2019-04-27T14:29:33Z</time>
      </trkpt>
      <trkpt lat="42.75042" lon="1.50468">
        <ele>1148</ele>
        <time>2019-04-27T14:29:34Z</time>
      </trkpt>
      <trkpt lat="42.75045" lon="1.50468">
        <ele>1148</ele>
        <time>2019-04-27T14:29:35Z</time>
      </trkpt>
      <trkpt lat="42.75049" lon="1.50468">
        <ele>1148</ele>
        <time>2019-04-27T14:29:36Z</time>
      </trkpt>
      <trkpt lat="42.75052" lon="1.50468">
        <ele>1148</ele>
        <time>2019-04-27T14:29:37Z</time>
      </trkpt>
      <trkpt lat="42.75055" lon="1.50467">
        <ele>1149</ele>
        <time>2019-04-27T14:29:38Z</time>
      </trkpt>
      <trkpt lat="42.75058" lon="1.50467">
        <ele>1149</ele>
        <time>2019-04-27T14:29:39Z</time>
      </trkpt>
      <trkpt lat="42.75062" lon="1.50467">
        <ele>1149</ele>
        <time>2019-04-27T14:29:40Z</time>
      </trkpt>
      <trkpt lat="42.75065" lon="1.50468">
        <ele>1149</ele>
        <time>2019-04-27T14:29:41Z</time>
      </trkpt>
      <trkpt lat="42.75068" lon="1.50469">
        <ele>1149</ele>
        <time>2019-04-27T14:29:42Z</time>
      </trkpt>
      <trkpt lat="42.75071" lon="1.50469">
        <ele>1150</ele>
        <time>2019-04-27T14:29:43Z</time>
      </trkpt>
      <trkpt lat="42.75074" lon="1.50469">
        <ele>1150</ele>
        <time>2019-04-27T14:29:44Z</time>
      </trkpt>
      <trkpt lat="42.75077" lon="1.5047">
        <ele>1150</ele>
        <time>2019-04-27T14:29:45Z</time>
      </trkpt>
      <trkpt lat="42.75104" lon="1.5048">
        <ele>1153</ele>
        <time>2019-04-27T14:29:54Z</time>
      </trkpt>
      <trkpt lat="42.75107" lon="1.50482">
        <ele>1154</ele>
        <time>2019-04-27T14:29:55Z</time>
      </trkpt>
      <trkpt lat="42.7511" lon="1.50483">
        <ele>1155</ele>
        <time>2019-04-27T14:29:56Z</time>
      </trkpt>
      <trkpt lat="42.75113" lon="1.50484">
        <ele>1155</ele>
        <time>2019-04-27T14:29:57Z</time>
      </trkpt>
      <trkpt lat="42.75117" lon="1.50485">
        <ele>1155</ele>
        <time>2019-04-27T14:29:58Z</time>
      </trkpt>
      <trkpt lat="42.7512" lon="1.50487">
        <ele>1155</ele>
        <time>2019-04-27T14:29:59Z</time>
      </trkpt>
      <trkpt lat="42.75123" lon="1.50489">
        <ele>1156</ele>
        <time>2019-04-27T14:30:00Z</time>
      </trkpt>
      <trkpt lat="42.75126" lon="1.50491">
        <ele>1156</ele>
        <time>2019-04-27T14:30:01Z</time>
      </trkpt>
      <trkpt lat="42.75129" lon="1.50492">
        <ele>1156</ele>
        <time>2019-04-27T14:30:02Z</time>
      </trkpt>
      <trkpt lat="42.75132" lon="1.50493">
        <ele>1157</ele>
        <time>2019-04-27T14:30:03Z</time>
      </trkpt>
      <trkpt lat="42.75136" lon="1.50493">
        <ele>1157</ele>
        <time>2019-04-27T14:30:04Z</time>
      </trkpt>
      <trkpt lat="42.75139" lon="1.50495">
        <ele>1157</ele>
        <time>2019-04-27T14:30:05Z</time>
      </trkpt>
      <trkpt lat="42.75142" lon="1.50496">
        <ele>1157</ele>
        <time>2019-04-27T14:30:06Z</time>
      </trkpt>
      <trkpt lat="42.75145" lon="1.50498">
        <ele>1157</ele>
        <time>2019-04-27T14:30:07Z</time>
      </trkpt>
      <trkpt lat="42.75148" lon="1.50499">
        <ele>1157</ele>
        <time>2019-04-27T14:30:08Z</time>
      </trkpt>
      <trkpt lat="42.75151" lon="1.505">
        <ele>1158</ele>
        <time>2019-04-27T14:30:09Z</time>
      </trkpt>
      <trkpt lat="42.75154" lon="1.50502">
        <ele>1159</ele>
        <time>2019-04-27T14:30:10Z</time>
      </trkpt>
      <trkpt lat="42.75157" lon="1.50503">
        <ele>1159</ele>
        <time>2019-04-27T14:30:11Z</time>
      </trkpt>
      <trkpt lat="42.75159" lon="1.50505">
        <ele>1159</ele>
        <time>2019-04-27T14:30:12Z</time>
      </trkpt>
      <trkpt lat="42.75162" lon="1.50506">
        <ele>1159</ele>
        <time>2019-04-27T14:30:13Z</time>
      </trkpt>
      <trkpt lat="42.75165" lon="1.50508">
        <ele>1159</ele>
        <time>2019-04-27T14:30:14Z</time>
      </trkpt>
      <trkpt lat="42.75168" lon="1.50509">
        <ele>1159</ele>
        <time>2019-04-27T14:30:15Z</time>
      </trkpt>
      <trkpt lat="42.7517" lon="1.50511">
        <ele>1160</ele>
        <time>2019-04-27T14:30:16Z</time>
      </trkpt>
      <trkpt lat="42.75173" lon="1.50512">
        <ele>1160</ele>
        <time>2019-04-27T14:30:17Z</time>
      </trkpt>
      <trkpt lat="42.75177" lon="1.50514">
        <ele>1161</ele>
        <time>2019-04-27T14:30:18Z</time>
      </trkpt>
      <trkpt lat="42.75179" lon="1.50516">
        <ele>1161</ele>
        <time>2019-04-27T14:30:19Z</time>
      </trkpt>
      <trkpt lat="42.75182" lon="1.50517">
        <ele>1161</ele>
        <time>2019-04-27T14:30:20Z</time>
      </trkpt>
      <trkpt lat="42.75185" lon="1.5052">
        <ele>1161</ele>
        <time>2019-04-27T14:30:21Z</time>
      </trkpt>
      <trkpt lat="42.75187" lon="1.50522">
        <ele>1161</ele>
        <time>2019-04-27T14:30:22Z</time>
      </trkpt>
      <trkpt lat="42.7519" lon="1.50525">
        <ele>1161</ele>
        <time>2019-04-27T14:30:23Z</time>
      </trkpt>
      <trkpt lat="42.75193" lon="1.50527">
        <ele>1162</ele>
        <time>2019-04-27T14:30:24Z</time>
      </trkpt>
      <trkpt lat="42.75196" lon="1.50528">
        <ele>1162</ele>
        <time>2019-04-27T14:30:25Z</time>
      </trkpt>
      <trkpt lat="42.75199" lon="1.5053">
        <ele>1163</ele>
        <time>2019-04-27T14:30:26Z</time>
      </trkpt>
      <trkpt lat="42.75201" lon="1.50532">
        <ele>1163</ele>
        <time>2019-04-27T14:30:27Z</time>
      </trkpt>
      <trkpt lat="42.75204" lon="1.50533">
        <ele>1163</ele>
        <time>2019-04-27T14:30:28Z</time>
      </trkpt>
      <trkpt lat="42.75207" lon="1.50535">
        <ele>1164</ele>
        <time>2019-04-27T14:30:29Z</time>
      </trkpt>
      <trkpt lat="42.7521" lon="1.50536">
        <ele>1164</ele>
        <time>2019-04-27T14:30:30Z</time>
      </trkpt>
      <trkpt lat="42.75213" lon="1.50537">
        <ele>1164</ele>
        <time>2019-04-27T14:30:31Z</time>
      </trkpt>
      <trkpt lat="42.75215" lon="1.5054">
        <ele>1164</ele>
        <time>2019-04-27T14:30:32Z</time>
      </trkpt>
      <trkpt lat="42.75218" lon="1.50541">
        <ele>1164</ele>
        <time>2019-04-27T14:30:33Z</time>
      </trkpt>
      <trkpt lat="42.7522" lon="1.50544">
        <ele>1165</ele>
        <time>2019-04-27T14:30:34Z</time>
      </trkpt>
      <trkpt lat="42.75223" lon="1.50546">
        <ele>1165</ele>
        <time>2019-04-27T14:30:35Z</time>
      </trkpt>
      <trkpt lat="42.75226" lon="1.50548">
        <ele>1165</ele>
        <time>2019-04-27T14:30:36Z</time>
      </trkpt>
      <trkpt lat="42.75228" lon="1.50551">
        <ele>1165</ele>
        <time>2019-04-27T14:30:37Z</time>
      </trkpt>
      <trkpt lat="42.75231" lon="1.50553">
        <ele>1165</ele>
        <time>2019-04-27T14:30:38Z</time>
      </trkpt>
      <trkpt lat="42.75234" lon="1.50555">
        <ele>1165</ele>
        <time>2019-04-27T14:30:39Z</time>
      </trkpt>
      <trkpt lat="42.75236" lon="1.50558">
        <ele>1166</ele>
        <time>2019-04-27T14:30:40Z</time>
      </trkpt>
      <trkpt lat="42.7524" lon="1.50561">
        <ele>1166</ele>
        <time>2019-04-27T14:30:41Z</time>
      </trkpt>
      <trkpt lat="42.75243" lon="1.50563">
        <ele>1166</ele>
        <time>2019-04-27T14:30:42Z</time>
      </trkpt>
      <trkpt lat="42.75246" lon="1.50565">
        <ele>1166</ele>
        <time>2019-04-27T14:30:43Z</time>
      </trkpt>
      <trkpt lat="42.75248" lon="1.50568">
        <ele>1166</ele>
        <time>2019-04-27T14:30:44Z</time>
      </trkpt>
      <trkpt lat="42.75251" lon="1.50571">
        <ele>1166</ele>
        <time>2019-04-27T14:30:45Z</time>
      </trkpt>
      <trkpt lat="42.75253" lon="1.50573">
        <ele>1167</ele>
        <time>2019-04-27T14:30:46Z</time>
      </trkpt>
      <trkpt lat="42.75255" lon="1.50576">
        <ele>1168</ele>
        <time>2019-04-27T14:30:47Z</time>
      </trkpt>
      <trkpt lat="42.75257" lon="1.50579">
        <ele>1168</ele>
        <time>2019-04-27T14:30:48Z</time>
      </trkpt>
      <trkpt lat="42.7526" lon="1.50582">
        <ele>1168</ele>
        <time>2019-04-27T14:30:49Z</time>
      </trkpt>
      <trkpt lat="42.75263" lon="1.50584">
        <ele>1168</ele>
        <time>2019-04-27T14:30:50Z</time>
      </trkpt>
      <trkpt lat="42.75266" lon="1.50586">
        <ele>1169</ele>
        <time>2019-04-27T14:30:51Z</time>
      </trkpt>
      <trkpt lat="42.75268" lon="1.50588">
        <ele>1169</ele>
        <time>2019-04-27T14:30:52Z</time>
      </trkpt>
      <trkpt lat="42.75269" lon="1.50591">
        <ele>1169</ele>
        <time>2019-04-27T14:30:53Z</time>
      </trkpt>
      <trkpt lat="42.75272" lon="1.50594">
        <ele>1169</ele>
        <time>2019-04-27T14:30:54Z</time>
      </trkpt>
      <trkpt lat="42.75275" lon="1.50596">
        <ele>1169</ele>
        <time>2019-04-27T14:30:55Z</time>
      </trkpt>
      <trkpt lat="42.75277" lon="1.50599">
        <ele>1169</ele>
        <time>2019-04-27T14:30:56Z</time>
      </trkpt>
      <trkpt lat="42.7528" lon="1.50602">
        <ele>1170</ele>
        <time>2019-04-27T14:30:57Z</time>
      </trkpt>
      <trkpt lat="42.75283" lon="1.50604">
        <ele>1170</ele>
        <time>2019-04-27T14:30:58Z</time>
      </trkpt>
      <trkpt lat="42.75285" lon="1.50607">
        <ele>1170</ele>
        <time>2019-04-27T14:30:59Z</time>
      </trkpt>
      <trkpt lat="42.75288" lon="1.5061">
        <ele>1170</ele>
        <time>2019-04-27T14:31:00Z</time>
      </trkpt>
      <trkpt lat="42.75291" lon="1.50613">
        <ele>1170</ele>
        <time>2019-04-27T14:31:01Z</time>
      </trkpt>
      <trkpt lat="42.75293" lon="1.50616">
        <ele>1171</ele>
        <time>2019-04-27T14:31:02Z</time>
      </trkpt>
      <trkpt lat="42.75297" lon="1.50618">
        <ele>1171</ele>
        <time>2019-04-27T14:31:03Z</time>
      </trkpt>
      <trkpt lat="42.753" lon="1.50621">
        <ele>1172</ele>
        <time>2019-04-27T14:31:04Z</time>
      </trkpt>
      <trkpt lat="42.75303" lon="1.50624">
        <ele>1172</ele>
        <time>2019-04-27T14:31:05Z</time>
      </trkpt>
      <trkpt lat="42.75305" lon="1.50627">
        <ele>1172</ele>
        <time>2019-04-27T14:31:06Z</time>
      </trkpt>
      <trkpt lat="42.75307" lon="1.5063">
        <ele>1172</ele>
        <time>2019-04-27T14:31:07Z</time>
      </trkpt>
      <trkpt lat="42.75309" lon="1.50634">
        <ele>1172</ele>
        <time>2019-04-27T14:31:08Z</time>
      </trkpt>
      <trkpt lat="42.75313" lon="1.50637">
        <ele>1173</ele>
        <time>2019-04-27T14:31:09Z</time>
      </trkpt>
      <trkpt lat="42.75316" lon="1.50639">
        <ele>1173</ele>
        <time>2019-04-27T14:31:10Z</time>
      </trkpt>
      <trkpt lat="42.75318" lon="1.5064">
        <ele>1173</ele>
        <time>2019-04-27T14:31:11Z</time>
      </trkpt>
      <trkpt lat="42.75321" lon="1.50643">
        <ele>1173</ele>
        <time>2019-04-27T14:31:12Z</time>
      </trkpt>
      <trkpt lat="42.75324" lon="1.50645">
        <ele>1173</ele>
        <time>2019-04-27T14:31:13Z</time>
      </trkpt>
      <trkpt lat="42.75327" lon="1.50649">
        <ele>1173</ele>
        <time>2019-04-27T14:31:14Z</time>
      </trkpt>
      <trkpt lat="42.7533" lon="1.50652">
        <ele>1174</ele>
        <time>2019-04-27T14:31:15Z</time>
      </trkpt>
      <trkpt lat="42.75333" lon="1.50654">
        <ele>1175</ele>
        <time>2019-04-27T14:31:16Z</time>
      </trkpt>
      <trkpt lat="42.75335" lon="1.50657">
        <ele>1175</ele>
        <time>2019-04-27T14:31:17Z</time>
      </trkpt>
      <trkpt lat="42.75337" lon="1.50659">
        <ele>1175</ele>
        <time>2019-04-27T14:31:18Z</time>
      </trkpt>
      <trkpt lat="42.7534" lon="1.50662">
        <ele>1175</ele>
        <time>2019-04-27T14:31:19Z</time>
      </trkpt>
      <trkpt lat="42.75341" lon="1.50665">
        <ele>1175</ele>
        <time>2019-04-27T14:31:20Z</time>
      </trkpt>
      <trkpt lat="42.75344" lon="1.50669">
        <ele>1176</ele>
        <time>2019-04-27T14:31:21Z</time>
      </trkpt>
      <trkpt lat="42.75346" lon="1.50672">
        <ele>1176</ele>
        <time>2019-04-27T14:31:22Z</time>
      </trkpt>
      <trkpt lat="42.75348" lon="1.50675">
        <ele>1176</ele>
        <time>2019-04-27T14:31:23Z</time>
      </trkpt>
      <trkpt lat="42.75351" lon="1.50679">
        <ele>1177</ele>
        <time>2019-04-27T14:31:24Z</time>
      </trkpt>
      <trkpt lat="42.75353" lon="1.50681">
        <ele>1177</ele>
        <time>2019-04-27T14:31:25Z</time>
      </trkpt>
      <trkpt lat="42.75356" lon="1.50684">
        <ele>1177</ele>
        <time>2019-04-27T14:31:26Z</time>
      </trkpt>
      <trkpt lat="42.75358" lon="1.50687">
        <ele>1177</ele>
        <time>2019-04-27T14:31:27Z</time>
      </trkpt>
      <trkpt lat="42.75359" lon="1.5069">
        <ele>1178</ele>
        <time>2019-04-27T14:31:28Z</time>
      </trkpt>
      <trkpt lat="42.75363" lon="1.50692">
        <ele>1178</ele>
        <time>2019-04-27T14:31:29Z</time>
      </trkpt>
      <trkpt lat="42.75365" lon="1.50694">
        <ele>1178</ele>
        <time>2019-04-27T14:31:30Z</time>
      </trkpt>
      <trkpt lat="42.75368" lon="1.50695">
        <ele>1179</ele>
        <time>2019-04-27T14:31:31Z</time>
      </trkpt>
      <trkpt lat="42.75371" lon="1.50698">
        <ele>1179</ele>
        <time>2019-04-27T14:31:32Z</time>
      </trkpt>
      <trkpt lat="42.75373" lon="1.50701">
        <ele>1179</ele>
        <time>2019-04-27T14:31:33Z</time>
      </trkpt>
      <trkpt lat="42.75375" lon="1.50704">
        <ele>1180</ele>
        <time>2019-04-27T14:31:34Z</time>
      </trkpt>
      <trkpt lat="42.75377" lon="1.50706">
        <ele>1180</ele>
        <time>2019-04-27T14:31:35Z</time>
      </trkpt>
      <trkpt lat="42.75379" lon="1.50708">
        <ele>1180</ele>
        <time>2019-04-27T14:31:36Z</time>
      </trkpt>
      <trkpt lat="42.75381" lon="1.5071">
        <ele>1180</ele>
        <time>2019-04-27T14:31:37Z</time>
      </trkpt>
      <trkpt lat="42.75382" lon="1.50712">
        <ele>1181</ele>
        <time>2019-04-27T14:31:38Z</time>
      </trkpt>
      <trkpt lat="42.75386" lon="1.50713">
        <ele>1181</ele>
        <time>2019-04-27T14:31:39Z</time>
      </trkpt>
      <trkpt lat="42.7539" lon="1.50715">
        <ele>1181</ele>
        <time>2019-04-27T14:31:40Z</time>
      </trkpt>
      <trkpt lat="42.75393" lon="1.50716">
        <ele>1181</ele>
        <time>2019-04-27T14:31:41Z</time>
      </trkpt>
      <trkpt lat="42.75397" lon="1.50717">
        <ele>1182</ele>
        <time>2019-04-27T14:31:42Z</time>
      </trkpt>
      <trkpt lat="42.754" lon="1.50718">
        <ele>1182</ele>
        <time>2019-04-27T14:31:43Z</time>
      </trkpt>
      <trkpt lat="42.75404" lon="1.50719">
        <ele>1182</ele>
        <time>2019-04-27T14:31:44Z</time>
      </trkpt>
      <trkpt lat="42.75406" lon="1.5072">
        <ele>1182</ele>
        <time>2019-04-27T14:31:45Z</time>
      </trkpt>
      <trkpt lat="42.7541" lon="1.50721">
        <ele>1182</ele>
        <time>2019-04-27T14:31:46Z</time>
      </trkpt>
      <trkpt lat="42.75414" lon="1.50722">
        <ele>1183</ele>
        <time>2019-04-27T14:31:47Z</time>
      </trkpt>
      <trkpt lat="42.75416" lon="1.50722">
        <ele>1183</ele>
        <time>2019-04-27T14:31:48Z</time>
      </trkpt>
      <trkpt lat="42.75419" lon="1.50723">
        <ele>1183</ele>
        <time>2019-04-27T14:31:49Z</time>
      </trkpt>
      <trkpt lat="42.75422" lon="1.50724">
        <ele>1183</ele>
        <time>2019-04-27T14:31:50Z</time>
      </trkpt>
      <trkpt lat="42.75425" lon="1.50726">
        <ele>1183</ele>
        <time>2019-04-27T14:31:51Z</time>
      </trkpt>
      <trkpt lat="42.75429" lon="1.50726">
        <ele>1183</ele>
        <time>2019-04-27T14:31:52Z</time>
      </trkpt>
      <trkpt lat="42.75433" lon="1.50726">
        <ele>1184</ele>
        <time>2019-04-27T14:31:53Z</time>
      </trkpt>
      <trkpt lat="42.75436" lon="1.50727">
        <ele>1185</ele>
        <time>2019-04-27T14:31:54Z</time>
      </trkpt>
      <trkpt lat="42.75439" lon="1.50728">
        <ele>1185</ele>
        <time>2019-04-27T14:31:55Z</time>
      </trkpt>
      <trkpt lat="42.75443" lon="1.50728">
        <ele>1185</ele>
        <time>2019-04-27T14:31:56Z</time>
      </trkpt>
      <trkpt lat="42.75447" lon="1.50728">
        <ele>1185</ele>
        <time>2019-04-27T14:31:57Z</time>
      </trkpt>
      <trkpt lat="42.75451" lon="1.50728">
        <ele>1185</ele>
        <time>2019-04-27T14:31:58Z</time>
      </trkpt>
      <trkpt lat="42.75455" lon="1.50728">
        <ele>1186</ele>
        <time>2019-04-27T14:31:59Z</time>
      </trkpt>
      <trkpt lat="42.75459" lon="1.50728">
        <ele>1186</ele>
        <time>2019-04-27T14:32:00Z</time>
      </trkpt>
      <trkpt lat="42.75463" lon="1.50728">
        <ele>1186</ele>
        <time>2019-04-27T14:32:01Z</time>
      </trkpt>
      <trkpt lat="42.75467" lon="1.50728">
        <ele>1186</ele>
        <time>2019-04-27T14:32:02Z</time>
      </trkpt>
      <trkpt lat="42.7547" lon="1.50729">
        <ele>1186</ele>
        <time>2019-04-27T14:32:03Z</time>
      </trkpt>
      <trkpt lat="42.75473" lon="1.5073">
        <ele>1186</ele>
        <time>2019-04-27T14:32:04Z</time>
      </trkpt>
      <trkpt lat="42.75476" lon="1.50729">
        <ele>1186</ele>
        <time>2019-04-27T14:32:05Z</time>
      </trkpt>
      <trkpt lat="42.7548" lon="1.50729">
        <ele>1186</ele>
        <time>2019-04-27T14:32:06Z</time>
      </trkpt>
      <trkpt lat="42.75514" lon="1.50738">
        <ele>1189</ele>
        <time>2019-04-27T14:32:16Z</time>
      </trkpt>
      <trkpt lat="42.75517" lon="1.50739">
        <ele>1190</ele>
        <time>2019-04-27T14:32:17Z</time>
      </trkpt>
      <trkpt lat="42.7552" lon="1.50742">
        <ele>1191</ele>
        <time>2019-04-27T14:32:18Z</time>
      </trkpt>
      <trkpt lat="42.75523" lon="1.50744">
        <ele>1191</ele>
        <time>2019-04-27T14:32:19Z</time>
      </trkpt>
      <trkpt lat="42.75526" lon="1.50745">
        <ele>1191</ele>
        <time>2019-04-27T14:32:20Z</time>
      </trkpt>
      <trkpt lat="42.75529" lon="1.50747">
        <ele>1191</ele>
        <time>2019-04-27T14:32:21Z</time>
      </trkpt>
      <trkpt lat="42.75532" lon="1.5075">
        <ele>1191</ele>
        <time>2019-04-27T14:32:22Z</time>
      </trkpt>
      <trkpt lat="42.75534" lon="1.50753">
        <ele>1192</ele>
        <time>2019-04-27T14:32:23Z</time>
      </trkpt>
      <trkpt lat="42.75536" lon="1.50756">
        <ele>1192</ele>
        <time>2019-04-27T14:32:24Z</time>
      </trkpt>
      <trkpt lat="42.75539" lon="1.50757">
        <ele>1193</ele>
        <time>2019-04-27T14:32:25Z</time>
      </trkpt>
      <trkpt lat="42.75542" lon="1.50759">
        <ele>1193</ele>
        <time>2019-04-27T14:32:26Z</time>
      </trkpt>
      <trkpt lat="42.75545" lon="1.5076">
        <ele>1193</ele>
        <time>2019-04-27T14:32:27Z</time>
      </trkpt>
      <trkpt lat="42.75548" lon="1.5076">
        <ele>1193</ele>
        <time>2019-04-27T14:32:28Z</time>
      </trkpt>
      <trkpt lat="42.75551" lon="1.5076">
        <ele>1194</ele>
        <time>2019-04-27T14:32:29Z</time>
      </trkpt>
      <trkpt lat="42.75554" lon="1.50761">
        <ele>1194</ele>
        <time>2019-04-27T14:32:30Z</time>
      </trkpt>
      <trkpt lat="42.75557" lon="1.50761">
        <ele>1195</ele>
        <time>2019-04-27T14:32:31Z</time>
      </trkpt>
      <trkpt lat="42.7556" lon="1.50761">
        <ele>1195</ele>
        <time>2019-04-27T14:32:32Z</time>
      </trkpt>
      <trkpt lat="42.75563" lon="1.50762">
        <ele>1195</ele>
        <time>2019-04-27T14:32:33Z</time>
      </trkpt>
      <trkpt lat="42.75567" lon="1.50761">
        <ele>1195</ele>
        <time>2019-04-27T14:32:34Z</time>
      </trkpt>
      <trkpt lat="42.75571" lon="1.50761">
        <ele>1196</ele>
        <time>2019-04-27T14:32:35Z</time>
      </trkpt>
      <trkpt lat="42.75574" lon="1.50762">
        <ele>1196</ele>
        <time>2019-04-27T14:32:36Z</time>
      </trkpt>
      <trkpt lat="42.75578" lon="1.50762">
        <ele>1196</ele>
        <time>2019-04-27T14:32:37Z</time>
      </trkpt>
      <trkpt lat="42.75581" lon="1.50761">
        <ele>1197</ele>
        <time>2019-04-27T14:32:38Z</time>
      </trkpt>
      <trkpt lat="42.75584" lon="1.50761">
        <ele>1197</ele>
        <time>2019-04-27T14:32:39Z</time>
      </trkpt>
      <trkpt lat="42.75588" lon="1.50761">
        <ele>1197</ele>
        <time>2019-04-27T14:32:40Z</time>
      </trkpt>
      <trkpt lat="42.75591" lon="1.50761">
        <ele>1197</ele>
        <time>2019-04-27T14:32:41Z</time>
      </trkpt>
      <trkpt lat="42.75594" lon="1.50761">
        <ele>1197</ele>
        <time>2019-04-27T14:32:42Z</time>
      </trkpt>
      <trkpt lat="42.75597" lon="1.50762">
        <ele>1198</ele>
        <time>2019-04-27T14:32:43Z</time>
      </trkpt>
      <trkpt lat="42.756" lon="1.50762">
        <ele>1198</ele>
        <time>2019-04-27T14:32:44Z</time>
      </trkpt>
      <trkpt lat="42.75603" lon="1.50762">
        <ele>1198</ele>
        <time>2019-04-27T14:32:45Z</time>
      </trkpt>
      <trkpt lat="42.75607" lon="1.50761">
        <ele>1198</ele>
        <time>2019-04-27T14:32:46Z</time>
      </trkpt>
      <trkpt lat="42.7561" lon="1.50761">
        <ele>1198</ele>
        <time>2019-04-27T14:32:47Z</time>
      </trkpt>
      <trkpt lat="42.75613" lon="1.50761">
        <ele>1199</ele>
        <time>2019-04-27T14:32:48Z</time>
      </trkpt>
      <trkpt lat="42.75616" lon="1.50761">
        <ele>1200</ele>
        <time>2019-04-27T14:32:49Z</time>
      </trkpt>
      <trkpt lat="42.75619" lon="1.50761">
        <ele>1200</ele>
        <time>2019-04-27T14:32:50Z</time>
      </trkpt>
      <trkpt lat="42.75623" lon="1.5076">
        <ele>1200</ele>
        <time>2019-04-27T14:32:51Z</time>
      </trkpt>
      <trkpt lat="42.75626" lon="1.50759">
        <ele>1200</ele>
        <time>2019-04-27T14:32:52Z</time>
      </trkpt>
      <trkpt lat="42.75629" lon="1.50758">
        <ele>1200</ele>
        <time>2019-04-27T14:32:53Z</time>
      </trkpt>
      <trkpt lat="42.75633" lon="1.50757">
        <ele>1201</ele>
        <time>2019-04-27T14:32:54Z</time>
      </trkpt>
      <trkpt lat="42.75636" lon="1.50756">
        <ele>1201</ele>
        <time>2019-04-27T14:32:55Z</time>
      </trkpt>
      <trkpt lat="42.7564" lon="1.50755">
        <ele>1201</ele>
        <time>2019-04-27T14:32:56Z</time>
      </trkpt>
      <trkpt lat="42.75642" lon="1.50754">
        <ele>1201</ele>
        <time>2019-04-27T14:32:57Z</time>
      </trkpt>
      <trkpt lat="42.75645" lon="1.50753">
        <ele>1202</ele>
        <time>2019-04-27T14:32:58Z</time>
      </trkpt>
      <trkpt lat="42.75648" lon="1.50752">
        <ele>1202</ele>
        <time>2019-04-27T14:32:59Z</time>
      </trkpt>
      <trkpt lat="42.75652" lon="1.50752">
        <ele>1203</ele>
        <time>2019-04-27T14:33:00Z</time>
      </trkpt>
      <trkpt lat="42.75655" lon="1.50751">
        <ele>1203</ele>
        <time>2019-04-27T14:33:01Z</time>
      </trkpt>
      <trkpt lat="42.75657" lon="1.50749">
        <ele>1203</ele>
        <time>2019-04-27T14:33:02Z</time>
      </trkpt>
      <trkpt lat="42.7566" lon="1.50747">
        <ele>1203</ele>
        <time>2019-04-27T14:33:03Z</time>
      </trkpt>
      <trkpt lat="42.75663" lon="1.50745">
        <ele>1204</ele>
        <time>2019-04-27T14:33:04Z</time>
      </trkpt>
      <trkpt lat="42.75666" lon="1.50744">
        <ele>1204</ele>
        <time>2019-04-27T14:33:05Z</time>
      </trkpt>
      <trkpt lat="42.75669" lon="1.50743">
        <ele>1205</ele>
        <time>2019-04-27T14:33:06Z</time>
      </trkpt>
      <trkpt lat="42.75672" lon="1.50742">
        <ele>1205</ele>
        <time>2019-04-27T14:33:07Z</time>
      </trkpt>
      <trkpt lat="42.75675" lon="1.50741">
        <ele>1205</ele>
        <time>2019-04-27T14:33:08Z</time>
      </trkpt>
      <trkpt lat="42.75678" lon="1.50738">
        <ele>1205</ele>
        <time>2019-04-27T14:33:09Z</time>
      </trkpt>
      <trkpt lat="42.7568" lon="1.50737">
        <ele>1205</ele>
        <time>2019-04-27T14:33:10Z</time>
      </trkpt>
      <trkpt lat="42.75683" lon="1.50737">
        <ele>1206</ele>
        <time>2019-04-27T14:33:11Z</time>
      </trkpt>
      <trkpt lat="42.75686" lon="1.50736">
        <ele>1206</ele>
        <time>2019-04-27T14:33:12Z</time>
      </trkpt>
      <trkpt lat="42.75689" lon="1.50735">
        <ele>1206</ele>
        <time>2019-04-27T14:33:13Z</time>
      </trkpt>
      <trkpt lat="42.75692" lon="1.50733">
        <ele>1206</ele>
        <time>2019-04-27T14:33:14Z</time>
      </trkpt>
      <trkpt lat="42.75695" lon="1.50732">
        <ele>1206</ele>
        <time>2019-04-27T14:33:15Z</time>
      </trkpt>
      <trkpt lat="42.75698" lon="1.5073">
        <ele>1207</ele>
        <time>2019-04-27T14:33:16Z</time>
      </trkpt>
      <trkpt lat="42.75702" lon="1.50729">
        <ele>1207</ele>
        <time>2019-04-27T14:33:17Z</time>
      </trkpt>
      <trkpt lat="42.75705" lon="1.50728">
        <ele>1207</ele>
        <time>2019-04-27T14:33:18Z</time>
      </trkpt>
      <trkpt lat="42.75708" lon="1.50727">
        <ele>1207</ele>
        <time>2019-04-27T14:33:19Z</time>
      </trkpt>
      <trkpt lat="42.75711" lon="1.50725">
        <ele>1208</ele>
        <time>2019-04-27T14:33:20Z</time>
      </trkpt>
      <trkpt lat="42.75714" lon="1.50723">
        <ele>1208</ele>
        <time>2019-04-27T14:33:21Z</time>
      </trkpt>
      <trkpt lat="42.75716" lon="1.50722">
        <ele>1209</ele>
        <time>2019-04-27T14:33:22Z</time>
      </trkpt>
      <trkpt lat="42.75719" lon="1.50721">
        <ele>1209</ele>
        <time>2019-04-27T14:33:23Z</time>
      </trkpt>
      <trkpt lat="42.75722" lon="1.50719">
        <ele>1209</ele>
        <time>2019-04-27T14:33:24Z</time>
      </trkpt>
      <trkpt lat="42.75724" lon="1.50718">
        <ele>1209</ele>
        <time>2019-04-27T14:33:25Z</time>
      </trkpt>
      <trkpt lat="42.75726" lon="1.50717">
        <ele>1209</ele>
        <time>2019-04-27T14:33:26Z</time>
      </trkpt>
      <trkpt lat="42.75729" lon="1.50715">
        <ele>1210</ele>
        <time>2019-04-27T14:33:27Z</time>
      </trkpt>
      <trkpt lat="42.75732" lon="1.50713">
        <ele>1211</ele>
        <time>2019-04-27T14:33:28Z</time>
      </trkpt>
      <trkpt lat="42.75735" lon="1.50712">
        <ele>1211</ele>
        <time>2019-04-27T14:33:29Z</time>
      </trkpt>
      <trkpt lat="42.75738" lon="1.50709">
        <ele>1212</ele>
        <time>2019-04-27T14:33:30Z</time>
      </trkpt>
      <trkpt lat="42.7574" lon="1.50707">
        <ele>1212</ele>
        <time>2019-04-27T14:33:31Z</time>
      </trkpt>
      <trkpt lat="42.75743" lon="1.50705">
        <ele>1213</ele>
        <time>2019-04-27T14:33:32Z</time>
      </trkpt>
      <trkpt lat="42.75746" lon="1.50704">
        <ele>1213</ele>
        <time>2019-04-27T14:33:33Z</time>
      </trkpt>
      <trkpt lat="42.75749" lon="1.50702">
        <ele>1213</ele>
        <time>2019-04-27T14:33:34Z</time>
      </trkpt>
      <trkpt lat="42.75751" lon="1.50701">
        <ele>1213</ele>
        <time>2019-04-27T14:33:35Z</time>
      </trkpt>
      <trkpt lat="42.75754" lon="1.50698">
        <ele>1213</ele>
        <time>2019-04-27T14:33:36Z</time>
      </trkpt>
      <trkpt lat="42.75757" lon="1.50697">
        <ele>1214</ele>
        <time>2019-04-27T14:33:37Z</time>
      </trkpt>
      <trkpt lat="42.75759" lon="1.50696">
        <ele>1214</ele>
        <time>2019-04-27T14:33:38Z</time>
      </trkpt>
      <trkpt lat="42.75762" lon="1.50694">
        <ele>1214</ele>
        <time>2019-04-27T14:33:39Z</time>
      </trkpt>
      <trkpt lat="42.75765" lon="1.50692">
        <ele>1214</ele>
        <time>2019-04-27T14:33:40Z</time>
      </trkpt>
      <trkpt lat="42.75768" lon="1.5069">
        <ele>1215</ele>
        <time>2019-04-27T14:33:41Z</time>
      </trkpt>
      <trkpt lat="42.7577" lon="1.50688">
        <ele>1215</ele>
        <time>2019-04-27T14:33:42Z</time>
      </trkpt>
      <trkpt lat="42.75773" lon="1.50687">
        <ele>1215</ele>
        <time>2019-04-27T14:33:43Z</time>
      </trkpt>
      <trkpt lat="42.75776" lon="1.50685">
        <ele>1215</ele>
        <time>2019-04-27T14:33:44Z</time>
      </trkpt>
      <trkpt lat="42.75779" lon="1.50683">
        <ele>1216</ele>
        <time>2019-04-27T14:33:45Z</time>
      </trkpt>
      <trkpt lat="42.75782" lon="1.50681">
        <ele>1216</ele>
        <time>2019-04-27T14:33:46Z</time>
      </trkpt>
      <trkpt lat="42.75784" lon="1.50679">
        <ele>1217</ele>
        <time>2019-04-27T14:33:47Z</time>
      </trkpt>
      <trkpt lat="42.75787" lon="1.50678">
        <ele>1217</ele>
        <time>2019-04-27T14:33:48Z</time>
      </trkpt>
      <trkpt lat="42.7579" lon="1.50677">
        <ele>1217</ele>
        <time>2019-04-27T14:33:49Z</time>
      </trkpt>
      <trkpt lat="42.75793" lon="1.50674">
        <ele>1217</ele>
        <time>2019-04-27T14:33:50Z</time>
      </trkpt>
      <trkpt lat="42.75795" lon="1.50672">
        <ele>1217</ele>
        <time>2019-04-27T14:33:51Z</time>
      </trkpt>
      <trkpt lat="42.75798" lon="1.50671">
        <ele>1217</ele>
        <time>2019-04-27T14:33:52Z</time>
      </trkpt>
      <trkpt lat="42.75802" lon="1.50669">
        <ele>1218</ele>
        <time>2019-04-27T14:33:53Z</time>
      </trkpt>
      <trkpt lat="42.75805" lon="1.50667">
        <ele>1218</ele>
        <time>2019-04-27T14:33:54Z</time>
      </trkpt>
      <trkpt lat="42.75807" lon="1.50666">
        <ele>1219</ele>
        <time>2019-04-27T14:33:55Z</time>
      </trkpt>
      <trkpt lat="42.7581" lon="1.50664">
        <ele>1219</ele>
        <time>2019-04-27T14:33:56Z</time>
      </trkpt>
      <trkpt lat="42.75813" lon="1.50662">
        <ele>1219</ele>
        <time>2019-04-27T14:33:57Z</time>
      </trkpt>
      <trkpt lat="42.75816" lon="1.50661">
        <ele>1219</ele>
        <time>2019-04-27T14:33:58Z</time>
      </trkpt>
      <trkpt lat="42.75819" lon="1.5066">
        <ele>1219</ele>
        <time>2019-04-27T14:33:59Z</time>
      </trkpt>
      <trkpt lat="42.75822" lon="1.50658">
        <ele>1219</ele>
        <time>2019-04-27T14:34:00Z</time>
      </trkpt>
      <trkpt lat="42.75825" lon="1.50657">
        <ele>1219</ele>
        <time>2019-04-27T14:34:01Z</time>
      </trkpt>
      <trkpt lat="42.75827" lon="1.50655">
        <ele>1220</ele>
        <time>2019-04-27T14:34:02Z</time>
      </trkpt>
      <trkpt lat="42.7583" lon="1.50654">
        <ele>1220</ele>
        <time>2019-04-27T14:34:03Z</time>
      </trkpt>
      <trkpt lat="42.75834" lon="1.50653">
        <ele>1220</ele>
        <time>2019-04-27T14:34:04Z</time>
      </trkpt>
      <trkpt lat="42.75836" lon="1.5065">
        <ele>1220</ele>
        <time>2019-04-27T14:34:05Z</time>
      </trkpt>
      <trkpt lat="42.75839" lon="1.50649">
        <ele>1220</ele>
        <time>2019-04-27T14:34:06Z</time>
      </trkpt>
      <trkpt lat="42.75842" lon="1.50648">
        <ele>1221</ele>
        <time>2019-04-27T14:34:07Z</time>
      </trkpt>
      <trkpt lat="42.75845" lon="1.50646">
        <ele>1221</ele>
        <time>2019-04-27T14:34:08Z</time>
      </trkpt>
      <trkpt lat="42.75848" lon="1.50645">
        <ele>1221</ele>
        <time>2019-04-27T14:34:09Z</time>
      </trkpt>
      <trkpt lat="42.75851" lon="1.50644">
        <ele>1221</ele>
        <time>2019-04-27T14:34:10Z</time>
      </trkpt>
      <trkpt lat="42.75854" lon="1.50642">
        <ele>1221</ele>
        <time>2019-04-27T14:34:11Z</time>
      </trkpt>
      <trkpt lat="42.75857" lon="1.50641">
        <ele>1222</ele>
        <time>2019-04-27T14:34:12Z</time>
      </trkpt>
      <trkpt lat="42.7586" lon="1.50642">
        <ele>1223</ele>
        <time>2019-04-27T14:34:13Z</time>
      </trkpt>
      <trkpt lat="42.75863" lon="1.50643">
        <ele>1223</ele>
        <time>2019-04-27T14:34:14Z</time>
      </trkpt>
      <trkpt lat="42.75865" lon="1.50645">
        <ele>1223</ele>
        <time>2019-04-27T14:34:15Z</time>
      </trkpt>
      <trkpt lat="42.75866" lon="1.50649">
        <ele>1223</ele>
        <time>2019-04-27T14:34:16Z</time>
      </trkpt>
      <trkpt lat="42.75866" lon="1.50653">
        <ele>1223</ele>
        <time>2019-04-27T14:34:17Z</time>
      </trkpt>
      <trkpt lat="42.75864" lon="1.50656">
        <ele>1224</ele>
        <time>2019-04-27T14:34:18Z</time>
      </trkpt>
      <trkpt lat="42.75862" lon="1.50659">
        <ele>1225</ele>
        <time>2019-04-27T14:34:19Z</time>
      </trkpt>
      <trkpt lat="42.7586" lon="1.50662">
        <ele>1225</ele>
        <time>2019-04-27T14:34:20Z</time>
      </trkpt>
      <trkpt lat="42.75858" lon="1.50663">
        <ele>1225</ele>
        <time>2019-04-27T14:34:21Z</time>
      </trkpt>
      <trkpt lat="42.75855" lon="1.50664">
        <ele>1225</ele>
        <time>2019-04-27T14:34:22Z</time>
      </trkpt>
      <trkpt lat="42.75852" lon="1.50665">
        <ele>1225</ele>
        <time>2019-04-27T14:34:23Z</time>
      </trkpt>
      <trkpt lat="42.75849" lon="1.50666">
        <ele>1225</ele>
        <time>2019-04-27T14:34:24Z</time>
      </trkpt>
      <trkpt lat="42.75846" lon="1.50667">
        <ele>1226</ele>
        <time>2019-04-27T14:34:25Z</time>
      </trkpt>
      <trkpt lat="42.75843" lon="1.50669">
        <ele>1226</ele>
        <time>2019-04-27T14:34:26Z</time>
      </trkpt>
      <trkpt lat="42.75841" lon="1.5067">
        <ele>1226</ele>
        <time>2019-04-27T14:34:27Z</time>
      </trkpt>
      <trkpt lat="42.75839" lon="1.50672">
        <ele>1227</ele>
        <time>2019-04-27T14:34:34Z</time>
      </trkpt>
      <trkpt lat="42.75818" lon="1.50688">
        <ele>1229</ele>
        <time>2019-04-27T14:34:36Z</time>
      </trkpt>
      <trkpt lat="42.75816" lon="1.5069">
        <ele>1230</ele>
        <time>2019-04-27T14:34:37Z</time>
      </trkpt>
      <trkpt lat="42.75813" lon="1.50693">
        <ele>1231</ele>
        <time>2019-04-27T14:34:38Z</time>
      </trkpt>
      <trkpt lat="42.75811" lon="1.50696">
        <ele>1231</ele>
        <time>2019-04-27T14:34:39Z</time>
      </trkpt>
      <trkpt lat="42.75809" lon="1.50699">
        <ele>1232</ele>
        <time>2019-04-27T14:34:40Z</time>
      </trkpt>
      <trkpt lat="42.75806" lon="1.50701">
        <ele>1232</ele>
        <time>2019-04-27T14:34:41Z</time>
      </trkpt>
      <trkpt lat="42.75804" lon="1.50704">
        <ele>1232</ele>
        <time>2019-04-27T14:34:42Z</time>
      </trkpt>
      <trkpt lat="42.75802" lon="1.50707">
        <ele>1232</ele>
        <time>2019-04-27T14:34:43Z</time>
      </trkpt>
      <trkpt lat="42.758" lon="1.5071">
        <ele>1232</ele>
        <time>2019-04-27T14:34:44Z</time>
      </trkpt>
      <trkpt lat="42.75798" lon="1.50714">
        <ele>1233</ele>
        <time>2019-04-27T14:34:45Z</time>
      </trkpt>
      <trkpt lat="42.75796" lon="1.50717">
        <ele>1233</ele>
        <time>2019-04-27T14:34:46Z</time>
      </trkpt>
      <trkpt lat="42.75794" lon="1.5072">
        <ele>1233</ele>
        <time>2019-04-27T14:34:47Z</time>
      </trkpt>
      <trkpt lat="42.75793" lon="1.50724">
        <ele>1233</ele>
        <time>2019-04-27T14:34:48Z</time>
      </trkpt>
      <trkpt lat="42.75791" lon="1.50727">
        <ele>1234</ele>
        <time>2019-04-27T14:34:49Z</time>
      </trkpt>
      <trkpt lat="42.75789" lon="1.5073">
        <ele>1234</ele>
        <time>2019-04-27T14:34:50Z</time>
      </trkpt>
      <trkpt lat="42.75786" lon="1.50733">
        <ele>1234</ele>
        <time>2019-04-27T14:34:51Z</time>
      </trkpt>
      <trkpt lat="42.75785" lon="1.50737">
        <ele>1234</ele>
        <time>2019-04-27T14:34:52Z</time>
      </trkpt>
      <trkpt lat="42.75783" lon="1.5074">
        <ele>1234</ele>
        <time>2019-04-27T14:34:53Z</time>
      </trkpt>
      <trkpt lat="42.75781" lon="1.50743">
        <ele>1235</ele>
        <time>2019-04-27T14:34:54Z</time>
      </trkpt>
      <trkpt lat="42.75779" lon="1.50746">
        <ele>1236</ele>
        <time>2019-04-27T14:34:55Z</time>
      </trkpt>
      <trkpt lat="42.75777" lon="1.50749">
        <ele>1236</ele>
        <time>2019-04-27T14:34:56Z</time>
      </trkpt>
      <trkpt lat="42.75775" lon="1.50752">
        <ele>1236</ele>
        <time>2019-04-27T14:34:57Z</time>
      </trkpt>
      <trkpt lat="42.75773" lon="1.50756">
        <ele>1237</ele>
        <time>2019-04-27T14:34:58Z</time>
      </trkpt>
      <trkpt lat="42.75772" lon="1.50759">
        <ele>1237</ele>
        <time>2019-04-27T14:34:59Z</time>
      </trkpt>
      <trkpt lat="42.7577" lon="1.50762">
        <ele>1237</ele>
        <time>2019-04-27T14:35:00Z</time>
      </trkpt>
      <trkpt lat="42.75768" lon="1.50765">
        <ele>1237</ele>
        <time>2019-04-27T14:35:01Z</time>
      </trkpt>
      <trkpt lat="42.75767" lon="1.50768">
        <ele>1237</ele>
        <time>2019-04-27T14:35:02Z</time>
      </trkpt>
      <trkpt lat="42.75764" lon="1.50771">
        <ele>1238</ele>
        <time>2019-04-27T14:35:03Z</time>
      </trkpt>
      <trkpt lat="42.75762" lon="1.50774">
        <ele>1238</ele>
        <time>2019-04-27T14:35:04Z</time>
      </trkpt>
      <trkpt lat="42.75761" lon="1.50777">
        <ele>1238</ele>
        <time>2019-04-27T14:35:05Z</time>
      </trkpt>
      <trkpt lat="42.75759" lon="1.5078">
        <ele>1239</ele>
        <time>2019-04-27T14:35:06Z</time>
      </trkpt>
      <trkpt lat="42.75757" lon="1.50783">
        <ele>1239</ele>
        <time>2019-04-27T14:35:07Z</time>
      </trkpt>
      <trkpt lat="42.75756" lon="1.50785">
        <ele>1239</ele>
        <time>2019-04-27T14:35:08Z</time>
      </trkpt>
      <trkpt lat="42.75754" lon="1.50789">
        <ele>1239</ele>
        <time>2019-04-27T14:35:09Z</time>
      </trkpt>
      <trkpt lat="42.75753" lon="1.50792">
        <ele>1240</ele>
        <time>2019-04-27T14:35:10Z</time>
      </trkpt>
      <trkpt lat="42.75751" lon="1.50795">
        <ele>1240</ele>
        <time>2019-04-27T14:35:11Z</time>
      </trkpt>
      <trkpt lat="42.75749" lon="1.50798">
        <ele>1240</ele>
        <time>2019-04-27T14:35:12Z</time>
      </trkpt>
      <trkpt lat="42.75748" lon="1.50801">
        <ele>1240</ele>
        <time>2019-04-27T14:35:13Z</time>
      </trkpt>
      <trkpt lat="42.75746" lon="1.50804">
        <ele>1240</ele>
        <time>2019-04-27T14:35:14Z</time>
      </trkpt>
      <trkpt lat="42.75744" lon="1.50807">
        <ele>1240</ele>
        <time>2019-04-27T14:35:15Z</time>
      </trkpt>
      <trkpt lat="42.75742" lon="1.5081">
        <ele>1240</ele>
        <time>2019-04-27T14:35:16Z</time>
      </trkpt>
      <trkpt lat="42.7574" lon="1.50813">
        <ele>1240</ele>
        <time>2019-04-27T14:35:17Z</time>
      </trkpt>
      <trkpt lat="42.75739" lon="1.50816">
        <ele>1241</ele>
        <time>2019-04-27T14:35:18Z</time>
      </trkpt>
      <trkpt lat="42.75737" lon="1.50819">
        <ele>1242</ele>
        <time>2019-04-27T14:35:19Z</time>
      </trkpt>
      <trkpt lat="42.75734" lon="1.50822">
        <ele>1242</ele>
        <time>2019-04-27T14:35:20Z</time>
      </trkpt>
      <trkpt lat="42.75733" lon="1.50825">
        <ele>1242</ele>
        <time>2019-04-27T14:35:21Z</time>
      </trkpt>
      <trkpt lat="42.75731" lon="1.50827">
        <ele>1242</ele>
        <time>2019-04-27T14:35:22Z</time>
      </trkpt>
      <trkpt lat="42.75729" lon="1.5083">
        <ele>1242</ele>
        <time>2019-04-27T14:35:23Z</time>
      </trkpt>
      <trkpt lat="42.75727" lon="1.50834">
        <ele>1242</ele>
        <time>2019-04-27T14:35:24Z</time>
      </trkpt>
      <trkpt lat="42.75725" lon="1.50837">
        <ele>1242</ele>
        <time>2019-04-27T14:35:25Z</time>
      </trkpt>
      <trkpt lat="42.75723" lon="1.5084">
        <ele>1243</ele>
        <time>2019-04-27T14:35:26Z</time>
      </trkpt>
      <trkpt lat="42.75721" lon="1.50844">
        <ele>1244</ele>
        <time>2019-04-27T14:35:27Z</time>
      </trkpt>
      <trkpt lat="42.75719" lon="1.50847">
        <ele>1244</ele>
        <time>2019-04-27T14:35:28Z</time>
      </trkpt>
      <trkpt lat="42.75718" lon="1.5085">
        <ele>1244</ele>
        <time>2019-04-27T14:35:29Z</time>
      </trkpt>
      <trkpt lat="42.75715" lon="1.50853">
        <ele>1244</ele>
        <time>2019-04-27T14:35:30Z</time>
      </trkpt>
      <trkpt lat="42.75714" lon="1.50857">
        <ele>1245</ele>
        <time>2019-04-27T14:35:31Z</time>
      </trkpt>
      <trkpt lat="42.75712" lon="1.50861">
        <ele>1245</ele>
        <time>2019-04-27T14:35:32Z</time>
      </trkpt>
      <trkpt lat="42.75711" lon="1.50865">
        <ele>1245</ele>
        <time>2019-04-27T14:35:33Z</time>
      </trkpt>
      <trkpt lat="42.75709" lon="1.50868">
        <ele>1245</ele>
        <time>2019-04-27T14:35:34Z</time>
      </trkpt>
      <trkpt lat="42.75707" lon="1.50872">
        <ele>1245</ele>
        <time>2019-04-27T14:35:35Z</time>
      </trkpt>
      <trkpt lat="42.75705" lon="1.50875">
        <ele>1245</ele>
        <time>2019-04-27T14:35:36Z</time>
      </trkpt>
      <trkpt lat="42.75704" lon="1.50879">
        <ele>1246</ele>
        <time>2019-04-27T14:35:37Z</time>
      </trkpt>
      <trkpt lat="42.75703" lon="1.50883">
        <ele>1247</ele>
        <time>2019-04-27T14:35:38Z</time>
      </trkpt>
      <trkpt lat="42.75701" lon="1.50887">
        <ele>1247</ele>
        <time>2019-04-27T14:35:39Z</time>
      </trkpt>
      <trkpt lat="42.75699" lon="1.5089">
        <ele>1247</ele>
        <time>2019-04-27T14:35:40Z</time>
      </trkpt>
      <trkpt lat="42.75699" lon="1.50893">
        <ele>1247</ele>
        <time>2019-04-27T14:35:41Z</time>
      </trkpt>
      <trkpt lat="42.75697" lon="1.50897">
        <ele>1247</ele>
        <time>2019-04-27T14:35:42Z</time>
      </trkpt>
      <trkpt lat="42.75695" lon="1.509">
        <ele>1247</ele>
        <time>2019-04-27T14:35:43Z</time>
      </trkpt>
      <trkpt lat="42.75693" lon="1.50904">
        <ele>1247</ele>
        <time>2019-04-27T14:35:44Z</time>
      </trkpt>
      <trkpt lat="42.75691" lon="1.50907">
        <ele>1248</ele>
        <time>2019-04-27T14:35:45Z</time>
      </trkpt>
      <trkpt lat="42.75689" lon="1.5091">
        <ele>1248</ele>
        <time>2019-04-27T14:35:46Z</time>
      </trkpt>
      <trkpt lat="42.75687" lon="1.50913">
        <ele>1248</ele>
        <time>2019-04-27T14:35:47Z</time>
      </trkpt>
      <trkpt lat="42.75684" lon="1.50915">
        <ele>1248</ele>
        <time>2019-04-27T14:35:48Z</time>
      </trkpt>
      <trkpt lat="42.75681" lon="1.50917">
        <ele>1249</ele>
        <time>2019-04-27T14:35:49Z</time>
      </trkpt>
      <trkpt lat="42.75679" lon="1.50919">
        <ele>1250</ele>
        <time>2019-04-27T14:35:50Z</time>
      </trkpt>
      <trkpt lat="42.75676" lon="1.50921">
        <ele>1250</ele>
        <time>2019-04-27T14:35:51Z</time>
      </trkpt>
      <trkpt lat="42.75674" lon="1.50923">
        <ele>1251</ele>
        <time>2019-04-27T14:35:52Z</time>
      </trkpt>
      <trkpt lat="42.75671" lon="1.50925">
        <ele>1251</ele>
        <time>2019-04-27T14:35:53Z</time>
      </trkpt>
      <trkpt lat="42.75668" lon="1.50927">
        <ele>1251</ele>
        <time>2019-04-27T14:35:54Z</time>
      </trkpt>
      <trkpt lat="42.75666" lon="1.5093">
        <ele>1252</ele>
        <time>2019-04-27T14:35:55Z</time>
      </trkpt>
      <trkpt lat="42.75665" lon="1.50934">
        <ele>1253</ele>
        <time>2019-04-27T14:35:56Z</time>
      </trkpt>
      <trkpt lat="42.75665" lon="1.50938">
        <ele>1253</ele>
        <time>2019-04-27T14:35:57Z</time>
      </trkpt>
      <trkpt lat="42.75667" lon="1.5094">
        <ele>1253</ele>
        <time>2019-04-27T14:35:58Z</time>
      </trkpt>
      <trkpt lat="42.7567" lon="1.50943">
        <ele>1253</ele>
        <time>2019-04-27T14:35:59Z</time>
      </trkpt>
      <trkpt lat="42.75672" lon="1.50944">
        <ele>1253</ele>
        <time>2019-04-27T14:36:00Z</time>
      </trkpt>
      <trkpt lat="42.75675" lon="1.50946">
        <ele>1254</ele>
        <time>2019-04-27T14:36:01Z</time>
      </trkpt>
      <trkpt lat="42.75677" lon="1.50946">
        <ele>1254</ele>
        <time>2019-04-27T14:36:02Z</time>
      </trkpt>
      <trkpt lat="42.7568" lon="1.50944">
        <ele>1255</ele>
        <time>2019-04-27T14:36:03Z</time>
      </trkpt>
      <trkpt lat="42.75683" lon="1.50943">
        <ele>1255</ele>
        <time>2019-04-27T14:36:04Z</time>
      </trkpt>
      <trkpt lat="42.75686" lon="1.50942">
        <ele>1255</ele>
        <time>2019-04-27T14:36:05Z</time>
      </trkpt>
      <trkpt lat="42.75689" lon="1.5094">
        <ele>1255</ele>
        <time>2019-04-27T14:36:06Z</time>
      </trkpt>
      <trkpt lat="42.75691" lon="1.50937">
        <ele>1255</ele>
        <time>2019-04-27T14:36:07Z</time>
      </trkpt>
      <trkpt lat="42.75694" lon="1.50934">
        <ele>1255</ele>
        <time>2019-04-27T14:36:08Z</time>
      </trkpt>
      <trkpt lat="42.75696" lon="1.50932">
        <ele>1255</ele>
        <time>2019-04-27T14:36:09Z</time>
      </trkpt>
      <trkpt lat="42.75699" lon="1.5093">
        <ele>1256</ele>
        <time>2019-04-27T14:36:10Z</time>
      </trkpt>
      <trkpt lat="42.75702" lon="1.50929">
        <ele>1256</ele>
        <time>2019-04-27T14:36:11Z</time>
      </trkpt>
      <trkpt lat="42.75705" lon="1.50926">
        <ele>1257</ele>
        <time>2019-04-27T14:36:12Z</time>
      </trkpt>
      <trkpt lat="42.75707" lon="1.50924">
        <ele>1257</ele>
        <time>2019-04-27T14:36:13Z</time>
      </trkpt>
      <trkpt lat="42.7571" lon="1.50921">
        <ele>1257</ele>
        <time>2019-04-27T14:36:14Z</time>
      </trkpt>
      <trkpt lat="42.75712" lon="1.50919">
        <ele>1257</ele>
        <time>2019-04-27T14:36:15Z</time>
      </trkpt>
      <trkpt lat="42.75715" lon="1.50917">
        <ele>1258</ele>
        <time>2019-04-27T14:36:16Z</time>
      </trkpt>
      <trkpt lat="42.75718" lon="1.50915">
        <ele>1259</ele>
        <time>2019-04-27T14:36:17Z</time>
      </trkpt>
      <trkpt lat="42.75721" lon="1.50912">
        <ele>1259</ele>
        <time>2019-04-27T14:36:18Z</time>
      </trkpt>
      <trkpt lat="42.75723" lon="1.5091">
        <ele>1259</ele>
        <time>2019-04-27T14:36:19Z</time>
      </trkpt>
      <trkpt lat="42.75725" lon="1.50908">
        <ele>1259</ele>
        <time>2019-04-27T14:36:20Z</time>
      </trkpt>
      <trkpt lat="42.75728" lon="1.50906">
        <ele>1260</ele>
        <time>2019-04-27T14:36:21Z</time>
      </trkpt>
      <trkpt lat="42.75731" lon="1.50904">
        <ele>1260</ele>
        <time>2019-04-27T14:36:22Z</time>
      </trkpt>
      <trkpt lat="42.75734" lon="1.50901">
        <ele>1260</ele>
        <time>2019-04-27T14:36:23Z</time>
      </trkpt>
      <trkpt lat="42.75736" lon="1.50898">
        <ele>1261</ele>
        <time>2019-04-27T14:36:24Z</time>
      </trkpt>
      <trkpt lat="42.75739" lon="1.50894">
        <ele>1261</ele>
        <time>2019-04-27T14:36:25Z</time>
      </trkpt>
      <trkpt lat="42.75741" lon="1.50893">
        <ele>1261</ele>
        <time>2019-04-27T14:36:26Z</time>
      </trkpt>
      <trkpt lat="42.75744" lon="1.50891">
        <ele>1262</ele>
        <time>2019-04-27T14:36:27Z</time>
      </trkpt>
      <trkpt lat="42.75747" lon="1.50888">
        <ele>1262</ele>
        <time>2019-04-27T14:36:28Z</time>
      </trkpt>
      <trkpt lat="42.7575" lon="1.50886">
        <ele>1262</ele>
        <time>2019-04-27T14:36:29Z</time>
      </trkpt>
      <trkpt lat="42.75752" lon="1.50884">
        <ele>1262</ele>
        <time>2019-04-27T14:36:30Z</time>
      </trkpt>
      <trkpt lat="42.75762" lon="1.50873">
        <ele>1263</ele>
        <time>2019-04-27T14:36:34Z</time>
      </trkpt>
      <trkpt lat="42.75765" lon="1.5087">
        <ele>1264</ele>
        <time>2019-04-27T14:36:35Z</time>
      </trkpt>
      <trkpt lat="42.75767" lon="1.50867">
        <ele>1264</ele>
        <time>2019-04-27T14:36:36Z</time>
      </trkpt>
      <trkpt lat="42.7577" lon="1.50865">
        <ele>1264</ele>
        <time>2019-04-27T14:36:37Z</time>
      </trkpt>
      <trkpt lat="42.75772" lon="1.50862">
        <ele>1264</ele>
        <time>2019-04-27T14:36:38Z</time>
      </trkpt>
      <trkpt lat="42.75773" lon="1.50859">
        <ele>1264</ele>
        <time>2019-04-27T14:36:39Z</time>
      </trkpt>
      <trkpt lat="42.75775" lon="1.50856">
        <ele>1264</ele>
        <time>2019-04-27T14:36:40Z</time>
      </trkpt>
      <trkpt lat="42.75777" lon="1.50852">
        <ele>1265</ele>
        <time>2019-04-27T14:36:41Z</time>
      </trkpt>
      <trkpt lat="42.75779" lon="1.5085">
        <ele>1265</ele>
        <time>2019-04-27T14:36:42Z</time>
      </trkpt>
      <trkpt lat="42.75782" lon="1.50849">
        <ele>1265</ele>
        <time>2019-04-27T14:36:43Z</time>
      </trkpt>
      <trkpt lat="42.75785" lon="1.5085">
        <ele>1266</ele>
        <time>2019-04-27T14:36:44Z</time>
      </trkpt>
      <trkpt lat="42.75787" lon="1.50852">
        <ele>1267</ele>
        <time>2019-04-27T14:36:45Z</time>
      </trkpt>
      <trkpt lat="42.75788" lon="1.50856">
        <ele>1267</ele>
        <time>2019-04-27T14:36:46Z</time>
      </trkpt>
      <trkpt lat="42.75788" lon="1.50859">
        <ele>1267</ele>
        <time>2019-04-27T14:36:47Z</time>
      </trkpt>
      <trkpt lat="42.75788" lon="1.50863">
        <ele>1267</ele>
        <time>2019-04-27T14:36:56Z</time>
      </trkpt>
      <trkpt lat="42.75772" lon="1.50887">
        <ele>1267</ele>
        <time>2019-04-27T14:36:58Z</time>
      </trkpt>
      <trkpt lat="42.75771" lon="1.5089">
        <ele>1268</ele>
        <time>2019-04-27T14:36:59Z</time>
      </trkpt>
      <trkpt lat="42.75769" lon="1.50893">
        <ele>1269</ele>
        <time>2019-04-27T14:37:00Z</time>
      </trkpt>
      <trkpt lat="42.75767" lon="1.50896">
        <ele>1270</ele>
        <time>2019-04-27T14:37:01Z</time>
      </trkpt>
      <trkpt lat="42.75766" lon="1.50898">
        <ele>1271</ele>
        <time>2019-04-27T14:37:02Z</time>
      </trkpt>
      <trkpt lat="42.75764" lon="1.50901">
        <ele>1272</ele>
        <time>2019-04-27T14:37:03Z</time>
      </trkpt>
      <trkpt lat="42.75762" lon="1.50904">
        <ele>1273</ele>
        <time>2019-04-27T14:37:04Z</time>
      </trkpt>
      <trkpt lat="42.75761" lon="1.50907">
        <ele>1273</ele>
        <time>2019-04-27T14:37:05Z</time>
      </trkpt>
      <trkpt lat="42.75759" lon="1.5091">
        <ele>1273</ele>
        <time>2019-04-27T14:37:06Z</time>
      </trkpt>
      <trkpt lat="42.75758" lon="1.50913">
        <ele>1273</ele>
        <time>2019-04-27T14:37:07Z</time>
      </trkpt>
      <trkpt lat="42.75757" lon="1.50916">
        <ele>1274</ele>
        <time>2019-04-27T14:37:08Z</time>
      </trkpt>
      <trkpt lat="42.75755" lon="1.50919">
        <ele>1274</ele>
        <time>2019-04-27T14:37:09Z</time>
      </trkpt>
      <trkpt lat="42.75754" lon="1.50922">
        <ele>1274</ele>
        <time>2019-04-27T14:37:10Z</time>
      </trkpt>
      <trkpt lat="42.75753" lon="1.50926">
        <ele>1274</ele>
        <time>2019-04-27T14:37:11Z</time>
      </trkpt>
      <trkpt lat="42.75752" lon="1.50929">
        <ele>1275</ele>
        <time>2019-04-27T14:37:12Z</time>
      </trkpt>
      <trkpt lat="42.75751" lon="1.50932">
        <ele>1275</ele>
        <time>2019-04-27T14:37:13Z</time>
      </trkpt>
      <trkpt lat="42.75749" lon="1.50936">
        <ele>1275</ele>
        <time>2019-04-27T14:37:14Z</time>
      </trkpt>
      <trkpt lat="42.75748" lon="1.50939">
        <ele>1275</ele>
        <time>2019-04-27T14:37:15Z</time>
      </trkpt>
      <trkpt lat="42.75747" lon="1.50942">
        <ele>1276</ele>
        <time>2019-04-27T14:37:16Z</time>
      </trkpt>
      <trkpt lat="42.75746" lon="1.50945">
        <ele>1276</ele>
        <time>2019-04-27T14:37:17Z</time>
      </trkpt>
      <trkpt lat="42.75745" lon="1.50949">
        <ele>1277</ele>
        <time>2019-04-27T14:37:18Z</time>
      </trkpt>
      <trkpt lat="42.75743" lon="1.50952">
        <ele>1277</ele>
        <time>2019-04-27T14:37:19Z</time>
      </trkpt>
      <trkpt lat="42.75742" lon="1.50955">
        <ele>1277</ele>
        <time>2019-04-27T14:37:20Z</time>
      </trkpt>
      <trkpt lat="42.7574" lon="1.50958">
        <ele>1277</ele>
        <time>2019-04-27T14:37:21Z</time>
      </trkpt>
      <trkpt lat="42.75739" lon="1.50961">
        <ele>1278</ele>
        <time>2019-04-27T14:37:22Z</time>
      </trkpt>
      <trkpt lat="42.75738" lon="1.50965">
        <ele>1278</ele>
        <time>2019-04-27T14:37:23Z</time>
      </trkpt>
      <trkpt lat="42.75736" lon="1.50968">
        <ele>1278</ele>
        <time>2019-04-27T14:37:24Z</time>
      </trkpt>
      <trkpt lat="42.75735" lon="1.50971">
        <ele>1278</ele>
        <time>2019-04-27T14:37:25Z</time>
      </trkpt>
      <trkpt lat="42.75733" lon="1.50974">
        <ele>1279</ele>
        <time>2019-04-27T14:37:26Z</time>
      </trkpt>
      <trkpt lat="42.75732" lon="1.50977">
        <ele>1279</ele>
        <time>2019-04-27T14:37:27Z</time>
      </trkpt>
      <trkpt lat="42.7573" lon="1.5098">
        <ele>1279</ele>
        <time>2019-04-27T14:37:28Z</time>
      </trkpt>
      <trkpt lat="42.75729" lon="1.50983">
        <ele>1279</ele>
        <time>2019-04-27T14:37:29Z</time>
      </trkpt>
      <trkpt lat="42.75727" lon="1.50986">
        <ele>1279</ele>
        <time>2019-04-27T14:37:30Z</time>
      </trkpt>
      <trkpt lat="42.75726" lon="1.50989">
        <ele>1279</ele>
        <time>2019-04-27T14:37:31Z</time>
      </trkpt>
      <trkpt lat="42.75724" lon="1.50991">
        <ele>1279</ele>
        <time>2019-04-27T14:37:32Z</time>
      </trkpt>
      <trkpt lat="42.75722" lon="1.50994">
        <ele>1280</ele>
        <time>2019-04-27T14:37:33Z</time>
      </trkpt>
      <trkpt lat="42.7572" lon="1.50996">
        <ele>1281</ele>
        <time>2019-04-27T14:37:34Z</time>
      </trkpt>
      <trkpt lat="42.75718" lon="1.50999">
        <ele>1281</ele>
        <time>2019-04-27T14:37:35Z</time>
      </trkpt>
      <trkpt lat="42.75716" lon="1.51001">
        <ele>1282</ele>
        <time>2019-04-27T14:37:36Z</time>
      </trkpt>
      <trkpt lat="42.75714" lon="1.51003">
        <ele>1283</ele>
        <time>2019-04-27T14:37:37Z</time>
      </trkpt>
      <trkpt lat="42.75712" lon="1.51005">
        <ele>1283</ele>
        <time>2019-04-27T14:37:38Z</time>
      </trkpt>
      <trkpt lat="42.75711" lon="1.51008">
        <ele>1283</ele>
        <time>2019-04-27T14:37:39Z</time>
      </trkpt>
      <trkpt lat="42.75709" lon="1.5101">
        <ele>1283</ele>
        <time>2019-04-27T14:37:40Z</time>
      </trkpt>
      <trkpt lat="42.75707" lon="1.51013">
        <ele>1284</ele>
        <time>2019-04-27T14:37:41Z</time>
      </trkpt>
      <trkpt lat="42.75704" lon="1.51015">
        <ele>1284</ele>
        <time>2019-04-27T14:37:42Z</time>
      </trkpt>
      <trkpt lat="42.75703" lon="1.51017">
        <ele>1284</ele>
        <time>2019-04-27T14:37:43Z</time>
      </trkpt>
      <trkpt lat="42.75701" lon="1.5102">
        <ele>1285</ele>
        <time>2019-04-27T14:37:44Z</time>
      </trkpt>
      <trkpt lat="42.75699" lon="1.51022">
        <ele>1285</ele>
        <time>2019-04-27T14:37:45Z</time>
      </trkpt>
      <trkpt lat="42.75697" lon="1.51024">
        <ele>1286</ele>
        <time>2019-04-27T14:37:46Z</time>
      </trkpt>
      <trkpt lat="42.75695" lon="1.51026">
        <ele>1286</ele>
        <time>2019-04-27T14:37:47Z</time>
      </trkpt>
      <trkpt lat="42.7569" lon="1.51031">
        <ele>1286</ele>
        <time>2019-04-27T14:37:49Z</time>
      </trkpt>
      <trkpt lat="42.75688" lon="1.51033">
        <ele>1287</ele>
        <time>2019-04-27T14:37:50Z</time>
      </trkpt>
      <trkpt lat="42.75687" lon="1.51036">
        <ele>1287</ele>
        <time>2019-04-27T14:37:51Z</time>
      </trkpt>
      <trkpt lat="42.75685" lon="1.51038">
        <ele>1288</ele>
        <time>2019-04-27T14:37:52Z</time>
      </trkpt>
      <trkpt lat="42.75683" lon="1.51041">
        <ele>1288</ele>
        <time>2019-04-27T14:37:53Z</time>
      </trkpt>
      <trkpt lat="42.75681" lon="1.51043">
        <ele>1288</ele>
        <time>2019-04-27T14:37:54Z</time>
      </trkpt>
      <trkpt lat="42.75679" lon="1.51045">
        <ele>1289</ele>
        <time>2019-04-27T14:37:55Z</time>
      </trkpt>
      <trkpt lat="42.75677" lon="1.51048">
        <ele>1289</ele>
        <time>2019-04-27T14:37:56Z</time>
      </trkpt>
      <trkpt lat="42.75675" lon="1.5105">
        <ele>1289</ele>
        <time>2019-04-27T14:37:57Z</time>
      </trkpt>
      <trkpt lat="42.75673" lon="1.51052">
        <ele>1289</ele>
        <time>2019-04-27T14:37:58Z</time>
      </trkpt>
      <trkpt lat="42.75672" lon="1.51055">
        <ele>1290</ele>
        <time>2019-04-27T14:37:59Z</time>
      </trkpt>
      <trkpt lat="42.7567" lon="1.51058">
        <ele>1290</ele>
        <time>2019-04-27T14:38:00Z</time>
      </trkpt>
      <trkpt lat="42.75668" lon="1.5106">
        <ele>1291</ele>
        <time>2019-04-27T14:38:01Z</time>
      </trkpt>
      <trkpt lat="42.75667" lon="1.51063">
        <ele>1291</ele>
        <time>2019-04-27T14:38:02Z</time>
      </trkpt>
      <trkpt lat="42.75665" lon="1.51066">
        <ele>1291</ele>
        <time>2019-04-27T14:38:03Z</time>
      </trkpt>
      <trkpt lat="42.75663" lon="1.51068">
        <ele>1291</ele>
        <time>2019-04-27T14:38:04Z</time>
      </trkpt>
      <trkpt lat="42.75662" lon="1.51071">
        <ele>1292</ele>
        <time>2019-04-27T14:38:05Z</time>
      </trkpt>
      <trkpt lat="42.7566" lon="1.51073">
        <ele>1292</ele>
        <time>2019-04-27T14:38:06Z</time>
      </trkpt>
      <trkpt lat="42.75658" lon="1.51077">
        <ele>1293</ele>
        <time>2019-04-27T14:38:07Z</time>
      </trkpt>
      <trkpt lat="42.75657" lon="1.5108">
        <ele>1293</ele>
        <time>2019-04-27T14:38:08Z</time>
      </trkpt>
      <trkpt lat="42.75656" lon="1.51083">
        <ele>1293</ele>
        <time>2019-04-27T14:38:09Z</time>
      </trkpt>
      <trkpt lat="42.75654" lon="1.51086">
        <ele>1293</ele>
        <time>2019-04-27T14:38:10Z</time>
      </trkpt>
      <trkpt lat="42.75652" lon="1.51088">
        <ele>1294</ele>
        <time>2019-04-27T14:38:11Z</time>
      </trkpt>
      <trkpt lat="42.75651" lon="1.51092">
        <ele>1294</ele>
        <time>2019-04-27T14:38:12Z</time>
      </trkpt>
      <trkpt lat="42.75649" lon="1.51095">
        <ele>1294</ele>
        <time>2019-04-27T14:38:13Z</time>
      </trkpt>
      <trkpt lat="42.75648" lon="1.51097">
        <ele>1294</ele>
        <time>2019-04-27T14:38:14Z</time>
      </trkpt>
      <trkpt lat="42.75646" lon="1.511">
        <ele>1295</ele>
        <time>2019-04-27T14:38:15Z</time>
      </trkpt>
      <trkpt lat="42.75645" lon="1.51103">
        <ele>1296</ele>
        <time>2019-04-27T14:38:16Z</time>
      </trkpt>
      <trkpt lat="42.75643" lon="1.51106">
        <ele>1296</ele>
        <time>2019-04-27T14:38:17Z</time>
      </trkpt>
      <trkpt lat="42.75642" lon="1.51108">
        <ele>1296</ele>
        <time>2019-04-27T14:38:18Z</time>
      </trkpt>
      <trkpt lat="42.7564" lon="1.51111">
        <ele>1296</ele>
        <time>2019-04-27T14:38:19Z</time>
      </trkpt>
      <trkpt lat="42.75638" lon="1.51114">
        <ele>1296</ele>
        <time>2019-04-27T14:38:20Z</time>
      </trkpt>
      <trkpt lat="42.75637" lon="1.51117">
        <ele>1296</ele>
        <time>2019-04-27T14:38:21Z</time>
      </trkpt>
      <trkpt lat="42.75635" lon="1.5112">
        <ele>1297</ele>
        <time>2019-04-27T14:38:22Z</time>
      </trkpt>
      <trkpt lat="42.75634" lon="1.51123">
        <ele>1297</ele>
        <time>2019-04-27T14:38:23Z</time>
      </trkpt>
      <trkpt lat="42.75632" lon="1.51126">
        <ele>1298</ele>
        <time>2019-04-27T14:38:24Z</time>
      </trkpt>
      <trkpt lat="42.75631" lon="1.51129">
        <ele>1298</ele>
        <time>2019-04-27T14:38:25Z</time>
      </trkpt>
      <trkpt lat="42.75629" lon="1.51131">
        <ele>1298</ele>
        <time>2019-04-27T14:38:26Z</time>
      </trkpt>
      <trkpt lat="42.75627" lon="1.51134">
        <ele>1298</ele>
        <time>2019-04-27T14:38:27Z</time>
      </trkpt>
      <trkpt lat="42.75625" lon="1.51136">
        <ele>1299</ele>
        <time>2019-04-27T14:38:28Z</time>
      </trkpt>
      <trkpt lat="42.75624" lon="1.51139">
        <ele>1299</ele>
        <time>2019-04-27T14:38:29Z</time>
      </trkpt>
      <trkpt lat="42.75622" lon="1.51142">
        <ele>1299</ele>
        <time>2019-04-27T14:38:30Z</time>
      </trkpt>
      <trkpt lat="42.75619" lon="1.51144">
        <ele>1299</ele>
        <time>2019-04-27T14:38:31Z</time>
      </trkpt>
      <trkpt lat="42.75617" lon="1.51147">
        <ele>1299</ele>
        <time>2019-04-27T14:38:32Z</time>
      </trkpt>
      <trkpt lat="42.75616" lon="1.5115">
        <ele>1300</ele>
        <time>2019-04-27T14:38:33Z</time>
      </trkpt>
      <trkpt lat="42.75614" lon="1.51152">
        <ele>1300</ele>
        <time>2019-04-27T14:38:34Z</time>
      </trkpt>
      <trkpt lat="42.75612" lon="1.51154">
        <ele>1301</ele>
        <time>2019-04-27T14:38:35Z</time>
      </trkpt>
      <trkpt lat="42.7561" lon="1.51156">
        <ele>1301</ele>
        <time>2019-04-27T14:38:36Z</time>
      </trkpt>
      <trkpt lat="42.75608" lon="1.51157">
        <ele>1301</ele>
        <time>2019-04-27T14:38:37Z</time>
      </trkpt>
      <trkpt lat="42.75605" lon="1.5116">
        <ele>1301</ele>
        <time>2019-04-27T14:38:38Z</time>
      </trkpt>
      <trkpt lat="42.75603" lon="1.51162">
        <ele>1301</ele>
        <time>2019-04-27T14:38:39Z</time>
      </trkpt>
      <trkpt lat="42.756" lon="1.51162">
        <ele>1301</ele>
        <time>2019-04-27T14:38:40Z</time>
      </trkpt>
      <trkpt lat="42.75598" lon="1.51164">
        <ele>1302</ele>
        <time>2019-04-27T14:38:41Z</time>
      </trkpt>
      <trkpt lat="42.75596" lon="1.51166">
        <ele>1303</ele>
        <time>2019-04-27T14:38:42Z</time>
      </trkpt>
      <trkpt lat="42.75593" lon="1.51167">
        <ele>1303</ele>
        <time>2019-04-27T14:38:43Z</time>
      </trkpt>
      <trkpt lat="42.75591" lon="1.51168">
        <ele>1303</ele>
        <time>2019-04-27T14:38:44Z</time>
      </trkpt>
      <trkpt lat="42.75588" lon="1.51168">
        <ele>1303</ele>
        <time>2019-04-27T14:38:45Z</time>
      </trkpt>
      <trkpt lat="42.75586" lon="1.5117">
        <ele>1304</ele>
        <time>2019-04-27T14:38:46Z</time>
      </trkpt>
      <trkpt lat="42.75583" lon="1.51171">
        <ele>1304</ele>
        <time>2019-04-27T14:38:47Z</time>
      </trkpt>
      <trkpt lat="42.7558" lon="1.51172">
        <ele>1304</ele>
        <time>2019-04-27T14:38:48Z</time>
      </trkpt>
      <trkpt lat="42.75578" lon="1.51173">
        <ele>1304</ele>
        <time>2019-04-27T14:38:49Z</time>
      </trkpt>
      <trkpt lat="42.75576" lon="1.51174">
        <ele>1304</ele>
        <time>2019-04-27T14:38:50Z</time>
      </trkpt>
      <trkpt lat="42.75573" lon="1.51175">
        <ele>1305</ele>
        <time>2019-04-27T14:38:51Z</time>
      </trkpt>
      <trkpt lat="42.7557" lon="1.51177">
        <ele>1306</ele>
        <time>2019-04-27T14:38:52Z</time>
      </trkpt>
      <trkpt lat="42.75568" lon="1.51177">
        <ele>1306</ele>
        <time>2019-04-27T14:38:53Z</time>
      </trkpt>
      <trkpt lat="42.75566" lon="1.51177">
        <ele>1306</ele>
        <time>2019-04-27T14:38:54Z</time>
      </trkpt>
      <trkpt lat="42.75564" lon="1.51177">
        <ele>1306</ele>
        <time>2019-04-27T14:38:55Z</time>
      </trkpt>
      <trkpt lat="42.75561" lon="1.51178">
        <ele>1306</ele>
        <time>2019-04-27T14:38:56Z</time>
      </trkpt>
      <trkpt lat="42.75558" lon="1.5118">
        <ele>1307</ele>
        <time>2019-04-27T14:38:57Z</time>
      </trkpt>
      <trkpt lat="42.75555" lon="1.51181">
        <ele>1307</ele>
        <time>2019-04-27T14:38:58Z</time>
      </trkpt>
      <trkpt lat="42.75553" lon="1.51182">
        <ele>1307</ele>
        <time>2019-04-27T14:38:59Z</time>
      </trkpt>
      <trkpt lat="42.7555" lon="1.51183">
        <ele>1307</ele>
        <time>2019-04-27T14:39:00Z</time>
      </trkpt>
      <trkpt lat="42.75548" lon="1.51185">
        <ele>1307</ele>
        <time>2019-04-27T14:39:01Z</time>
      </trkpt>
      <trkpt lat="42.75545" lon="1.51186">
        <ele>1308</ele>
        <time>2019-04-27T14:39:02Z</time>
      </trkpt>
      <trkpt lat="42.75542" lon="1.51187">
        <ele>1309</ele>
        <time>2019-04-27T14:39:03Z</time>
      </trkpt>
      <trkpt lat="42.75539" lon="1.51188">
        <ele>1309</ele>
        <time>2019-04-27T14:39:04Z</time>
      </trkpt>
      <trkpt lat="42.75537" lon="1.5119">
        <ele>1309</ele>
        <time>2019-04-27T14:39:05Z</time>
      </trkpt>
      <trkpt lat="42.75535" lon="1.51192">
        <ele>1309</ele>
        <time>2019-04-27T14:39:06Z</time>
      </trkpt>
      <trkpt lat="42.75533" lon="1.51193">
        <ele>1310</ele>
        <time>2019-04-27T14:39:07Z</time>
      </trkpt>
      <trkpt lat="42.7553" lon="1.51194">
        <ele>1310</ele>
        <time>2019-04-27T14:39:08Z</time>
      </trkpt>
      <trkpt lat="42.75528" lon="1.51195">
        <ele>1310</ele>
        <time>2019-04-27T14:39:09Z</time>
      </trkpt>
      <trkpt lat="42.75525" lon="1.51197">
        <ele>1310</ele>
        <time>2019-04-27T14:39:22Z</time>
      </trkpt>
      <trkpt lat="42.75486" lon="1.51205">
        <ele>1311</ele>
        <time>2019-04-27T14:39:24Z</time>
      </trkpt>
      <trkpt lat="42.75483" lon="1.51205">
        <ele>1312</ele>
        <time>2019-04-27T14:39:25Z</time>
      </trkpt>
      <trkpt lat="42.7548" lon="1.51205">
        <ele>1313</ele>
        <time>2019-04-27T14:39:26Z</time>
      </trkpt>
      <trkpt lat="42.75477" lon="1.51205">
        <ele>1314</ele>
        <time>2019-04-27T14:39:27Z</time>
      </trkpt>
      <trkpt lat="42.75475" lon="1.51205">
        <ele>1315</ele>
        <time>2019-04-27T14:39:28Z</time>
      </trkpt>
      <trkpt lat="42.75472" lon="1.51204">
        <ele>1316</ele>
        <time>2019-04-27T14:39:29Z</time>
      </trkpt>
      <trkpt lat="42.75469" lon="1.51204">
        <ele>1316</ele>
        <time>2019-04-27T14:39:30Z</time>
      </trkpt>
      <trkpt lat="42.75466" lon="1.51203">
        <ele>1316</ele>
        <time>2019-04-27T14:39:31Z</time>
      </trkpt>
      <trkpt lat="42.75463" lon="1.51203">
        <ele>1316</ele>
        <time>2019-04-27T14:39:32Z</time>
      </trkpt>
      <trkpt lat="42.75461" lon="1.51202">
        <ele>1317</ele>
        <time>2019-04-27T14:39:33Z</time>
      </trkpt>
      <trkpt lat="42.75458" lon="1.51202">
        <ele>1317</ele>
        <time>2019-04-27T14:39:34Z</time>
      </trkpt>
      <trkpt lat="42.75455" lon="1.51201">
        <ele>1317</ele>
        <time>2019-04-27T14:39:35Z</time>
      </trkpt>
      <trkpt lat="42.75452" lon="1.512">
        <ele>1318</ele>
        <time>2019-04-27T14:39:36Z</time>
      </trkpt>
      <trkpt lat="42.75449" lon="1.512">
        <ele>1318</ele>
        <time>2019-04-27T14:39:37Z</time>
      </trkpt>
      <trkpt lat="42.75446" lon="1.51198">
        <ele>1318</ele>
        <time>2019-04-27T14:39:38Z</time>
      </trkpt>
      <trkpt lat="42.75443" lon="1.51197">
        <ele>1319</ele>
        <time>2019-04-27T14:39:39Z</time>
      </trkpt>
      <trkpt lat="42.7544" lon="1.51196">
        <ele>1319</ele>
        <time>2019-04-27T14:39:40Z</time>
      </trkpt>
      <trkpt lat="42.75438" lon="1.51195">
        <ele>1319</ele>
        <time>2019-04-27T14:39:41Z</time>
      </trkpt>
      <trkpt lat="42.75435" lon="1.51193">
        <ele>1319</ele>
        <time>2019-04-27T14:39:42Z</time>
      </trkpt>
      <trkpt lat="42.75432" lon="1.51192">
        <ele>1320</ele>
        <time>2019-04-27T14:39:43Z</time>
      </trkpt>
      <trkpt lat="42.7543" lon="1.51191">
        <ele>1320</ele>
        <time>2019-04-27T14:39:44Z</time>
      </trkpt>
      <trkpt lat="42.75427" lon="1.5119">
        <ele>1320</ele>
        <time>2019-04-27T14:39:45Z</time>
      </trkpt>
      <trkpt lat="42.75424" lon="1.51189">
        <ele>1320</ele>
        <time>2019-04-27T14:39:46Z</time>
      </trkpt>
      <trkpt lat="42.75422" lon="1.51187">
        <ele>1321</ele>
        <time>2019-04-27T14:39:47Z</time>
      </trkpt>
      <trkpt lat="42.75419" lon="1.51186">
        <ele>1321</ele>
        <time>2019-04-27T14:39:48Z</time>
      </trkpt>
      <trkpt lat="42.75416" lon="1.51186">
        <ele>1321</ele>
        <time>2019-04-27T14:39:49Z</time>
      </trkpt>
      <trkpt lat="42.75413" lon="1.51185">
        <ele>1322</ele>
        <time>2019-04-27T14:39:50Z</time>
      </trkpt>
      <trkpt lat="42.75411" lon="1.51184">
        <ele>1322</ele>
        <time>2019-04-27T14:39:51Z</time>
      </trkpt>
      <trkpt lat="42.75408" lon="1.51183">
        <ele>1322</ele>
        <time>2019-04-27T14:39:52Z</time>
      </trkpt>
      <trkpt lat="42.75405" lon="1.51183">
        <ele>1322</ele>
        <time>2019-04-27T14:39:53Z</time>
      </trkpt>
      <trkpt lat="42.75402" lon="1.51182">
        <ele>1322</ele>
        <time>2019-04-27T14:39:54Z</time>
      </trkpt>
      <trkpt lat="42.754" lon="1.51181">
        <ele>1322</ele>
        <time>2019-04-27T14:39:55Z</time>
      </trkpt>
      <trkpt lat="42.75397" lon="1.5118">
        <ele>1322</ele>
        <time>2019-04-27T14:39:56Z</time>
      </trkpt>
      <trkpt lat="42.75394" lon="1.5118">
        <ele>1323</ele>
        <time>2019-04-27T14:40:01Z</time>
      </trkpt>
      <trkpt lat="42.75374" lon="1.51175">
        <ele>1325</ele>
        <time>2019-04-27T14:40:03Z</time>
      </trkpt>
      <trkpt lat="42.75371" lon="1.51174">
        <ele>1326</ele>
        <time>2019-04-27T14:40:04Z</time>
      </trkpt>
      <trkpt lat="42.75369" lon="1.51173">
        <ele>1326</ele>
        <time>2019-04-27T14:40:05Z</time>
      </trkpt>
      <trkpt lat="42.75366" lon="1.51172">
        <ele>1326</ele>
        <time>2019-04-27T14:40:06Z</time>
      </trkpt>
      <trkpt lat="42.75363" lon="1.51171">
        <ele>1326</ele>
        <time>2019-04-27T14:40:07Z</time>
      </trkpt>
      <trkpt lat="42.7536" lon="1.5117">
        <ele>1326</ele>
        <time>2019-04-27T14:40:08Z</time>
      </trkpt>
      <trkpt lat="42.75357" lon="1.51169">
        <ele>1326</ele>
        <time>2019-04-27T14:40:09Z</time>
      </trkpt>
      <trkpt lat="42.75355" lon="1.51168">
        <ele>1327</ele>
        <time>2019-04-27T14:40:10Z</time>
      </trkpt>
      <trkpt lat="42.75352" lon="1.51167">
        <ele>1328</ele>
        <time>2019-04-27T14:40:11Z</time>
      </trkpt>
      <trkpt lat="42.75349" lon="1.51166">
        <ele>1328</ele>
        <time>2019-04-27T14:40:12Z</time>
      </trkpt>
      <trkpt lat="42.75346" lon="1.51164">
        <ele>1328</ele>
        <time>2019-04-27T14:40:13Z</time>
      </trkpt>
      <trkpt lat="42.75344" lon="1.51163">
        <ele>1328</ele>
        <time>2019-04-27T14:40:14Z</time>
      </trkpt>
      <trkpt lat="42.75342" lon="1.51159">
        <ele>1328</ele>
        <time>2019-04-27T14:40:15Z</time>
      </trkpt>
      <trkpt lat="42.75339" lon="1.51157">
        <ele>1328</ele>
        <time>2019-04-27T14:40:16Z</time>
      </trkpt>
      <trkpt lat="42.75336" lon="1.51155">
        <ele>1329</ele>
        <time>2019-04-27T14:40:17Z</time>
      </trkpt>
      <trkpt lat="42.75334" lon="1.51153">
        <ele>1330</ele>
        <time>2019-04-27T14:40:18Z</time>
      </trkpt>
      <trkpt lat="42.75331" lon="1.51152">
        <ele>1330</ele>
        <time>2019-04-27T14:40:19Z</time>
      </trkpt>
      <trkpt lat="42.75329" lon="1.5115">
        <ele>1330</ele>
        <time>2019-04-27T14:40:20Z</time>
      </trkpt>
      <trkpt lat="42.75326" lon="1.51148">
        <ele>1330</ele>
        <time>2019-04-27T14:40:21Z</time>
      </trkpt>
      <trkpt lat="42.75324" lon="1.51146">
        <ele>1331</ele>
        <time>2019-04-27T14:40:22Z</time>
      </trkpt>
      <trkpt lat="42.75321" lon="1.51144">
        <ele>1332</ele>
        <time>2019-04-27T14:40:23Z</time>
      </trkpt>
      <trkpt lat="42.75319" lon="1.51142">
        <ele>1332</ele>
        <time>2019-04-27T14:40:24Z</time>
      </trkpt>
      <trkpt lat="42.75317" lon="1.51139">
        <ele>1332</ele>
        <time>2019-04-27T14:40:25Z</time>
      </trkpt>
      <trkpt lat="42.75314" lon="1.51137">
        <ele>1332</ele>
        <time>2019-04-27T14:40:26Z</time>
      </trkpt>
      <trkpt lat="42.75312" lon="1.51134">
        <ele>1332</ele>
        <time>2019-04-27T14:40:27Z</time>
      </trkpt>
      <trkpt lat="42.7531" lon="1.51132">
        <ele>1332</ele>
        <time>2019-04-27T14:40:28Z</time>
      </trkpt>
      <trkpt lat="42.75308" lon="1.5113">
        <ele>1332</ele>
        <time>2019-04-27T14:40:29Z</time>
      </trkpt>
      <trkpt lat="42.75305" lon="1.51128">
        <ele>1332</ele>
        <time>2019-04-27T14:40:30Z</time>
      </trkpt>
      <trkpt lat="42.75303" lon="1.51125">
        <ele>1333</ele>
        <time>2019-04-27T14:40:31Z</time>
      </trkpt>
      <trkpt lat="42.75301" lon="1.51123">
        <ele>1334</ele>
        <time>2019-04-27T14:40:32Z</time>
      </trkpt>
      <trkpt lat="42.75299" lon="1.5112">
        <ele>1334</ele>
        <time>2019-04-27T14:40:33Z</time>
      </trkpt>
      <trkpt lat="42.75297" lon="1.51118">
        <ele>1334</ele>
        <time>2019-04-27T14:40:34Z</time>
      </trkpt>
      <trkpt lat="42.75295" lon="1.51115">
        <ele>1335</ele>
        <time>2019-04-27T14:40:35Z</time>
      </trkpt>
      <trkpt lat="42.75293" lon="1.51113">
        <ele>1335</ele>
        <time>2019-04-27T14:40:36Z</time>
      </trkpt>
      <trkpt lat="42.75291" lon="1.5111">
        <ele>1335</ele>
        <time>2019-04-27T14:40:37Z</time>
      </trkpt>
      <trkpt lat="42.75288" lon="1.51107">
        <ele>1335</ele>
        <time>2019-04-27T14:40:38Z</time>
      </trkpt>
      <trkpt lat="42.75286" lon="1.51105">
        <ele>1336</ele>
        <time>2019-04-27T14:40:39Z</time>
      </trkpt>
      <trkpt lat="42.75284" lon="1.51103">
        <ele>1336</ele>
        <time>2019-04-27T14:40:40Z</time>
      </trkpt>
      <trkpt lat="42.75282" lon="1.511">
        <ele>1336</ele>
        <time>2019-04-27T14:40:41Z</time>
      </trkpt>
      <trkpt lat="42.75279" lon="1.51097">
        <ele>1336</ele>
        <time>2019-04-27T14:40:42Z</time>
      </trkpt>
      <trkpt lat="42.75277" lon="1.51095">
        <ele>1336</ele>
        <time>2019-04-27T14:40:53Z</time>
      </trkpt>
      <trkpt lat="42.75251" lon="1.51062">
        <ele>1338</ele>
        <time>2019-04-27T14:40:55Z</time>
      </trkpt>
      <trkpt lat="42.7525" lon="1.51059">
        <ele>1339</ele>
        <time>2019-04-27T14:40:56Z</time>
      </trkpt>
      <trkpt lat="42.75248" lon="1.51056">
        <ele>1340</ele>
        <time>2019-04-27T14:40:57Z</time>
      </trkpt>
      <trkpt lat="42.75246" lon="1.51053">
        <ele>1341</ele>
        <time>2019-04-27T14:40:58Z</time>
      </trkpt>
      <trkpt lat="42.75244" lon="1.5105">
        <ele>1342</ele>
        <time>2019-04-27T14:40:59Z</time>
      </trkpt>
      <trkpt lat="42.75242" lon="1.51047">
        <ele>1342</ele>
        <time>2019-04-27T14:41:00Z</time>
      </trkpt>
      <trkpt lat="42.7524" lon="1.51044">
        <ele>1342</ele>
        <time>2019-04-27T14:41:01Z</time>
      </trkpt>
      <trkpt lat="42.75238" lon="1.51041">
        <ele>1342</ele>
        <time>2019-04-27T14:41:02Z</time>
      </trkpt>
      <trkpt lat="42.75236" lon="1.51038">
        <ele>1342</ele>
        <time>2019-04-27T14:41:03Z</time>
      </trkpt>
      <trkpt lat="42.75234" lon="1.51036">
        <ele>1342</ele>
        <time>2019-04-27T14:41:04Z</time>
      </trkpt>
      <trkpt lat="42.75232" lon="1.51034">
        <ele>1342</ele>
        <time>2019-04-27T14:41:05Z</time>
      </trkpt>
      <trkpt lat="42.7523" lon="1.51031">
        <ele>1342</ele>
        <time>2019-04-27T14:41:06Z</time>
      </trkpt>
      <trkpt lat="42.75228" lon="1.51028">
        <ele>1343</ele>
        <time>2019-04-27T14:41:07Z</time>
      </trkpt>
      <trkpt lat="42.75226" lon="1.51025">
        <ele>1344</ele>
        <time>2019-04-27T14:41:08Z</time>
      </trkpt>
      <trkpt lat="42.75223" lon="1.51019">
        <ele>1344</ele>
        <time>2019-04-27T14:41:10Z</time>
      </trkpt>
      <trkpt lat="42.75221" lon="1.51017">
        <ele>1344</ele>
        <time>2019-04-27T14:41:11Z</time>
      </trkpt>
      <trkpt lat="42.75219" lon="1.51014">
        <ele>1345</ele>
        <time>2019-04-27T14:41:12Z</time>
      </trkpt>
      <trkpt lat="42.75217" lon="1.51011">
        <ele>1345</ele>
        <time>2019-04-27T14:41:13Z</time>
      </trkpt>
      <trkpt lat="42.75215" lon="1.51009">
        <ele>1345</ele>
        <time>2019-04-27T14:41:14Z</time>
      </trkpt>
      <trkpt lat="42.75212" lon="1.51007">
        <ele>1345</ele>
        <time>2019-04-27T14:41:15Z</time>
      </trkpt>
      <trkpt lat="42.7521" lon="1.51004">
        <ele>1345</ele>
        <time>2019-04-27T14:41:16Z</time>
      </trkpt>
      <trkpt lat="42.75208" lon="1.51001">
        <ele>1346</ele>
        <time>2019-04-27T14:41:17Z</time>
      </trkpt>
      <trkpt lat="42.75206" lon="1.50998">
        <ele>1347</ele>
        <time>2019-04-27T14:41:18Z</time>
      </trkpt>
      <trkpt lat="42.75203" lon="1.50995">
        <ele>1347</ele>
        <time>2019-04-27T14:41:19Z</time>
      </trkpt>
      <trkpt lat="42.75201" lon="1.50992">
        <ele>1347</ele>
        <time>2019-04-27T14:41:20Z</time>
      </trkpt>
      <trkpt lat="42.75199" lon="1.50989">
        <ele>1347</ele>
        <time>2019-04-27T14:41:21Z</time>
      </trkpt>
      <trkpt lat="42.75196" lon="1.50987">
        <ele>1347</ele>
        <time>2019-04-27T14:41:22Z</time>
      </trkpt>
      <trkpt lat="42.75194" lon="1.50986">
        <ele>1347</ele>
        <time>2019-04-27T14:41:23Z</time>
      </trkpt>
      <trkpt lat="42.75191" lon="1.50983">
        <ele>1348</ele>
        <time>2019-04-27T14:41:24Z</time>
      </trkpt>
      <trkpt lat="42.75189" lon="1.50981">
        <ele>1348</ele>
        <time>2019-04-27T14:41:25Z</time>
      </trkpt>
      <trkpt lat="42.75186" lon="1.50978">
        <ele>1348</ele>
        <time>2019-04-27T14:41:26Z</time>
      </trkpt>
      <trkpt lat="42.75183" lon="1.50976">
        <ele>1348</ele>
        <time>2019-04-27T14:41:27Z</time>
      </trkpt>
      <trkpt lat="42.7518" lon="1.50974">
        <ele>1348</ele>
        <time>2019-04-27T14:41:28Z</time>
      </trkpt>
      <trkpt lat="42.75178" lon="1.50972">
        <ele>1348</ele>
        <time>2019-04-27T14:41:29Z</time>
      </trkpt>
      <trkpt lat="42.75164" lon="1.50963">
        <ele>1350</ele>
        <time>2019-04-27T14:41:34Z</time>
      </trkpt>
      <trkpt lat="42.75162" lon="1.50961">
        <ele>1350</ele>
        <time>2019-04-27T14:41:35Z</time>
      </trkpt>
      <trkpt lat="42.75159" lon="1.50959">
        <ele>1351</ele>
        <time>2019-04-27T14:41:36Z</time>
      </trkpt>
      <trkpt lat="42.75156" lon="1.50958">
        <ele>1351</ele>
        <time>2019-04-27T14:41:37Z</time>
      </trkpt>
      <trkpt lat="42.75153" lon="1.50956">
        <ele>1351</ele>
        <time>2019-04-27T14:41:38Z</time>
      </trkpt>
      <trkpt lat="42.7515" lon="1.50955">
        <ele>1351</ele>
        <time>2019-04-27T14:41:39Z</time>
      </trkpt>
      <trkpt lat="42.75147" lon="1.50954">
        <ele>1351</ele>
        <time>2019-04-27T14:41:40Z</time>
      </trkpt>
      <trkpt lat="42.75144" lon="1.50952">
        <ele>1351</ele>
        <time>2019-04-27T14:41:41Z</time>
      </trkpt>
      <trkpt lat="42.7514" lon="1.50952">
        <ele>1352</ele>
        <time>2019-04-27T14:41:42Z</time>
      </trkpt>
      <trkpt lat="42.75137" lon="1.50951">
        <ele>1353</ele>
        <time>2019-04-27T14:41:43Z</time>
      </trkpt>
      <trkpt lat="42.75134" lon="1.5095">
        <ele>1353</ele>
        <time>2019-04-27T14:41:44Z</time>
      </trkpt>
      <trkpt lat="42.75131" lon="1.5095">
        <ele>1353</ele>
        <time>2019-04-27T14:41:45Z</time>
      </trkpt>
      <trkpt lat="42.75128" lon="1.50949">
        <ele>1354</ele>
        <time>2019-04-27T14:41:46Z</time>
      </trkpt>
      <trkpt lat="42.75125" lon="1.5095">
        <ele>1355</ele>
        <time>2019-04-27T14:41:47Z</time>
      </trkpt>
      <trkpt lat="42.75122" lon="1.50949">
        <ele>1355</ele>
        <time>2019-04-27T14:41:48Z</time>
      </trkpt>
      <trkpt lat="42.75119" lon="1.50949">
        <ele>1355</ele>
        <time>2019-04-27T14:41:49Z</time>
      </trkpt>
      <trkpt lat="42.75116" lon="1.50949">
        <ele>1355</ele>
        <time>2019-04-27T14:41:50Z</time>
      </trkpt>
      <trkpt lat="42.75097" lon="1.50947">
        <ele>1357</ele>
        <time>2019-04-27T14:41:57Z</time>
      </trkpt>
      <trkpt lat="42.75094" lon="1.50948">
        <ele>1358</ele>
        <time>2019-04-27T14:41:58Z</time>
      </trkpt>
      <trkpt lat="42.75091" lon="1.50949">
        <ele>1358</ele>
        <time>2019-04-27T14:41:59Z</time>
      </trkpt>
      <trkpt lat="42.75089" lon="1.50949">
        <ele>1358</ele>
        <time>2019-04-27T14:42:00Z</time>
      </trkpt>
      <trkpt lat="42.75086" lon="1.5095">
        <ele>1358</ele>
        <time>2019-04-27T14:42:01Z</time>
      </trkpt>
      <trkpt lat="42.75084" lon="1.50951">
        <ele>1358</ele>
        <time>2019-04-27T14:42:02Z</time>
      </trkpt>
      <trkpt lat="42.75081" lon="1.50952">
        <ele>1358</ele>
        <time>2019-04-27T14:42:03Z</time>
      </trkpt>
      <trkpt lat="42.75079" lon="1.50954">
        <ele>1358</ele>
        <time>2019-04-27T14:42:04Z</time>
      </trkpt>
      <trkpt lat="42.75076" lon="1.50955">
        <ele>1359</ele>
        <time>2019-04-27T14:42:05Z</time>
      </trkpt>
      <trkpt lat="42.75074" lon="1.50957">
        <ele>1359</ele>
        <time>2019-04-27T14:42:06Z</time>
      </trkpt>
      <trkpt lat="42.75072" lon="1.50957">
        <ele>1359</ele>
        <time>2019-04-27T14:42:07Z</time>
      </trkpt>
      <trkpt lat="42.7507" lon="1.50957">
        <ele>1359</ele>
        <time>2019-04-27T14:42:08Z</time>
      </trkpt>
      <trkpt lat="42.75068" lon="1.50957">
        <ele>1360</ele>
        <time>2019-04-27T14:42:09Z</time>
      </trkpt>
      <trkpt lat="42.75067" lon="1.50958">
        <ele>1361</ele>
        <time>2019-04-27T14:42:10Z</time>
      </trkpt>
      <trkpt lat="42.75065" lon="1.50959">
        <ele>1361</ele>
        <time>2019-04-27T14:42:11Z</time>
      </trkpt>
      <trkpt lat="42.75062" lon="1.50961">
        <ele>1362</ele>
        <time>2019-04-27T14:42:12Z</time>
      </trkpt>
      <trkpt lat="42.7506" lon="1.50963">
        <ele>1362</ele>
        <time>2019-04-27T14:42:13Z</time>
      </trkpt>
      <trkpt lat="42.75056" lon="1.50966">
        <ele>1362</ele>
        <time>2019-04-27T14:42:14Z</time>
      </trkpt>
      <trkpt lat="42.75053" lon="1.50968">
        <ele>1362</ele>
        <time>2019-04-27T14:42:15Z</time>
      </trkpt>
      <trkpt lat="42.75051" lon="1.50971">
        <ele>1362</ele>
        <time>2019-04-27T14:42:16Z</time>
      </trkpt>
      <trkpt lat="42.75016" lon="1.51003">
        <ele>1363</ele>
        <time>2019-04-27T14:42:31Z</time>
      </trkpt>
      <trkpt lat="42.75013" lon="1.51006">
        <ele>1364</ele>
        <time>2019-04-27T14:42:32Z</time>
      </trkpt>
      <trkpt lat="42.7501" lon="1.51008">
        <ele>1365</ele>
        <time>2019-04-27T14:42:33Z</time>
      </trkpt>
      <trkpt lat="42.75008" lon="1.5101">
        <ele>1366</ele>
        <time>2019-04-27T14:42:34Z</time>
      </trkpt>
      <trkpt lat="42.75007" lon="1.51013">
        <ele>1367</ele>
        <time>2019-04-27T14:42:35Z</time>
      </trkpt>
      <trkpt lat="42.75005" lon="1.51015">
        <ele>1368</ele>
        <time>2019-04-27T14:42:36Z</time>
      </trkpt>
      <trkpt lat="42.75002" lon="1.5102">
        <ele>1369</ele>
        <time>2019-04-27T14:42:37Z</time>
      </trkpt>
      <trkpt lat="42.74998" lon="1.51023">
        <ele>1369</ele>
        <time>2019-04-27T14:42:38Z</time>
      </trkpt>
      <trkpt lat="42.74996" lon="1.51026">
        <ele>1369</ele>
        <time>2019-04-27T14:42:39Z</time>
      </trkpt>
      <trkpt lat="42.74994" lon="1.51026">
        <ele>1369</ele>
        <time>2019-04-27T14:42:40Z</time>
      </trkpt>
      <trkpt lat="42.74992" lon="1.51027">
        <ele>1369</ele>
        <time>2019-04-27T14:42:41Z</time>
      </trkpt>
      <trkpt lat="42.74989" lon="1.5103">
        <ele>1370</ele>
        <time>2019-04-27T14:42:42Z</time>
      </trkpt>
      <trkpt lat="42.74987" lon="1.51031">
        <ele>1371</ele>
        <time>2019-04-27T14:42:43Z</time>
      </trkpt>
      <trkpt lat="42.74985" lon="1.51033">
        <ele>1371</ele>
        <time>2019-04-27T14:42:44Z</time>
      </trkpt>
      <trkpt lat="42.74983" lon="1.51034">
        <ele>1371</ele>
        <time>2019-04-27T14:42:45Z</time>
      </trkpt>
      <trkpt lat="42.74981" lon="1.51037">
        <ele>1371</ele>
        <time>2019-04-27T14:42:46Z</time>
      </trkpt>
      <trkpt lat="42.74978" lon="1.51042">
        <ele>1371</ele>
        <time>2019-04-27T14:42:47Z</time>
      </trkpt>
      <trkpt lat="42.74976" lon="1.51044">
        <ele>1372</ele>
        <time>2019-04-27T14:42:48Z</time>
      </trkpt>
      <trkpt lat="42.74974" lon="1.51046">
        <ele>1372</ele>
        <time>2019-04-27T14:42:49Z</time>
      </trkpt>
      <trkpt lat="42.74971" lon="1.51048">
        <ele>1373</ele>
        <time>2019-04-27T14:42:50Z</time>
      </trkpt>
      <trkpt lat="42.74969" lon="1.5105">
        <ele>1373</ele>
        <time>2019-04-27T14:42:51Z</time>
      </trkpt>
      <trkpt lat="42.74968" lon="1.51052">
        <ele>1373</ele>
        <time>2019-04-27T14:42:52Z</time>
      </trkpt>
      <trkpt lat="42.74967" lon="1.51054">
        <ele>1373</ele>
        <time>2019-04-27T14:42:53Z</time>
      </trkpt>
      <trkpt lat="42.74965" lon="1.51057">
        <ele>1374</ele>
        <time>2019-04-27T14:42:54Z</time>
      </trkpt>
      <trkpt lat="42.74962" lon="1.51059">
        <ele>1374</ele>
        <time>2019-04-27T14:42:55Z</time>
      </trkpt>
      <trkpt lat="42.74961" lon="1.51062">
        <ele>1375</ele>
        <time>2019-04-27T14:42:56Z</time>
      </trkpt>
      <trkpt lat="42.74959" lon="1.51065">
        <ele>1375</ele>
        <time>2019-04-27T14:42:57Z</time>
      </trkpt>
      <trkpt lat="42.74957" lon="1.51067">
        <ele>1375</ele>
        <time>2019-04-27T14:42:58Z</time>
      </trkpt>
      <trkpt lat="42.74956" lon="1.51069">
        <ele>1375</ele>
        <time>2019-04-27T14:42:59Z</time>
      </trkpt>
      <trkpt lat="42.74955" lon="1.51071">
        <ele>1375</ele>
        <time>2019-04-27T14:43:00Z</time>
      </trkpt>
      <trkpt lat="42.74952" lon="1.51074">
        <ele>1375</ele>
        <time>2019-04-27T14:43:01Z</time>
      </trkpt>
      <trkpt lat="42.7495" lon="1.51075">
        <ele>1376</ele>
        <time>2019-04-27T14:43:02Z</time>
      </trkpt>
      <trkpt lat="42.74949" lon="1.51077">
        <ele>1376</ele>
        <time>2019-04-27T14:43:03Z</time>
      </trkpt>
      <trkpt lat="42.74929" lon="1.511">
        <ele>1378</ele>
        <time>2019-04-27T14:43:11Z</time>
      </trkpt>
      <trkpt lat="42.74927" lon="1.51103">
        <ele>1378</ele>
        <time>2019-04-27T14:43:12Z</time>
      </trkpt>
      <trkpt lat="42.74923" lon="1.51107">
        <ele>1378</ele>
        <time>2019-04-27T14:43:13Z</time>
      </trkpt>
      <trkpt lat="42.7492" lon="1.5111">
        <ele>1379</ele>
        <time>2019-04-27T14:43:14Z</time>
      </trkpt>
      <trkpt lat="42.74917" lon="1.51112">
        <ele>1379</ele>
        <time>2019-04-27T14:43:15Z</time>
      </trkpt>
      <trkpt lat="42.74915" lon="1.51114">
        <ele>1379</ele>
        <time>2019-04-27T14:43:16Z</time>
      </trkpt>
      <trkpt lat="42.74913" lon="1.51115">
        <ele>1379</ele>
        <time>2019-04-27T14:43:17Z</time>
      </trkpt>
      <trkpt lat="42.74911" lon="1.51117">
        <ele>1380</ele>
        <time>2019-04-27T14:43:18Z</time>
      </trkpt>
      <trkpt lat="42.74909" lon="1.5112">
        <ele>1380</ele>
        <time>2019-04-27T14:43:19Z</time>
      </trkpt>
      <trkpt lat="42.74906" lon="1.51123">
        <ele>1380</ele>
        <time>2019-04-27T14:43:20Z</time>
      </trkpt>
      <trkpt lat="42.74903" lon="1.51125">
        <ele>1380</ele>
        <time>2019-04-27T14:43:21Z</time>
      </trkpt>
      <trkpt lat="42.749" lon="1.51128">
        <ele>1380</ele>
        <time>2019-04-27T14:43:22Z</time>
      </trkpt>
      <trkpt lat="42.74898" lon="1.51131">
        <ele>1380</ele>
        <time>2019-04-27T14:43:23Z</time>
      </trkpt>
      <trkpt lat="42.74896" lon="1.51133">
        <ele>1381</ele>
        <time>2019-04-27T14:43:24Z</time>
      </trkpt>
      <trkpt lat="42.74894" lon="1.51136">
        <ele>1382</ele>
        <time>2019-04-27T14:43:25Z</time>
      </trkpt>
      <trkpt lat="42.7489" lon="1.51139">
        <ele>1382</ele>
        <time>2019-04-27T14:43:26Z</time>
      </trkpt>
      <trkpt lat="42.74887" lon="1.51142">
        <ele>1383</ele>
        <time>2019-04-27T14:43:27Z</time>
      </trkpt>
      <trkpt lat="42.74885" lon="1.51145">
        <ele>1383</ele>
        <time>2019-04-27T14:43:28Z</time>
      </trkpt>
      <trkpt lat="42.74883" lon="1.51148">
        <ele>1383</ele>
        <time>2019-04-27T14:43:29Z</time>
      </trkpt>
      <trkpt lat="42.74882" lon="1.51149">
        <ele>1383</ele>
        <time>2019-04-27T14:43:30Z</time>
      </trkpt>
      <trkpt lat="42.7488" lon="1.51151">
        <ele>1383</ele>
        <time>2019-04-27T14:43:31Z</time>
      </trkpt>
      <trkpt lat="42.74878" lon="1.51153">
        <ele>1384</ele>
        <time>2019-04-27T14:43:32Z</time>
      </trkpt>
      <trkpt lat="42.74876" lon="1.51156">
        <ele>1384</ele>
        <time>2019-04-27T14:43:33Z</time>
      </trkpt>
      <trkpt lat="42.74874" lon="1.51159">
        <ele>1385</ele>
        <time>2019-04-27T14:43:34Z</time>
      </trkpt>
      <trkpt lat="42.74872" lon="1.51161">
        <ele>1385</ele>
        <time>2019-04-27T14:43:35Z</time>
      </trkpt>
      <trkpt lat="42.74869" lon="1.51164">
        <ele>1385</ele>
        <time>2019-04-27T14:43:36Z</time>
      </trkpt>
      <trkpt lat="42.74867" lon="1.51165">
        <ele>1385</ele>
        <time>2019-04-27T14:43:37Z</time>
      </trkpt>
      <trkpt lat="42.74865" lon="1.51166">
        <ele>1385</ele>
        <time>2019-04-27T14:43:38Z</time>
      </trkpt>
      <trkpt lat="42.74865" lon="1.51166">
        <ele>1385</ele>
        <time>2019-04-27T14:43:39Z</time>
      </trkpt>
      <trkpt lat="42.74861" lon="1.51172">
        <ele>1386</ele>
        <time>2019-04-27T14:43:40Z</time>
      </trkpt>
      <trkpt lat="42.74858" lon="1.51174">
        <ele>1387</ele>
        <time>2019-04-27T14:43:41Z</time>
      </trkpt>
      <trkpt lat="42.74855" lon="1.51176">
        <ele>1387</ele>
        <time>2019-04-27T14:43:42Z</time>
      </trkpt>
      <trkpt lat="42.74854" lon="1.51176">
        <ele>1387</ele>
        <time>2019-04-27T14:43:43Z</time>
      </trkpt>
      <trkpt lat="42.74851" lon="1.51178">
        <ele>1387</ele>
        <time>2019-04-27T14:43:44Z</time>
      </trkpt>
      <trkpt lat="42.7485" lon="1.51179">
        <ele>1387</ele>
        <time>2019-04-27T14:43:45Z</time>
      </trkpt>
      <trkpt lat="42.74847" lon="1.51181">
        <ele>1388</ele>
        <time>2019-04-27T14:43:46Z</time>
      </trkpt>
      <trkpt lat="42.74845" lon="1.51183">
        <ele>1389</ele>
        <time>2019-04-27T14:43:47Z</time>
      </trkpt>
      <trkpt lat="42.74843" lon="1.51184">
        <ele>1389</ele>
        <time>2019-04-27T14:43:48Z</time>
      </trkpt>
      <trkpt lat="42.74841" lon="1.51185">
        <ele>1389</ele>
        <time>2019-04-27T14:43:49Z</time>
      </trkpt>
      <trkpt lat="42.74839" lon="1.51186">
        <ele>1389</ele>
        <time>2019-04-27T14:43:50Z</time>
      </trkpt>
      <trkpt lat="42.74805" lon="1.51213">
        <ele>1392</ele>
        <time>2019-04-27T14:44:03Z</time>
      </trkpt>
      <trkpt lat="42.74803" lon="1.51214">
        <ele>1393</ele>
        <time>2019-04-27T14:44:04Z</time>
      </trkpt>
      <trkpt lat="42.74801" lon="1.51216">
        <ele>1394</ele>
        <time>2019-04-27T14:44:05Z</time>
      </trkpt>
      <trkpt lat="42.748" lon="1.51218">
        <ele>1395</ele>
        <time>2019-04-27T14:44:06Z</time>
      </trkpt>
      <trkpt lat="42.74797" lon="1.51222">
        <ele>1395</ele>
        <time>2019-04-27T14:44:07Z</time>
      </trkpt>
      <trkpt lat="42.74794" lon="1.51223">
        <ele>1396</ele>
        <time>2019-04-27T14:44:08Z</time>
      </trkpt>
      <trkpt lat="42.74792" lon="1.51225">
        <ele>1396</ele>
        <time>2019-04-27T14:44:09Z</time>
      </trkpt>
      <trkpt lat="42.74791" lon="1.51225">
        <ele>1396</ele>
        <time>2019-04-27T14:44:10Z</time>
      </trkpt>
      <trkpt lat="42.7479" lon="1.51226">
        <ele>1396</ele>
        <time>2019-04-27T14:44:11Z</time>
      </trkpt>
      <trkpt lat="42.74787" lon="1.5123">
        <ele>1396</ele>
        <time>2019-04-27T14:44:12Z</time>
      </trkpt>
      <trkpt lat="42.74785" lon="1.51232">
        <ele>1396</ele>
        <time>2019-04-27T14:44:13Z</time>
      </trkpt>
      <trkpt lat="42.74783" lon="1.51235">
        <ele>1397</ele>
        <time>2019-04-27T14:44:14Z</time>
      </trkpt>
      <trkpt lat="42.7478" lon="1.51237">
        <ele>1398</ele>
        <time>2019-04-27T14:44:15Z</time>
      </trkpt>
      <trkpt lat="42.74779" lon="1.51238">
        <ele>1398</ele>
        <time>2019-04-27T14:44:16Z</time>
      </trkpt>
      <trkpt lat="42.74777" lon="1.5124">
        <ele>1398</ele>
        <time>2019-04-27T14:44:17Z</time>
      </trkpt>
      <trkpt lat="42.74775" lon="1.51243">
        <ele>1398</ele>
        <time>2019-04-27T14:44:18Z</time>
      </trkpt>
      <trkpt lat="42.74771" lon="1.51247">
        <ele>1399</ele>
        <time>2019-04-27T14:44:19Z</time>
      </trkpt>
      <trkpt lat="42.74769" lon="1.51249">
        <ele>1399</ele>
        <time>2019-04-27T14:44:20Z</time>
      </trkpt>
      <trkpt lat="42.74767" lon="1.51252">
        <ele>1400</ele>
        <time>2019-04-27T14:44:21Z</time>
      </trkpt>
      <trkpt lat="42.74766" lon="1.51254">
        <ele>1400</ele>
        <time>2019-04-27T14:44:22Z</time>
      </trkpt>
      <trkpt lat="42.74763" lon="1.51258">
        <ele>1400</ele>
        <time>2019-04-27T14:44:23Z</time>
      </trkpt>
      <trkpt lat="42.74762" lon="1.5126">
        <ele>1400</ele>
        <time>2019-04-27T14:44:24Z</time>
      </trkpt>
      <trkpt lat="42.74758" lon="1.51262">
        <ele>1400</ele>
        <time>2019-04-27T14:44:25Z</time>
      </trkpt>
      <trkpt lat="42.74756" lon="1.51264">
        <ele>1401</ele>
        <time>2019-04-27T14:44:26Z</time>
      </trkpt>
      <trkpt lat="42.74753" lon="1.51266">
        <ele>1401</ele>
        <time>2019-04-27T14:44:27Z</time>
      </trkpt>
      <trkpt lat="42.7475" lon="1.51269">
        <ele>1402</ele>
        <time>2019-04-27T14:44:28Z</time>
      </trkpt>
      <trkpt lat="42.74748" lon="1.51271">
        <ele>1402</ele>
        <time>2019-04-27T14:44:29Z</time>
      </trkpt>
      <trkpt lat="42.74745" lon="1.51274">
        <ele>1403</ele>
        <time>2019-04-27T14:44:30Z</time>
      </trkpt>
      <trkpt lat="42.74742" lon="1.51276">
        <ele>1403</ele>
        <time>2019-04-27T14:44:31Z</time>
      </trkpt>
      <trkpt lat="42.74739" lon="1.51278">
        <ele>1403</ele>
        <time>2019-04-27T14:44:32Z</time>
      </trkpt>
      <trkpt lat="42.74736" lon="1.5128">
        <ele>1403</ele>
        <time>2019-04-27T14:44:33Z</time>
      </trkpt>
      <trkpt lat="42.74733" lon="1.51282">
        <ele>1403</ele>
        <time>2019-04-27T14:44:34Z</time>
      </trkpt>
      <trkpt lat="42.7473" lon="1.51283">
        <ele>1403</ele>
        <time>2019-04-27T14:44:35Z</time>
      </trkpt>
      <trkpt lat="42.74727" lon="1.51285">
        <ele>1404</ele>
        <time>2019-04-27T14:44:36Z</time>
      </trkpt>
      <trkpt lat="42.74724" lon="1.51286">
        <ele>1404</ele>
        <time>2019-04-27T14:44:37Z</time>
      </trkpt>
      <trkpt lat="42.74722" lon="1.51287">
        <ele>1404</ele>
        <time>2019-04-27T14:44:39Z</time>
      </trkpt>
      <trkpt lat="42.74715" lon="1.5129">
        <ele>1406</ele>
        <time>2019-04-27T14:44:41Z</time>
      </trkpt>
      <trkpt lat="42.74712" lon="1.51291">
        <ele>1406</ele>
        <time>2019-04-27T14:44:42Z</time>
      </trkpt>
      <trkpt lat="42.74709" lon="1.51292">
        <ele>1406</ele>
        <time>2019-04-27T14:44:43Z</time>
      </trkpt>
      <trkpt lat="42.74706" lon="1.51294">
        <ele>1406</ele>
        <time>2019-04-27T14:44:44Z</time>
      </trkpt>
      <trkpt lat="42.74704" lon="1.51295">
        <ele>1407</ele>
        <time>2019-04-27T14:44:45Z</time>
      </trkpt>
      <trkpt lat="42.74701" lon="1.51296">
        <ele>1407</ele>
        <time>2019-04-27T14:44:46Z</time>
      </trkpt>
      <trkpt lat="42.74698" lon="1.51297">
        <ele>1407</ele>
        <time>2019-04-27T14:44:47Z</time>
      </trkpt>
      <trkpt lat="42.74696" lon="1.51298">
        <ele>1407</ele>
        <time>2019-04-27T14:44:48Z</time>
      </trkpt>
      <trkpt lat="42.74693" lon="1.51299">
        <ele>1407</ele>
        <time>2019-04-27T14:44:49Z</time>
      </trkpt>
      <trkpt lat="42.7469" lon="1.513">
        <ele>1408</ele>
        <time>2019-04-27T14:44:50Z</time>
      </trkpt>
      <trkpt lat="42.74687" lon="1.51301">
        <ele>1409</ele>
        <time>2019-04-27T14:44:51Z</time>
      </trkpt>
      <trkpt lat="42.74684" lon="1.51302">
        <ele>1409</ele>
        <time>2019-04-27T14:44:52Z</time>
      </trkpt>
      <trkpt lat="42.74682" lon="1.51303">
        <ele>1409</ele>
        <time>2019-04-27T14:44:53Z</time>
      </trkpt>
      <trkpt lat="42.74679" lon="1.51304">
        <ele>1409</ele>
        <time>2019-04-27T14:44:54Z</time>
      </trkpt>
      <trkpt lat="42.74676" lon="1.51304">
        <ele>1410</ele>
        <time>2019-04-27T14:44:55Z</time>
      </trkpt>
      <trkpt lat="42.74673" lon="1.51305">
        <ele>1410</ele>
        <time>2019-04-27T14:44:56Z</time>
      </trkpt>
      <trkpt lat="42.7467" lon="1.51305">
        <ele>1410</ele>
        <time>2019-04-27T14:44:57Z</time>
      </trkpt>
      <trkpt lat="42.74667" lon="1.51304">
        <ele>1410</ele>
        <time>2019-04-27T14:44:58Z</time>
      </trkpt>
      <trkpt lat="42.74664" lon="1.51304">
        <ele>1410</ele>
        <time>2019-04-27T14:44:59Z</time>
      </trkpt>
      <trkpt lat="42.74661" lon="1.51304">
        <ele>1410</ele>
        <time>2019-04-27T14:45:00Z</time>
      </trkpt>
      <trkpt lat="42.74658" lon="1.51304">
        <ele>1411</ele>
        <time>2019-04-27T14:45:01Z</time>
      </trkpt>
      <trkpt lat="42.74655" lon="1.51304">
        <ele>1412</ele>
        <time>2019-04-27T14:45:02Z</time>
      </trkpt>
      <trkpt lat="42.74653" lon="1.51303">
        <ele>1412</ele>
        <time>2019-04-27T14:45:03Z</time>
      </trkpt>
      <trkpt lat="42.7465" lon="1.51303">
        <ele>1413</ele>
        <time>2019-04-27T14:45:04Z</time>
      </trkpt>
      <trkpt lat="42.74647" lon="1.51303">
        <ele>1413</ele>
        <time>2019-04-27T14:45:05Z</time>
      </trkpt>
      <trkpt lat="42.74644" lon="1.51302">
        <ele>1413</ele>
        <time>2019-04-27T14:45:06Z</time>
      </trkpt>
      <trkpt lat="42.74641" lon="1.51301">
        <ele>1413</ele>
        <time>2019-04-27T14:45:07Z</time>
      </trkpt>
      <trkpt lat="42.74638" lon="1.51301">
        <ele>1414</ele>
        <time>2019-04-27T14:45:08Z</time>
      </trkpt>
      <trkpt lat="42.74635" lon="1.51301">
        <ele>1414</ele>
        <time>2019-04-27T14:45:09Z</time>
      </trkpt>
      <trkpt lat="42.74633" lon="1.513">
        <ele>1414</ele>
        <time>2019-04-27T14:45:10Z</time>
      </trkpt>
      <trkpt lat="42.7463" lon="1.51299">
        <ele>1414</ele>
        <time>2019-04-27T14:45:11Z</time>
      </trkpt>
      <trkpt lat="42.74627" lon="1.51299">
        <ele>1415</ele>
        <time>2019-04-27T14:45:12Z</time>
      </trkpt>
      <trkpt lat="42.74624" lon="1.51299">
        <ele>1415</ele>
        <time>2019-04-27T14:45:13Z</time>
      </trkpt>
      <trkpt lat="42.74621" lon="1.51298">
        <ele>1415</ele>
        <time>2019-04-27T14:45:14Z</time>
      </trkpt>
      <trkpt lat="42.74619" lon="1.51298">
        <ele>1415</ele>
        <time>2019-04-27T14:45:15Z</time>
      </trkpt>
      <trkpt lat="42.74616" lon="1.51297">
        <ele>1416</ele>
        <time>2019-04-27T14:45:16Z</time>
      </trkpt>
      <trkpt lat="42.74613" lon="1.51296">
        <ele>1416</ele>
        <time>2019-04-27T14:45:17Z</time>
      </trkpt>
      <trkpt lat="42.74611" lon="1.51296">
        <ele>1417</ele>
        <time>2019-04-27T14:45:18Z</time>
      </trkpt>
      <trkpt lat="42.74608" lon="1.51296">
        <ele>1417</ele>
        <time>2019-04-27T14:45:19Z</time>
      </trkpt>
      <trkpt lat="42.74605" lon="1.51295">
        <ele>1417</ele>
        <time>2019-04-27T14:45:20Z</time>
      </trkpt>
      <trkpt lat="42.74603" lon="1.51294">
        <ele>1417</ele>
        <time>2019-04-27T14:45:21Z</time>
      </trkpt>
      <trkpt lat="42.746" lon="1.51293">
        <ele>1417</ele>
        <time>2019-04-27T14:45:22Z</time>
      </trkpt>
      <trkpt lat="42.74596" lon="1.51292">
        <ele>1418</ele>
        <time>2019-04-27T14:45:23Z</time>
      </trkpt>
      <trkpt lat="42.74594" lon="1.51292">
        <ele>1418</ele>
        <time>2019-04-27T14:45:24Z</time>
      </trkpt>
      <trkpt lat="42.74555" lon="1.51274">
        <ele>1420</ele>
        <time>2019-04-27T14:45:39Z</time>
      </trkpt>
      <trkpt lat="42.74552" lon="1.51273">
        <ele>1421</ele>
        <time>2019-04-27T14:45:40Z</time>
      </trkpt>
      <trkpt lat="42.7455" lon="1.51271">
        <ele>1422</ele>
        <time>2019-04-27T14:45:41Z</time>
      </trkpt>
      <trkpt lat="42.74547" lon="1.51268">
        <ele>1423</ele>
        <time>2019-04-27T14:45:42Z</time>
      </trkpt>
      <trkpt lat="42.74545" lon="1.51266">
        <ele>1424</ele>
        <time>2019-04-27T14:45:43Z</time>
      </trkpt>
      <trkpt lat="42.74542" lon="1.51264">
        <ele>1424</ele>
        <time>2019-04-27T14:45:44Z</time>
      </trkpt>
      <trkpt lat="42.7454" lon="1.51264">
        <ele>1425</ele>
        <time>2019-04-27T14:45:45Z</time>
      </trkpt>
      <trkpt lat="42.74537" lon="1.51262">
        <ele>1425</ele>
        <time>2019-04-27T14:45:46Z</time>
      </trkpt>
      <trkpt lat="42.74534" lon="1.51262">
        <ele>1426</ele>
        <time>2019-04-27T14:45:47Z</time>
      </trkpt>
      <trkpt lat="42.74531" lon="1.51261">
        <ele>1426</ele>
        <time>2019-04-27T14:45:48Z</time>
      </trkpt>
      <trkpt lat="42.74528" lon="1.51261">
        <ele>1426</ele>
        <time>2019-04-27T14:45:49Z</time>
      </trkpt>
      <trkpt lat="42.74526" lon="1.5126">
        <ele>1426</ele>
        <time>2019-04-27T14:45:50Z</time>
      </trkpt>
      <trkpt lat="42.74523" lon="1.51261">
        <ele>1426</ele>
        <time>2019-04-27T14:45:51Z</time>
      </trkpt>
      <trkpt lat="42.7452" lon="1.51261">
        <ele>1427</ele>
        <time>2019-04-27T14:45:52Z</time>
      </trkpt>
      <trkpt lat="42.74517" lon="1.51259">
        <ele>1427</ele>
        <time>2019-04-27T14:45:53Z</time>
      </trkpt>
      <trkpt lat="42.74514" lon="1.51259">
        <ele>1427</ele>
        <time>2019-04-27T14:45:54Z</time>
      </trkpt>
      <trkpt lat="42.74511" lon="1.51259">
        <ele>1427</ele>
        <time>2019-04-27T14:45:55Z</time>
      </trkpt>
      <trkpt lat="42.74508" lon="1.5126">
        <ele>1428</ele>
        <time>2019-04-27T14:45:56Z</time>
      </trkpt>
      <trkpt lat="42.74505" lon="1.5126">
        <ele>1429</ele>
        <time>2019-04-27T14:45:57Z</time>
      </trkpt>
      <trkpt lat="42.74502" lon="1.51261">
        <ele>1429</ele>
        <time>2019-04-27T14:45:58Z</time>
      </trkpt>
      <trkpt lat="42.74499" lon="1.5126">
        <ele>1429</ele>
        <time>2019-04-27T14:45:59Z</time>
      </trkpt>
      <trkpt lat="42.74496" lon="1.5126">
        <ele>1430</ele>
        <time>2019-04-27T14:46:00Z</time>
      </trkpt>
      <trkpt lat="42.74493" lon="1.51261">
        <ele>1430</ele>
        <time>2019-04-27T14:46:01Z</time>
      </trkpt>
      <trkpt lat="42.7449" lon="1.51262">
        <ele>1431</ele>
        <time>2019-04-27T14:46:02Z</time>
      </trkpt>
      <trkpt lat="42.74487" lon="1.51263">
        <ele>1431</ele>
        <time>2019-04-27T14:46:03Z</time>
      </trkpt>
      <trkpt lat="42.74484" lon="1.51262">
        <ele>1431</ele>
        <time>2019-04-27T14:46:04Z</time>
      </trkpt>
      <trkpt lat="42.74481" lon="1.51261">
        <ele>1431</ele>
        <time>2019-04-27T14:46:05Z</time>
      </trkpt>
      <trkpt lat="42.74479" lon="1.51258">
        <ele>1432</ele>
        <time>2019-04-27T14:46:06Z</time>
      </trkpt>
      <trkpt lat="42.74476" lon="1.51257">
        <ele>1432</ele>
        <time>2019-04-27T14:46:07Z</time>
      </trkpt>
      <trkpt lat="42.74474" lon="1.51257">
        <ele>1432</ele>
        <time>2019-04-27T14:46:08Z</time>
      </trkpt>
      <trkpt lat="42.74471" lon="1.51257">
        <ele>1432</ele>
        <time>2019-04-27T14:46:09Z</time>
      </trkpt>
      <trkpt lat="42.74468" lon="1.51256">
        <ele>1433</ele>
        <time>2019-04-27T14:46:10Z</time>
      </trkpt>
      <trkpt lat="42.74465" lon="1.51256">
        <ele>1433</ele>
        <time>2019-04-27T14:46:11Z</time>
      </trkpt>
      <trkpt lat="42.74462" lon="1.51256">
        <ele>1433</ele>
        <time>2019-04-27T14:46:15Z</time>
      </trkpt>
      <trkpt lat="42.74448" lon="1.51259">
        <ele>1435</ele>
        <time>2019-04-27T14:46:17Z</time>
      </trkpt>
      <trkpt lat="42.74445" lon="1.5126">
        <ele>1436</ele>
        <time>2019-04-27T14:46:18Z</time>
      </trkpt>
      <trkpt lat="42.74442" lon="1.51261">
        <ele>1437</ele>
        <time>2019-04-27T14:46:19Z</time>
      </trkpt>
      <trkpt lat="42.7444" lon="1.51262">
        <ele>1437</ele>
        <time>2019-04-27T14:46:20Z</time>
      </trkpt>
      <trkpt lat="42.74437" lon="1.51264">
        <ele>1437</ele>
        <time>2019-04-27T14:46:21Z</time>
      </trkpt>
      <trkpt lat="42.74435" lon="1.51265">
        <ele>1437</ele>
        <time>2019-04-27T14:46:22Z</time>
      </trkpt>
      <trkpt lat="42.74433" lon="1.51267">
        <ele>1438</ele>
        <time>2019-04-27T14:46:23Z</time>
      </trkpt>
      <trkpt lat="42.7443" lon="1.5127">
        <ele>1438</ele>
        <time>2019-04-27T14:46:24Z</time>
      </trkpt>
      <trkpt lat="42.74429" lon="1.51273">
        <ele>1438</ele>
        <time>2019-04-27T14:46:25Z</time>
      </trkpt>
      <trkpt lat="42.74427" lon="1.51276">
        <ele>1439</ele>
        <time>2019-04-27T14:46:26Z</time>
      </trkpt>
      <trkpt lat="42.74425" lon="1.5128">
        <ele>1439</ele>
        <time>2019-04-27T14:46:27Z</time>
      </trkpt>
      <trkpt lat="42.74423" lon="1.51282">
        <ele>1439</ele>
        <time>2019-04-27T14:46:28Z</time>
      </trkpt>
      <trkpt lat="42.74421" lon="1.51285">
        <ele>1439</ele>
        <time>2019-04-27T14:46:29Z</time>
      </trkpt>
      <trkpt lat="42.7442" lon="1.51288">
        <ele>1439</ele>
        <time>2019-04-27T14:46:30Z</time>
      </trkpt>
      <trkpt lat="42.74419" lon="1.51292">
        <ele>1439</ele>
        <time>2019-04-27T14:46:31Z</time>
      </trkpt>
      <trkpt lat="42.74417" lon="1.51296">
        <ele>1439</ele>
        <time>2019-04-27T14:46:32Z</time>
      </trkpt>
      <trkpt lat="42.74416" lon="1.513">
        <ele>1440</ele>
        <time>2019-04-27T14:46:33Z</time>
      </trkpt>
      <trkpt lat="42.74414" lon="1.51303">
        <ele>1441</ele>
        <time>2019-04-27T14:46:34Z</time>
      </trkpt>
      <trkpt lat="42.74412" lon="1.51307">
        <ele>1441</ele>
        <time>2019-04-27T14:46:35Z</time>
      </trkpt>
      <trkpt lat="42.7441" lon="1.5131">
        <ele>1441</ele>
        <time>2019-04-27T14:46:36Z</time>
      </trkpt>
      <trkpt lat="42.74408" lon="1.51313">
        <ele>1441</ele>
        <time>2019-04-27T14:46:37Z</time>
      </trkpt>
      <trkpt lat="42.74406" lon="1.51317">
        <ele>1441</ele>
        <time>2019-04-27T14:46:38Z</time>
      </trkpt>
      <trkpt lat="42.74404" lon="1.51319">
        <ele>1442</ele>
        <time>2019-04-27T14:46:39Z</time>
      </trkpt>
      <trkpt lat="42.74402" lon="1.51322">
        <ele>1442</ele>
        <time>2019-04-27T14:46:40Z</time>
      </trkpt>
      <trkpt lat="42.74399" lon="1.51325">
        <ele>1443</ele>
        <time>2019-04-27T14:46:41Z</time>
      </trkpt>
      <trkpt lat="42.74397" lon="1.51327">
        <ele>1443</ele>
        <time>2019-04-27T14:46:42Z</time>
      </trkpt>
      <trkpt lat="42.74394" lon="1.51329">
        <ele>1443</ele>
        <time>2019-04-27T14:46:43Z</time>
      </trkpt>
      <trkpt lat="42.74392" lon="1.51332">
        <ele>1443</ele>
        <time>2019-04-27T14:46:44Z</time>
      </trkpt>
      <trkpt lat="42.74389" lon="1.51333">
        <ele>1443</ele>
        <time>2019-04-27T14:46:45Z</time>
      </trkpt>
      <trkpt lat="42.74387" lon="1.51334">
        <ele>1443</ele>
        <time>2019-04-27T14:46:46Z</time>
      </trkpt>
      <trkpt lat="42.74384" lon="1.51336">
        <ele>1444</ele>
        <time>2019-04-27T14:46:47Z</time>
      </trkpt>
      <trkpt lat="42.74381" lon="1.51337">
        <ele>1445</ele>
        <time>2019-04-27T14:46:48Z</time>
      </trkpt>
      <trkpt lat="42.74379" lon="1.51339">
        <ele>1446</ele>
        <time>2019-04-27T14:46:49Z</time>
      </trkpt>
      <trkpt lat="42.74375" lon="1.51341">
        <ele>1446</ele>
        <time>2019-04-27T14:46:50Z</time>
      </trkpt>
      <trkpt lat="42.74373" lon="1.51343">
        <ele>1446</ele>
        <time>2019-04-27T14:46:51Z</time>
      </trkpt>
      <trkpt lat="42.7437" lon="1.51344">
        <ele>1446</ele>
        <time>2019-04-27T14:46:52Z</time>
      </trkpt>
      <trkpt lat="42.74367" lon="1.51345">
        <ele>1446</ele>
        <time>2019-04-27T14:46:53Z</time>
      </trkpt>
      <trkpt lat="42.74364" lon="1.51347">
        <ele>1446</ele>
        <time>2019-04-27T14:46:54Z</time>
      </trkpt>
      <trkpt lat="42.74361" lon="1.51348">
        <ele>1447</ele>
        <time>2019-04-27T14:46:55Z</time>
      </trkpt>
      <trkpt lat="42.74358" lon="1.51349">
        <ele>1447</ele>
        <time>2019-04-27T14:46:56Z</time>
      </trkpt>
      <trkpt lat="42.74355" lon="1.5135">
        <ele>1447</ele>
        <time>2019-04-27T14:46:57Z</time>
      </trkpt>
      <trkpt lat="42.74352" lon="1.51351">
        <ele>1447</ele>
        <time>2019-04-27T14:46:58Z</time>
      </trkpt>
      <trkpt lat="42.74321" lon="1.51362">
        <ele>1447</ele>
        <time>2019-04-27T14:47:09Z</time>
      </trkpt>
      <trkpt lat="42.7427" lon="1.5138">
        <ele>1450</ele>
        <time>2019-04-27T14:47:27Z</time>
      </trkpt>
      <trkpt lat="42.74267" lon="1.51382">
        <ele>1451</ele>
        <time>2019-04-27T14:47:28Z</time>
      </trkpt>
      <trkpt lat="42.74264" lon="1.51383">
        <ele>1452</ele>
        <time>2019-04-27T14:47:29Z</time>
      </trkpt>
      <trkpt lat="42.74262" lon="1.51385">
        <ele>1453</ele>
        <time>2019-04-27T14:47:30Z</time>
      </trkpt>
      <trkpt lat="42.74259" lon="1.51386">
        <ele>1454</ele>
        <time>2019-04-27T14:47:31Z</time>
      </trkpt>
      <trkpt lat="42.74257" lon="1.51388">
        <ele>1455</ele>
        <time>2019-04-27T14:47:32Z</time>
      </trkpt>
      <trkpt lat="42.74254" lon="1.51389">
        <ele>1456</ele>
        <time>2019-04-27T14:47:33Z</time>
      </trkpt>
      <trkpt lat="42.74251" lon="1.51391">
        <ele>1457</ele>
        <time>2019-04-27T14:47:34Z</time>
      </trkpt>
      <trkpt lat="42.74249" lon="1.51393">
        <ele>1457</ele>
        <time>2019-04-27T14:47:35Z</time>
      </trkpt>
      <trkpt lat="42.74246" lon="1.51395">
        <ele>1458</ele>
        <time>2019-04-27T14:47:36Z</time>
      </trkpt>
      <trkpt lat="42.74244" lon="1.51397">
        <ele>1458</ele>
        <time>2019-04-27T14:47:37Z</time>
      </trkpt>
      <trkpt lat="42.74241" lon="1.51399">
        <ele>1458</ele>
        <time>2019-04-27T14:47:38Z</time>
      </trkpt>
      <trkpt lat="42.74239" lon="1.51401">
        <ele>1458</ele>
        <time>2019-04-27T14:47:39Z</time>
      </trkpt>
      <trkpt lat="42.74237" lon="1.51403">
        <ele>1458</ele>
        <time>2019-04-27T14:47:40Z</time>
      </trkpt>
      <trkpt lat="42.74234" lon="1.51405">
        <ele>1459</ele>
        <time>2019-04-27T14:47:41Z</time>
      </trkpt>
      <trkpt lat="42.74232" lon="1.51407">
        <ele>1459</ele>
        <time>2019-04-27T14:47:42Z</time>
      </trkpt>
      <trkpt lat="42.7423" lon="1.5141">
        <ele>1459</ele>
        <time>2019-04-27T14:47:43Z</time>
      </trkpt>
      <trkpt lat="42.74227" lon="1.51413">
        <ele>1459</ele>
        <time>2019-04-27T14:47:44Z</time>
      </trkpt>
      <trkpt lat="42.74225" lon="1.51415">
        <ele>1459</ele>
        <time>2019-04-27T14:47:45Z</time>
      </trkpt>
      <trkpt lat="42.74222" lon="1.51418">
        <ele>1460</ele>
        <time>2019-04-27T14:48:00Z</time>
      </trkpt>
      <trkpt lat="42.74182" lon="1.51454">
        <ele>1462</ele>
        <time>2019-04-27T14:48:02Z</time>
      </trkpt>
      <trkpt lat="42.74179" lon="1.51456">
        <ele>1463</ele>
        <time>2019-04-27T14:48:03Z</time>
      </trkpt>
      <trkpt lat="42.74177" lon="1.51458">
        <ele>1464</ele>
        <time>2019-04-27T14:48:04Z</time>
      </trkpt>
      <trkpt lat="42.74174" lon="1.5146">
        <ele>1465</ele>
        <time>2019-04-27T14:48:05Z</time>
      </trkpt>
      <trkpt lat="42.74172" lon="1.51463">
        <ele>1466</ele>
        <time>2019-04-27T14:48:06Z</time>
      </trkpt>
      <trkpt lat="42.74169" lon="1.51465">
        <ele>1466</ele>
        <time>2019-04-27T14:48:07Z</time>
      </trkpt>
      <trkpt lat="42.74166" lon="1.51467">
        <ele>1466</ele>
        <time>2019-04-27T14:48:08Z</time>
      </trkpt>
      <trkpt lat="42.74164" lon="1.51469">
        <ele>1466</ele>
        <time>2019-04-27T14:48:09Z</time>
      </trkpt>
      <trkpt lat="42.74162" lon="1.51471">
        <ele>1466</ele>
        <time>2019-04-27T14:48:10Z</time>
      </trkpt>
      <trkpt lat="42.74159" lon="1.51473">
        <ele>1466</ele>
        <time>2019-04-27T14:48:11Z</time>
      </trkpt>
      <trkpt lat="42.74157" lon="1.51476">
        <ele>1466</ele>
        <time>2019-04-27T14:48:12Z</time>
      </trkpt>
      <trkpt lat="42.74154" lon="1.51478">
        <ele>1467</ele>
        <time>2019-04-27T14:48:13Z</time>
      </trkpt>
      <trkpt lat="42.74151" lon="1.5148">
        <ele>1468</ele>
        <time>2019-04-27T14:48:14Z</time>
      </trkpt>
      <trkpt lat="42.74148" lon="1.51481">
        <ele>1468</ele>
        <time>2019-04-27T14:48:15Z</time>
      </trkpt>
      <trkpt lat="42.74146" lon="1.51483">
        <ele>1468</ele>
        <time>2019-04-27T14:48:16Z</time>
      </trkpt>
      <trkpt lat="42.74143" lon="1.51485">
        <ele>1469</ele>
        <time>2019-04-27T14:48:17Z</time>
      </trkpt>
      <trkpt lat="42.7414" lon="1.51487">
        <ele>1469</ele>
        <time>2019-04-27T14:48:18Z</time>
      </trkpt>
      <trkpt lat="42.74138" lon="1.51489">
        <ele>1469</ele>
        <time>2019-04-27T14:48:19Z</time>
      </trkpt>
      <trkpt lat="42.74135" lon="1.51491">
        <ele>1469</ele>
        <time>2019-04-27T14:48:20Z</time>
      </trkpt>
      <trkpt lat="42.74133" lon="1.51493">
        <ele>1469</ele>
        <time>2019-04-27T14:48:21Z</time>
      </trkpt>
      <trkpt lat="42.7413" lon="1.51495">
        <ele>1469</ele>
        <time>2019-04-27T14:48:22Z</time>
      </trkpt>
      <trkpt lat="42.74127" lon="1.51498">
        <ele>1470</ele>
        <time>2019-04-27T14:48:23Z</time>
      </trkpt>
      <trkpt lat="42.74124" lon="1.515">
        <ele>1470</ele>
        <time>2019-04-27T14:48:24Z</time>
      </trkpt>
      <trkpt lat="42.74122" lon="1.51501">
        <ele>1470</ele>
        <time>2019-04-27T14:48:25Z</time>
      </trkpt>
      <trkpt lat="42.74119" lon="1.51503">
        <ele>1470</ele>
        <time>2019-04-27T14:48:26Z</time>
      </trkpt>
      <trkpt lat="42.74116" lon="1.51505">
        <ele>1470</ele>
        <time>2019-04-27T14:48:27Z</time>
      </trkpt>
      <trkpt lat="42.74113" lon="1.51507">
        <ele>1471</ele>
        <time>2019-04-27T14:48:28Z</time>
      </trkpt>
      <trkpt lat="42.74111" lon="1.51509">
        <ele>1471</ele>
        <time>2019-04-27T14:48:29Z</time>
      </trkpt>
      <trkpt lat="42.74107" lon="1.5151">
        <ele>1471</ele>
        <time>2019-04-27T14:48:30Z</time>
      </trkpt>
      <trkpt lat="42.74104" lon="1.51511">
        <ele>1471</ele>
        <time>2019-04-27T14:48:31Z</time>
      </trkpt>
      <trkpt lat="42.74102" lon="1.51512">
        <ele>1471</ele>
        <time>2019-04-27T14:48:32Z</time>
      </trkpt>
      <trkpt lat="42.7408" lon="1.51511">
        <ele>1474</ele>
        <time>2019-04-27T14:48:39Z</time>
      </trkpt>
      <trkpt lat="42.74077" lon="1.5151">
        <ele>1474</ele>
        <time>2019-04-27T14:48:40Z</time>
      </trkpt>
      <trkpt lat="42.74075" lon="1.51509">
        <ele>1474</ele>
        <time>2019-04-27T14:48:41Z</time>
      </trkpt>
      <trkpt lat="42.74072" lon="1.51507">
        <ele>1474</ele>
        <time>2019-04-27T14:48:42Z</time>
      </trkpt>
      <trkpt lat="42.74069" lon="1.51505">
        <ele>1475</ele>
        <time>2019-04-27T14:48:43Z</time>
      </trkpt>
      <trkpt lat="42.74066" lon="1.51503">
        <ele>1475</ele>
        <time>2019-04-27T14:48:44Z</time>
      </trkpt>
      <trkpt lat="42.74063" lon="1.51501">
        <ele>1475</ele>
        <time>2019-04-27T14:48:45Z</time>
      </trkpt>
      <trkpt lat="42.74061" lon="1.51499">
        <ele>1476</ele>
        <time>2019-04-27T14:48:46Z</time>
      </trkpt>
      <trkpt lat="42.74058" lon="1.51497">
        <ele>1476</ele>
        <time>2019-04-27T14:48:47Z</time>
      </trkpt>
      <trkpt lat="42.74055" lon="1.51494">
        <ele>1476</ele>
        <time>2019-04-27T14:48:48Z</time>
      </trkpt>
      <trkpt lat="42.74053" lon="1.51492">
        <ele>1476</ele>
        <time>2019-04-27T14:48:49Z</time>
      </trkpt>
      <trkpt lat="42.7405" lon="1.51489">
        <ele>1476</ele>
        <time>2019-04-27T14:48:50Z</time>
      </trkpt>
      <trkpt lat="42.74048" lon="1.51486">
        <ele>1476</ele>
        <time>2019-04-27T14:48:51Z</time>
      </trkpt>
      <trkpt lat="42.74045" lon="1.51484">
        <ele>1476</ele>
        <time>2019-04-27T14:48:52Z</time>
      </trkpt>
      <trkpt lat="42.74043" lon="1.51481">
        <ele>1476</ele>
        <time>2019-04-27T14:48:53Z</time>
      </trkpt>
      <trkpt lat="42.7404" lon="1.51478">
        <ele>1476</ele>
        <time>2019-04-27T14:48:54Z</time>
      </trkpt>
      <trkpt lat="42.74037" lon="1.51475">
        <ele>1477</ele>
        <time>2019-04-27T14:48:55Z</time>
      </trkpt>
      <trkpt lat="42.74035" lon="1.51472">
        <ele>1478</ele>
        <time>2019-04-27T14:48:56Z</time>
      </trkpt>
      <trkpt lat="42.74033" lon="1.51469">
        <ele>1478</ele>
        <time>2019-04-27T14:48:57Z</time>
      </trkpt>
      <trkpt lat="42.7403" lon="1.51465">
        <ele>1478</ele>
        <time>2019-04-27T14:48:58Z</time>
      </trkpt>
      <trkpt lat="42.74028" lon="1.51462">
        <ele>1478</ele>
        <time>2019-04-27T14:48:59Z</time>
      </trkpt>
      <trkpt lat="42.74026" lon="1.51459">
        <ele>1479</ele>
        <time>2019-04-27T14:49:00Z</time>
      </trkpt>
      <trkpt lat="42.74023" lon="1.51456">
        <ele>1480</ele>
        <time>2019-04-27T14:49:01Z</time>
      </trkpt>
      <trkpt lat="42.74021" lon="1.51452">
        <ele>1480</ele>
        <time>2019-04-27T14:49:02Z</time>
      </trkpt>
      <trkpt lat="42.74019" lon="1.51449">
        <ele>1480</ele>
        <time>2019-04-27T14:49:03Z</time>
      </trkpt>
      <trkpt lat="42.74016" lon="1.51446">
        <ele>1480</ele>
        <time>2019-04-27T14:49:04Z</time>
      </trkpt>
      <trkpt lat="42.74014" lon="1.51442">
        <ele>1481</ele>
        <time>2019-04-27T14:49:05Z</time>
      </trkpt>
      <trkpt lat="42.74012" lon="1.51439">
        <ele>1481</ele>
        <time>2019-04-27T14:49:06Z</time>
      </trkpt>
      <trkpt lat="42.74009" lon="1.51435">
        <ele>1481</ele>
        <time>2019-04-27T14:49:07Z</time>
      </trkpt>
      <trkpt lat="42.74007" lon="1.51432">
        <ele>1481</ele>
        <time>2019-04-27T14:49:08Z</time>
      </trkpt>
      <trkpt lat="42.74004" lon="1.51428">
        <ele>1481</ele>
        <time>2019-04-27T14:49:09Z</time>
      </trkpt>
      <trkpt lat="42.74002" lon="1.51425">
        <ele>1481</ele>
        <time>2019-04-27T14:49:10Z</time>
      </trkpt>
      <trkpt lat="42.73999" lon="1.51422">
        <ele>1482</ele>
        <time>2019-04-27T14:49:11Z</time>
      </trkpt>
      <trkpt lat="42.73996" lon="1.51419">
        <ele>1482</ele>
        <time>2019-04-27T14:49:12Z</time>
      </trkpt>
      <trkpt lat="42.73994" lon="1.51416">
        <ele>1482</ele>
        <time>2019-04-27T14:49:13Z</time>
      </trkpt>
      <trkpt lat="42.73991" lon="1.51414">
        <ele>1482</ele>
        <time>2019-04-27T14:49:14Z</time>
      </trkpt>
      <trkpt lat="42.73988" lon="1.5141">
        <ele>1482</ele>
        <time>2019-04-27T14:49:15Z</time>
      </trkpt>
      <trkpt lat="42.73986" lon="1.51407">
        <ele>1482</ele>
        <time>2019-04-27T14:49:16Z</time>
      </trkpt>
      <trkpt lat="42.73983" lon="1.51404">
        <ele>1482</ele>
        <time>2019-04-27T14:49:17Z</time>
      </trkpt>
      <trkpt lat="42.7398" lon="1.51403">
        <ele>1483</ele>
        <time>2019-04-27T14:49:18Z</time>
      </trkpt>
      <trkpt lat="42.73977" lon="1.51403">
        <ele>1483</ele>
        <time>2019-04-27T14:49:19Z</time>
      </trkpt>
      <trkpt lat="42.74003" lon="1.51456">
        <ele>1482</ele>
        <time>2019-04-27T14:49:30Z</time>
      </trkpt>
      <trkpt lat="42.74007" lon="1.51462">
        <ele>1481</ele>
        <time>2019-04-27T14:49:31Z</time>
      </trkpt>
      <trkpt lat="42.74012" lon="1.51469">
        <ele>1480</ele>
        <time>2019-04-27T14:49:32Z</time>
      </trkpt>
      <trkpt lat="42.74017" lon="1.51476">
        <ele>1479</ele>
        <time>2019-04-27T14:49:33Z</time>
      </trkpt>
      <trkpt lat="42.74023" lon="1.51483">
        <ele>1478</ele>
        <time>2019-04-27T14:49:34Z</time>
      </trkpt>
      <trkpt lat="42.74029" lon="1.5149">
        <ele>1477</ele>
        <time>2019-04-27T14:49:35Z</time>
      </trkpt>
      <trkpt lat="42.74036" lon="1.51498">
        <ele>1476</ele>
        <time>2019-04-27T14:49:36Z</time>
      </trkpt>
      <trkpt lat="42.74043" lon="1.51506">
        <ele>1476</ele>
        <time>2019-04-27T14:49:37Z</time>
      </trkpt>
      <trkpt lat="42.7405" lon="1.51512">
        <ele>1475</ele>
        <time>2019-04-27T14:49:38Z</time>
      </trkpt>
      <trkpt lat="42.74057" lon="1.51517">
        <ele>1475</ele>
        <time>2019-04-27T14:49:39Z</time>
      </trkpt>
      <trkpt lat="42.74062" lon="1.5152">
        <ele>1475</ele>
        <time>2019-04-27T14:49:40Z</time>
      </trkpt>
      <trkpt lat="42.74065" lon="1.51521">
        <ele>1476</ele>
        <time>2019-04-27T14:49:41Z</time>
      </trkpt>
      <trkpt lat="42.74067" lon="1.51521">
        <ele>1476</ele>
        <time>2019-04-27T14:49:42Z</time>
      </trkpt>
      <trkpt lat="42.74067" lon="1.51521">
        <ele>1475</ele>
        <time>2019-04-27T14:49:44Z</time>
      </trkpt>
      <trkpt lat="42.74067" lon="1.51521">
        <ele>1475</ele>
        <time>2019-04-27T14:49:45Z</time>
      </trkpt>
      <trkpt lat="42.74067" lon="1.51522">
        <ele>1475</ele>
        <time>2019-04-27T14:50:47Z</time>
      </trkpt>
      <trkpt lat="42.74067" lon="1.51521">
        <ele>1475</ele>
        <time>2019-04-27T14:50:48Z</time>
      </trkpt>
      <trkpt lat="42.74067" lon="1.51521">
        <ele>1475</ele>
        <time>2019-04-27T14:50:52Z</time>
      </trkpt>
      <trkpt lat="42.74069" lon="1.51521">
        <ele>1475</ele>
        <time>2019-04-27T14:50:53Z</time>
      </trkpt>
      <trkpt lat="42.7407" lon="1.5152">
        <ele>1475</ele>
        <time>2019-04-27T14:50:54Z</time>
      </trkpt>
      <trkpt lat="42.74073" lon="1.5152">
        <ele>1475</ele>
        <time>2019-04-27T14:50:55Z</time>
      </trkpt>
      <trkpt lat="42.74141" lon="1.5149">
        <ele>1472</ele>
        <time>2019-04-27T14:51:08Z</time>
      </trkpt>
      <trkpt lat="42.74149" lon="1.51484">
        <ele>1471</ele>
        <time>2019-04-27T14:51:09Z</time>
      </trkpt>
      <trkpt lat="42.74157" lon="1.51478">
        <ele>1470</ele>
        <time>2019-04-27T14:51:10Z</time>
      </trkpt>
      <trkpt lat="42.74165" lon="1.51472">
        <ele>1469</ele>
        <time>2019-04-27T14:51:11Z</time>
      </trkpt>
      <trkpt lat="42.74174" lon="1.51464">
        <ele>1468</ele>
        <time>2019-04-27T14:51:12Z</time>
      </trkpt>
      <trkpt lat="42.74183" lon="1.51456">
        <ele>1467</ele>
        <time>2019-04-27T14:51:13Z</time>
      </trkpt>
      <trkpt lat="42.74192" lon="1.51449">
        <ele>1466</ele>
        <time>2019-04-27T14:51:14Z</time>
      </trkpt>
      <trkpt lat="42.74202" lon="1.51442">
        <ele>1465</ele>
        <time>2019-04-27T14:51:15Z</time>
      </trkpt>
      <trkpt lat="42.74211" lon="1.51433">
        <ele>1464</ele>
        <time>2019-04-27T14:51:16Z</time>
      </trkpt>
      <trkpt lat="42.7422" lon="1.51423">
        <ele>1463</ele>
        <time>2019-04-27T14:51:17Z</time>
      </trkpt>
      <trkpt lat="42.74229" lon="1.51414">
        <ele>1462</ele>
        <time>2019-04-27T14:51:18Z</time>
      </trkpt>
      <trkpt lat="42.74239" lon="1.51404">
        <ele>1461</ele>
        <time>2019-04-27T14:51:19Z</time>
      </trkpt>
      <trkpt lat="42.7425" lon="1.51396">
        <ele>1460</ele>
        <time>2019-04-27T14:51:20Z</time>
      </trkpt>
      <trkpt lat="42.74261" lon="1.51388">
        <ele>1459</ele>
        <time>2019-04-27T14:51:21Z</time>
      </trkpt>
      <trkpt lat="42.74273" lon="1.51382">
        <ele>1458</ele>
        <time>2019-04-27T14:51:22Z</time>
      </trkpt>
      <trkpt lat="42.74285" lon="1.51375">
        <ele>1457</ele>
        <time>2019-04-27T14:51:23Z</time>
      </trkpt>
      <trkpt lat="42.74298" lon="1.5137">
        <ele>1456</ele>
        <time>2019-04-27T14:51:24Z</time>
      </trkpt>
      <trkpt lat="42.74311" lon="1.51366">
        <ele>1455</ele>
        <time>2019-04-27T14:51:25Z</time>
      </trkpt>
      <trkpt lat="42.74324" lon="1.51362">
        <ele>1454</ele>
        <time>2019-04-27T14:51:26Z</time>
      </trkpt>
      <trkpt lat="42.74338" lon="1.51359">
        <ele>1453</ele>
        <time>2019-04-27T14:51:27Z</time>
      </trkpt>
      <trkpt lat="42.74351" lon="1.51354">
        <ele>1452</ele>
        <time>2019-04-27T14:51:28Z</time>
      </trkpt>
      <trkpt lat="42.74365" lon="1.51349">
        <ele>1452</ele>
        <time>2019-04-27T14:51:29Z</time>
      </trkpt>
      <trkpt lat="42.74377" lon="1.51343">
        <ele>1452</ele>
        <time>2019-04-27T14:51:30Z</time>
      </trkpt>
      <trkpt lat="42.74389" lon="1.51335">
        <ele>1452</ele>
        <time>2019-04-27T14:51:31Z</time>
      </trkpt>
      <trkpt lat="42.744" lon="1.51325">
        <ele>1452</ele>
        <time>2019-04-27T14:51:32Z</time>
      </trkpt>
      <trkpt lat="42.74523" lon="1.51259">
        <ele>1447</ele>
        <time>2019-04-27T14:51:45Z</time>
      </trkpt>
      <trkpt lat="42.74536" lon="1.51263">
        <ele>1446</ele>
        <time>2019-04-27T14:51:46Z</time>
      </trkpt>
      <trkpt lat="42.74548" lon="1.5127">
        <ele>1445</ele>
        <time>2019-04-27T14:51:47Z</time>
      </trkpt>
      <trkpt lat="42.7456" lon="1.51277">
        <ele>1444</ele>
        <time>2019-04-27T14:51:48Z</time>
      </trkpt>
      <trkpt lat="42.74573" lon="1.51285">
        <ele>1443</ele>
        <time>2019-04-27T14:51:49Z</time>
      </trkpt>
      <trkpt lat="42.74585" lon="1.51293">
        <ele>1442</ele>
        <time>2019-04-27T14:51:50Z</time>
      </trkpt>
      <trkpt lat="42.74599" lon="1.51299">
        <ele>1441</ele>
        <time>2019-04-27T14:51:51Z</time>
      </trkpt>
      <trkpt lat="42.74613" lon="1.51305">
        <ele>1440</ele>
        <time>2019-04-27T14:51:52Z</time>
      </trkpt>
      <trkpt lat="42.74628" lon="1.51308">
        <ele>1439</ele>
        <time>2019-04-27T14:51:53Z</time>
      </trkpt>
      <trkpt lat="42.74642" lon="1.51312">
        <ele>1438</ele>
        <time>2019-04-27T14:51:54Z</time>
      </trkpt>
      <trkpt lat="42.74655" lon="1.51315">
        <ele>1437</ele>
        <time>2019-04-27T14:51:55Z</time>
      </trkpt>
      <trkpt lat="42.74668" lon="1.51316">
        <ele>1436</ele>
        <time>2019-04-27T14:51:56Z</time>
      </trkpt>
      <trkpt lat="42.74682" lon="1.51314">
        <ele>1435</ele>
        <time>2019-04-27T14:51:57Z</time>
      </trkpt>
      <trkpt lat="42.74696" lon="1.51311">
        <ele>1434</ele>
        <time>2019-04-27T14:51:58Z</time>
      </trkpt>
      <trkpt lat="42.74724" lon="1.51298">
        <ele>1432</ele>
        <time>2019-04-27T14:52:00Z</time>
      </trkpt>
      <trkpt lat="42.74737" lon="1.51289">
        <ele>1431</ele>
        <time>2019-04-27T14:52:01Z</time>
      </trkpt>
      <trkpt lat="42.7475" lon="1.51278">
        <ele>1430</ele>
        <time>2019-04-27T14:52:02Z</time>
      </trkpt>
      <trkpt lat="42.74763" lon="1.51266">
        <ele>1429</ele>
        <time>2019-04-27T14:52:03Z</time>
      </trkpt>
      <trkpt lat="42.74776" lon="1.51252">
        <ele>1428</ele>
        <time>2019-04-27T14:52:04Z</time>
      </trkpt>
      <trkpt lat="42.74789" lon="1.5124">
        <ele>1427</ele>
        <time>2019-04-27T14:52:05Z</time>
      </trkpt>
      <trkpt lat="42.74802" lon="1.51227">
        <ele>1426</ele>
        <time>2019-04-27T14:52:06Z</time>
      </trkpt>
      <trkpt lat="42.74817" lon="1.51215">
        <ele>1425</ele>
        <time>2019-04-27T14:52:07Z</time>
      </trkpt>
      <trkpt lat="42.74832" lon="1.51205">
        <ele>1424</ele>
        <time>2019-04-27T14:52:08Z</time>
      </trkpt>
      <trkpt lat="42.74847" lon="1.51194">
        <ele>1423</ele>
        <time>2019-04-27T14:52:09Z</time>
      </trkpt>
      <trkpt lat="42.74861" lon="1.51181">
        <ele>1422</ele>
        <time>2019-04-27T14:52:10Z</time>
      </trkpt>
      <trkpt lat="42.74876" lon="1.51167">
        <ele>1421</ele>
        <time>2019-04-27T14:52:11Z</time>
      </trkpt>
      <trkpt lat="42.7489" lon="1.51152">
        <ele>1420</ele>
        <time>2019-04-27T14:52:12Z</time>
      </trkpt>
      <trkpt lat="42.74904" lon="1.51137">
        <ele>1419</ele>
        <time>2019-04-27T14:52:13Z</time>
      </trkpt>
      <trkpt lat="42.74918" lon="1.51122">
        <ele>1418</ele>
        <time>2019-04-27T14:52:14Z</time>
      </trkpt>
      <trkpt lat="42.74931" lon="1.51106">
        <ele>1417</ele>
        <time>2019-04-27T14:52:15Z</time>
      </trkpt>
      <trkpt lat="42.74944" lon="1.5109">
        <ele>1412</ele>
        <time>2019-04-27T14:52:20Z</time>
      </trkpt>
      <trkpt lat="42.74957" lon="1.51073">
        <ele>1410</ele>
        <time>2019-04-27T14:52:22Z</time>
      </trkpt>
      <trkpt lat="42.74969" lon="1.51057">
        <ele>1409</ele>
        <time>2019-04-27T14:52:23Z</time>
      </trkpt>
      <trkpt lat="42.74982" lon="1.51042">
        <ele>1408</ele>
        <time>2019-04-27T14:52:24Z</time>
      </trkpt>
      <trkpt lat="42.74996" lon="1.51027">
        <ele>1407</ele>
        <time>2019-04-27T14:52:25Z</time>
      </trkpt>
      <trkpt lat="42.7501" lon="1.51014">
        <ele>1406</ele>
        <time>2019-04-27T14:52:26Z</time>
      </trkpt>
      <trkpt lat="42.75025" lon="1.51001">
        <ele>1406</ele>
        <time>2019-04-27T14:52:27Z</time>
      </trkpt>
      <trkpt lat="42.75039" lon="1.50988">
        <ele>1406</ele>
        <time>2019-04-27T14:52:28Z</time>
      </trkpt>
      <trkpt lat="42.75053" lon="1.50976">
        <ele>1406</ele>
        <time>2019-04-27T14:52:29Z</time>
      </trkpt>
      <trkpt lat="42.75067" lon="1.50965">
        <ele>1406</ele>
        <time>2019-04-27T14:52:30Z</time>
      </trkpt>
      <trkpt lat="42.75081" lon="1.50957">
        <ele>1406</ele>
        <time>2019-04-27T14:52:31Z</time>
      </trkpt>
      <trkpt lat="42.75095" lon="1.50952">
        <ele>1406</ele>
        <time>2019-04-27T14:52:32Z</time>
      </trkpt>
      <trkpt lat="42.75111" lon="1.50948">
        <ele>1406</ele>
        <time>2019-04-27T14:52:33Z</time>
      </trkpt>
      <trkpt lat="42.75126" lon="1.50948">
        <ele>1405</ele>
        <time>2019-04-27T14:52:34Z</time>
      </trkpt>
      <trkpt lat="42.75235" lon="1.51038">
        <ele>1405</ele>
        <time>2019-04-27T14:52:43Z</time>
      </trkpt>
      <trkpt lat="42.75468" lon="1.51204">
        <ele>1395</ele>
        <time>2019-04-27T14:53:01Z</time>
      </trkpt>
      <trkpt lat="42.75482" lon="1.51207">
        <ele>1394</ele>
        <time>2019-04-27T14:53:02Z</time>
      </trkpt>
      <trkpt lat="42.75497" lon="1.51207">
        <ele>1393</ele>
        <time>2019-04-27T14:53:03Z</time>
      </trkpt>
      <trkpt lat="42.75511" lon="1.51206">
        <ele>1392</ele>
        <time>2019-04-27T14:53:04Z</time>
      </trkpt>
      <trkpt lat="42.75526" lon="1.51201">
        <ele>1391</ele>
        <time>2019-04-27T14:53:05Z</time>
      </trkpt>
      <trkpt lat="42.7554" lon="1.51194">
        <ele>1390</ele>
        <time>2019-04-27T14:53:06Z</time>
      </trkpt>
      <trkpt lat="42.75554" lon="1.51187">
        <ele>1389</ele>
        <time>2019-04-27T14:53:07Z</time>
      </trkpt>
      <trkpt lat="42.75569" lon="1.51181">
        <ele>1388</ele>
        <time>2019-04-27T14:53:08Z</time>
      </trkpt>
      <trkpt lat="42.75584" lon="1.51174">
        <ele>1387</ele>
        <time>2019-04-27T14:53:09Z</time>
      </trkpt>
      <trkpt lat="42.75598" lon="1.51166">
        <ele>1386</ele>
        <time>2019-04-27T14:53:10Z</time>
      </trkpt>
      <trkpt lat="42.75612" lon="1.51154">
        <ele>1385</ele>
        <time>2019-04-27T14:53:11Z</time>
      </trkpt>
      <trkpt lat="42.75624" lon="1.5114">
        <ele>1384</ele>
        <time>2019-04-27T14:53:12Z</time>
      </trkpt>
      <trkpt lat="42.75635" lon="1.51124">
        <ele>1383</ele>
        <time>2019-04-27T14:53:13Z</time>
      </trkpt>
      <trkpt lat="42.75645" lon="1.51107">
        <ele>1383</ele>
        <time>2019-04-27T14:53:14Z</time>
      </trkpt>
      <trkpt lat="42.75654" lon="1.51088">
        <ele>1383</ele>
        <time>2019-04-27T14:53:15Z</time>
      </trkpt>
      <trkpt lat="42.75664" lon="1.5107">
        <ele>1383</ele>
        <time>2019-04-27T14:53:16Z</time>
      </trkpt>
      <trkpt lat="42.75676" lon="1.51053">
        <ele>1383</ele>
        <time>2019-04-27T14:53:17Z</time>
      </trkpt>
      <trkpt lat="42.75688" lon="1.51037">
        <ele>1383</ele>
        <time>2019-04-27T14:53:18Z</time>
      </trkpt>
      <trkpt lat="42.75701" lon="1.51021">
        <ele>1383</ele>
        <time>2019-04-27T14:53:19Z</time>
      </trkpt>
      <trkpt lat="42.75713" lon="1.51005">
        <ele>1383</ele>
        <time>2019-04-27T14:53:20Z</time>
      </trkpt>
      <trkpt lat="42.75725" lon="1.50987">
        <ele>1383</ele>
        <time>2019-04-27T14:53:21Z</time>
      </trkpt>
      <trkpt lat="42.75735" lon="1.50968">
        <ele>1382</ele>
        <time>2019-04-27T14:53:27Z</time>
      </trkpt>
      <trkpt lat="42.75768" lon="1.50864">
        <ele>1380</ele>
        <time>2019-04-27T14:53:29Z</time>
      </trkpt>
      <trkpt lat="42.75763" lon="1.50871">
        <ele>1379</ele>
        <time>2019-04-27T14:53:30Z</time>
      </trkpt>
      <trkpt lat="42.75756" lon="1.50877">
        <ele>1378</ele>
        <time>2019-04-27T14:53:31Z</time>
      </trkpt>
      <trkpt lat="42.75749" lon="1.50883">
        <ele>1377</ele>
        <time>2019-04-27T14:53:32Z</time>
      </trkpt>
      <trkpt lat="42.75741" lon="1.50889">
        <ele>1376</ele>
        <time>2019-04-27T14:53:33Z</time>
      </trkpt>
      <trkpt lat="42.75734" lon="1.50895">
        <ele>1375</ele>
        <time>2019-04-27T14:53:34Z</time>
      </trkpt>
      <trkpt lat="42.75726" lon="1.50902">
        <ele>1374</ele>
        <time>2019-04-27T14:53:35Z</time>
      </trkpt>
      <trkpt lat="42.75718" lon="1.5091">
        <ele>1373</ele>
        <time>2019-04-27T14:53:36Z</time>
      </trkpt>
      <trkpt lat="42.75709" lon="1.50917">
        <ele>1372</ele>
        <time>2019-04-27T14:53:37Z</time>
      </trkpt>
      <trkpt lat="42.75701" lon="1.50925">
        <ele>1371</ele>
        <time>2019-04-27T14:53:38Z</time>
      </trkpt>
      <trkpt lat="42.75693" lon="1.50932">
        <ele>1370</ele>
        <time>2019-04-27T14:53:39Z</time>
      </trkpt>
      <trkpt lat="42.75685" lon="1.50939">
        <ele>1369</ele>
        <time>2019-04-27T14:53:40Z</time>
      </trkpt>
      <trkpt lat="42.75678" lon="1.50944">
        <ele>1368</ele>
        <time>2019-04-27T14:53:41Z</time>
      </trkpt>
      <trkpt lat="42.75672" lon="1.50944">
        <ele>1367</ele>
        <time>2019-04-27T14:53:42Z</time>
      </trkpt>
      <trkpt lat="42.75669" lon="1.5094">
        <ele>1366</ele>
        <time>2019-04-27T14:53:43Z</time>
      </trkpt>
      <trkpt lat="42.75667" lon="1.50933">
        <ele>1365</ele>
        <time>2019-04-27T14:53:44Z</time>
      </trkpt>
      <trkpt lat="42.75669" lon="1.50927">
        <ele>1364</ele>
        <time>2019-04-27T14:53:45Z</time>
      </trkpt>
      <trkpt lat="42.75674" lon="1.50922">
        <ele>1363</ele>
        <time>2019-04-27T14:53:46Z</time>
      </trkpt>
      <trkpt lat="42.7568" lon="1.50918">
        <ele>1362</ele>
        <time>2019-04-27T14:53:47Z</time>
      </trkpt>
      <trkpt lat="42.75687" lon="1.50911">
        <ele>1362</ele>
        <time>2019-04-27T14:53:48Z</time>
      </trkpt>
      <trkpt lat="42.75693" lon="1.50903">
        <ele>1362</ele>
        <time>2019-04-27T14:53:49Z</time>
      </trkpt>
      <trkpt lat="42.758" lon="1.50719">
        <ele>1359</ele>
        <time>2019-04-27T14:54:04Z</time>
      </trkpt>
      <trkpt lat="42.7581" lon="1.50706">
        <ele>1358</ele>
        <time>2019-04-27T14:54:05Z</time>
      </trkpt>
      <trkpt lat="42.7582" lon="1.50694">
        <ele>1357</ele>
        <time>2019-04-27T14:54:06Z</time>
      </trkpt>
      <trkpt lat="42.7583" lon="1.50684">
        <ele>1356</ele>
        <time>2019-04-27T14:54:07Z</time>
      </trkpt>
      <trkpt lat="42.75839" lon="1.50676">
        <ele>1355</ele>
        <time>2019-04-27T14:54:08Z</time>
      </trkpt>
      <trkpt lat="42.75848" lon="1.50671">
        <ele>1354</ele>
        <time>2019-04-27T14:54:09Z</time>
      </trkpt>
      <trkpt lat="42.75856" lon="1.50668">
        <ele>1353</ele>
        <time>2019-04-27T14:54:10Z</time>
      </trkpt>
      <trkpt lat="42.75862" lon="1.50665">
        <ele>1352</ele>
        <time>2019-04-27T14:54:11Z</time>
      </trkpt>
      <trkpt lat="42.75866" lon="1.50661">
        <ele>1351</ele>
        <time>2019-04-27T14:54:12Z</time>
      </trkpt>
      <trkpt lat="42.75867" lon="1.50654">
        <ele>1350</ele>
        <time>2019-04-27T14:54:13Z</time>
      </trkpt>
      <trkpt lat="42.75865" lon="1.50647">
        <ele>1349</ele>
        <time>2019-04-27T14:54:14Z</time>
      </trkpt>
      <trkpt lat="42.75859" lon="1.50643">
        <ele>1348</ele>
        <time>2019-04-27T14:54:15Z</time>
      </trkpt>
      <trkpt lat="42.75852" lon="1.50642">
        <ele>1347</ele>
        <time>2019-04-27T14:54:16Z</time>
      </trkpt>
      <trkpt lat="42.75845" lon="1.50644">
        <ele>1346</ele>
        <time>2019-04-27T14:54:17Z</time>
      </trkpt>
      <trkpt lat="42.75837" lon="1.50647">
        <ele>1345</ele>
        <time>2019-04-27T14:54:18Z</time>
      </trkpt>
      <trkpt lat="42.7583" lon="1.5065">
        <ele>1344</ele>
        <time>2019-04-27T14:54:19Z</time>
      </trkpt>
      <trkpt lat="42.75822" lon="1.50654">
        <ele>1343</ele>
        <time>2019-04-27T14:54:20Z</time>
      </trkpt>
      <trkpt lat="42.75813" lon="1.50658">
        <ele>1342</ele>
        <time>2019-04-27T14:54:21Z</time>
      </trkpt>
      <trkpt lat="42.75805" lon="1.50662">
        <ele>1341</ele>
        <time>2019-04-27T14:54:22Z</time>
      </trkpt>
      <trkpt lat="42.75796" lon="1.50668">
        <ele>1340</ele>
        <time>2019-04-27T14:54:23Z</time>
      </trkpt>
      <trkpt lat="42.75787" lon="1.50673">
        <ele>1339</ele>
        <time>2019-04-27T14:54:24Z</time>
      </trkpt>
      <trkpt lat="42.75778" lon="1.5068">
        <ele>1338</ele>
        <time>2019-04-27T14:54:25Z</time>
      </trkpt>
      <trkpt lat="42.75769" lon="1.50686">
        <ele>1337</ele>
        <time>2019-04-27T14:54:26Z</time>
      </trkpt>
      <trkpt lat="42.75758" lon="1.50692">
        <ele>1336</ele>
        <time>2019-04-27T14:54:27Z</time>
      </trkpt>
      <trkpt lat="42.75748" lon="1.50699">
        <ele>1335</ele>
        <time>2019-04-27T14:54:28Z</time>
      </trkpt>
      <trkpt lat="42.75738" lon="1.50706">
        <ele>1334</ele>
        <time>2019-04-27T14:54:29Z</time>
      </trkpt>
      <trkpt lat="42.75727" lon="1.50714">
        <ele>1333</ele>
        <time>2019-04-27T14:54:30Z</time>
      </trkpt>
      <trkpt lat="42.75716" lon="1.50722">
        <ele>1332</ele>
        <time>2019-04-27T14:54:31Z</time>
      </trkpt>
      <trkpt lat="42.75705" lon="1.5073">
        <ele>1331</ele>
        <time>2019-04-27T14:54:32Z</time>
      </trkpt>
      <trkpt lat="42.75692" lon="1.50737">
        <ele>1330</ele>
        <time>2019-04-27T14:54:33Z</time>
      </trkpt>
      <trkpt lat="42.7568" lon="1.50743">
        <ele>1329</ele>
        <time>2019-04-27T14:54:34Z</time>
      </trkpt>
      <trkpt lat="42.75668" lon="1.5075">
        <ele>1328</ele>
        <time>2019-04-27T14:54:35Z</time>
      </trkpt>
      <trkpt lat="42.75655" lon="1.50756">
        <ele>1327</ele>
        <time>2019-04-27T14:54:36Z</time>
      </trkpt>
      <trkpt lat="42.75642" lon="1.50762">
        <ele>1326</ele>
        <time>2019-04-27T14:54:37Z</time>
      </trkpt>
      <trkpt lat="42.75629" lon="1.50764">
        <ele>1325</ele>
        <time>2019-04-27T14:54:38Z</time>
      </trkpt>
      <trkpt lat="42.75615" lon="1.50765">
        <ele>1324</ele>
        <time>2019-04-27T14:54:39Z</time>
      </trkpt>
      <trkpt lat="42.75603" lon="1.50764">
        <ele>1323</ele>
        <time>2019-04-27T14:54:40Z</time>
      </trkpt>
      <trkpt lat="42.75588" lon="1.50766">
        <ele>1322</ele>
        <time>2019-04-27T14:54:41Z</time>
      </trkpt>
      <trkpt lat="42.75573" lon="1.50767">
        <ele>1321</ele>
        <time>2019-04-27T14:54:42Z</time>
      </trkpt>
      <trkpt lat="42.7556" lon="1.50767">
        <ele>1320</ele>
        <time>2019-04-27T14:54:43Z</time>
      </trkpt>
      <trkpt lat="42.75547" lon="1.50764">
        <ele>1319</ele>
        <time>2019-04-27T14:54:44Z</time>
      </trkpt>
      <trkpt lat="42.75534" lon="1.50757">
        <ele>1318</ele>
        <time>2019-04-27T14:54:45Z</time>
      </trkpt>
      <trkpt lat="42.75521" lon="1.5075">
        <ele>1317</ele>
        <time>2019-04-27T14:54:46Z</time>
      </trkpt>
      <trkpt lat="42.75507" lon="1.50745">
        <ele>1317</ele>
        <time>2019-04-27T14:54:47Z</time>
      </trkpt>
      <trkpt lat="42.75494" lon="1.50741">
        <ele>1317</ele>
        <time>2019-04-27T14:54:48Z</time>
      </trkpt>
      <trkpt lat="42.75376" lon="1.507">
        <ele>1313</ele>
        <time>2019-04-27T14:54:57Z</time>
      </trkpt>
      <trkpt lat="42.75365" lon="1.50688">
        <ele>1312</ele>
        <time>2019-04-27T14:54:58Z</time>
      </trkpt>
      <trkpt lat="42.75354" lon="1.50675">
        <ele>1311</ele>
        <time>2019-04-27T14:54:59Z</time>
      </trkpt>
      <trkpt lat="42.75342" lon="1.50663">
        <ele>1310</ele>
        <time>2019-04-27T14:55:00Z</time>
      </trkpt>
      <trkpt lat="42.75331" lon="1.50651">
        <ele>1309</ele>
        <time>2019-04-27T14:55:01Z</time>
      </trkpt>
      <trkpt lat="42.75319" lon="1.5064">
        <ele>1308</ele>
        <time>2019-04-27T14:55:02Z</time>
      </trkpt>
      <trkpt lat="42.75307" lon="1.50628">
        <ele>1307</ele>
        <time>2019-04-27T14:55:03Z</time>
      </trkpt>
      <trkpt lat="42.75296" lon="1.50616">
        <ele>1307</ele>
        <time>2019-04-27T14:55:04Z</time>
      </trkpt>
      <trkpt lat="42.75284" lon="1.50604">
        <ele>1307</ele>
        <time>2019-04-27T14:55:05Z</time>
      </trkpt>
      <trkpt lat="42.7514" lon="1.50496">
        <ele>1306</ele>
        <time>2019-04-27T14:55:16Z</time>
      </trkpt>
      <trkpt lat="42.75126" lon="1.50489">
        <ele>1305</ele>
        <time>2019-04-27T14:55:17Z</time>
      </trkpt>
      <trkpt lat="42.75113" lon="1.50482">
        <ele>1304</ele>
        <time>2019-04-27T14:55:18Z</time>
      </trkpt>
      <trkpt lat="42.751" lon="1.50476">
        <ele>1303</ele>
        <time>2019-04-27T14:55:19Z</time>
      </trkpt>
      <trkpt lat="42.75088" lon="1.50472">
        <ele>1302</ele>
        <time>2019-04-27T14:55:20Z</time>
      </trkpt>
      <trkpt lat="42.75076" lon="1.50468">
        <ele>1301</ele>
        <time>2019-04-27T14:55:21Z</time>
      </trkpt>
      <trkpt lat="42.75062" lon="1.50467">
        <ele>1300</ele>
        <time>2019-04-27T14:55:22Z</time>
      </trkpt>
      <trkpt lat="42.75051" lon="1.50467">
        <ele>1299</ele>
        <time>2019-04-27T14:55:23Z</time>
      </trkpt>
      <trkpt lat="42.7504" lon="1.50467">
        <ele>1298</ele>
        <time>2019-04-27T14:55:24Z</time>
      </trkpt>
      <trkpt lat="42.75031" lon="1.50469">
        <ele>1297</ele>
        <time>2019-04-27T14:55:25Z</time>
      </trkpt>
      <trkpt lat="42.75024" lon="1.5047">
        <ele>1296</ele>
        <time>2019-04-27T14:55:26Z</time>
      </trkpt>
      <trkpt lat="42.75017" lon="1.5047">
        <ele>1295</ele>
        <time>2019-04-27T14:55:27Z</time>
      </trkpt>
      <trkpt lat="42.75013" lon="1.50468">
        <ele>1294</ele>
        <time>2019-04-27T14:55:28Z</time>
      </trkpt>
      <trkpt lat="42.75012" lon="1.50462">
        <ele>1293</ele>
        <time>2019-04-27T14:55:29Z</time>
      </trkpt>
      <trkpt lat="42.75013" lon="1.50455">
        <ele>1292</ele>
        <time>2019-04-27T14:55:30Z</time>
      </trkpt>
      <trkpt lat="42.75017" lon="1.50449">
        <ele>1291</ele>
        <time>2019-04-27T14:55:31Z</time>
      </trkpt>
      <trkpt lat="42.75021" lon="1.50444">
        <ele>1290</ele>
        <time>2019-04-27T14:55:32Z</time>
      </trkpt>
      <trkpt lat="42.75027" lon="1.5044">
        <ele>1289</ele>
        <time>2019-04-27T14:55:33Z</time>
      </trkpt>
      <trkpt lat="42.75034" lon="1.50438">
        <ele>1288</ele>
        <time>2019-04-27T14:55:34Z</time>
      </trkpt>
      <trkpt lat="42.75041" lon="1.50436">
        <ele>1288</ele>
        <time>2019-04-27T14:55:35Z</time>
      </trkpt>
      <trkpt lat="42.75049" lon="1.50435">
        <ele>1286</ele>
        <time>2019-04-27T14:55:50Z</time>
      </trkpt>
      <trkpt lat="42.75208" lon="1.50344">
        <ele>1284</ele>
        <time>2019-04-27T14:55:52Z</time>
      </trkpt>
      <trkpt lat="42.75221" lon="1.50342">
        <ele>1283</ele>
        <time>2019-04-27T14:55:53Z</time>
      </trkpt>
      <trkpt lat="42.75234" lon="1.50345">
        <ele>1282</ele>
        <time>2019-04-27T14:55:54Z</time>
      </trkpt>
      <trkpt lat="42.75246" lon="1.5035">
        <ele>1281</ele>
        <time>2019-04-27T14:55:55Z</time>
      </trkpt>
      <trkpt lat="42.75256" lon="1.50358">
        <ele>1280</ele>
        <time>2019-04-27T14:55:56Z</time>
      </trkpt>
      <trkpt lat="42.75265" lon="1.50367">
        <ele>1279</ele>
        <time>2019-04-27T14:55:57Z</time>
      </trkpt>
      <trkpt lat="42.75274" lon="1.50376">
        <ele>1278</ele>
        <time>2019-04-27T14:55:58Z</time>
      </trkpt>
      <trkpt lat="42.75282" lon="1.50385">
        <ele>1277</ele>
        <time>2019-04-27T14:55:59Z</time>
      </trkpt>
      <trkpt lat="42.75289" lon="1.50394">
        <ele>1276</ele>
        <time>2019-04-27T14:56:00Z</time>
      </trkpt>
      <trkpt lat="42.75296" lon="1.50403">
        <ele>1275</ele>
        <time>2019-04-27T14:56:01Z</time>
      </trkpt>
      <trkpt lat="42.75303" lon="1.5041">
        <ele>1274</ele>
        <time>2019-04-27T14:56:02Z</time>
      </trkpt>
      <trkpt lat="42.7531" lon="1.50417">
        <ele>1273</ele>
        <time>2019-04-27T14:56:03Z</time>
      </trkpt>
      <trkpt lat="42.75316" lon="1.50424">
        <ele>1272</ele>
        <time>2019-04-27T14:56:04Z</time>
      </trkpt>
      <trkpt lat="42.75323" lon="1.5043">
        <ele>1271</ele>
        <time>2019-04-27T14:56:05Z</time>
      </trkpt>
      <trkpt lat="42.75329" lon="1.50437">
        <ele>1270</ele>
        <time>2019-04-27T14:56:06Z</time>
      </trkpt>
      <trkpt lat="42.75336" lon="1.50443">
        <ele>1269</ele>
        <time>2019-04-27T14:56:07Z</time>
      </trkpt>
      <trkpt lat="42.75342" lon="1.50449">
        <ele>1268</ele>
        <time>2019-04-27T14:56:08Z</time>
      </trkpt>
      <trkpt lat="42.75348" lon="1.50454">
        <ele>1267</ele>
        <time>2019-04-27T14:56:09Z</time>
      </trkpt>
      <trkpt lat="42.75354" lon="1.50459">
        <ele>1266</ele>
        <time>2019-04-27T14:56:10Z</time>
      </trkpt>
      <trkpt lat="42.7536" lon="1.50464">
        <ele>1265</ele>
        <time>2019-04-27T14:56:11Z</time>
      </trkpt>
      <trkpt lat="42.75367" lon="1.50467">
        <ele>1264</ele>
        <time>2019-04-27T14:56:12Z</time>
      </trkpt>
      <trkpt lat="42.75374" lon="1.50469">
        <ele>1263</ele>
        <time>2019-04-27T14:56:13Z</time>
      </trkpt>
      <trkpt lat="42.7538" lon="1.5047">
        <ele>1262</ele>
        <time>2019-04-27T14:56:14Z</time>
      </trkpt>
      <trkpt lat="42.75387" lon="1.5047">
        <ele>1261</ele>
        <time>2019-04-27T14:56:15Z</time>
      </trkpt>
      <trkpt lat="42.75394" lon="1.5047">
        <ele>1260</ele>
        <time>2019-04-27T14:56:16Z</time>
      </trkpt>
      <trkpt lat="42.754" lon="1.50469">
        <ele>1259</ele>
        <time>2019-04-27T14:56:17Z</time>
      </trkpt>
      <trkpt lat="42.75407" lon="1.50468">
        <ele>1258</ele>
        <time>2019-04-27T14:56:18Z</time>
      </trkpt>
      <trkpt lat="42.75413" lon="1.50466">
        <ele>1257</ele>
        <time>2019-04-27T14:56:19Z</time>
      </trkpt>
      <trkpt lat="42.75419" lon="1.50465">
        <ele>1256</ele>
        <time>2019-04-27T14:56:20Z</time>
      </trkpt>
      <trkpt lat="42.75426" lon="1.50463">
        <ele>1255</ele>
        <time>2019-04-27T14:56:21Z</time>
      </trkpt>
      <trkpt lat="42.75432" lon="1.50461">
        <ele>1255</ele>
        <time>2019-04-27T14:56:22Z</time>
      </trkpt>
      <trkpt lat="42.75478" lon="1.50457">
        <ele>1253</ele>
        <time>2019-04-27T14:56:29Z</time>
      </trkpt>
      <trkpt lat="42.75484" lon="1.50456">
        <ele>1252</ele>
        <time>2019-04-27T14:56:30Z</time>
      </trkpt>
      <trkpt lat="42.75491" lon="1.50456">
        <ele>1251</ele>
        <time>2019-04-27T14:56:31Z</time>
      </trkpt>
      <trkpt lat="42.75497" lon="1.50456">
        <ele>1250</ele>
        <time>2019-04-27T14:56:32Z</time>
      </trkpt>
      <trkpt lat="42.75504" lon="1.50456">
        <ele>1249</ele>
        <time>2019-04-27T14:56:33Z</time>
      </trkpt>
      <trkpt lat="42.7551" lon="1.50456">
        <ele>1248</ele>
        <time>2019-04-27T14:56:34Z</time>
      </trkpt>
      <trkpt lat="42.75517" lon="1.50456">
        <ele>1247</ele>
        <time>2019-04-27T14:56:35Z</time>
      </trkpt>
      <trkpt lat="42.75523" lon="1.50456">
        <ele>1246</ele>
        <time>2019-04-27T14:56:36Z</time>
      </trkpt>
      <trkpt lat="42.7553" lon="1.50457">
        <ele>1245</ele>
        <time>2019-04-27T14:56:37Z</time>
      </trkpt>
      <trkpt lat="42.75536" lon="1.50456">
        <ele>1244</ele>
        <time>2019-04-27T14:56:38Z</time>
      </trkpt>
      <trkpt lat="42.75542" lon="1.50456">
        <ele>1243</ele>
        <time>2019-04-27T14:56:39Z</time>
      </trkpt>
      <trkpt lat="42.75548" lon="1.50455">
        <ele>1242</ele>
        <time>2019-04-27T14:56:40Z</time>
      </trkpt>
      <trkpt lat="42.75555" lon="1.50455">
        <ele>1242</ele>
        <time>2019-04-27T14:56:41Z</time>
      </trkpt>
      <trkpt lat="42.75561" lon="1.50454">
        <ele>1242</ele>
        <time>2019-04-27T14:56:42Z</time>
      </trkpt>
      <trkpt lat="42.75715" lon="1.50391">
        <ele>1240</ele>
        <time>2019-04-27T14:57:02Z</time>
      </trkpt>
      <trkpt lat="42.75723" lon="1.50384">
        <ele>1239</ele>
        <time>2019-04-27T14:57:03Z</time>
      </trkpt>
      <trkpt lat="42.75732" lon="1.50375">
        <ele>1238</ele>
        <time>2019-04-27T14:57:04Z</time>
      </trkpt>
      <trkpt lat="42.75741" lon="1.50367">
        <ele>1237</ele>
        <time>2019-04-27T14:57:05Z</time>
      </trkpt>
      <trkpt lat="42.7575" lon="1.50359">
        <ele>1236</ele>
        <time>2019-04-27T14:57:06Z</time>
      </trkpt>
      <trkpt lat="42.7576" lon="1.50351">
        <ele>1235</ele>
        <time>2019-04-27T14:57:07Z</time>
      </trkpt>
      <trkpt lat="42.75771" lon="1.50344">
        <ele>1234</ele>
        <time>2019-04-27T14:57:08Z</time>
      </trkpt>
      <trkpt lat="42.75781" lon="1.50337">
        <ele>1234</ele>
        <time>2019-04-27T14:57:09Z</time>
      </trkpt>
      <trkpt lat="42.75792" lon="1.50331">
        <ele>1233</ele>
        <time>2019-04-27T14:57:15Z</time>
      </trkpt>
      <trkpt lat="42.75856" lon="1.503">
        <ele>1231</ele>
        <time>2019-04-27T14:57:17Z</time>
      </trkpt>
      <trkpt lat="42.75858" lon="1.50295">
        <ele>1230</ele>
        <time>2019-04-27T14:57:18Z</time>
      </trkpt>
      <trkpt lat="42.75857" lon="1.50289">
        <ele>1229</ele>
        <time>2019-04-27T14:57:19Z</time>
      </trkpt>
      <trkpt lat="42.75853" lon="1.50286">
        <ele>1228</ele>
        <time>2019-04-27T14:57:20Z</time>
      </trkpt>
      <trkpt lat="42.75847" lon="1.50285">
        <ele>1227</ele>
        <time>2019-04-27T14:57:21Z</time>
      </trkpt>
      <trkpt lat="42.75839" lon="1.50287">
        <ele>1226</ele>
        <time>2019-04-27T14:57:22Z</time>
      </trkpt>
      <trkpt lat="42.75832" lon="1.50288">
        <ele>1225</ele>
        <time>2019-04-27T14:57:23Z</time>
      </trkpt>
      <trkpt lat="42.75825" lon="1.5029">
        <ele>1225</ele>
        <time>2019-04-27T14:57:24Z</time>
      </trkpt>
      <trkpt lat="42.75816" lon="1.50292">
        <ele>1225</ele>
        <time>2019-04-27T14:57:25Z</time>
      </trkpt>
      <trkpt lat="42.75809" lon="1.50292">
        <ele>1225</ele>
        <time>2019-04-27T14:57:26Z</time>
      </trkpt>
      <trkpt lat="42.75802" lon="1.50293">
        <ele>1224</ele>
        <time>2019-04-27T14:57:27Z</time>
      </trkpt>
      <trkpt lat="42.75794" lon="1.50293">
        <ele>1223</ele>
        <time>2019-04-27T14:57:28Z</time>
      </trkpt>
      <trkpt lat="42.75787" lon="1.50292">
        <ele>1222</ele>
        <time>2019-04-27T14:57:29Z</time>
      </trkpt>
      <trkpt lat="42.75779" lon="1.50291">
        <ele>1221</ele>
        <time>2019-04-27T14:57:30Z</time>
      </trkpt>
      <trkpt lat="42.75771" lon="1.50289">
        <ele>1220</ele>
        <time>2019-04-27T14:57:31Z</time>
      </trkpt>
      <trkpt lat="42.75763" lon="1.50289">
        <ele>1219</ele>
        <time>2019-04-27T14:57:32Z</time>
      </trkpt>
      <trkpt lat="42.75755" lon="1.5029">
        <ele>1218</ele>
        <time>2019-04-27T14:57:33Z</time>
      </trkpt>
      <trkpt lat="42.75748" lon="1.50293">
        <ele>1217</ele>
        <time>2019-04-27T14:57:34Z</time>
      </trkpt>
      <trkpt lat="42.75741" lon="1.50297">
        <ele>1216</ele>
        <time>2019-04-27T14:57:35Z</time>
      </trkpt>
      <trkpt lat="42.75735" lon="1.50298">
        <ele>1215</ele>
        <time>2019-04-27T14:57:36Z</time>
      </trkpt>
      <trkpt lat="42.7573" lon="1.50297">
        <ele>1214</ele>
        <time>2019-04-27T14:57:37Z</time>
      </trkpt>
      <trkpt lat="42.75726" lon="1.50291">
        <ele>1213</ele>
        <time>2019-04-27T14:57:38Z</time>
      </trkpt>
      <trkpt lat="42.75726" lon="1.50283">
        <ele>1212</ele>
        <time>2019-04-27T14:57:39Z</time>
      </trkpt>
      <trkpt lat="42.75729" lon="1.50276">
        <ele>1211</ele>
        <time>2019-04-27T14:57:40Z</time>
      </trkpt>
      <trkpt lat="42.75734" lon="1.50269">
        <ele>1210</ele>
        <time>2019-04-27T14:57:41Z</time>
      </trkpt>
      <trkpt lat="42.75741" lon="1.50265">
        <ele>1209</ele>
        <time>2019-04-27T14:57:42Z</time>
      </trkpt>
      <trkpt lat="42.75749" lon="1.50261">
        <ele>1208</ele>
        <time>2019-04-27T14:57:43Z</time>
      </trkpt>
      <trkpt lat="42.75758" lon="1.50257">
        <ele>1207</ele>
        <time>2019-04-27T14:57:44Z</time>
      </trkpt>
      <trkpt lat="42.75767" lon="1.50253">
        <ele>1206</ele>
        <time>2019-04-27T14:57:45Z</time>
      </trkpt>
      <trkpt lat="42.75777" lon="1.50249">
        <ele>1205</ele>
        <time>2019-04-27T14:57:46Z</time>
      </trkpt>
      <trkpt lat="42.75787" lon="1.50245">
        <ele>1204</ele>
        <time>2019-04-27T14:57:47Z</time>
      </trkpt>
      <trkpt lat="42.75797" lon="1.5024">
        <ele>1203</ele>
        <time>2019-04-27T14:57:48Z</time>
      </trkpt>
      <trkpt lat="42.75808" lon="1.50235">
        <ele>1202</ele>
        <time>2019-04-27T14:57:49Z</time>
      </trkpt>
      <trkpt lat="42.7582" lon="1.5023">
        <ele>1201</ele>
        <time>2019-04-27T14:57:50Z</time>
      </trkpt>
      <trkpt lat="42.75831" lon="1.50225">
        <ele>1200</ele>
        <time>2019-04-27T14:57:51Z</time>
      </trkpt>
      <trkpt lat="42.75843" lon="1.50219">
        <ele>1199</ele>
        <time>2019-04-27T14:57:52Z</time>
      </trkpt>
      <trkpt lat="42.75856" lon="1.50214">
        <ele>1198</ele>
        <time>2019-04-27T14:57:53Z</time>
      </trkpt>
      <trkpt lat="42.75868" lon="1.50208">
        <ele>1197</ele>
        <time>2019-04-27T14:57:54Z</time>
      </trkpt>
      <trkpt lat="42.75882" lon="1.50204">
        <ele>1196</ele>
        <time>2019-04-27T14:57:55Z</time>
      </trkpt>
      <trkpt lat="42.75895" lon="1.50201">
        <ele>1196</ele>
        <time>2019-04-27T14:57:56Z</time>
      </trkpt>
      <trkpt lat="42.75909" lon="1.50199">
        <ele>1195</ele>
        <time>2019-04-27T14:58:12Z</time>
      </trkpt>
      <trkpt lat="42.75942" lon="1.50162">
        <ele>1193</ele>
        <time>2019-04-27T14:58:14Z</time>
      </trkpt>
      <trkpt lat="42.75933" lon="1.50155">
        <ele>1192</ele>
        <time>2019-04-27T14:58:15Z</time>
      </trkpt>
      <trkpt lat="42.75923" lon="1.50147">
        <ele>1191</ele>
        <time>2019-04-27T14:58:16Z</time>
      </trkpt>
      <trkpt lat="42.75914" lon="1.50139">
        <ele>1190</ele>
        <time>2019-04-27T14:58:17Z</time>
      </trkpt>
      <trkpt lat="42.75905" lon="1.50133">
        <ele>1189</ele>
        <time>2019-04-27T14:58:18Z</time>
      </trkpt>
      <trkpt lat="42.75894" lon="1.50126">
        <ele>1188</ele>
        <time>2019-04-27T14:58:19Z</time>
      </trkpt>
      <trkpt lat="42.75884" lon="1.50121">
        <ele>1187</ele>
        <time>2019-04-27T14:58:20Z</time>
      </trkpt>
      <trkpt lat="42.75875" lon="1.50117">
        <ele>1186</ele>
        <time>2019-04-27T14:58:21Z</time>
      </trkpt>
      <trkpt lat="42.75867" lon="1.50115">
        <ele>1185</ele>
        <time>2019-04-27T14:58:22Z</time>
      </trkpt>
      <trkpt lat="42.75862" lon="1.50111">
        <ele>1184</ele>
        <time>2019-04-27T14:58:23Z</time>
      </trkpt>
      <trkpt lat="42.75861" lon="1.50105">
        <ele>1183</ele>
        <time>2019-04-27T14:58:24Z</time>
      </trkpt>
      <trkpt lat="42.75865" lon="1.501">
        <ele>1182</ele>
        <time>2019-04-27T14:58:25Z</time>
      </trkpt>
      <trkpt lat="42.7587" lon="1.50097">
        <ele>1181</ele>
        <time>2019-04-27T14:58:26Z</time>
      </trkpt>
      <trkpt lat="42.75876" lon="1.50098">
        <ele>1180</ele>
        <time>2019-04-27T14:58:27Z</time>
      </trkpt>
      <trkpt lat="42.75883" lon="1.501">
        <ele>1179</ele>
        <time>2019-04-27T14:58:28Z</time>
      </trkpt>
      <trkpt lat="42.75891" lon="1.501">
        <ele>1178</ele>
        <time>2019-04-27T14:58:29Z</time>
      </trkpt>
      <trkpt lat="42.75899" lon="1.501">
        <ele>1177</ele>
        <time>2019-04-27T14:58:30Z</time>
      </trkpt>
      <trkpt lat="42.75908" lon="1.50099">
        <ele>1176</ele>
        <time>2019-04-27T14:58:31Z</time>
      </trkpt>
      <trkpt lat="42.75917" lon="1.50098">
        <ele>1175</ele>
        <time>2019-04-27T14:58:32Z</time>
      </trkpt>
      <trkpt lat="42.75926" lon="1.50097">
        <ele>1174</ele>
        <time>2019-04-27T14:58:33Z</time>
      </trkpt>
      <trkpt lat="42.75937" lon="1.50096">
        <ele>1174</ele>
        <time>2019-04-27T14:58:34Z</time>
      </trkpt>
      <trkpt lat="42.75947" lon="1.50097">
        <ele>1174</ele>
        <time>2019-04-27T14:58:35Z</time>
      </trkpt>
      <trkpt lat="42.75958" lon="1.50097">
        <ele>1174</ele>
        <time>2019-04-27T14:58:36Z</time>
      </trkpt>
      <trkpt lat="42.76139" lon="1.49991">
        <ele>1169</ele>
        <time>2019-04-27T14:58:51Z</time>
      </trkpt>
      <trkpt lat="42.76151" lon="1.49978">
        <ele>1168</ele>
        <time>2019-04-27T14:58:52Z</time>
      </trkpt>
      <trkpt lat="42.76163" lon="1.49965">
        <ele>1167</ele>
        <time>2019-04-27T14:58:53Z</time>
      </trkpt>
      <trkpt lat="42.76175" lon="1.49952">
        <ele>1166</ele>
        <time>2019-04-27T14:58:54Z</time>
      </trkpt>
      <trkpt lat="42.76187" lon="1.49939">
        <ele>1165</ele>
        <time>2019-04-27T14:58:55Z</time>
      </trkpt>
      <trkpt lat="42.76199" lon="1.49925">
        <ele>1164</ele>
        <time>2019-04-27T14:58:56Z</time>
      </trkpt>
      <trkpt lat="42.76209" lon="1.49911">
        <ele>1163</ele>
        <time>2019-04-27T14:58:57Z</time>
      </trkpt>
      <trkpt lat="42.7622" lon="1.49897">
        <ele>1162</ele>
        <time>2019-04-27T14:58:58Z</time>
      </trkpt>
      <trkpt lat="42.76229" lon="1.49885">
        <ele>1161</ele>
        <time>2019-04-27T14:58:59Z</time>
      </trkpt>
      <trkpt lat="42.76237" lon="1.49875">
        <ele>1160</ele>
        <time>2019-04-27T14:59:00Z</time>
      </trkpt>
      <trkpt lat="42.76245" lon="1.49866">
        <ele>1159</ele>
        <time>2019-04-27T14:59:01Z</time>
      </trkpt>
      <trkpt lat="42.76251" lon="1.49859">
        <ele>1158</ele>
        <time>2019-04-27T14:59:02Z</time>
      </trkpt>
      <trkpt lat="42.76256" lon="1.49853">
        <ele>1157</ele>
        <time>2019-04-27T14:59:03Z</time>
      </trkpt>
      <trkpt lat="42.76258" lon="1.49847">
        <ele>1156</ele>
        <time>2019-04-27T14:59:04Z</time>
      </trkpt>
      <trkpt lat="42.76257" lon="1.4984">
        <ele>1155</ele>
        <time>2019-04-27T14:59:05Z</time>
      </trkpt>
      <trkpt lat="42.76253" lon="1.49835">
        <ele>1154</ele>
        <time>2019-04-27T14:59:06Z</time>
      </trkpt>
      <trkpt lat="42.76247" lon="1.49834">
        <ele>1153</ele>
        <time>2019-04-27T14:59:07Z</time>
      </trkpt>
      <trkpt lat="42.76242" lon="1.49839">
        <ele>1152</ele>
        <time>2019-04-27T14:59:08Z</time>
      </trkpt>
      <trkpt lat="42.76236" lon="1.49847">
        <ele>1151</ele>
        <time>2019-04-27T14:59:09Z</time>
      </trkpt>
      <trkpt lat="42.7623" lon="1.49855">
        <ele>1150</ele>
        <time>2019-04-27T14:59:10Z</time>
      </trkpt>
      <trkpt lat="42.76224" lon="1.49863">
        <ele>1149</ele>
        <time>2019-04-27T14:59:11Z</time>
      </trkpt>
      <trkpt lat="42.76216" lon="1.49871">
        <ele>1148</ele>
        <time>2019-04-27T14:59:12Z</time>
      </trkpt>
      <trkpt lat="42.76209" lon="1.49877">
        <ele>1147</ele>
        <time>2019-04-27T14:59:13Z</time>
      </trkpt>
      <trkpt lat="42.762" lon="1.49884">
        <ele>1146</ele>
        <time>2019-04-27T14:59:14Z</time>
      </trkpt>
      <trkpt lat="42.76192" lon="1.49888">
        <ele>1145</ele>
        <time>2019-04-27T14:59:15Z</time>
      </trkpt>
      <trkpt lat="42.76182" lon="1.49893">
        <ele>1144</ele>
        <time>2019-04-27T14:59:16Z</time>
      </trkpt>
      <trkpt lat="42.76171" lon="1.49898">
        <ele>1143</ele>
        <time>2019-04-27T14:59:17Z</time>
      </trkpt>
      <trkpt lat="42.7616" lon="1.49903">
        <ele>1142</ele>
        <time>2019-04-27T14:59:18Z</time>
      </trkpt>
      <trkpt lat="42.76149" lon="1.49907">
        <ele>1141</ele>
        <time>2019-04-27T14:59:19Z</time>
      </trkpt>
      <trkpt lat="42.76137" lon="1.49912">
        <ele>1140</ele>
        <time>2019-04-27T14:59:20Z</time>
      </trkpt>
      <trkpt lat="42.76125" lon="1.49916">
        <ele>1139</ele>
        <time>2019-04-27T14:59:21Z</time>
      </trkpt>
      <trkpt lat="42.76117" lon="1.49919">
        <ele>1138</ele>
        <time>2019-04-27T14:59:22Z</time>
      </trkpt>
      <trkpt lat="42.76107" lon="1.49924">
        <ele>1137</ele>
        <time>2019-04-27T14:59:23Z</time>
      </trkpt>
      <trkpt lat="42.761" lon="1.49928">
        <ele>1134</ele>
        <time>2019-04-27T14:59:26Z</time>
      </trkpt>
      <trkpt lat="42.76093" lon="1.4993">
        <ele>1132</ele>
        <time>2019-04-27T14:59:28Z</time>
      </trkpt>
      <trkpt lat="42.76089" lon="1.49926">
        <ele>1131</ele>
        <time>2019-04-27T14:59:29Z</time>
      </trkpt>
      <trkpt lat="42.76088" lon="1.49918">
        <ele>1131</ele>
        <time>2019-04-27T14:59:30Z</time>
      </trkpt>
      <trkpt lat="42.76092" lon="1.4991">
        <ele>1131</ele>
        <time>2019-04-27T14:59:31Z</time>
      </trkpt>
      <trkpt lat="42.76098" lon="1.49905">
        <ele>1131</ele>
        <time>2019-04-27T14:59:32Z</time>
      </trkpt>
      <trkpt lat="42.76105" lon="1.49902">
        <ele>1131</ele>
        <time>2019-04-27T14:59:33Z</time>
      </trkpt>
      <trkpt lat="42.76113" lon="1.49898">
        <ele>1131</ele>
        <time>2019-04-27T14:59:34Z</time>
      </trkpt>
      <trkpt lat="42.76202" lon="1.49825">
        <ele>1125</ele>
        <time>2019-04-27T14:59:45Z</time>
      </trkpt>
      <trkpt lat="42.76201" lon="1.49819">
        <ele>1124</ele>
        <time>2019-04-27T14:59:46Z</time>
      </trkpt>
      <trkpt lat="42.76195" lon="1.49816">
        <ele>1123</ele>
        <time>2019-04-27T14:59:47Z</time>
      </trkpt>
      <trkpt lat="42.76189" lon="1.49819">
        <ele>1122</ele>
        <time>2019-04-27T14:59:48Z</time>
      </trkpt>
      <trkpt lat="42.76183" lon="1.49824">
        <ele>1121</ele>
        <time>2019-04-27T14:59:49Z</time>
      </trkpt>
      <trkpt lat="42.76177" lon="1.4983">
        <ele>1120</ele>
        <time>2019-04-27T14:59:50Z</time>
      </trkpt>
      <trkpt lat="42.76171" lon="1.49834">
        <ele>1119</ele>
        <time>2019-04-27T14:59:51Z</time>
      </trkpt>
      <trkpt lat="42.76164" lon="1.49836">
        <ele>1118</ele>
        <time>2019-04-27T14:59:52Z</time>
      </trkpt>
      <trkpt lat="42.76155" lon="1.49838">
        <ele>1117</ele>
        <time>2019-04-27T14:59:53Z</time>
      </trkpt>
      <trkpt lat="42.76147" lon="1.49839">
        <ele>1116</ele>
        <time>2019-04-27T14:59:54Z</time>
      </trkpt>
      <trkpt lat="42.76139" lon="1.49841">
        <ele>1115</ele>
        <time>2019-04-27T14:59:55Z</time>
      </trkpt>
      <trkpt lat="42.7613" lon="1.49844">
        <ele>1114</ele>
        <time>2019-04-27T14:59:56Z</time>
      </trkpt>
      <trkpt lat="42.76122" lon="1.49849">
        <ele>1113</ele>
        <time>2019-04-27T14:59:57Z</time>
      </trkpt>
      <trkpt lat="42.76114" lon="1.49852">
        <ele>1112</ele>
        <time>2019-04-27T14:59:58Z</time>
      </trkpt>
      <trkpt lat="42.76107" lon="1.49852">
        <ele>1111</ele>
        <time>2019-04-27T14:59:59Z</time>
      </trkpt>
      <trkpt lat="42.76103" lon="1.49847">
        <ele>1110</ele>
        <time>2019-04-27T15:00:00Z</time>
      </trkpt>
      <trkpt lat="42.76104" lon="1.49839">
        <ele>1108</ele>
        <time>2019-04-27T15:00:02Z</time>
      </trkpt>
      <trkpt lat="42.76109" lon="1.49833">
        <ele>1106</ele>
        <time>2019-04-27T15:00:04Z</time>
      </trkpt>
      <trkpt lat="42.76116" lon="1.4983">
        <ele>1105</ele>
        <time>2019-04-27T15:00:05Z</time>
      </trkpt>
      <trkpt lat="42.76122" lon="1.49829">
        <ele>1105</ele>
        <time>2019-04-27T15:00:06Z</time>
      </trkpt>
      <trkpt lat="42.76132" lon="1.49826">
        <ele>1105</ele>
        <time>2019-04-27T15:00:07Z</time>
      </trkpt>
      <trkpt lat="42.7614" lon="1.49821">
        <ele>1105</ele>
        <time>2019-04-27T15:00:08Z</time>
      </trkpt>
      <trkpt lat="42.76149" lon="1.49814">
        <ele>1105</ele>
        <time>2019-04-27T15:00:09Z</time>
      </trkpt>
      <trkpt lat="42.76158" lon="1.49807">
        <ele>1105</ele>
        <time>2019-04-27T15:00:10Z</time>
      </trkpt>
      <trkpt lat="42.76167" lon="1.49797">
        <ele>1105</ele>
        <time>2019-04-27T15:00:11Z</time>
      </trkpt>
      <trkpt lat="42.76175" lon="1.49785">
        <ele>1105</ele>
        <time>2019-04-27T15:00:12Z</time>
      </trkpt>
      <trkpt lat="42.76184" lon="1.49774">
        <ele>1105</ele>
        <time>2019-04-27T15:00:13Z</time>
      </trkpt>
      <trkpt lat="42.76181" lon="1.49685">
        <ele>1097</ele>
        <time>2019-04-27T15:00:41Z</time>
      </trkpt>
      <trkpt lat="42.76175" lon="1.49686">
        <ele>1096</ele>
        <time>2019-04-27T15:00:42Z</time>
      </trkpt>
      <trkpt lat="42.76168" lon="1.49685">
        <ele>1095</ele>
        <time>2019-04-27T15:00:43Z</time>
      </trkpt>
      <trkpt lat="42.76164" lon="1.4968">
        <ele>1094</ele>
        <time>2019-04-27T15:00:44Z</time>
      </trkpt>
      <trkpt lat="42.76164" lon="1.49673">
        <ele>1093</ele>
        <time>2019-04-27T15:00:45Z</time>
      </trkpt>
      <trkpt lat="42.76169" lon="1.49668">
        <ele>1092</ele>
        <time>2019-04-27T15:00:46Z</time>
      </trkpt>
      <trkpt lat="42.76175" lon="1.49665">
        <ele>1091</ele>
        <time>2019-04-27T15:00:47Z</time>
      </trkpt>
      <trkpt lat="42.76182" lon="1.49664">
        <ele>1090</ele>
        <time>2019-04-27T15:00:48Z</time>
      </trkpt>
      <trkpt lat="42.76189" lon="1.49662">
        <ele>1089</ele>
        <time>2019-04-27T15:00:49Z</time>
      </trkpt>
      <trkpt lat="42.76196" lon="1.49657">
        <ele>1088</ele>
        <time>2019-04-27T15:00:50Z</time>
      </trkpt>
      <trkpt lat="42.76203" lon="1.4965">
        <ele>1087</ele>
        <time>2019-04-27T15:00:51Z</time>
      </trkpt>
      <trkpt lat="42.7621" lon="1.49641">
        <ele>1086</ele>
        <time>2019-04-27T15:00:52Z</time>
      </trkpt>
      <trkpt lat="42.76217" lon="1.4963">
        <ele>1085</ele>
        <time>2019-04-27T15:00:53Z</time>
      </trkpt>
      <trkpt lat="42.76224" lon="1.49618">
        <ele>1084</ele>
        <time>2019-04-27T15:00:54Z</time>
      </trkpt>
      <trkpt lat="42.7623" lon="1.49606">
        <ele>1083</ele>
        <time>2019-04-27T15:00:55Z</time>
      </trkpt>
      <trkpt lat="42.76236" lon="1.49592">
        <ele>1082</ele>
        <time>2019-04-27T15:00:56Z</time>
      </trkpt>
      <trkpt lat="42.76242" lon="1.4958">
        <ele>1081</ele>
        <time>2019-04-27T15:00:57Z</time>
      </trkpt>
      <trkpt lat="42.76247" lon="1.49569">
        <ele>1080</ele>
        <time>2019-04-27T15:00:58Z</time>
      </trkpt>
      <trkpt lat="42.76253" lon="1.49559">
        <ele>1079</ele>
        <time>2019-04-27T15:00:59Z</time>
      </trkpt>
      <trkpt lat="42.76261" lon="1.49552">
        <ele>1078</ele>
        <time>2019-04-27T15:01:00Z</time>
      </trkpt>
      <trkpt lat="42.76271" lon="1.49547">
        <ele>1077</ele>
        <time>2019-04-27T15:01:01Z</time>
      </trkpt>
      <trkpt lat="42.76281" lon="1.49547">
        <ele>1076</ele>
        <time>2019-04-27T15:01:02Z</time>
      </trkpt>
      <trkpt lat="42.76292" lon="1.4955">
        <ele>1075</ele>
        <time>2019-04-27T15:01:03Z</time>
      </trkpt>
      <trkpt lat="42.76302" lon="1.49555">
        <ele>1075</ele>
        <time>2019-04-27T15:01:04Z</time>
      </trkpt>
      <trkpt lat="42.76313" lon="1.49559">
        <ele>1075</ele>
        <time>2019-04-27T15:01:05Z</time>
      </trkpt>
      <trkpt lat="42.76324" lon="1.49561">
        <ele>1075</ele>
        <time>2019-04-27T15:01:06Z</time>
      </trkpt>
      <trkpt lat="42.76335" lon="1.49561">
        <ele>1075</ele>
        <time>2019-04-27T15:01:07Z</time>
      </trkpt>
      <trkpt lat="42.76347" lon="1.4956">
        <ele>1075</ele>
        <time>2019-04-27T15:01:08Z</time>
      </trkpt>
      <trkpt lat="42.76358" lon="1.49557">
        <ele>1075</ele>
        <time>2019-04-27T15:01:09Z</time>
      </trkpt>
      <trkpt lat="42.76368" lon="1.49553">
        <ele>1075</ele>
        <time>2019-04-27T15:01:10Z</time>
      </trkpt>
      <trkpt lat="42.76376" lon="1.49549">
        <ele>1074</ele>
        <time>2019-04-27T15:01:11Z</time>
      </trkpt>
      <trkpt lat="42.76431" lon="1.49592">
        <ele>1067</ele>
        <time>2019-04-27T15:01:18Z</time>
      </trkpt>
      <trkpt lat="42.76435" lon="1.49606">
        <ele>1066</ele>
        <time>2019-04-27T15:01:19Z</time>
      </trkpt>
      <trkpt lat="42.76437" lon="1.4962">
        <ele>1065</ele>
        <time>2019-04-27T15:01:20Z</time>
      </trkpt>
      <trkpt lat="42.76439" lon="1.49636">
        <ele>1064</ele>
        <time>2019-04-27T15:01:21Z</time>
      </trkpt>
      <trkpt lat="42.76442" lon="1.49651">
        <ele>1063</ele>
        <time>2019-04-27T15:01:22Z</time>
      </trkpt>
      <trkpt lat="42.76444" lon="1.49667">
        <ele>1062</ele>
        <time>2019-04-27T15:01:23Z</time>
      </trkpt>
      <trkpt lat="42.76446" lon="1.49682">
        <ele>1061</ele>
        <time>2019-04-27T15:01:24Z</time>
      </trkpt>
      <trkpt lat="42.76447" lon="1.49695">
        <ele>1060</ele>
        <time>2019-04-27T15:01:25Z</time>
      </trkpt>
      <trkpt lat="42.76448" lon="1.49705">
        <ele>1059</ele>
        <time>2019-04-27T15:01:26Z</time>
      </trkpt>
      <trkpt lat="42.76449" lon="1.49714">
        <ele>1058</ele>
        <time>2019-04-27T15:01:27Z</time>
      </trkpt>
      <trkpt lat="42.76453" lon="1.4972">
        <ele>1057</ele>
        <time>2019-04-27T15:01:28Z</time>
      </trkpt>
      <trkpt lat="42.76459" lon="1.49721">
        <ele>1056</ele>
        <time>2019-04-27T15:01:29Z</time>
      </trkpt>
      <trkpt lat="42.76463" lon="1.49717">
        <ele>1055</ele>
        <time>2019-04-27T15:01:30Z</time>
      </trkpt>
      <trkpt lat="42.76465" lon="1.49709">
        <ele>1054</ele>
        <time>2019-04-27T15:01:31Z</time>
      </trkpt>
      <trkpt lat="42.76465" lon="1.49699">
        <ele>1053</ele>
        <time>2019-04-27T15:01:32Z</time>
      </trkpt>
      <trkpt lat="42.76464" lon="1.49689">
        <ele>1052</ele>
        <time>2019-04-27T15:01:33Z</time>
      </trkpt>
      <trkpt lat="42.76463" lon="1.49678">
        <ele>1051</ele>
        <time>2019-04-27T15:01:34Z</time>
      </trkpt>
      <trkpt lat="42.76463" lon="1.49667">
        <ele>1050</ele>
        <time>2019-04-27T15:01:35Z</time>
      </trkpt>
      <trkpt lat="42.76463" lon="1.49655">
        <ele>1049</ele>
        <time>2019-04-27T15:01:36Z</time>
      </trkpt>
      <trkpt lat="42.76461" lon="1.49642">
        <ele>1048</ele>
        <time>2019-04-27T15:01:37Z</time>
      </trkpt>
      <trkpt lat="42.7646" lon="1.49631">
        <ele>1047</ele>
        <time>2019-04-27T15:01:38Z</time>
      </trkpt>
      <trkpt lat="42.76461" lon="1.49621">
        <ele>1046</ele>
        <time>2019-04-27T15:01:39Z</time>
      </trkpt>
      <trkpt lat="42.76464" lon="1.49615">
        <ele>1045</ele>
        <time>2019-04-27T15:01:40Z</time>
      </trkpt>
      <trkpt lat="42.76469" lon="1.49611">
        <ele>1044</ele>
        <time>2019-04-27T15:01:41Z</time>
      </trkpt>
      <trkpt lat="42.76475" lon="1.49613">
        <ele>1043</ele>
        <time>2019-04-27T15:01:42Z</time>
      </trkpt>
      <trkpt lat="42.7648" lon="1.49619">
        <ele>1042</ele>
        <time>2019-04-27T15:01:43Z</time>
      </trkpt>
      <trkpt lat="42.76484" lon="1.49628">
        <ele>1041</ele>
        <time>2019-04-27T15:01:44Z</time>
      </trkpt>
      <trkpt lat="42.76486" lon="1.49639">
        <ele>1040</ele>
        <time>2019-04-27T15:01:45Z</time>
      </trkpt>
      <trkpt lat="42.76487" lon="1.49651">
        <ele>1039</ele>
        <time>2019-04-27T15:01:46Z</time>
      </trkpt>
      <trkpt lat="42.7649" lon="1.49663">
        <ele>1038</ele>
        <time>2019-04-27T15:01:47Z</time>
      </trkpt>
      <trkpt lat="42.76492" lon="1.49675">
        <ele>1036</ele>
        <time>2019-04-27T15:01:49Z</time>
      </trkpt>
      <trkpt lat="42.76495" lon="1.49688">
        <ele>1035</ele>
        <time>2019-04-27T15:01:51Z</time>
      </trkpt>
      <trkpt lat="42.76498" lon="1.49699">
        <ele>1035</ele>
        <time>2019-04-27T15:01:52Z</time>
      </trkpt>
      <trkpt lat="42.76504" lon="1.49707">
        <ele>1035</ele>
        <time>2019-04-27T15:01:53Z</time>
      </trkpt>
      <trkpt lat="42.76513" lon="1.49709">
        <ele>1035</ele>
        <time>2019-04-27T15:01:54Z</time>
      </trkpt>
      <trkpt lat="42.76521" lon="1.49705">
        <ele>1035</ele>
        <time>2019-04-27T15:01:55Z</time>
      </trkpt>
      <trkpt lat="42.76526" lon="1.49697">
        <ele>1035</ele>
        <time>2019-04-27T15:01:56Z</time>
      </trkpt>
      <trkpt lat="42.76529" lon="1.49685">
        <ele>1035</ele>
        <time>2019-04-27T15:01:57Z</time>
      </trkpt>
      <trkpt lat="42.76529" lon="1.49674">
        <ele>1035</ele>
        <time>2019-04-27T15:01:58Z</time>
      </trkpt>
      <trkpt lat="42.76526" lon="1.49662">
        <ele>1035</ele>
        <time>2019-04-27T15:01:59Z</time>
      </trkpt>
      <trkpt lat="42.76448" lon="1.49524">
        <ele>1029</ele>
        <time>2019-04-27T15:02:12Z</time>
      </trkpt>
      <trkpt lat="42.76444" lon="1.49518">
        <ele>1029</ele>
        <time>2019-04-27T15:02:13Z</time>
      </trkpt>
      <trkpt lat="42.76444" lon="1.4951">
        <ele>1029</ele>
        <time>2019-04-27T15:02:14Z</time>
      </trkpt>
      <trkpt lat="42.76448" lon="1.49505">
        <ele>1029</ele>
        <time>2019-04-27T15:02:15Z</time>
      </trkpt>
      <trkpt lat="42.76454" lon="1.49504">
        <ele>1029</ele>
        <time>2019-04-27T15:02:16Z</time>
      </trkpt>
      <trkpt lat="42.7646" lon="1.49508">
        <ele>1029</ele>
        <time>2019-04-27T15:02:17Z</time>
      </trkpt>
      <trkpt lat="42.76465" lon="1.49515">
        <ele>1029</ele>
        <time>2019-04-27T15:02:18Z</time>
      </trkpt>
      <trkpt lat="42.76562" lon="1.49631">
        <ele>1018</ele>
        <time>2019-04-27T15:02:31Z</time>
      </trkpt>
      <trkpt lat="42.76571" lon="1.49643">
        <ele>1017</ele>
        <time>2019-04-27T15:02:32Z</time>
      </trkpt>
      <trkpt lat="42.76579" lon="1.49657">
        <ele>1016</ele>
        <time>2019-04-27T15:02:33Z</time>
      </trkpt>
      <trkpt lat="42.76584" lon="1.49673">
        <ele>1015</ele>
        <time>2019-04-27T15:02:34Z</time>
      </trkpt>
      <trkpt lat="42.7659" lon="1.49689">
        <ele>1014</ele>
        <time>2019-04-27T15:02:35Z</time>
      </trkpt>
      <trkpt lat="42.76595" lon="1.49705">
        <ele>1013</ele>
        <time>2019-04-27T15:02:36Z</time>
      </trkpt>
      <trkpt lat="42.766" lon="1.4972">
        <ele>1012</ele>
        <time>2019-04-27T15:02:37Z</time>
      </trkpt>
      <trkpt lat="42.76604" lon="1.49734">
        <ele>1011</ele>
        <time>2019-04-27T15:02:38Z</time>
      </trkpt>
      <trkpt lat="42.76605" lon="1.49748">
        <ele>1010</ele>
        <time>2019-04-27T15:02:39Z</time>
      </trkpt>
      <trkpt lat="42.76602" lon="1.49762">
        <ele>1009</ele>
        <time>2019-04-27T15:02:40Z</time>
      </trkpt>
      <trkpt lat="42.76598" lon="1.49772">
        <ele>1008</ele>
        <time>2019-04-27T15:02:41Z</time>
      </trkpt>
      <trkpt lat="42.76591" lon="1.49779">
        <ele>1007</ele>
        <time>2019-04-27T15:02:42Z</time>
      </trkpt>
      <trkpt lat="42.76584" lon="1.49787">
        <ele>1006</ele>
        <time>2019-04-27T15:02:43Z</time>
      </trkpt>
      <trkpt lat="42.76576" lon="1.49799">
        <ele>1005</ele>
        <time>2019-04-27T15:02:44Z</time>
      </trkpt>
      <trkpt lat="42.76571" lon="1.49812">
        <ele>1004</ele>
        <time>2019-04-27T15:02:45Z</time>
      </trkpt>
      <trkpt lat="42.76567" lon="1.49828">
        <ele>1003</ele>
        <time>2019-04-27T15:02:46Z</time>
      </trkpt>
      <trkpt lat="42.76565" lon="1.49844">
        <ele>1003</ele>
        <time>2019-04-27T15:02:47Z</time>
      </trkpt>
      <trkpt lat="42.76567" lon="1.49858">
        <ele>1002</ele>
        <time>2019-04-27T15:02:48Z</time>
      </trkpt>
      <trkpt lat="42.76567" lon="1.49876">
        <ele>1001</ele>
        <time>2019-04-27T15:02:49Z</time>
      </trkpt>
      <trkpt lat="42.76569" lon="1.49892">
        <ele>1000</ele>
        <time>2019-04-27T15:02:50Z</time>
      </trkpt>
      <trkpt lat="42.76573" lon="1.49907">
        <ele>999</ele>
        <time>2019-04-27T15:02:51Z</time>
      </trkpt>
      <trkpt lat="42.76577" lon="1.49923">
        <ele>998</ele>
        <time>2019-04-27T15:02:52Z</time>
      </trkpt>
      <trkpt lat="42.7658" lon="1.49939">
        <ele>997</ele>
        <time>2019-04-27T15:02:53Z</time>
      </trkpt>
      <trkpt lat="42.76584" lon="1.49956">
        <ele>996</ele>
        <time>2019-04-27T15:02:54Z</time>
      </trkpt>
      <trkpt lat="42.76588" lon="1.49973">
        <ele>995</ele>
        <time>2019-04-27T15:02:55Z</time>
      </trkpt>
      <trkpt lat="42.76591" lon="1.49992">
        <ele>994</ele>
        <time>2019-04-27T15:02:56Z</time>
      </trkpt>
      <trkpt lat="42.76597" lon="1.50008">
        <ele>993</ele>
        <time>2019-04-27T15:02:57Z</time>
      </trkpt>
      <trkpt lat="42.76604" lon="1.50024">
        <ele>992</ele>
        <time>2019-04-27T15:02:58Z</time>
      </trkpt>
      <trkpt lat="42.76611" lon="1.5004">
        <ele>991</ele>
        <time>2019-04-27T15:02:59Z</time>
      </trkpt>
      <trkpt lat="42.76618" lon="1.50056">
        <ele>989</ele>
        <time>2019-04-27T15:03:01Z</time>
      </trkpt>
      <trkpt lat="42.76625" lon="1.50073">
        <ele>987</ele>
        <time>2019-04-27T15:03:03Z</time>
      </trkpt>
      <trkpt lat="42.76632" lon="1.5009">
        <ele>986</ele>
        <time>2019-04-27T15:03:04Z</time>
      </trkpt>
      <trkpt lat="42.76635" lon="1.5011">
        <ele>985</ele>
        <time>2019-04-27T15:03:05Z</time>
      </trkpt>
      <trkpt lat="42.76638" lon="1.5013">
        <ele>984</ele>
        <time>2019-04-27T15:03:06Z</time>
      </trkpt>
      <trkpt lat="42.76644" lon="1.50148">
        <ele>983</ele>
        <time>2019-04-27T15:03:07Z</time>
      </trkpt>
      <trkpt lat="42.7665" lon="1.50166">
        <ele>982</ele>
        <time>2019-04-27T15:03:08Z</time>
      </trkpt>
      <trkpt lat="42.76657" lon="1.50182">
        <ele>981</ele>
        <time>2019-04-27T15:03:09Z</time>
      </trkpt>
      <trkpt lat="42.76663" lon="1.50198">
        <ele>980</ele>
        <time>2019-04-27T15:03:10Z</time>
      </trkpt>
      <trkpt lat="42.76669" lon="1.50212">
        <ele>979</ele>
        <time>2019-04-27T15:03:11Z</time>
      </trkpt>
      <trkpt lat="42.76674" lon="1.50225">
        <ele>978</ele>
        <time>2019-04-27T15:03:12Z</time>
      </trkpt>
      <trkpt lat="42.76678" lon="1.50237">
        <ele>977</ele>
        <time>2019-04-27T15:03:13Z</time>
      </trkpt>
      <trkpt lat="42.7668" lon="1.50248">
        <ele>976</ele>
        <time>2019-04-27T15:03:14Z</time>
      </trkpt>
      <trkpt lat="42.76683" lon="1.50256">
        <ele>975</ele>
        <time>2019-04-27T15:03:15Z</time>
      </trkpt>
      <trkpt lat="42.76686" lon="1.50262">
        <ele>974</ele>
        <time>2019-04-27T15:03:16Z</time>
      </trkpt>
      <trkpt lat="42.7669" lon="1.50267">
        <ele>973</ele>
        <time>2019-04-27T15:03:17Z</time>
      </trkpt>
      <trkpt lat="42.76695" lon="1.50267">
        <ele>972</ele>
        <time>2019-04-27T15:03:18Z</time>
      </trkpt>
      <trkpt lat="42.76699" lon="1.50262">
        <ele>972</ele>
        <time>2019-04-27T15:03:19Z</time>
      </trkpt>
      <trkpt lat="42.76701" lon="1.50255">
        <ele>972</ele>
        <time>2019-04-27T15:03:20Z</time>
      </trkpt>
      <trkpt lat="42.76699" lon="1.50248">
        <ele>972</ele>
        <time>2019-04-27T15:03:21Z</time>
      </trkpt>
      <trkpt lat="42.76697" lon="1.50241">
        <ele>971</ele>
        <time>2019-04-27T15:03:22Z</time>
      </trkpt>
      <trkpt lat="42.76694" lon="1.50232">
        <ele>970</ele>
        <time>2019-04-27T15:03:23Z</time>
      </trkpt>
      <trkpt lat="42.7669" lon="1.50223">
        <ele>969</ele>
        <time>2019-04-27T15:03:24Z</time>
      </trkpt>
      <trkpt lat="42.76687" lon="1.50214">
        <ele>969</ele>
        <time>2019-04-27T15:03:25Z</time>
      </trkpt>
      <trkpt lat="42.76684" lon="1.50204">
        <ele>969</ele>
        <time>2019-04-27T15:03:26Z</time>
      </trkpt>
      <trkpt lat="42.76681" lon="1.50194">
        <ele>969</ele>
        <time>2019-04-27T15:03:27Z</time>
      </trkpt>
      <trkpt lat="42.76679" lon="1.50183">
        <ele>969</ele>
        <time>2019-04-27T15:03:28Z</time>
      </trkpt>
      <trkpt lat="42.76676" lon="1.50171">
        <ele>969</ele>
        <time>2019-04-27T15:03:29Z</time>
      </trkpt>
      <trkpt lat="42.76673" lon="1.5016">
        <ele>969</ele>
        <time>2019-04-27T15:03:30Z</time>
      </trkpt>
      <trkpt lat="42.76671" lon="1.50147">
        <ele>969</ele>
        <time>2019-04-27T15:03:31Z</time>
      </trkpt>
      <trkpt lat="42.76669" lon="1.50134">
        <ele>969</ele>
        <time>2019-04-27T15:03:32Z</time>
      </trkpt>
      <trkpt lat="42.76667" lon="1.5012">
        <ele>969</ele>
        <time>2019-04-27T15:03:33Z</time>
      </trkpt>
      <trkpt lat="42.76665" lon="1.50106">
        <ele>969</ele>
        <time>2019-04-27T15:03:34Z</time>
      </trkpt>
      <trkpt lat="42.76663" lon="1.50091">
        <ele>969</ele>
        <time>2019-04-27T15:03:35Z</time>
      </trkpt>
      <trkpt lat="42.76703" lon="1.49891">
        <ele>955</ele>
        <time>2019-04-27T15:03:48Z</time>
      </trkpt>
      <trkpt lat="42.76706" lon="1.49876">
        <ele>954</ele>
        <time>2019-04-27T15:03:49Z</time>
      </trkpt>
      <trkpt lat="42.76707" lon="1.49859">
        <ele>953</ele>
        <time>2019-04-27T15:03:50Z</time>
      </trkpt>
      <trkpt lat="42.76706" lon="1.49843">
        <ele>952</ele>
        <time>2019-04-27T15:03:51Z</time>
      </trkpt>
      <trkpt lat="42.76703" lon="1.49827">
        <ele>951</ele>
        <time>2019-04-27T15:03:52Z</time>
      </trkpt>
      <trkpt lat="42.76701" lon="1.49812">
        <ele>950</ele>
        <time>2019-04-27T15:03:53Z</time>
      </trkpt>
      <trkpt lat="42.76698" lon="1.49799">
        <ele>949</ele>
        <time>2019-04-27T15:03:54Z</time>
      </trkpt>
      <trkpt lat="42.76696" lon="1.49788">
        <ele>948</ele>
        <time>2019-04-27T15:03:55Z</time>
      </trkpt>
      <trkpt lat="42.76694" lon="1.49779">
        <ele>947</ele>
        <time>2019-04-27T15:03:56Z</time>
      </trkpt>
      <trkpt lat="42.76696" lon="1.49773">
        <ele>946</ele>
        <time>2019-04-27T15:03:57Z</time>
      </trkpt>
      <trkpt lat="42.76701" lon="1.49771">
        <ele>945</ele>
        <time>2019-04-27T15:03:58Z</time>
      </trkpt>
      <trkpt lat="42.76706" lon="1.49775">
        <ele>944</ele>
        <time>2019-04-27T15:03:59Z</time>
      </trkpt>
      <trkpt lat="42.76709" lon="1.49782">
        <ele>943</ele>
        <time>2019-04-27T15:04:00Z</time>
      </trkpt>
      <trkpt lat="42.7671" lon="1.49791">
        <ele>942</ele>
        <time>2019-04-27T15:04:01Z</time>
      </trkpt>
      <trkpt lat="42.7671" lon="1.49801">
        <ele>941</ele>
        <time>2019-04-27T15:04:02Z</time>
      </trkpt>
      <trkpt lat="42.76711" lon="1.49811">
        <ele>940</ele>
        <time>2019-04-27T15:04:03Z</time>
      </trkpt>
      <trkpt lat="42.76713" lon="1.49822">
        <ele>939</ele>
        <time>2019-04-27T15:04:04Z</time>
      </trkpt>
      <trkpt lat="42.76716" lon="1.49833">
        <ele>938</ele>
        <time>2019-04-27T15:04:05Z</time>
      </trkpt>
      <trkpt lat="42.76719" lon="1.49844">
        <ele>937</ele>
        <time>2019-04-27T15:04:06Z</time>
      </trkpt>
      <trkpt lat="42.76722" lon="1.49856">
        <ele>936</ele>
        <time>2019-04-27T15:04:07Z</time>
      </trkpt>
      <trkpt lat="42.76727" lon="1.49868">
        <ele>935</ele>
        <time>2019-04-27T15:04:08Z</time>
      </trkpt>
      <trkpt lat="42.76731" lon="1.49881">
        <ele>934</ele>
        <time>2019-04-27T15:04:09Z</time>
      </trkpt>
      <trkpt lat="42.76737" lon="1.49893">
        <ele>933</ele>
        <time>2019-04-27T15:04:10Z</time>
      </trkpt>
      <trkpt lat="42.76743" lon="1.49906">
        <ele>932</ele>
        <time>2019-04-27T15:04:11Z</time>
      </trkpt>
      <trkpt lat="42.76751" lon="1.49917">
        <ele>932</ele>
        <time>2019-04-27T15:04:14Z</time>
      </trkpt>
      <trkpt lat="42.76759" lon="1.49926">
        <ele>930</ele>
        <time>2019-04-27T15:04:16Z</time>
      </trkpt>
      <trkpt lat="42.76767" lon="1.49934">
        <ele>929</ele>
        <time>2019-04-27T15:04:17Z</time>
      </trkpt>
      <trkpt lat="42.76774" lon="1.49942">
        <ele>928</ele>
        <time>2019-04-27T15:04:18Z</time>
      </trkpt>
      <trkpt lat="42.76778" lon="1.49952">
        <ele>927</ele>
        <time>2019-04-27T15:04:19Z</time>
      </trkpt>
      <trkpt lat="42.7678" lon="1.49964">
        <ele>926</ele>
        <time>2019-04-27T15:04:20Z</time>
      </trkpt>
      <trkpt lat="42.76781" lon="1.49976">
        <ele>925</ele>
        <time>2019-04-27T15:04:21Z</time>
      </trkpt>
      <trkpt lat="42.76781" lon="1.49989">
        <ele>924</ele>
        <time>2019-04-27T15:04:22Z</time>
      </trkpt>
      <trkpt lat="42.76781" lon="1.50002">
        <ele>923</ele>
        <time>2019-04-27T15:04:23Z</time>
      </trkpt>
      <trkpt lat="42.76781" lon="1.50014">
        <ele>922</ele>
        <time>2019-04-27T15:04:24Z</time>
      </trkpt>
      <trkpt lat="42.7678" lon="1.50025">
        <ele>921</ele>
        <time>2019-04-27T15:04:25Z</time>
      </trkpt>
      <trkpt lat="42.76781" lon="1.50034">
        <ele>920</ele>
        <time>2019-04-27T15:04:26Z</time>
      </trkpt>
      <trkpt lat="42.76796" lon="1.50048">
        <ele>917</ele>
        <time>2019-04-27T15:04:29Z</time>
      </trkpt>
      <trkpt lat="42.76802" lon="1.50048">
        <ele>916</ele>
        <time>2019-04-27T15:04:30Z</time>
      </trkpt>
      <trkpt lat="42.76808" lon="1.50047">
        <ele>915</ele>
        <time>2019-04-27T15:04:31Z</time>
      </trkpt>
      <trkpt lat="42.76814" lon="1.50045">
        <ele>914</ele>
        <time>2019-04-27T15:04:32Z</time>
      </trkpt>
      <trkpt lat="42.76819" lon="1.5004">
        <ele>913</ele>
        <time>2019-04-27T15:04:33Z</time>
      </trkpt>
      <trkpt lat="42.76824" lon="1.50033">
        <ele>912</ele>
        <time>2019-04-27T15:04:34Z</time>
      </trkpt>
      <trkpt lat="42.76828" lon="1.50025">
        <ele>911</ele>
        <time>2019-04-27T15:04:35Z</time>
      </trkpt>
      <trkpt lat="42.76831" lon="1.50017">
        <ele>910</ele>
        <time>2019-04-27T15:04:36Z</time>
      </trkpt>
      <trkpt lat="42.76834" lon="1.50007">
        <ele>909</ele>
        <time>2019-04-27T15:04:37Z</time>
      </trkpt>
      <trkpt lat="42.76836" lon="1.49998">
        <ele>908</ele>
        <time>2019-04-27T15:04:38Z</time>
      </trkpt>
      <trkpt lat="42.76838" lon="1.49988">
        <ele>907</ele>
        <time>2019-04-27T15:04:39Z</time>
      </trkpt>
      <trkpt lat="42.7684" lon="1.49978">
        <ele>906</ele>
        <time>2019-04-27T15:04:40Z</time>
      </trkpt>
      <trkpt lat="42.76842" lon="1.49968">
        <ele>905</ele>
        <time>2019-04-27T15:04:41Z</time>
      </trkpt>
      <trkpt lat="42.76844" lon="1.49958">
        <ele>904</ele>
        <time>2019-04-27T15:04:42Z</time>
      </trkpt>
      <trkpt lat="42.76846" lon="1.49948">
        <ele>903</ele>
        <time>2019-04-27T15:04:43Z</time>
      </trkpt>
      <trkpt lat="42.76847" lon="1.49938">
        <ele>902</ele>
        <time>2019-04-27T15:04:44Z</time>
      </trkpt>
      <trkpt lat="42.76849" lon="1.49928">
        <ele>901</ele>
        <time>2019-04-27T15:04:45Z</time>
      </trkpt>
      <trkpt lat="42.76852" lon="1.49918">
        <ele>900</ele>
        <time>2019-04-27T15:04:46Z</time>
      </trkpt>
      <trkpt lat="42.76854" lon="1.49909">
        <ele>899</ele>
        <time>2019-04-27T15:04:47Z</time>
      </trkpt>
      <trkpt lat="42.76856" lon="1.49899">
        <ele>898</ele>
        <time>2019-04-27T15:04:48Z</time>
      </trkpt>
      <trkpt lat="42.76858" lon="1.4989">
        <ele>893</ele>
        <time>2019-04-27T15:04:53Z</time>
      </trkpt>
      <trkpt lat="42.76861" lon="1.49881">
        <ele>891</ele>
        <time>2019-04-27T15:04:55Z</time>
      </trkpt>
      <trkpt lat="42.76865" lon="1.49872">
        <ele>890</ele>
        <time>2019-04-27T15:04:56Z</time>
      </trkpt>
      <trkpt lat="42.76868" lon="1.49864">
        <ele>889</ele>
        <time>2019-04-27T15:04:57Z</time>
      </trkpt>
      <trkpt lat="42.76872" lon="1.49856">
        <ele>888</ele>
        <time>2019-04-27T15:04:58Z</time>
      </trkpt>
      <trkpt lat="42.76876" lon="1.49849">
        <ele>888</ele>
        <time>2019-04-27T15:04:59Z</time>
      </trkpt>
      <trkpt lat="42.7688" lon="1.49841">
        <ele>888</ele>
        <time>2019-04-27T15:05:00Z</time>
      </trkpt>
      <trkpt lat="42.76883" lon="1.49833">
        <ele>888</ele>
        <time>2019-04-27T15:05:01Z</time>
      </trkpt>
      <trkpt lat="42.76887" lon="1.49826">
        <ele>888</ele>
        <time>2019-04-27T15:05:02Z</time>
      </trkpt>
      <trkpt lat="42.7689" lon="1.49818">
        <ele>888</ele>
        <time>2019-04-27T15:05:03Z</time>
      </trkpt>
      <trkpt lat="42.76893" lon="1.4981">
        <ele>888</ele>
        <time>2019-04-27T15:05:04Z</time>
      </trkpt>
      <trkpt lat="42.76896" lon="1.49803">
        <ele>888</ele>
        <time>2019-04-27T15:05:05Z</time>
      </trkpt>
      <trkpt lat="42.76899" lon="1.49795">
        <ele>888</ele>
        <time>2019-04-27T15:05:06Z</time>
      </trkpt>
      <trkpt lat="42.76902" lon="1.49788">
        <ele>886</ele>
        <time>2019-04-27T15:05:07Z</time>
      </trkpt>
      <trkpt lat="42.76905" lon="1.4978">
        <ele>885</ele>
        <time>2019-04-27T15:05:08Z</time>
      </trkpt>
      <trkpt lat="42.76908" lon="1.49773">
        <ele>884</ele>
        <time>2019-04-27T15:05:09Z</time>
      </trkpt>
      <trkpt lat="42.76912" lon="1.49766">
        <ele>883</ele>
        <time>2019-04-27T15:05:10Z</time>
      </trkpt>
      <trkpt lat="42.76916" lon="1.4976">
        <ele>882</ele>
        <time>2019-04-27T15:05:11Z</time>
      </trkpt>
      <trkpt lat="42.76919" lon="1.49754">
        <ele>881</ele>
        <time>2019-04-27T15:05:12Z</time>
      </trkpt>
      <trkpt lat="42.76921" lon="1.49747">
        <ele>880</ele>
        <time>2019-04-27T15:05:13Z</time>
      </trkpt>
      <trkpt lat="42.76923" lon="1.49739">
        <ele>879</ele>
        <time>2019-04-27T15:05:14Z</time>
      </trkpt>
      <trkpt lat="42.76924" lon="1.49731">
        <ele>878</ele>
        <time>2019-04-27T15:05:15Z</time>
      </trkpt>
      <trkpt lat="42.76925" lon="1.49722">
        <ele>877</ele>
        <time>2019-04-27T15:05:16Z</time>
      </trkpt>
      <trkpt lat="42.76926" lon="1.49714">
        <ele>876</ele>
        <time>2019-04-27T15:05:17Z</time>
      </trkpt>
      <trkpt lat="42.76933" lon="1.49643">
        <ele>868</ele>
        <time>2019-04-27T15:05:26Z</time>
      </trkpt>
      <trkpt lat="42.76933" lon="1.49636">
        <ele>867</ele>
        <time>2019-04-27T15:05:27Z</time>
      </trkpt>
      <trkpt lat="42.76932" lon="1.49629">
        <ele>864</ele>
        <time>2019-04-27T15:05:30Z</time>
      </trkpt>
      <trkpt lat="42.76931" lon="1.49621">
        <ele>862</ele>
        <time>2019-04-27T15:05:32Z</time>
      </trkpt>
      <trkpt lat="42.7693" lon="1.49614">
        <ele>861</ele>
        <time>2019-04-27T15:05:33Z</time>
      </trkpt>
      <trkpt lat="42.76928" lon="1.49606">
        <ele>860</ele>
        <time>2019-04-27T15:05:34Z</time>
      </trkpt>
      <trkpt lat="42.76927" lon="1.49597">
        <ele>859</ele>
        <time>2019-04-27T15:05:35Z</time>
      </trkpt>
      <trkpt lat="42.76926" lon="1.4959">
        <ele>858</ele>
        <time>2019-04-27T15:05:36Z</time>
      </trkpt>
      <trkpt lat="42.76925" lon="1.49582">
        <ele>857</ele>
        <time>2019-04-27T15:05:37Z</time>
      </trkpt>
      <trkpt lat="42.76925" lon="1.49574">
        <ele>856</ele>
        <time>2019-04-27T15:05:38Z</time>
      </trkpt>
      <trkpt lat="42.76926" lon="1.49567">
        <ele>855</ele>
        <time>2019-04-27T15:05:39Z</time>
      </trkpt>
      <trkpt lat="42.76927" lon="1.4956">
        <ele>855</ele>
        <time>2019-04-27T15:05:40Z</time>
      </trkpt>
      <trkpt lat="42.76928" lon="1.49553">
        <ele>855</ele>
        <time>2019-04-27T15:05:41Z</time>
      </trkpt>
      <trkpt lat="42.7693" lon="1.49546">
        <ele>855</ele>
        <time>2019-04-27T15:05:42Z</time>
      </trkpt>
      <trkpt lat="42.76932" lon="1.4954">
        <ele>855</ele>
        <time>2019-04-27T15:05:43Z</time>
      </trkpt>
      <trkpt lat="42.76933" lon="1.49533">
        <ele>855</ele>
        <time>2019-04-27T15:05:44Z</time>
      </trkpt>
      <trkpt lat="42.76935" lon="1.49527">
        <ele>855</ele>
        <time>2019-04-27T15:05:45Z</time>
      </trkpt>
      <trkpt lat="42.76937" lon="1.49519">
        <ele>855</ele>
        <time>2019-04-27T15:05:46Z</time>
      </trkpt>
      <trkpt lat="42.76938" lon="1.49513">
        <ele>855</ele>
        <time>2019-04-27T15:05:47Z</time>
      </trkpt>
      <trkpt lat="42.76939" lon="1.49505">
        <ele>855</ele>
        <time>2019-04-27T15:05:48Z</time>
      </trkpt>
      <trkpt lat="42.7694" lon="1.49498">
        <ele>855</ele>
        <time>2019-04-27T15:05:49Z</time>
      </trkpt>
      <trkpt lat="42.76942" lon="1.49491">
        <ele>855</ele>
        <time>2019-04-27T15:05:50Z</time>
      </trkpt>
      <trkpt lat="42.76943" lon="1.49485">
        <ele>855</ele>
        <time>2019-04-27T15:05:51Z</time>
      </trkpt>
      <trkpt lat="42.76944" lon="1.49478">
        <ele>855</ele>
        <time>2019-04-27T15:05:52Z</time>
      </trkpt>
      <trkpt lat="42.76945" lon="1.49469">
        <ele>855</ele>
        <time>2019-04-27T15:05:53Z</time>
      </trkpt>
      <trkpt lat="42.76946" lon="1.49462">
        <ele>855</ele>
        <time>2019-04-27T15:05:54Z</time>
      </trkpt>
      <trkpt lat="42.76947" lon="1.49455">
        <ele>855</ele>
        <time>2019-04-27T15:05:55Z</time>
      </trkpt>
      <trkpt lat="42.76948" lon="1.49448">
        <ele>855</ele>
        <time>2019-04-27T15:05:56Z</time>
      </trkpt>
      <trkpt lat="42.76949" lon="1.49441">
        <ele>855</ele>
        <time>2019-04-27T15:05:57Z</time>
      </trkpt>
      <trkpt lat="42.7695" lon="1.49434">
        <ele>855</ele>
        <time>2019-04-27T15:05:58Z</time>
      </trkpt>
      <trkpt lat="42.76952" lon="1.49428">
        <ele>855</ele>
        <time>2019-04-27T15:05:59Z</time>
      </trkpt>
      <trkpt lat="42.76953" lon="1.49421">
        <ele>855</ele>
        <time>2019-04-27T15:06:00Z</time>
      </trkpt>
      <trkpt lat="42.76954" lon="1.49415">
        <ele>855</ele>
        <time>2019-04-27T15:06:01Z</time>
      </trkpt>
      <trkpt lat="42.76956" lon="1.49408">
        <ele>855</ele>
        <time>2019-04-27T15:06:02Z</time>
      </trkpt>
      <trkpt lat="42.77052" lon="1.49336">
        <ele>830</ele>
        <time>2019-04-27T15:06:26Z</time>
      </trkpt>
      <trkpt lat="42.77055" lon="1.49331">
        <ele>829</ele>
        <time>2019-04-27T15:06:27Z</time>
      </trkpt>
      <trkpt lat="42.77058" lon="1.49327">
        <ele>828</ele>
        <time>2019-04-27T15:06:28Z</time>
      </trkpt>
      <trkpt lat="42.77062" lon="1.49322">
        <ele>827</ele>
        <time>2019-04-27T15:06:29Z</time>
      </trkpt>
      <trkpt lat="42.77065" lon="1.49317">
        <ele>826</ele>
        <time>2019-04-27T15:06:30Z</time>
      </trkpt>
      <trkpt lat="42.77068" lon="1.49313">
        <ele>825</ele>
        <time>2019-04-27T15:06:31Z</time>
      </trkpt>
      <trkpt lat="42.77072" lon="1.49309">
        <ele>824</ele>
        <time>2019-04-27T15:06:32Z</time>
      </trkpt>
      <trkpt lat="42.77075" lon="1.49305">
        <ele>824</ele>
        <time>2019-04-27T15:06:33Z</time>
      </trkpt>
      <trkpt lat="42.77079" lon="1.49301">
        <ele>824</ele>
        <time>2019-04-27T15:06:34Z</time>
      </trkpt>
      <trkpt lat="42.77083" lon="1.49298">
        <ele>824</ele>
        <time>2019-04-27T15:06:35Z</time>
      </trkpt>
      <trkpt lat="42.77086" lon="1.49295">
        <ele>824</ele>
        <time>2019-04-27T15:06:36Z</time>
      </trkpt>
      <trkpt lat="42.7709" lon="1.49292">
        <ele>824</ele>
        <time>2019-04-27T15:06:37Z</time>
      </trkpt>
      <trkpt lat="42.77094" lon="1.4929">
        <ele>824</ele>
        <time>2019-04-27T15:06:38Z</time>
      </trkpt>
      <trkpt lat="42.77096" lon="1.49286">
        <ele>824</ele>
        <time>2019-04-27T15:06:39Z</time>
      </trkpt>
      <trkpt lat="42.771" lon="1.49284">
        <ele>823</ele>
        <time>2019-04-27T15:06:40Z</time>
      </trkpt>
      <trkpt lat="42.77104" lon="1.49281">
        <ele>822</ele>
        <time>2019-04-27T15:06:41Z</time>
      </trkpt>
      <trkpt lat="42.77107" lon="1.49278">
        <ele>821</ele>
        <time>2019-04-27T15:06:42Z</time>
      </trkpt>
      <trkpt lat="42.77111" lon="1.49276">
        <ele>820</ele>
        <time>2019-04-27T15:06:43Z</time>
      </trkpt>
      <trkpt lat="42.77115" lon="1.49273">
        <ele>819</ele>
        <time>2019-04-27T15:06:44Z</time>
      </trkpt>
      <trkpt lat="42.77119" lon="1.49271">
        <ele>818</ele>
        <time>2019-04-27T15:06:45Z</time>
      </trkpt>
      <trkpt lat="42.77122" lon="1.49268">
        <ele>817</ele>
        <time>2019-04-27T15:06:46Z</time>
      </trkpt>
      <trkpt lat="42.77125" lon="1.49265">
        <ele>816</ele>
        <time>2019-04-27T15:06:47Z</time>
      </trkpt>
      <trkpt lat="42.77129" lon="1.49261">
        <ele>815</ele>
        <time>2019-04-27T15:06:48Z</time>
      </trkpt>
      <trkpt lat="42.77132" lon="1.49258">
        <ele>814</ele>
        <time>2019-04-27T15:06:49Z</time>
      </trkpt>
      <trkpt lat="42.77135" lon="1.49253">
        <ele>813</ele>
        <time>2019-04-27T15:06:50Z</time>
      </trkpt>
      <trkpt lat="42.77137" lon="1.49249">
        <ele>812</ele>
        <time>2019-04-27T15:06:51Z</time>
      </trkpt>
      <trkpt lat="42.7714" lon="1.49245">
        <ele>811</ele>
        <time>2019-04-27T15:06:52Z</time>
      </trkpt>
      <trkpt lat="42.77142" lon="1.49241">
        <ele>810</ele>
        <time>2019-04-27T15:06:53Z</time>
      </trkpt>
      <trkpt lat="42.77144" lon="1.49236">
        <ele>809</ele>
        <time>2019-04-27T15:06:54Z</time>
      </trkpt>
      <trkpt lat="42.77156" lon="1.49194">
        <ele>800</ele>
        <time>2019-04-27T15:07:03Z</time>
      </trkpt>
      <trkpt lat="42.77157" lon="1.49189">
        <ele>799</ele>
        <time>2019-04-27T15:07:04Z</time>
      </trkpt>
      <trkpt lat="42.77159" lon="1.49185">
        <ele>798</ele>
        <time>2019-04-27T15:07:05Z</time>
      </trkpt>
      <trkpt lat="42.77161" lon="1.49181">
        <ele>797</ele>
        <time>2019-04-27T15:07:06Z</time>
      </trkpt>
      <trkpt lat="42.77163" lon="1.49176">
        <ele>796</ele>
        <time>2019-04-27T15:07:07Z</time>
      </trkpt>
      <trkpt lat="42.77165" lon="1.49172">
        <ele>795</ele>
        <time>2019-04-27T15:07:08Z</time>
      </trkpt>
      <trkpt lat="42.77168" lon="1.49167">
        <ele>794</ele>
        <time>2019-04-27T15:07:09Z</time>
      </trkpt>
      <trkpt lat="42.7717" lon="1.49164">
        <ele>793</ele>
        <time>2019-04-27T15:07:10Z</time>
      </trkpt>
      <trkpt lat="42.77173" lon="1.4916">
        <ele>792</ele>
        <time>2019-04-27T15:07:11Z</time>
      </trkpt>
      <trkpt lat="42.77176" lon="1.49158">
        <ele>791</ele>
        <time>2019-04-27T15:07:12Z</time>
      </trkpt>
      <trkpt lat="42.77179" lon="1.49156">
        <ele>790</ele>
        <time>2019-04-27T15:07:13Z</time>
      </trkpt>
      <trkpt lat="42.77182" lon="1.49155">
        <ele>789</ele>
        <time>2019-04-27T15:07:14Z</time>
      </trkpt>
      <trkpt lat="42.77184" lon="1.49154">
        <ele>788</ele>
        <time>2019-04-27T15:07:15Z</time>
      </trkpt>
      <trkpt lat="42.77187" lon="1.49154">
        <ele>784</ele>
        <time>2019-04-27T15:07:19Z</time>
      </trkpt>
      <trkpt lat="42.77191" lon="1.49153">
        <ele>782</ele>
        <time>2019-04-27T15:07:21Z</time>
      </trkpt>
      <trkpt lat="42.77194" lon="1.49153">
        <ele>781</ele>
        <time>2019-04-27T15:07:22Z</time>
      </trkpt>
      <trkpt lat="42.77197" lon="1.49154">
        <ele>780</ele>
        <time>2019-04-27T15:07:23Z</time>
      </trkpt>
      <trkpt lat="42.772" lon="1.49154">
        <ele>779</ele>
        <time>2019-04-27T15:07:24Z</time>
      </trkpt>
      <trkpt lat="42.77203" lon="1.49155">
        <ele>778</ele>
        <time>2019-04-27T15:07:25Z</time>
      </trkpt>
      <trkpt lat="42.77207" lon="1.49156">
        <ele>777</ele>
        <time>2019-04-27T15:07:26Z</time>
      </trkpt>
      <trkpt lat="42.77209" lon="1.49157">
        <ele>776</ele>
        <time>2019-04-27T15:07:27Z</time>
      </trkpt>
      <trkpt lat="42.77213" lon="1.49159">
        <ele>775</ele>
        <time>2019-04-27T15:07:28Z</time>
      </trkpt>
      <trkpt lat="42.77216" lon="1.4916">
        <ele>774</ele>
        <time>2019-04-27T15:07:29Z</time>
      </trkpt>
      <trkpt lat="42.77218" lon="1.49162">
        <ele>773</ele>
        <time>2019-04-27T15:07:30Z</time>
      </trkpt>
      <trkpt lat="42.77221" lon="1.49165">
        <ele>772</ele>
        <time>2019-04-27T15:07:31Z</time>
      </trkpt>
      <trkpt lat="42.77224" lon="1.49167">
        <ele>771</ele>
        <time>2019-04-27T15:07:32Z</time>
      </trkpt>
      <trkpt lat="42.77226" lon="1.4917">
        <ele>770</ele>
        <time>2019-04-27T15:07:33Z</time>
      </trkpt>
      <trkpt lat="42.77229" lon="1.49173">
        <ele>769</ele>
        <time>2019-04-27T15:07:34Z</time>
      </trkpt>
      <trkpt lat="42.77231" lon="1.49176">
        <ele>768</ele>
        <time>2019-04-27T15:07:35Z</time>
      </trkpt>
      <trkpt lat="42.77233" lon="1.49179">
        <ele>767</ele>
        <time>2019-04-27T15:07:36Z</time>
      </trkpt>
      <trkpt lat="42.77236" lon="1.49182">
        <ele>766</ele>
        <time>2019-04-27T15:07:37Z</time>
      </trkpt>
      <trkpt lat="42.77238" lon="1.49186">
        <ele>765</ele>
        <time>2019-04-27T15:07:38Z</time>
      </trkpt>
      <trkpt lat="42.77239" lon="1.4919">
        <ele>764</ele>
        <time>2019-04-27T15:07:39Z</time>
      </trkpt>
      <trkpt lat="42.77239" lon="1.49195">
        <ele>763</ele>
        <time>2019-04-27T15:07:40Z</time>
      </trkpt>
      <trkpt lat="42.77239" lon="1.49199">
        <ele>762</ele>
        <time>2019-04-27T15:07:41Z</time>
      </trkpt>
      <trkpt lat="42.77239" lon="1.49203">
        <ele>761</ele>
        <time>2019-04-27T15:07:42Z</time>
      </trkpt>
      <trkpt lat="42.77239" lon="1.49207">
        <ele>760</ele>
        <time>2019-04-27T15:07:43Z</time>
      </trkpt>
      <trkpt lat="42.77238" lon="1.49211">
        <ele>760</ele>
        <time>2019-04-27T15:07:44Z</time>
      </trkpt>
      <trkpt lat="42.77239" lon="1.49216">
        <ele>760</ele>
        <time>2019-04-27T15:07:45Z</time>
      </trkpt>
      <trkpt lat="42.77242" lon="1.49218">
        <ele>760</ele>
        <time>2019-04-27T15:07:46Z</time>
      </trkpt>
      <trkpt lat="42.77245" lon="1.4922">
        <ele>761</ele>
        <time>2019-04-27T15:07:47Z</time>
      </trkpt>
      <trkpt lat="42.77248" lon="1.4922">
        <ele>761</ele>
        <time>2019-04-27T15:07:48Z</time>
      </trkpt>
      <trkpt lat="42.77251" lon="1.49218">
        <ele>762</ele>
        <time>2019-04-27T15:07:49Z</time>
      </trkpt>
      <trkpt lat="42.77252" lon="1.49216">
        <ele>762</ele>
        <time>2019-04-27T15:07:50Z</time>
      </trkpt>
      <trkpt lat="42.77254" lon="1.49213">
        <ele>762</ele>
        <time>2019-04-27T15:07:51Z</time>
      </trkpt>
      <trkpt lat="42.77254" lon="1.49208">
        <ele>763</ele>
        <time>2019-04-27T15:07:52Z</time>
      </trkpt>
      <trkpt lat="42.77256" lon="1.49204">
        <ele>763</ele>
        <time>2019-04-27T15:07:53Z</time>
      </trkpt>
      <trkpt lat="42.77257" lon="1.49201">
        <ele>763</ele>
        <time>2019-04-27T15:07:58Z</time>
      </trkpt>
      <trkpt lat="42.77258" lon="1.49196">
        <ele>764</ele>
        <time>2019-04-27T15:08:00Z</time>
      </trkpt>
      <trkpt lat="42.77258" lon="1.49192">
        <ele>764</ele>
        <time>2019-04-27T15:08:01Z</time>
      </trkpt>
      <trkpt lat="42.77259" lon="1.49187">
        <ele>764</ele>
        <time>2019-04-27T15:08:02Z</time>
      </trkpt>
      <trkpt lat="42.7726" lon="1.49183">
        <ele>764</ele>
        <time>2019-04-27T15:08:03Z</time>
      </trkpt>
      <trkpt lat="42.77261" lon="1.49179">
        <ele>764</ele>
        <time>2019-04-27T15:08:04Z</time>
      </trkpt>
      <trkpt lat="42.77261" lon="1.49176">
        <ele>765</ele>
        <time>2019-04-27T15:08:05Z</time>
      </trkpt>
      <trkpt lat="42.77262" lon="1.49172">
        <ele>766</ele>
        <time>2019-04-27T15:08:06Z</time>
      </trkpt>
      <trkpt lat="42.77263" lon="1.49168">
        <ele>766</ele>
        <time>2019-04-27T15:08:07Z</time>
      </trkpt>
      <trkpt lat="42.77263" lon="1.49164">
        <ele>766</ele>
        <time>2019-04-27T15:08:08Z</time>
      </trkpt>
      <trkpt lat="42.77264" lon="1.4916">
        <ele>766</ele>
        <time>2019-04-27T15:08:09Z</time>
      </trkpt>
      <trkpt lat="42.77264" lon="1.49155">
        <ele>766</ele>
        <time>2019-04-27T15:08:10Z</time>
      </trkpt>
      <trkpt lat="42.77264" lon="1.49151">
        <ele>766</ele>
        <time>2019-04-27T15:08:11Z</time>
      </trkpt>
      <trkpt lat="42.77264" lon="1.49147">
        <ele>766</ele>
        <time>2019-04-27T15:08:12Z</time>
      </trkpt>
      <trkpt lat="42.77263" lon="1.49143">
        <ele>766</ele>
        <time>2019-04-27T15:08:13Z</time>
      </trkpt>
      <trkpt lat="42.77263" lon="1.49138">
        <ele>767</ele>
        <time>2019-04-27T15:08:14Z</time>
      </trkpt>
      <trkpt lat="42.77263" lon="1.49134">
        <ele>767</ele>
        <time>2019-04-27T15:08:15Z</time>
      </trkpt>
      <trkpt lat="42.77262" lon="1.49129">
        <ele>768</ele>
        <time>2019-04-27T15:08:16Z</time>
      </trkpt>
      <trkpt lat="42.77261" lon="1.49125">
        <ele>768</ele>
        <time>2019-04-27T15:08:17Z</time>
      </trkpt>
      <trkpt lat="42.7726" lon="1.49121">
        <ele>768</ele>
        <time>2019-04-27T15:08:18Z</time>
      </trkpt>
      <trkpt lat="42.77259" lon="1.49118">
        <ele>768</ele>
        <time>2019-04-27T15:08:19Z</time>
      </trkpt>
      <trkpt lat="42.77259" lon="1.49113">
        <ele>769</ele>
        <time>2019-04-27T15:08:20Z</time>
      </trkpt>
      <trkpt lat="42.7726" lon="1.49109">
        <ele>769</ele>
        <time>2019-04-27T15:08:21Z</time>
      </trkpt>
      <trkpt lat="42.77261" lon="1.49106">
        <ele>770</ele>
        <time>2019-04-27T15:08:22Z</time>
      </trkpt>
      <trkpt lat="42.77261" lon="1.49103">
        <ele>770</ele>
        <time>2019-04-27T15:08:23Z</time>
      </trkpt>
      <trkpt lat="42.77261" lon="1.491">
        <ele>770</ele>
        <time>2019-04-27T15:08:24Z</time>
      </trkpt>
      <trkpt lat="42.77261" lon="1.49097">
        <ele>770</ele>
        <time>2019-04-27T15:08:25Z</time>
      </trkpt>
      <trkpt lat="42.77261" lon="1.49092">
        <ele>770</ele>
        <time>2019-04-27T15:08:26Z</time>
      </trkpt>
      <trkpt lat="42.77262" lon="1.4909">
        <ele>770</ele>
        <time>2019-04-27T15:08:27Z</time>
      </trkpt>
      <trkpt lat="42.77262" lon="1.49086">
        <ele>771</ele>
        <time>2019-04-27T15:08:28Z</time>
      </trkpt>
      <trkpt lat="42.77262" lon="1.49082">
        <ele>772</ele>
        <time>2019-04-27T15:08:29Z</time>
      </trkpt>
      <trkpt lat="42.77263" lon="1.49079">
        <ele>772</ele>
        <time>2019-04-27T15:08:30Z</time>
      </trkpt>
      <trkpt lat="42.77264" lon="1.49075">
        <ele>772</ele>
        <time>2019-04-27T15:08:31Z</time>
      </trkpt>
      <trkpt lat="42.77265" lon="1.4907">
        <ele>773</ele>
        <time>2019-04-27T15:08:32Z</time>
      </trkpt>
      <trkpt lat="42.77266" lon="1.49066">
        <ele>773</ele>
        <time>2019-04-27T15:08:33Z</time>
      </trkpt>
      <trkpt lat="42.77267" lon="1.49063">
        <ele>774</ele>
        <time>2019-04-27T15:08:35Z</time>
      </trkpt>
      <trkpt lat="42.77268" lon="1.49058">
        <ele>775</ele>
        <time>2019-04-27T15:08:37Z</time>
      </trkpt>
      <trkpt lat="42.77269" lon="1.49055">
        <ele>775</ele>
        <time>2019-04-27T15:08:38Z</time>
      </trkpt>
      <trkpt lat="42.77271" lon="1.49051">
        <ele>775</ele>
        <time>2019-04-27T15:08:39Z</time>
      </trkpt>
      <trkpt lat="42.77272" lon="1.49047">
        <ele>776</ele>
        <time>2019-04-27T15:08:40Z</time>
      </trkpt>
      <trkpt lat="42.77278" lon="1.49025">
        <ele>777</ele>
        <time>2019-04-27T15:08:45Z</time>
      </trkpt>
      <trkpt lat="42.77279" lon="1.49021">
        <ele>778</ele>
        <time>2019-04-27T15:08:46Z</time>
      </trkpt>
      <trkpt lat="42.77281" lon="1.49017">
        <ele>778</ele>
        <time>2019-04-27T15:08:47Z</time>
      </trkpt>
      <trkpt lat="42.77282" lon="1.49013">
        <ele>778</ele>
        <time>2019-04-27T15:08:48Z</time>
      </trkpt>
      <trkpt lat="42.77284" lon="1.49009">
        <ele>778</ele>
        <time>2019-04-27T15:08:49Z</time>
      </trkpt>
      <trkpt lat="42.77285" lon="1.49005">
        <ele>778</ele>
        <time>2019-04-27T15:08:50Z</time>
      </trkpt>
      <trkpt lat="42.77287" lon="1.49001">
        <ele>778</ele>
        <time>2019-04-27T15:08:51Z</time>
      </trkpt>
      <trkpt lat="42.77288" lon="1.48997">
        <ele>779</ele>
        <time>2019-04-27T15:08:52Z</time>
      </trkpt>
      <trkpt lat="42.77289" lon="1.48994">
        <ele>779</ele>
        <time>2019-04-27T15:08:53Z</time>
      </trkpt>
      <trkpt lat="42.77291" lon="1.4899">
        <ele>779</ele>
        <time>2019-04-27T15:08:54Z</time>
      </trkpt>
      <trkpt lat="42.77293" lon="1.48986">
        <ele>779</ele>
        <time>2019-04-27T15:08:55Z</time>
      </trkpt>
      <trkpt lat="42.77294" lon="1.48982">
        <ele>779</ele>
        <time>2019-04-27T15:08:56Z</time>
      </trkpt>
      <trkpt lat="42.77295" lon="1.48978">
        <ele>779</ele>
        <time>2019-04-27T15:08:57Z</time>
      </trkpt>
      <trkpt lat="42.77297" lon="1.48974">
        <ele>779</ele>
        <time>2019-04-27T15:08:58Z</time>
      </trkpt>
      <trkpt lat="42.77298" lon="1.4897">
        <ele>779</ele>
        <time>2019-04-27T15:08:59Z</time>
      </trkpt>
      <trkpt lat="42.773" lon="1.48967">
        <ele>779</ele>
        <time>2019-04-27T15:09:00Z</time>
      </trkpt>
      <trkpt lat="42.77301" lon="1.48963">
        <ele>779</ele>
        <time>2019-04-27T15:09:01Z</time>
      </trkpt>
      <trkpt lat="42.77303" lon="1.48959">
        <ele>779</ele>
        <time>2019-04-27T15:09:02Z</time>
      </trkpt>
      <trkpt lat="42.77304" lon="1.48955">
        <ele>779</ele>
        <time>2019-04-27T15:09:03Z</time>
      </trkpt>
      <trkpt lat="42.77306" lon="1.48952">
        <ele>779</ele>
        <time>2019-04-27T15:09:04Z</time>
      </trkpt>
      <trkpt lat="42.77308" lon="1.48948">
        <ele>779</ele>
        <time>2019-04-27T15:09:05Z</time>
      </trkpt>
      <trkpt lat="42.77309" lon="1.48944">
        <ele>779</ele>
        <time>2019-04-27T15:09:06Z</time>
      </trkpt>
      <trkpt lat="42.77311" lon="1.4894">
        <ele>779</ele>
        <time>2019-04-27T15:09:07Z</time>
      </trkpt>
      <trkpt lat="42.77313" lon="1.48936">
        <ele>779</ele>
        <time>2019-04-27T15:09:08Z</time>
      </trkpt>
      <trkpt lat="42.77315" lon="1.48932">
        <ele>780</ele>
        <time>2019-04-27T15:09:09Z</time>
      </trkpt>
      <trkpt lat="42.77316" lon="1.48928">
        <ele>781</ele>
        <time>2019-04-27T15:09:10Z</time>
      </trkpt>
      <trkpt lat="42.77318" lon="1.48924">
        <ele>782</ele>
        <time>2019-04-27T15:09:11Z</time>
      </trkpt>
      <trkpt lat="42.7732" lon="1.48921">
        <ele>783</ele>
        <time>2019-04-27T15:09:12Z</time>
      </trkpt>
      <trkpt lat="42.77322" lon="1.48917">
        <ele>784</ele>
        <time>2019-04-27T15:09:13Z</time>
      </trkpt>
      <trkpt lat="42.77323" lon="1.48912">
        <ele>785</ele>
        <time>2019-04-27T15:09:14Z</time>
      </trkpt>
      <trkpt lat="42.77324" lon="1.48908">
        <ele>786</ele>
        <time>2019-04-27T15:09:15Z</time>
      </trkpt>
      <trkpt lat="42.77326" lon="1.48905">
        <ele>787</ele>
        <time>2019-04-27T15:09:16Z</time>
      </trkpt>
      <trkpt lat="42.77328" lon="1.48901">
        <ele>788</ele>
        <time>2019-04-27T15:09:17Z</time>
      </trkpt>
      <trkpt lat="42.7733" lon="1.48897">
        <ele>789</ele>
        <time>2019-04-27T15:09:18Z</time>
      </trkpt>
      <trkpt lat="42.77331" lon="1.48893">
        <ele>789</ele>
        <time>2019-04-27T15:09:19Z</time>
      </trkpt>
      <trkpt lat="42.77333" lon="1.48889">
        <ele>790</ele>
        <time>2019-04-27T15:09:20Z</time>
      </trkpt>
      <trkpt lat="42.77335" lon="1.48885">
        <ele>791</ele>
        <time>2019-04-27T15:09:21Z</time>
      </trkpt>
      <trkpt lat="42.77337" lon="1.48881">
        <ele>791</ele>
        <time>2019-04-27T15:09:22Z</time>
      </trkpt>
      <trkpt lat="42.77338" lon="1.48877">
        <ele>791</ele>
        <time>2019-04-27T15:09:23Z</time>
      </trkpt>
      <trkpt lat="42.77339" lon="1.48873">
        <ele>791</ele>
        <time>2019-04-27T15:09:24Z</time>
      </trkpt>
      <trkpt lat="42.77341" lon="1.48869">
        <ele>791</ele>
        <time>2019-04-27T15:09:25Z</time>
      </trkpt>
      <trkpt lat="42.77344" lon="1.48865">
        <ele>792</ele>
        <time>2019-04-27T15:09:26Z</time>
      </trkpt>
      <trkpt lat="42.7737" lon="1.48805">
        <ele>797</ele>
        <time>2019-04-27T15:09:43Z</time>
      </trkpt>
      <trkpt lat="42.77372" lon="1.48803">
        <ele>797</ele>
        <time>2019-04-27T15:09:44Z</time>
      </trkpt>
      <trkpt lat="42.77375" lon="1.488">
        <ele>797</ele>
        <time>2019-04-27T15:09:46Z</time>
      </trkpt>
      <trkpt lat="42.77377" lon="1.48798">
        <ele>797</ele>
        <time>2019-04-27T15:09:48Z</time>
      </trkpt>
      <trkpt lat="42.77379" lon="1.48795">
        <ele>798</ele>
        <time>2019-04-27T15:09:49Z</time>
      </trkpt>
      <trkpt lat="42.77381" lon="1.48793">
        <ele>799</ele>
        <time>2019-04-27T15:09:50Z</time>
      </trkpt>
      <trkpt lat="42.77383" lon="1.48791">
        <ele>799</ele>
        <time>2019-04-27T15:09:51Z</time>
      </trkpt>
      <trkpt lat="42.77385" lon="1.48788">
        <ele>800</ele>
        <time>2019-04-27T15:09:52Z</time>
      </trkpt>
      <trkpt lat="42.77387" lon="1.48785">
        <ele>800</ele>
        <time>2019-04-27T15:09:53Z</time>
      </trkpt>
      <trkpt lat="42.77388" lon="1.48782">
        <ele>800</ele>
        <time>2019-04-27T15:09:54Z</time>
      </trkpt>
      <trkpt lat="42.7739" lon="1.48779">
        <ele>801</ele>
        <time>2019-04-27T15:09:55Z</time>
      </trkpt>
      <trkpt lat="42.77392" lon="1.48777">
        <ele>801</ele>
        <time>2019-04-27T15:09:56Z</time>
      </trkpt>
      <trkpt lat="42.77393" lon="1.48774">
        <ele>801</ele>
        <time>2019-04-27T15:09:57Z</time>
      </trkpt>
      <trkpt lat="42.77395" lon="1.48771">
        <ele>801</ele>
        <time>2019-04-27T15:09:58Z</time>
      </trkpt>
      <trkpt lat="42.77396" lon="1.48769">
        <ele>801</ele>
        <time>2019-04-27T15:09:59Z</time>
      </trkpt>
      <trkpt lat="42.77398" lon="1.48767">
        <ele>802</ele>
        <time>2019-04-27T15:10:00Z</time>
      </trkpt>
      <trkpt lat="42.77399" lon="1.48764">
        <ele>802</ele>
        <time>2019-04-27T15:10:01Z</time>
      </trkpt>
      <trkpt lat="42.77401" lon="1.48761">
        <ele>802</ele>
        <time>2019-04-27T15:10:02Z</time>
      </trkpt>
      <trkpt lat="42.77403" lon="1.48757">
        <ele>802</ele>
        <time>2019-04-27T15:10:03Z</time>
      </trkpt>
      <trkpt lat="42.77405" lon="1.48754">
        <ele>802</ele>
        <time>2019-04-27T15:10:04Z</time>
      </trkpt>
      <trkpt lat="42.77407" lon="1.48751">
        <ele>802</ele>
        <time>2019-04-27T15:10:05Z</time>
      </trkpt>
      <trkpt lat="42.77408" lon="1.48747">
        <ele>803</ele>
        <time>2019-04-27T15:10:06Z</time>
      </trkpt>
      <trkpt lat="42.7741" lon="1.48744">
        <ele>804</ele>
        <time>2019-04-27T15:10:07Z</time>
      </trkpt>
      <trkpt lat="42.77412" lon="1.48741">
        <ele>804</ele>
        <time>2019-04-27T15:10:08Z</time>
      </trkpt>
      <trkpt lat="42.77413" lon="1.48738">
        <ele>804</ele>
        <time>2019-04-27T15:10:09Z</time>
      </trkpt>
      <trkpt lat="42.77414" lon="1.48734">
        <ele>804</ele>
        <time>2019-04-27T15:10:10Z</time>
      </trkpt>
      <trkpt lat="42.77416" lon="1.48731">
        <ele>804</ele>
        <time>2019-04-27T15:10:11Z</time>
      </trkpt>
      <trkpt lat="42.77418" lon="1.48728">
        <ele>804</ele>
        <time>2019-04-27T15:10:12Z</time>
      </trkpt>
      <trkpt lat="42.77419" lon="1.48725">
        <ele>804</ele>
        <time>2019-04-27T15:10:13Z</time>
      </trkpt>
      <trkpt lat="42.77421" lon="1.48722">
        <ele>804</ele>
        <time>2019-04-27T15:10:14Z</time>
      </trkpt>
      <trkpt lat="42.77422" lon="1.48719">
        <ele>804</ele>
        <time>2019-04-27T15:10:15Z</time>
      </trkpt>
      <trkpt lat="42.77423" lon="1.48716">
        <ele>804</ele>
        <time>2019-04-27T15:10:16Z</time>
      </trkpt>
      <trkpt lat="42.77428" lon="1.48693">
        <ele>804</ele>
        <time>2019-04-27T15:10:23Z</time>
      </trkpt>
      <trkpt lat="42.77429" lon="1.48689">
        <ele>804</ele>
        <time>2019-04-27T15:10:24Z</time>
      </trkpt>
      <trkpt lat="42.7743" lon="1.48686">
        <ele>805</ele>
        <time>2019-04-27T15:10:25Z</time>
      </trkpt>
      <trkpt lat="42.77431" lon="1.48683">
        <ele>806</ele>
        <time>2019-04-27T15:10:26Z</time>
      </trkpt>
      <trkpt lat="42.77432" lon="1.4868">
        <ele>807</ele>
        <time>2019-04-27T15:10:27Z</time>
      </trkpt>
      <trkpt lat="42.77432" lon="1.48676">
        <ele>807</ele>
        <time>2019-04-27T15:10:28Z</time>
      </trkpt>
      <trkpt lat="42.77433" lon="1.48673">
        <ele>807</ele>
        <time>2019-04-27T15:10:29Z</time>
      </trkpt>
      <trkpt lat="42.77434" lon="1.48669">
        <ele>807</ele>
        <time>2019-04-27T15:10:30Z</time>
      </trkpt>
      <trkpt lat="42.77435" lon="1.48666">
        <ele>807</ele>
        <time>2019-04-27T15:10:31Z</time>
      </trkpt>
      <trkpt lat="42.77436" lon="1.48662">
        <ele>807</ele>
        <time>2019-04-27T15:10:32Z</time>
      </trkpt>
      <trkpt lat="42.77436" lon="1.48658">
        <ele>807</ele>
        <time>2019-04-27T15:10:33Z</time>
      </trkpt>
      <trkpt lat="42.77437" lon="1.48656">
        <ele>807</ele>
        <time>2019-04-27T15:10:34Z</time>
      </trkpt>
      <trkpt lat="42.77438" lon="1.48651">
        <ele>807</ele>
        <time>2019-04-27T15:10:35Z</time>
      </trkpt>
      <trkpt lat="42.77439" lon="1.48647">
        <ele>808</ele>
        <time>2019-04-27T15:10:36Z</time>
      </trkpt>
      <trkpt lat="42.7744" lon="1.48644">
        <ele>809</ele>
        <time>2019-04-27T15:10:37Z</time>
      </trkpt>
      <trkpt lat="42.77441" lon="1.4864">
        <ele>810</ele>
        <time>2019-04-27T15:10:38Z</time>
      </trkpt>
      <trkpt lat="42.77443" lon="1.48637">
        <ele>811</ele>
        <time>2019-04-27T15:10:39Z</time>
      </trkpt>
      <trkpt lat="42.77444" lon="1.48634">
        <ele>812</ele>
        <time>2019-04-27T15:10:40Z</time>
      </trkpt>
      <trkpt lat="42.77445" lon="1.4863">
        <ele>813</ele>
        <time>2019-04-27T15:10:41Z</time>
      </trkpt>
      <trkpt lat="42.77447" lon="1.48628">
        <ele>814</ele>
        <time>2019-04-27T15:10:42Z</time>
      </trkpt>
      <trkpt lat="42.77449" lon="1.48626">
        <ele>814</ele>
        <time>2019-04-27T15:10:43Z</time>
      </trkpt>
      <trkpt lat="42.7745" lon="1.48623">
        <ele>814</ele>
        <time>2019-04-27T15:10:44Z</time>
      </trkpt>
      <trkpt lat="42.77453" lon="1.4862">
        <ele>815</ele>
        <time>2019-04-27T15:10:45Z</time>
      </trkpt>
      <trkpt lat="42.77477" lon="1.48588">
        <ele>817</ele>
        <time>2019-04-27T15:10:59Z</time>
      </trkpt>
      <trkpt lat="42.77479" lon="1.48586">
        <ele>817</ele>
        <time>2019-04-27T15:11:01Z</time>
      </trkpt>
      <trkpt lat="42.7748" lon="1.48584">
        <ele>818</ele>
        <time>2019-04-27T15:11:02Z</time>
      </trkpt>
      <trkpt lat="42.77483" lon="1.48581">
        <ele>818</ele>
        <time>2019-04-27T15:11:03Z</time>
      </trkpt>
      <trkpt lat="42.77485" lon="1.48579">
        <ele>818</ele>
        <time>2019-04-27T15:11:04Z</time>
      </trkpt>
      <trkpt lat="42.77487" lon="1.48576">
        <ele>818</ele>
        <time>2019-04-27T15:11:05Z</time>
      </trkpt>
      <trkpt lat="42.77507" lon="1.48556">
        <ele>822</ele>
        <time>2019-04-27T15:11:14Z</time>
      </trkpt>
      <trkpt lat="42.77509" lon="1.48553">
        <ele>822</ele>
        <time>2019-04-27T15:11:15Z</time>
      </trkpt>
      <trkpt lat="42.77511" lon="1.4855">
        <ele>822</ele>
        <time>2019-04-27T15:11:16Z</time>
      </trkpt>
      <trkpt lat="42.77514" lon="1.48548">
        <ele>822</ele>
        <time>2019-04-27T15:11:17Z</time>
      </trkpt>
      <trkpt lat="42.77516" lon="1.48545">
        <ele>822</ele>
        <time>2019-04-27T15:11:18Z</time>
      </trkpt>
      <trkpt lat="42.77518" lon="1.48543">
        <ele>822</ele>
        <time>2019-04-27T15:11:19Z</time>
      </trkpt>
      <trkpt lat="42.77521" lon="1.48541">
        <ele>822</ele>
        <time>2019-04-27T15:11:20Z</time>
      </trkpt>
      <trkpt lat="42.77523" lon="1.48539">
        <ele>822</ele>
        <time>2019-04-27T15:11:21Z</time>
      </trkpt>
      <trkpt lat="42.77526" lon="1.48537">
        <ele>822</ele>
        <time>2019-04-27T15:11:22Z</time>
      </trkpt>
      <trkpt lat="42.77528" lon="1.48535">
        <ele>822</ele>
        <time>2019-04-27T15:11:23Z</time>
      </trkpt>
      <trkpt lat="42.77531" lon="1.48533">
        <ele>822</ele>
        <time>2019-04-27T15:11:24Z</time>
      </trkpt>
      <trkpt lat="42.77533" lon="1.48531">
        <ele>822</ele>
        <time>2019-04-27T15:11:25Z</time>
      </trkpt>
      <trkpt lat="42.77535" lon="1.48528">
        <ele>822</ele>
        <time>2019-04-27T15:11:26Z</time>
      </trkpt>
      <trkpt lat="42.77538" lon="1.48526">
        <ele>822</ele>
        <time>2019-04-27T15:11:27Z</time>
      </trkpt>
      <trkpt lat="42.77541" lon="1.48523">
        <ele>822</ele>
        <time>2019-04-27T15:11:28Z</time>
      </trkpt>
      <trkpt lat="42.77543" lon="1.4852">
        <ele>822</ele>
        <time>2019-04-27T15:11:29Z</time>
      </trkpt>
      <trkpt lat="42.77545" lon="1.48518">
        <ele>822</ele>
        <time>2019-04-27T15:11:30Z</time>
      </trkpt>
      <trkpt lat="42.77547" lon="1.48515">
        <ele>822</ele>
        <time>2019-04-27T15:11:31Z</time>
      </trkpt>
      <trkpt lat="42.77549" lon="1.48513">
        <ele>822</ele>
        <time>2019-04-27T15:11:32Z</time>
      </trkpt>
      <trkpt lat="42.77551" lon="1.4851">
        <ele>823</ele>
        <time>2019-04-27T15:11:33Z</time>
      </trkpt>
      <trkpt lat="42.77553" lon="1.48507">
        <ele>823</ele>
        <time>2019-04-27T15:11:34Z</time>
      </trkpt>
      <trkpt lat="42.77556" lon="1.48504">
        <ele>823</ele>
        <time>2019-04-27T15:11:35Z</time>
      </trkpt>
      <trkpt lat="42.77558" lon="1.48501">
        <ele>823</ele>
        <time>2019-04-27T15:11:36Z</time>
      </trkpt>
      <trkpt lat="42.7756" lon="1.48498">
        <ele>823</ele>
        <time>2019-04-27T15:11:37Z</time>
      </trkpt>
      <trkpt lat="42.77562" lon="1.48495">
        <ele>823</ele>
        <time>2019-04-27T15:11:38Z</time>
      </trkpt>
      <trkpt lat="42.77564" lon="1.48492">
        <ele>822</ele>
        <time>2019-04-27T15:11:39Z</time>
      </trkpt>
      <trkpt lat="42.77566" lon="1.48489">
        <ele>822</ele>
        <time>2019-04-27T15:11:40Z</time>
      </trkpt>
      <trkpt lat="42.77568" lon="1.48486">
        <ele>822</ele>
        <time>2019-04-27T15:11:41Z</time>
      </trkpt>
      <trkpt lat="42.7757" lon="1.48483">
        <ele>823</ele>
        <time>2019-04-27T15:11:42Z</time>
      </trkpt>
      <trkpt lat="42.77572" lon="1.4848">
        <ele>824</ele>
        <time>2019-04-27T15:11:43Z</time>
      </trkpt>
      <trkpt lat="42.77574" lon="1.48477">
        <ele>824</ele>
        <time>2019-04-27T15:11:44Z</time>
      </trkpt>
      <trkpt lat="42.77576" lon="1.48474">
        <ele>825</ele>
        <time>2019-04-27T15:11:45Z</time>
      </trkpt>
      <trkpt lat="42.77578" lon="1.48471">
        <ele>825</ele>
        <time>2019-04-27T15:11:46Z</time>
      </trkpt>
      <trkpt lat="42.7758" lon="1.48468">
        <ele>825</ele>
        <time>2019-04-27T15:11:47Z</time>
      </trkpt>
      <trkpt lat="42.77582" lon="1.48465">
        <ele>825</ele>
        <time>2019-04-27T15:11:48Z</time>
      </trkpt>
      <trkpt lat="42.77584" lon="1.48462">
        <ele>825</ele>
        <time>2019-04-27T15:11:49Z</time>
      </trkpt>
      <trkpt lat="42.77586" lon="1.48459">
        <ele>825</ele>
        <time>2019-04-27T15:11:50Z</time>
      </trkpt>
      <trkpt lat="42.77589" lon="1.48456">
        <ele>825</ele>
        <time>2019-04-27T15:11:51Z</time>
      </trkpt>
      <trkpt lat="42.77591" lon="1.48452">
        <ele>826</ele>
        <time>2019-04-27T15:11:52Z</time>
      </trkpt>
      <trkpt lat="42.77613" lon="1.48426">
        <ele>828</ele>
        <time>2019-04-27T15:12:10Z</time>
      </trkpt>
      <trkpt lat="42.77614" lon="1.48424">
        <ele>828</ele>
        <time>2019-04-27T15:12:11Z</time>
      </trkpt>
      <trkpt lat="42.77617" lon="1.48421">
        <ele>829</ele>
        <time>2019-04-27T15:12:12Z</time>
      </trkpt>
      <trkpt lat="42.77619" lon="1.48419">
        <ele>829</ele>
        <time>2019-04-27T15:12:13Z</time>
      </trkpt>
      <trkpt lat="42.77621" lon="1.48416">
        <ele>829</ele>
        <time>2019-04-27T15:12:14Z</time>
      </trkpt>
      <trkpt lat="42.77623" lon="1.48413">
        <ele>829</ele>
        <time>2019-04-27T15:12:15Z</time>
      </trkpt>
      <trkpt lat="42.77626" lon="1.48409">
        <ele>829</ele>
        <time>2019-04-27T15:12:16Z</time>
      </trkpt>
      <trkpt lat="42.77628" lon="1.48406">
        <ele>829</ele>
        <time>2019-04-27T15:12:17Z</time>
      </trkpt>
      <trkpt lat="42.77631" lon="1.48403">
        <ele>830</ele>
        <time>2019-04-27T15:12:18Z</time>
      </trkpt>
      <trkpt lat="42.77633" lon="1.484">
        <ele>830</ele>
        <time>2019-04-27T15:12:19Z</time>
      </trkpt>
      <trkpt lat="42.77636" lon="1.48396">
        <ele>831</ele>
        <time>2019-04-27T15:12:20Z</time>
      </trkpt>
      <trkpt lat="42.77639" lon="1.48393">
        <ele>831</ele>
        <time>2019-04-27T15:12:21Z</time>
      </trkpt>
      <trkpt lat="42.77641" lon="1.4839">
        <ele>831</ele>
        <time>2019-04-27T15:12:22Z</time>
      </trkpt>
      <trkpt lat="42.77643" lon="1.48387">
        <ele>831</ele>
        <time>2019-04-27T15:12:23Z</time>
      </trkpt>
      <trkpt lat="42.77646" lon="1.48384">
        <ele>832</ele>
        <time>2019-04-27T15:12:24Z</time>
      </trkpt>
      <trkpt lat="42.77648" lon="1.4838">
        <ele>833</ele>
        <time>2019-04-27T15:12:25Z</time>
      </trkpt>
      <trkpt lat="42.77651" lon="1.48377">
        <ele>833</ele>
        <time>2019-04-27T15:12:26Z</time>
      </trkpt>
      <trkpt lat="42.77653" lon="1.48373">
        <ele>834</ele>
        <time>2019-04-27T15:12:27Z</time>
      </trkpt>
      <trkpt lat="42.77656" lon="1.48368">
        <ele>835</ele>
        <time>2019-04-27T15:12:28Z</time>
      </trkpt>
      <trkpt lat="42.77658" lon="1.48364">
        <ele>835</ele>
        <time>2019-04-27T15:12:29Z</time>
      </trkpt>
      <trkpt lat="42.77661" lon="1.48361">
        <ele>835</ele>
        <time>2019-04-27T15:12:30Z</time>
      </trkpt>
      <trkpt lat="42.77664" lon="1.48357">
        <ele>835</ele>
        <time>2019-04-27T15:12:31Z</time>
      </trkpt>
      <trkpt lat="42.77667" lon="1.48354">
        <ele>835</ele>
        <time>2019-04-27T15:12:32Z</time>
      </trkpt>
      <trkpt lat="42.77669" lon="1.4835">
        <ele>835</ele>
        <time>2019-04-27T15:12:33Z</time>
      </trkpt>
      <trkpt lat="42.77672" lon="1.48347">
        <ele>835</ele>
        <time>2019-04-27T15:12:34Z</time>
      </trkpt>
      <trkpt lat="42.77676" lon="1.48344">
        <ele>836</ele>
        <time>2019-04-27T15:12:35Z</time>
      </trkpt>
      <trkpt lat="42.77679" lon="1.48341">
        <ele>837</ele>
        <time>2019-04-27T15:12:36Z</time>
      </trkpt>
      <trkpt lat="42.77682" lon="1.48338">
        <ele>837</ele>
        <time>2019-04-27T15:12:37Z</time>
      </trkpt>
      <trkpt lat="42.77685" lon="1.48336">
        <ele>837</ele>
        <time>2019-04-27T15:12:38Z</time>
      </trkpt>
      <trkpt lat="42.77688" lon="1.48334">
        <ele>837</ele>
        <time>2019-04-27T15:12:39Z</time>
      </trkpt>
      <trkpt lat="42.7771" lon="1.48321">
        <ele>841</ele>
        <time>2019-04-27T15:12:47Z</time>
      </trkpt>
      <trkpt lat="42.77713" lon="1.48319">
        <ele>841</ele>
        <time>2019-04-27T15:12:49Z</time>
      </trkpt>
      <trkpt lat="42.77716" lon="1.48316">
        <ele>841</ele>
        <time>2019-04-27T15:12:50Z</time>
      </trkpt>
      <trkpt lat="42.77719" lon="1.48314">
        <ele>841</ele>
        <time>2019-04-27T15:12:51Z</time>
      </trkpt>
      <trkpt lat="42.77721" lon="1.48312">
        <ele>841</ele>
        <time>2019-04-27T15:12:52Z</time>
      </trkpt>
      <trkpt lat="42.77724" lon="1.48309">
        <ele>841</ele>
        <time>2019-04-27T15:12:53Z</time>
      </trkpt>
      <trkpt lat="42.77726" lon="1.48306">
        <ele>841</ele>
        <time>2019-04-27T15:12:54Z</time>
      </trkpt>
      <trkpt lat="42.77729" lon="1.48303">
        <ele>841</ele>
        <time>2019-04-27T15:12:55Z</time>
      </trkpt>
      <trkpt lat="42.77731" lon="1.483">
        <ele>841</ele>
        <time>2019-04-27T15:12:56Z</time>
      </trkpt>
      <trkpt lat="42.77734" lon="1.48297">
        <ele>841</ele>
        <time>2019-04-27T15:12:57Z</time>
      </trkpt>
      <trkpt lat="42.77736" lon="1.48294">
        <ele>841</ele>
        <time>2019-04-27T15:12:58Z</time>
      </trkpt>
      <trkpt lat="42.77738" lon="1.4829">
        <ele>841</ele>
        <time>2019-04-27T15:12:59Z</time>
      </trkpt>
      <trkpt lat="42.77741" lon="1.48286">
        <ele>841</ele>
        <time>2019-04-27T15:13:00Z</time>
      </trkpt>
      <trkpt lat="42.77743" lon="1.48283">
        <ele>841</ele>
        <time>2019-04-27T15:13:01Z</time>
      </trkpt>
      <trkpt lat="42.77745" lon="1.48279">
        <ele>841</ele>
        <time>2019-04-27T15:13:02Z</time>
      </trkpt>
      <trkpt lat="42.77746" lon="1.48275">
        <ele>842</ele>
        <time>2019-04-27T15:13:03Z</time>
      </trkpt>
      <trkpt lat="42.77748" lon="1.48272">
        <ele>843</ele>
        <time>2019-04-27T15:13:04Z</time>
      </trkpt>
      <trkpt lat="42.77749" lon="1.48269">
        <ele>844</ele>
        <time>2019-04-27T15:13:05Z</time>
      </trkpt>
      <trkpt lat="42.77749" lon="1.48266">
        <ele>845</ele>
        <time>2019-04-27T15:13:06Z</time>
      </trkpt>
      <trkpt lat="42.77751" lon="1.48263">
        <ele>846</ele>
        <time>2019-04-27T15:13:07Z</time>
      </trkpt>
      <trkpt lat="42.77751" lon="1.48259">
        <ele>847</ele>
        <time>2019-04-27T15:13:08Z</time>
      </trkpt>
      <trkpt lat="42.77751" lon="1.48255">
        <ele>848</ele>
        <time>2019-04-27T15:13:09Z</time>
      </trkpt>
      <trkpt lat="42.77753" lon="1.48252">
        <ele>849</ele>
        <time>2019-04-27T15:13:10Z</time>
      </trkpt>
      <trkpt lat="42.77755" lon="1.4825">
        <ele>850</ele>
        <time>2019-04-27T15:13:11Z</time>
      </trkpt>
      <trkpt lat="42.77757" lon="1.48248">
        <ele>850</ele>
        <time>2019-04-27T15:13:12Z</time>
      </trkpt>
      <trkpt lat="42.77759" lon="1.48247">
        <ele>850</ele>
        <time>2019-04-27T15:13:13Z</time>
      </trkpt>
      <trkpt lat="42.77761" lon="1.48245">
        <ele>850</ele>
        <time>2019-04-27T15:13:14Z</time>
      </trkpt>
      <trkpt lat="42.77764" lon="1.48243">
        <ele>851</ele>
        <time>2019-04-27T15:13:15Z</time>
      </trkpt>
      <trkpt lat="42.77766" lon="1.48241">
        <ele>851</ele>
        <time>2019-04-27T15:13:16Z</time>
      </trkpt>
      <trkpt lat="42.77765" lon="1.48237">
        <ele>851</ele>
        <time>2019-04-27T15:13:17Z</time>
      </trkpt>
      <trkpt lat="42.77764" lon="1.48234">
        <ele>852</ele>
        <time>2019-04-27T15:13:18Z</time>
      </trkpt>
      <trkpt lat="42.77764" lon="1.4823">
        <ele>852</ele>
        <time>2019-04-27T15:13:19Z</time>
      </trkpt>
      <trkpt lat="42.77762" lon="1.48227">
        <ele>852</ele>
        <time>2019-04-27T15:13:20Z</time>
      </trkpt>
      <trkpt lat="42.77761" lon="1.48222">
        <ele>853</ele>
        <time>2019-04-27T15:13:21Z</time>
      </trkpt>
      <trkpt lat="42.7776" lon="1.48216">
        <ele>853</ele>
        <time>2019-04-27T15:13:22Z</time>
      </trkpt>
      <trkpt lat="42.7776" lon="1.48211">
        <ele>853</ele>
        <time>2019-04-27T15:13:23Z</time>
      </trkpt>
      <trkpt lat="42.7776" lon="1.48206">
        <ele>853</ele>
        <time>2019-04-27T15:13:24Z</time>
      </trkpt>
      <trkpt lat="42.7776" lon="1.48203">
        <ele>853</ele>
        <time>2019-04-27T15:13:25Z</time>
      </trkpt>
      <trkpt lat="42.77761" lon="1.48197">
        <ele>854</ele>
        <time>2019-04-27T15:13:26Z</time>
      </trkpt>
      <trkpt lat="42.77761" lon="1.48193">
        <ele>855</ele>
        <time>2019-04-27T15:13:27Z</time>
      </trkpt>
      <trkpt lat="42.77772" lon="1.48148">
        <ele>857</ele>
        <time>2019-04-27T15:13:40Z</time>
      </trkpt>
      <trkpt lat="42.77774" lon="1.48145">
        <ele>857</ele>
        <time>2019-04-27T15:13:41Z</time>
      </trkpt>
      <trkpt lat="42.77775" lon="1.48141">
        <ele>857</ele>
        <time>2019-04-27T15:13:42Z</time>
      </trkpt>
      <trkpt lat="42.77777" lon="1.48138">
        <ele>858</ele>
        <time>2019-04-27T15:13:43Z</time>
      </trkpt>
      <trkpt lat="42.77778" lon="1.48135">
        <ele>858</ele>
        <time>2019-04-27T15:13:44Z</time>
      </trkpt>
      <trkpt lat="42.7778" lon="1.48132">
        <ele>859</ele>
        <time>2019-04-27T15:13:45Z</time>
      </trkpt>
      <trkpt lat="42.77781" lon="1.48129">
        <ele>859</ele>
        <time>2019-04-27T15:13:46Z</time>
      </trkpt>
      <trkpt lat="42.77782" lon="1.48126">
        <ele>860</ele>
        <time>2019-04-27T15:13:47Z</time>
      </trkpt>
      <trkpt lat="42.77784" lon="1.48124">
        <ele>861</ele>
        <time>2019-04-27T15:13:48Z</time>
      </trkpt>
      <trkpt lat="42.77785" lon="1.48122">
        <ele>861</ele>
        <time>2019-04-27T15:13:49Z</time>
      </trkpt>
      <trkpt lat="42.77787" lon="1.48118">
        <ele>861</ele>
        <time>2019-04-27T15:13:50Z</time>
      </trkpt>
      <trkpt lat="42.77789" lon="1.48115">
        <ele>861</ele>
        <time>2019-04-27T15:13:51Z</time>
      </trkpt>
      <trkpt lat="42.77791" lon="1.48112">
        <ele>862</ele>
        <time>2019-04-27T15:13:52Z</time>
      </trkpt>
      <trkpt lat="42.77793" lon="1.4811">
        <ele>862</ele>
        <time>2019-04-27T15:13:53Z</time>
      </trkpt>
      <trkpt lat="42.77794" lon="1.48107">
        <ele>863</ele>
        <time>2019-04-27T15:13:54Z</time>
      </trkpt>
      <trkpt lat="42.77795" lon="1.48105">
        <ele>864</ele>
        <time>2019-04-27T15:13:55Z</time>
      </trkpt>
      <trkpt lat="42.77799" lon="1.48103">
        <ele>864</ele>
        <time>2019-04-27T15:13:56Z</time>
      </trkpt>
      <trkpt lat="42.778" lon="1.48101">
        <ele>864</ele>
        <time>2019-04-27T15:13:57Z</time>
      </trkpt>
      <trkpt lat="42.77802" lon="1.48098">
        <ele>865</ele>
        <time>2019-04-27T15:14:00Z</time>
      </trkpt>
      <trkpt lat="42.77804" lon="1.48096">
        <ele>865</ele>
        <time>2019-04-27T15:14:02Z</time>
      </trkpt>
      <trkpt lat="42.77806" lon="1.48095">
        <ele>865</ele>
        <time>2019-04-27T15:14:03Z</time>
      </trkpt>
      <trkpt lat="42.77809" lon="1.48093">
        <ele>866</ele>
        <time>2019-04-27T15:14:04Z</time>
      </trkpt>
      <trkpt lat="42.7781" lon="1.4809">
        <ele>866</ele>
        <time>2019-04-27T15:14:05Z</time>
      </trkpt>
      <trkpt lat="42.77812" lon="1.48088">
        <ele>866</ele>
        <time>2019-04-27T15:14:06Z</time>
      </trkpt>
      <trkpt lat="42.77815" lon="1.48086">
        <ele>867</ele>
        <time>2019-04-27T15:14:07Z</time>
      </trkpt>
      <trkpt lat="42.77818" lon="1.48084">
        <ele>868</ele>
        <time>2019-04-27T15:14:08Z</time>
      </trkpt>
      <trkpt lat="42.7782" lon="1.48082">
        <ele>868</ele>
        <time>2019-04-27T15:14:09Z</time>
      </trkpt>
      <trkpt lat="42.77822" lon="1.4808">
        <ele>868</ele>
        <time>2019-04-27T15:14:10Z</time>
      </trkpt>
      <trkpt lat="42.77824" lon="1.48078">
        <ele>868</ele>
        <time>2019-04-27T15:14:11Z</time>
      </trkpt>
      <trkpt lat="42.77826" lon="1.48076">
        <ele>869</ele>
        <time>2019-04-27T15:14:12Z</time>
      </trkpt>
      <trkpt lat="42.77829" lon="1.48073">
        <ele>869</ele>
        <time>2019-04-27T15:14:13Z</time>
      </trkpt>
      <trkpt lat="42.7783" lon="1.4807">
        <ele>869</ele>
        <time>2019-04-27T15:14:14Z</time>
      </trkpt>
      <trkpt lat="42.77833" lon="1.48068">
        <ele>869</ele>
        <time>2019-04-27T15:14:15Z</time>
      </trkpt>
      <trkpt lat="42.77835" lon="1.48066">
        <ele>869</ele>
        <time>2019-04-27T15:14:16Z</time>
      </trkpt>
      <trkpt lat="42.77837" lon="1.48064">
        <ele>870</ele>
        <time>2019-04-27T15:14:17Z</time>
      </trkpt>
      <trkpt lat="42.77839" lon="1.48061">
        <ele>870</ele>
        <time>2019-04-27T15:14:18Z</time>
      </trkpt>
      <trkpt lat="42.77846" lon="1.48055">
        <ele>870</ele>
        <time>2019-04-27T15:14:21Z</time>
      </trkpt>
      <trkpt lat="42.77848" lon="1.48054">
        <ele>871</ele>
        <time>2019-04-27T15:14:22Z</time>
      </trkpt>
      <trkpt lat="42.7785" lon="1.48052">
        <ele>871</ele>
        <time>2019-04-27T15:14:23Z</time>
      </trkpt>
      <trkpt lat="42.77852" lon="1.48049">
        <ele>871</ele>
        <time>2019-04-27T15:14:24Z</time>
      </trkpt>
      <trkpt lat="42.77855" lon="1.48048">
        <ele>871</ele>
        <time>2019-04-27T15:14:25Z</time>
      </trkpt>
      <trkpt lat="42.77856" lon="1.48046">
        <ele>871</ele>
        <time>2019-04-27T15:14:26Z</time>
      </trkpt>
      <trkpt lat="42.77858" lon="1.48045">
        <ele>871</ele>
        <time>2019-04-27T15:14:27Z</time>
      </trkpt>
      <trkpt lat="42.7786" lon="1.48043">
        <ele>871</ele>
        <time>2019-04-27T15:14:28Z</time>
      </trkpt>
      <trkpt lat="42.77862" lon="1.48041">
        <ele>871</ele>
        <time>2019-04-27T15:14:29Z</time>
      </trkpt>
      <trkpt lat="42.77865" lon="1.48039">
        <ele>871</ele>
        <time>2019-04-27T15:14:30Z</time>
      </trkpt>
      <trkpt lat="42.77867" lon="1.48038">
        <ele>871</ele>
        <time>2019-04-27T15:14:31Z</time>
      </trkpt>
      <trkpt lat="42.77869" lon="1.48036">
        <ele>871</ele>
        <time>2019-04-27T15:14:32Z</time>
      </trkpt>
      <trkpt lat="42.77871" lon="1.48034">
        <ele>871</ele>
        <time>2019-04-27T15:14:33Z</time>
      </trkpt>
      <trkpt lat="42.77874" lon="1.48032">
        <ele>871</ele>
        <time>2019-04-27T15:14:34Z</time>
      </trkpt>
      <trkpt lat="42.77876" lon="1.4803">
        <ele>871</ele>
        <time>2019-04-27T15:14:35Z</time>
      </trkpt>
      <trkpt lat="42.77879" lon="1.48028">
        <ele>871</ele>
        <time>2019-04-27T15:14:36Z</time>
      </trkpt>
      <trkpt lat="42.77881" lon="1.48026">
        <ele>871</ele>
        <time>2019-04-27T15:14:37Z</time>
      </trkpt>
      <trkpt lat="42.77882" lon="1.48025">
        <ele>871</ele>
        <time>2019-04-27T15:14:38Z</time>
      </trkpt>
      <trkpt lat="42.77886" lon="1.48023">
        <ele>872</ele>
        <time>2019-04-27T15:14:39Z</time>
      </trkpt>
      <trkpt lat="42.77888" lon="1.4802">
        <ele>873</ele>
        <time>2019-04-27T15:14:40Z</time>
      </trkpt>
      <trkpt lat="42.7789" lon="1.48018">
        <ele>874</ele>
        <time>2019-04-27T15:14:41Z</time>
      </trkpt>
      <trkpt lat="42.77893" lon="1.48016">
        <ele>875</ele>
        <time>2019-04-27T15:14:42Z</time>
      </trkpt>
      <trkpt lat="42.77895" lon="1.48014">
        <ele>876</ele>
        <time>2019-04-27T15:14:43Z</time>
      </trkpt>
      <trkpt lat="42.77898" lon="1.48012">
        <ele>877</ele>
        <time>2019-04-27T15:14:44Z</time>
      </trkpt>
      <trkpt lat="42.779" lon="1.4801">
        <ele>878</ele>
        <time>2019-04-27T15:14:45Z</time>
      </trkpt>
      <trkpt lat="42.77901" lon="1.48007">
        <ele>879</ele>
        <time>2019-04-27T15:14:46Z</time>
      </trkpt>
      <trkpt lat="42.77903" lon="1.48004">
        <ele>879</ele>
        <time>2019-04-27T15:14:47Z</time>
      </trkpt>
      <trkpt lat="42.77906" lon="1.48002">
        <ele>879</ele>
        <time>2019-04-27T15:14:48Z</time>
      </trkpt>
      <trkpt lat="42.77908" lon="1.47999">
        <ele>879</ele>
        <time>2019-04-27T15:14:49Z</time>
      </trkpt>
      <trkpt lat="42.7791" lon="1.47997">
        <ele>879</ele>
        <time>2019-04-27T15:14:50Z</time>
      </trkpt>
      <trkpt lat="42.77913" lon="1.47996">
        <ele>880</ele>
        <time>2019-04-27T15:14:51Z</time>
      </trkpt>
      <trkpt lat="42.77915" lon="1.47998">
        <ele>880</ele>
        <time>2019-04-27T15:14:52Z</time>
      </trkpt>
      <trkpt lat="42.77917" lon="1.48">
        <ele>881</ele>
        <time>2019-04-27T15:14:53Z</time>
      </trkpt>
      <trkpt lat="42.77918" lon="1.48003">
        <ele>881</ele>
        <time>2019-04-27T15:14:54Z</time>
      </trkpt>
      <trkpt lat="42.7792" lon="1.48006">
        <ele>881</ele>
        <time>2019-04-27T15:14:55Z</time>
      </trkpt>
      <trkpt lat="42.7792" lon="1.48008">
        <ele>881</ele>
        <time>2019-04-27T15:14:56Z</time>
      </trkpt>
      <trkpt lat="42.7792" lon="1.48011">
        <ele>881</ele>
        <time>2019-04-27T15:14:57Z</time>
      </trkpt>
      <trkpt lat="42.77921" lon="1.48013">
        <ele>881</ele>
        <time>2019-04-27T15:14:58Z</time>
      </trkpt>
      <trkpt lat="42.7792" lon="1.48015">
        <ele>882</ele>
        <time>2019-04-27T15:14:59Z</time>
      </trkpt>
      <trkpt lat="42.77917" lon="1.48018">
        <ele>883</ele>
        <time>2019-04-27T15:15:00Z</time>
      </trkpt>
      <trkpt lat="42.77916" lon="1.48021">
        <ele>883</ele>
        <time>2019-04-27T15:15:01Z</time>
      </trkpt>
      <trkpt lat="42.77916" lon="1.48023">
        <ele>883</ele>
        <time>2019-04-27T15:15:02Z</time>
      </trkpt>
      <trkpt lat="42.77913" lon="1.48025">
        <ele>883</ele>
        <time>2019-04-27T15:15:03Z</time>
      </trkpt>
      <trkpt lat="42.77911" lon="1.48028">
        <ele>884</ele>
        <time>2019-04-27T15:15:04Z</time>
      </trkpt>
      <trkpt lat="42.77884" lon="1.48063">
        <ele>890</ele>
        <time>2019-04-27T15:15:19Z</time>
      </trkpt>
      <trkpt lat="42.77884" lon="1.48066">
        <ele>890</ele>
        <time>2019-04-27T15:15:20Z</time>
      </trkpt>
      <trkpt lat="42.77885" lon="1.48068">
        <ele>890</ele>
        <time>2019-04-27T15:15:21Z</time>
      </trkpt>
      <trkpt lat="42.77886" lon="1.4807">
        <ele>890</ele>
        <time>2019-04-27T15:15:22Z</time>
      </trkpt>
      <trkpt lat="42.77887" lon="1.48072">
        <ele>890</ele>
        <time>2019-04-27T15:15:23Z</time>
      </trkpt>
      <trkpt lat="42.77886" lon="1.48076">
        <ele>891</ele>
        <time>2019-04-27T15:15:24Z</time>
      </trkpt>
      <trkpt lat="42.77885" lon="1.48079">
        <ele>892</ele>
        <time>2019-04-27T15:15:25Z</time>
      </trkpt>
      <trkpt lat="42.77882" lon="1.48083">
        <ele>892</ele>
        <time>2019-04-27T15:15:26Z</time>
      </trkpt>
      <trkpt lat="42.77883" lon="1.48085">
        <ele>892</ele>
        <time>2019-04-27T15:15:27Z</time>
      </trkpt>
      <trkpt lat="42.77882" lon="1.48088">
        <ele>893</ele>
        <time>2019-04-27T15:15:28Z</time>
      </trkpt>
      <trkpt lat="42.7788" lon="1.48092">
        <ele>893</ele>
        <time>2019-04-27T15:15:29Z</time>
      </trkpt>
      <trkpt lat="42.77873" lon="1.48096">
        <ele>894</ele>
        <time>2019-04-27T15:15:30Z</time>
      </trkpt>
      <trkpt lat="42.77872" lon="1.48098">
        <ele>894</ele>
        <time>2019-04-27T15:15:31Z</time>
      </trkpt>
      <trkpt lat="42.77871" lon="1.48101">
        <ele>894</ele>
        <time>2019-04-27T15:15:32Z</time>
      </trkpt>
      <trkpt lat="42.77868" lon="1.48104">
        <ele>894</ele>
        <time>2019-04-27T15:15:33Z</time>
      </trkpt>
      <trkpt lat="42.77867" lon="1.48107">
        <ele>894</ele>
        <time>2019-04-27T15:15:34Z</time>
      </trkpt>
      <trkpt lat="42.77865" lon="1.48111">
        <ele>894</ele>
        <time>2019-04-27T15:15:35Z</time>
      </trkpt>
      <trkpt lat="42.77862" lon="1.48114">
        <ele>894</ele>
        <time>2019-04-27T15:15:36Z</time>
      </trkpt>
      <trkpt lat="42.77861" lon="1.48117">
        <ele>894</ele>
        <time>2019-04-27T15:15:37Z</time>
      </trkpt>
      <trkpt lat="42.77858" lon="1.48121">
        <ele>894</ele>
        <time>2019-04-27T15:15:38Z</time>
      </trkpt>
      <trkpt lat="42.77857" lon="1.48125">
        <ele>894</ele>
        <time>2019-04-27T15:15:39Z</time>
      </trkpt>
      <trkpt lat="42.77858" lon="1.48129">
        <ele>894</ele>
        <time>2019-04-27T15:15:40Z</time>
      </trkpt>
      <trkpt lat="42.77858" lon="1.48133">
        <ele>894</ele>
        <time>2019-04-27T15:15:41Z</time>
      </trkpt>
      <trkpt lat="42.77858" lon="1.48137">
        <ele>894</ele>
        <time>2019-04-27T15:15:42Z</time>
      </trkpt>
      <trkpt lat="42.77858" lon="1.4814">
        <ele>894</ele>
        <time>2019-04-27T15:15:43Z</time>
      </trkpt>
      <trkpt lat="42.77857" lon="1.48144">
        <ele>894</ele>
        <time>2019-04-27T15:15:44Z</time>
      </trkpt>
      <trkpt lat="42.77855" lon="1.48148">
        <ele>894</ele>
        <time>2019-04-27T15:15:45Z</time>
      </trkpt>
      <trkpt lat="42.77854" lon="1.48152">
        <ele>894</ele>
        <time>2019-04-27T15:15:46Z</time>
      </trkpt>
      <trkpt lat="42.77854" lon="1.48155">
        <ele>894</ele>
        <time>2019-04-27T15:15:47Z</time>
      </trkpt>
      <trkpt lat="42.77853" lon="1.48159">
        <ele>894</ele>
        <time>2019-04-27T15:15:48Z</time>
      </trkpt>
      <trkpt lat="42.77852" lon="1.48163">
        <ele>894</ele>
        <time>2019-04-27T15:15:49Z</time>
      </trkpt>
      <trkpt lat="42.77853" lon="1.48167">
        <ele>895</ele>
        <time>2019-04-27T15:15:50Z</time>
      </trkpt>
      <trkpt lat="42.77854" lon="1.4817">
        <ele>896</ele>
        <time>2019-04-27T15:15:51Z</time>
      </trkpt>
      <trkpt lat="42.77854" lon="1.48173">
        <ele>897</ele>
        <time>2019-04-27T15:15:52Z</time>
      </trkpt>
      <trkpt lat="42.77858" lon="1.48182">
        <ele>900</ele>
        <time>2019-04-27T15:15:55Z</time>
      </trkpt>
      <trkpt lat="42.77858" lon="1.48186">
        <ele>901</ele>
        <time>2019-04-27T15:15:56Z</time>
      </trkpt>
      <trkpt lat="42.77861" lon="1.48188">
        <ele>901</ele>
        <time>2019-04-27T15:15:57Z</time>
      </trkpt>
      <trkpt lat="42.77862" lon="1.48191">
        <ele>901</ele>
        <time>2019-04-27T15:15:58Z</time>
      </trkpt>
      <trkpt lat="42.77862" lon="1.48194">
        <ele>901</ele>
        <time>2019-04-27T15:15:59Z</time>
      </trkpt>
      <trkpt lat="42.77861" lon="1.48198">
        <ele>901</ele>
        <time>2019-04-27T15:16:00Z</time>
      </trkpt>
      <trkpt lat="42.77862" lon="1.48201">
        <ele>901</ele>
        <time>2019-04-27T15:16:01Z</time>
      </trkpt>
      <trkpt lat="42.77861" lon="1.48205">
        <ele>902</ele>
        <time>2019-04-27T15:16:02Z</time>
      </trkpt>
      <trkpt lat="42.77863" lon="1.48208">
        <ele>903</ele>
        <time>2019-04-27T15:16:03Z</time>
      </trkpt>
      <trkpt lat="42.77861" lon="1.48212">
        <ele>904</ele>
        <time>2019-04-27T15:16:04Z</time>
      </trkpt>
      <trkpt lat="42.7786" lon="1.48215">
        <ele>905</ele>
        <time>2019-04-27T15:16:05Z</time>
      </trkpt>
      <trkpt lat="42.7786" lon="1.48218">
        <ele>906</ele>
        <time>2019-04-27T15:16:06Z</time>
      </trkpt>
      <trkpt lat="42.7786" lon="1.48221">
        <ele>907</ele>
        <time>2019-04-27T15:16:07Z</time>
      </trkpt>
      <trkpt lat="42.77859" lon="1.48224">
        <ele>907</ele>
        <time>2019-04-27T15:16:08Z</time>
      </trkpt>
      <trkpt lat="42.77859" lon="1.48227">
        <ele>907</ele>
        <time>2019-04-27T15:16:09Z</time>
      </trkpt>
      <trkpt lat="42.77859" lon="1.48229">
        <ele>907</ele>
        <time>2019-04-27T15:16:10Z</time>
      </trkpt>
      <trkpt lat="42.77858" lon="1.48231">
        <ele>907</ele>
        <time>2019-04-27T15:16:11Z</time>
      </trkpt>
      <trkpt lat="42.77857" lon="1.48234">
        <ele>908</ele>
        <time>2019-04-27T15:16:12Z</time>
      </trkpt>
      <trkpt lat="42.77855" lon="1.48237">
        <ele>908</ele>
        <time>2019-04-27T15:16:13Z</time>
      </trkpt>
      <trkpt lat="42.77855" lon="1.48239">
        <ele>908</ele>
        <time>2019-04-27T15:16:14Z</time>
      </trkpt>
      <trkpt lat="42.77858" lon="1.48297">
        <ele>911</ele>
        <time>2019-04-27T15:16:29Z</time>
      </trkpt>
      <trkpt lat="42.77859" lon="1.483">
        <ele>912</ele>
        <time>2019-04-27T15:16:30Z</time>
      </trkpt>
      <trkpt lat="42.77859" lon="1.48304">
        <ele>912</ele>
        <time>2019-04-27T15:16:31Z</time>
      </trkpt>
      <trkpt lat="42.77858" lon="1.48308">
        <ele>912</ele>
        <time>2019-04-27T15:16:32Z</time>
      </trkpt>
      <trkpt lat="42.77859" lon="1.48311">
        <ele>912</ele>
        <time>2019-04-27T15:16:33Z</time>
      </trkpt>
      <trkpt lat="42.7786" lon="1.48314">
        <ele>912</ele>
        <time>2019-04-27T15:16:34Z</time>
      </trkpt>
      <trkpt lat="42.77861" lon="1.48317">
        <ele>913</ele>
        <time>2019-04-27T15:16:35Z</time>
      </trkpt>
      <trkpt lat="42.77862" lon="1.48319">
        <ele>914</ele>
        <time>2019-04-27T15:16:36Z</time>
      </trkpt>
      <trkpt lat="42.77859" lon="1.48323">
        <ele>914</ele>
        <time>2019-04-27T15:16:37Z</time>
      </trkpt>
      <trkpt lat="42.7786" lon="1.48326">
        <ele>914</ele>
        <time>2019-04-27T15:16:38Z</time>
      </trkpt>
      <trkpt lat="42.77859" lon="1.48329">
        <ele>914</ele>
        <time>2019-04-27T15:16:39Z</time>
      </trkpt>
      <trkpt lat="42.77848" lon="1.48351">
        <ele>916</ele>
        <time>2019-04-27T15:16:45Z</time>
      </trkpt>
      <trkpt lat="42.77845" lon="1.48354">
        <ele>916</ele>
        <time>2019-04-27T15:16:46Z</time>
      </trkpt>
      <trkpt lat="42.77842" lon="1.48358">
        <ele>916</ele>
        <time>2019-04-27T15:16:47Z</time>
      </trkpt>
      <trkpt lat="42.7784" lon="1.48361">
        <ele>916</ele>
        <time>2019-04-27T15:16:48Z</time>
      </trkpt>
      <trkpt lat="42.77839" lon="1.48363">
        <ele>916</ele>
        <time>2019-04-27T15:16:49Z</time>
      </trkpt>
      <trkpt lat="42.77836" lon="1.48367">
        <ele>916</ele>
        <time>2019-04-27T15:16:50Z</time>
      </trkpt>
      <trkpt lat="42.77834" lon="1.4837">
        <ele>916</ele>
        <time>2019-04-27T15:16:51Z</time>
      </trkpt>
      <trkpt lat="42.77832" lon="1.48372">
        <ele>916</ele>
        <time>2019-04-27T15:16:52Z</time>
      </trkpt>
      <trkpt lat="42.77829" lon="1.48374">
        <ele>916</ele>
        <time>2019-04-27T15:16:53Z</time>
      </trkpt>
      <trkpt lat="42.77826" lon="1.48377">
        <ele>916</ele>
        <time>2019-04-27T15:16:54Z</time>
      </trkpt>
      <trkpt lat="42.77824" lon="1.4838">
        <ele>916</ele>
        <time>2019-04-27T15:16:55Z</time>
      </trkpt>
      <trkpt lat="42.77823" lon="1.48382">
        <ele>916</ele>
        <time>2019-04-27T15:16:56Z</time>
      </trkpt>
      <trkpt lat="42.7782" lon="1.48384">
        <ele>916</ele>
        <time>2019-04-27T15:16:57Z</time>
      </trkpt>
      <trkpt lat="42.77819" lon="1.48387">
        <ele>916</ele>
        <time>2019-04-27T15:16:58Z</time>
      </trkpt>
      <trkpt lat="42.77817" lon="1.4839">
        <ele>917</ele>
        <time>2019-04-27T15:16:59Z</time>
      </trkpt>
      <trkpt lat="42.77818" lon="1.48393">
        <ele>918</ele>
        <time>2019-04-27T15:17:00Z</time>
      </trkpt>
      <trkpt lat="42.77819" lon="1.48397">
        <ele>919</ele>
        <time>2019-04-27T15:17:01Z</time>
      </trkpt>
      <trkpt lat="42.7782" lon="1.484">
        <ele>920</ele>
        <time>2019-04-27T15:17:02Z</time>
      </trkpt>
      <trkpt lat="42.77823" lon="1.48402">
        <ele>921</ele>
        <time>2019-04-27T15:17:03Z</time>
      </trkpt>
      <trkpt lat="42.77825" lon="1.48403">
        <ele>922</ele>
        <time>2019-04-27T15:17:04Z</time>
      </trkpt>
      <trkpt lat="42.77827" lon="1.48402">
        <ele>923</ele>
        <time>2019-04-27T15:17:05Z</time>
      </trkpt>
      <trkpt lat="42.77829" lon="1.484">
        <ele>924</ele>
        <time>2019-04-27T15:17:06Z</time>
      </trkpt>
      <trkpt lat="42.77831" lon="1.48398">
        <ele>925</ele>
        <time>2019-04-27T15:17:07Z</time>
      </trkpt>
      <trkpt lat="42.77832" lon="1.48396">
        <ele>926</ele>
        <time>2019-04-27T15:17:08Z</time>
      </trkpt>
      <trkpt lat="42.77834" lon="1.48394">
        <ele>926</ele>
        <time>2019-04-27T15:17:09Z</time>
      </trkpt>
      <trkpt lat="42.77835" lon="1.48392">
        <ele>926</ele>
        <time>2019-04-27T15:17:10Z</time>
      </trkpt>
      <trkpt lat="42.77837" lon="1.48389">
        <ele>927</ele>
        <time>2019-04-27T15:17:11Z</time>
      </trkpt>
      <trkpt lat="42.7784" lon="1.48387">
        <ele>927</ele>
        <time>2019-04-27T15:17:12Z</time>
      </trkpt>
      <trkpt lat="42.77842" lon="1.48385">
        <ele>927</ele>
        <time>2019-04-27T15:17:13Z</time>
      </trkpt>
      <trkpt lat="42.77844" lon="1.48383">
        <ele>927</ele>
        <time>2019-04-27T15:17:14Z</time>
      </trkpt>
      <trkpt lat="42.77846" lon="1.4838">
        <ele>928</ele>
        <time>2019-04-27T15:17:15Z</time>
      </trkpt>
      <trkpt lat="42.77848" lon="1.48378">
        <ele>928</ele>
        <time>2019-04-27T15:17:16Z</time>
      </trkpt>
      <trkpt lat="42.7785" lon="1.48377">
        <ele>929</ele>
        <time>2019-04-27T15:17:17Z</time>
      </trkpt>
      <trkpt lat="42.77853" lon="1.48375">
        <ele>929</ele>
        <time>2019-04-27T15:17:18Z</time>
      </trkpt>
      <trkpt lat="42.77855" lon="1.48374">
        <ele>929</ele>
        <time>2019-04-27T15:17:19Z</time>
      </trkpt>
      <trkpt lat="42.77857" lon="1.48371">
        <ele>929</ele>
        <time>2019-04-27T15:17:20Z</time>
      </trkpt>
      <trkpt lat="42.7786" lon="1.48369">
        <ele>929</ele>
        <time>2019-04-27T15:17:21Z</time>
      </trkpt>
      <trkpt lat="42.77862" lon="1.48368">
        <ele>930</ele>
        <time>2019-04-27T15:17:22Z</time>
      </trkpt>
      <trkpt lat="42.77864" lon="1.48366">
        <ele>930</ele>
        <time>2019-04-27T15:17:23Z</time>
      </trkpt>
      <trkpt lat="42.77866" lon="1.48364">
        <ele>930</ele>
        <time>2019-04-27T15:17:24Z</time>
      </trkpt>
      <trkpt lat="42.77868" lon="1.48361">
        <ele>930</ele>
        <time>2019-04-27T15:17:25Z</time>
      </trkpt>
      <trkpt lat="42.77897" lon="1.48321">
        <ele>934</ele>
        <time>2019-04-27T15:17:41Z</time>
      </trkpt>
      <trkpt lat="42.77898" lon="1.48317">
        <ele>935</ele>
        <time>2019-04-27T15:17:42Z</time>
      </trkpt>
      <trkpt lat="42.779" lon="1.48316">
        <ele>935</ele>
        <time>2019-04-27T15:17:43Z</time>
      </trkpt>
      <trkpt lat="42.77902" lon="1.48314">
        <ele>935</ele>
        <time>2019-04-27T15:17:44Z</time>
      </trkpt>
      <trkpt lat="42.77903" lon="1.48311">
        <ele>935</ele>
        <time>2019-04-27T15:17:45Z</time>
      </trkpt>
      <trkpt lat="42.77904" lon="1.48307">
        <ele>935</ele>
        <time>2019-04-27T15:17:46Z</time>
      </trkpt>
      <trkpt lat="42.77905" lon="1.48303">
        <ele>935</ele>
        <time>2019-04-27T15:17:47Z</time>
      </trkpt>
      <trkpt lat="42.77907" lon="1.483">
        <ele>935</ele>
        <time>2019-04-27T15:17:48Z</time>
      </trkpt>
      <trkpt lat="42.77908" lon="1.48296">
        <ele>935</ele>
        <time>2019-04-27T15:17:49Z</time>
      </trkpt>
      <trkpt lat="42.77909" lon="1.48292">
        <ele>934</ele>
        <time>2019-04-27T15:17:50Z</time>
      </trkpt>
      <trkpt lat="42.7791" lon="1.48289">
        <ele>934</ele>
        <time>2019-04-27T15:17:51Z</time>
      </trkpt>
      <trkpt lat="42.77912" lon="1.48285">
        <ele>934</ele>
        <time>2019-04-27T15:17:52Z</time>
      </trkpt>
      <trkpt lat="42.77914" lon="1.48282">
        <ele>934</ele>
        <time>2019-04-27T15:17:53Z</time>
      </trkpt>
      <trkpt lat="42.77916" lon="1.48279">
        <ele>934</ele>
        <time>2019-04-27T15:17:54Z</time>
      </trkpt>
      <trkpt lat="42.77918" lon="1.48277">
        <ele>933</ele>
        <time>2019-04-27T15:17:55Z</time>
      </trkpt>
      <trkpt lat="42.77921" lon="1.48275">
        <ele>933</ele>
        <time>2019-04-27T15:17:56Z</time>
      </trkpt>
      <trkpt lat="42.77924" lon="1.48273">
        <ele>933</ele>
        <time>2019-04-27T15:17:57Z</time>
      </trkpt>
      <trkpt lat="42.77925" lon="1.48268">
        <ele>933</ele>
        <time>2019-04-27T15:17:58Z</time>
      </trkpt>
      <trkpt lat="42.77926" lon="1.48265">
        <ele>933</ele>
        <time>2019-04-27T15:17:59Z</time>
      </trkpt>
      <trkpt lat="42.77928" lon="1.48261">
        <ele>933</ele>
        <time>2019-04-27T15:18:00Z</time>
      </trkpt>
      <trkpt lat="42.7793" lon="1.48259">
        <ele>933</ele>
        <time>2019-04-27T15:18:01Z</time>
      </trkpt>
      <trkpt lat="42.77932" lon="1.48256">
        <ele>934</ele>
        <time>2019-04-27T15:18:02Z</time>
      </trkpt>
      <trkpt lat="42.77934" lon="1.48252">
        <ele>934</ele>
        <time>2019-04-27T15:18:03Z</time>
      </trkpt>
      <trkpt lat="42.77936" lon="1.4825">
        <ele>934</ele>
        <time>2019-04-27T15:18:04Z</time>
      </trkpt>
      <trkpt lat="42.77939" lon="1.48248">
        <ele>934</ele>
        <time>2019-04-27T15:18:05Z</time>
      </trkpt>
      <trkpt lat="42.7794" lon="1.48245">
        <ele>933</ele>
        <time>2019-04-27T15:18:06Z</time>
      </trkpt>
      <trkpt lat="42.77941" lon="1.4824">
        <ele>933</ele>
        <time>2019-04-27T15:18:07Z</time>
      </trkpt>
      <trkpt lat="42.77942" lon="1.48237">
        <ele>933</ele>
        <time>2019-04-27T15:18:08Z</time>
      </trkpt>
      <trkpt lat="42.77943" lon="1.48234">
        <ele>933</ele>
        <time>2019-04-27T15:18:09Z</time>
      </trkpt>
      <trkpt lat="42.77945" lon="1.48231">
        <ele>934</ele>
        <time>2019-04-27T15:18:10Z</time>
      </trkpt>
      <trkpt lat="42.77947" lon="1.48228">
        <ele>934</ele>
        <time>2019-04-27T15:18:11Z</time>
      </trkpt>
      <trkpt lat="42.7795" lon="1.48226">
        <ele>934</ele>
        <time>2019-04-27T15:18:15Z</time>
      </trkpt>
      <trkpt lat="42.77959" lon="1.48204">
        <ele>934</ele>
        <time>2019-04-27T15:18:17Z</time>
      </trkpt>
      <trkpt lat="42.7796" lon="1.482">
        <ele>934</ele>
        <time>2019-04-27T15:18:18Z</time>
      </trkpt>
      <trkpt lat="42.77961" lon="1.48197">
        <ele>934</ele>
        <time>2019-04-27T15:18:19Z</time>
      </trkpt>
      <trkpt lat="42.77962" lon="1.48193">
        <ele>934</ele>
        <time>2019-04-27T15:18:20Z</time>
      </trkpt>
      <trkpt lat="42.77962" lon="1.4819">
        <ele>934</ele>
        <time>2019-04-27T15:18:21Z</time>
      </trkpt>
      <trkpt lat="42.77963" lon="1.48186">
        <ele>934</ele>
        <time>2019-04-27T15:18:22Z</time>
      </trkpt>
      <trkpt lat="42.77964" lon="1.48183">
        <ele>934</ele>
        <time>2019-04-27T15:18:23Z</time>
      </trkpt>
      <trkpt lat="42.77965" lon="1.48179">
        <ele>934</ele>
        <time>2019-04-27T15:18:24Z</time>
      </trkpt>
      <trkpt lat="42.77967" lon="1.48174">
        <ele>934</ele>
        <time>2019-04-27T15:18:25Z</time>
      </trkpt>
      <trkpt lat="42.77969" lon="1.48169">
        <ele>934</ele>
        <time>2019-04-27T15:18:26Z</time>
      </trkpt>
      <trkpt lat="42.77972" lon="1.48165">
        <ele>934</ele>
        <time>2019-04-27T15:18:27Z</time>
      </trkpt>
      <trkpt lat="42.77974" lon="1.48161">
        <ele>934</ele>
        <time>2019-04-27T15:18:28Z</time>
      </trkpt>
      <trkpt lat="42.77978" lon="1.48159">
        <ele>935</ele>
        <time>2019-04-27T15:18:29Z</time>
      </trkpt>
      <trkpt lat="42.77982" lon="1.48156">
        <ele>936</ele>
        <time>2019-04-27T15:18:30Z</time>
      </trkpt>
      <trkpt lat="42.77986" lon="1.48155">
        <ele>937</ele>
        <time>2019-04-27T15:18:31Z</time>
      </trkpt>
      <trkpt lat="42.77989" lon="1.48152">
        <ele>938</ele>
        <time>2019-04-27T15:18:32Z</time>
      </trkpt>
      <trkpt lat="42.77993" lon="1.4815">
        <ele>938</ele>
        <time>2019-04-27T15:18:33Z</time>
      </trkpt>
      <trkpt lat="42.77997" lon="1.48147">
        <ele>938</ele>
        <time>2019-04-27T15:18:34Z</time>
      </trkpt>
      <trkpt lat="42.78001" lon="1.48145">
        <ele>938</ele>
        <time>2019-04-27T15:18:35Z</time>
      </trkpt>
      <trkpt lat="42.78005" lon="1.48142">
        <ele>938</ele>
        <time>2019-04-27T15:18:36Z</time>
      </trkpt>
      <trkpt lat="42.78008" lon="1.48139">
        <ele>939</ele>
        <time>2019-04-27T15:18:37Z</time>
      </trkpt>
      <trkpt lat="42.78013" lon="1.48137">
        <ele>939</ele>
        <time>2019-04-27T15:18:38Z</time>
      </trkpt>
      <trkpt lat="42.78017" lon="1.48134">
        <ele>939</ele>
        <time>2019-04-27T15:18:39Z</time>
      </trkpt>
      <trkpt lat="42.7802" lon="1.48131">
        <ele>939</ele>
        <time>2019-04-27T15:18:40Z</time>
      </trkpt>
      <trkpt lat="42.78024" lon="1.48128">
        <ele>939</ele>
        <time>2019-04-27T15:18:41Z</time>
      </trkpt>
      <trkpt lat="42.78027" lon="1.48124">
        <ele>940</ele>
        <time>2019-04-27T15:18:42Z</time>
      </trkpt>
      <trkpt lat="42.7803" lon="1.48121">
        <ele>941</ele>
        <time>2019-04-27T15:18:43Z</time>
      </trkpt>
      <trkpt lat="42.78034" lon="1.48118">
        <ele>942</ele>
        <time>2019-04-27T15:18:44Z</time>
      </trkpt>
      <trkpt lat="42.78038" lon="1.48115">
        <ele>943</ele>
        <time>2019-04-27T15:18:45Z</time>
      </trkpt>
      <trkpt lat="42.78042" lon="1.48112">
        <ele>943</ele>
        <time>2019-04-27T15:18:46Z</time>
      </trkpt>
      <trkpt lat="42.78046" lon="1.4811">
        <ele>943</ele>
        <time>2019-04-27T15:18:47Z</time>
      </trkpt>
      <trkpt lat="42.7805" lon="1.48108">
        <ele>943</ele>
        <time>2019-04-27T15:18:48Z</time>
      </trkpt>
      <trkpt lat="42.78054" lon="1.48106">
        <ele>944</ele>
        <time>2019-04-27T15:18:49Z</time>
      </trkpt>
      <trkpt lat="42.78056" lon="1.48105">
        <ele>944</ele>
        <time>2019-04-27T15:18:50Z</time>
      </trkpt>
      <trkpt lat="42.78059" lon="1.48103">
        <ele>945</ele>
        <time>2019-04-27T15:18:51Z</time>
      </trkpt>
      <trkpt lat="42.78062" lon="1.48103">
        <ele>945</ele>
        <time>2019-04-27T15:18:52Z</time>
      </trkpt>
      <trkpt lat="42.78066" lon="1.481">
        <ele>945</ele>
        <time>2019-04-27T15:18:53Z</time>
      </trkpt>
      <trkpt lat="42.7807" lon="1.48098">
        <ele>945</ele>
        <time>2019-04-27T15:18:54Z</time>
      </trkpt>
      <trkpt lat="42.78074" lon="1.48097">
        <ele>945</ele>
        <time>2019-04-27T15:18:55Z</time>
      </trkpt>
      <trkpt lat="42.78078" lon="1.48094">
        <ele>946</ele>
        <time>2019-04-27T15:18:56Z</time>
      </trkpt>
      <trkpt lat="42.78082" lon="1.48092">
        <ele>946</ele>
        <time>2019-04-27T15:18:57Z</time>
      </trkpt>
      <trkpt lat="42.78086" lon="1.4809">
        <ele>947</ele>
        <time>2019-04-27T15:18:58Z</time>
      </trkpt>
      <trkpt lat="42.78091" lon="1.48088">
        <ele>947</ele>
        <time>2019-04-27T15:18:59Z</time>
      </trkpt>
      <trkpt lat="42.78136" lon="1.48071">
        <ele>949</ele>
        <time>2019-04-27T15:19:10Z</time>
      </trkpt>
      <trkpt lat="42.78141" lon="1.4807">
        <ele>949</ele>
        <time>2019-04-27T15:19:11Z</time>
      </trkpt>
      <trkpt lat="42.78144" lon="1.48069">
        <ele>950</ele>
        <time>2019-04-27T15:19:12Z</time>
      </trkpt>
      <trkpt lat="42.78148" lon="1.48068">
        <ele>950</ele>
        <time>2019-04-27T15:19:13Z</time>
      </trkpt>
      <trkpt lat="42.78151" lon="1.48066">
        <ele>950</ele>
        <time>2019-04-27T15:19:14Z</time>
      </trkpt>
      <trkpt lat="42.78155" lon="1.48065">
        <ele>950</ele>
        <time>2019-04-27T15:19:15Z</time>
      </trkpt>
      <trkpt lat="42.78159" lon="1.48064">
        <ele>950</ele>
        <time>2019-04-27T15:19:16Z</time>
      </trkpt>
      <trkpt lat="42.78162" lon="1.48062">
        <ele>951</ele>
        <time>2019-04-27T15:19:17Z</time>
      </trkpt>
      <trkpt lat="42.78165" lon="1.48061">
        <ele>951</ele>
        <time>2019-04-27T15:19:18Z</time>
      </trkpt>
      <trkpt lat="42.78168" lon="1.4806">
        <ele>952</ele>
        <time>2019-04-27T15:19:19Z</time>
      </trkpt>
      <trkpt lat="42.78172" lon="1.48058">
        <ele>953</ele>
        <time>2019-04-27T15:19:20Z</time>
      </trkpt>
      <trkpt lat="42.78175" lon="1.48056">
        <ele>953</ele>
        <time>2019-04-27T15:19:21Z</time>
      </trkpt>
      <trkpt lat="42.78179" lon="1.48055">
        <ele>953</ele>
        <time>2019-04-27T15:19:22Z</time>
      </trkpt>
      <trkpt lat="42.78182" lon="1.48054">
        <ele>954</ele>
        <time>2019-04-27T15:19:23Z</time>
      </trkpt>
      <trkpt lat="42.78185" lon="1.48052">
        <ele>954</ele>
        <time>2019-04-27T15:19:24Z</time>
      </trkpt>
      <trkpt lat="42.78188" lon="1.48049">
        <ele>956</ele>
        <time>2019-04-27T15:19:29Z</time>
      </trkpt>
      <trkpt lat="42.7819" lon="1.48047">
        <ele>956</ele>
        <time>2019-04-27T15:19:31Z</time>
      </trkpt>
      <trkpt lat="42.78194" lon="1.48045">
        <ele>956</ele>
        <time>2019-04-27T15:19:32Z</time>
      </trkpt>
      <trkpt lat="42.78197" lon="1.48044">
        <ele>957</ele>
        <time>2019-04-27T15:19:33Z</time>
      </trkpt>
      <trkpt lat="42.78201" lon="1.48042">
        <ele>957</ele>
        <time>2019-04-27T15:19:34Z</time>
      </trkpt>
      <trkpt lat="42.78204" lon="1.48041">
        <ele>958</ele>
        <time>2019-04-27T15:19:35Z</time>
      </trkpt>
      <trkpt lat="42.78207" lon="1.48039">
        <ele>958</ele>
        <time>2019-04-27T15:19:36Z</time>
      </trkpt>
      <trkpt lat="42.7821" lon="1.48037">
        <ele>959</ele>
        <time>2019-04-27T15:19:37Z</time>
      </trkpt>
      <trkpt lat="42.78213" lon="1.48035">
        <ele>960</ele>
        <time>2019-04-27T15:19:38Z</time>
      </trkpt>
      <trkpt lat="42.78216" lon="1.48034">
        <ele>960</ele>
        <time>2019-04-27T15:19:39Z</time>
      </trkpt>
      <trkpt lat="42.78219" lon="1.48033">
        <ele>960</ele>
        <time>2019-04-27T15:19:40Z</time>
      </trkpt>
      <trkpt lat="42.78222" lon="1.48033">
        <ele>960</ele>
        <time>2019-04-27T15:19:41Z</time>
      </trkpt>
      <trkpt lat="42.78225" lon="1.48032">
        <ele>961</ele>
        <time>2019-04-27T15:19:42Z</time>
      </trkpt>
      <trkpt lat="42.78228" lon="1.48031">
        <ele>961</ele>
        <time>2019-04-27T15:19:43Z</time>
      </trkpt>
      <trkpt lat="42.78231" lon="1.4803">
        <ele>961</ele>
        <time>2019-04-27T15:19:44Z</time>
      </trkpt>
      <trkpt lat="42.78234" lon="1.48031">
        <ele>962</ele>
        <time>2019-04-27T15:19:45Z</time>
      </trkpt>
      <trkpt lat="42.78238" lon="1.48032">
        <ele>962</ele>
        <time>2019-04-27T15:19:46Z</time>
      </trkpt>
      <trkpt lat="42.7824" lon="1.48033">
        <ele>962</ele>
        <time>2019-04-27T15:19:47Z</time>
      </trkpt>
      <trkpt lat="42.78243" lon="1.48032">
        <ele>962</ele>
        <time>2019-04-27T15:19:48Z</time>
      </trkpt>
      <trkpt lat="42.78246" lon="1.48031">
        <ele>962</ele>
        <time>2019-04-27T15:19:49Z</time>
      </trkpt>
      <trkpt lat="42.78249" lon="1.48032">
        <ele>962</ele>
        <time>2019-04-27T15:19:50Z</time>
      </trkpt>
      <trkpt lat="42.78253" lon="1.48032">
        <ele>962</ele>
        <time>2019-04-27T15:19:51Z</time>
      </trkpt>
      <trkpt lat="42.78256" lon="1.48034">
        <ele>962</ele>
        <time>2019-04-27T15:19:52Z</time>
      </trkpt>
      <trkpt lat="42.78259" lon="1.48035">
        <ele>962</ele>
        <time>2019-04-27T15:19:53Z</time>
      </trkpt>
      <trkpt lat="42.78262" lon="1.48035">
        <ele>962</ele>
        <time>2019-04-27T15:19:54Z</time>
      </trkpt>
      <trkpt lat="42.78264" lon="1.48036">
        <ele>962</ele>
        <time>2019-04-27T15:19:55Z</time>
      </trkpt>
      <trkpt lat="42.78266" lon="1.48037">
        <ele>962</ele>
        <time>2019-04-27T15:19:56Z</time>
      </trkpt>
      <trkpt lat="42.78268" lon="1.48039">
        <ele>962</ele>
        <time>2019-04-27T15:19:57Z</time>
      </trkpt>
      <trkpt lat="42.7827" lon="1.48041">
        <ele>962</ele>
        <time>2019-04-27T15:19:58Z</time>
      </trkpt>
      <trkpt lat="42.78271" lon="1.48042">
        <ele>962</ele>
        <time>2019-04-27T15:19:59Z</time>
      </trkpt>
      <trkpt lat="42.78273" lon="1.48044">
        <ele>962</ele>
        <time>2019-04-27T15:20:00Z</time>
      </trkpt>
      <trkpt lat="42.78275" lon="1.48046">
        <ele>962</ele>
        <time>2019-04-27T15:20:01Z</time>
      </trkpt>
      <trkpt lat="42.78275" lon="1.48049">
        <ele>962</ele>
        <time>2019-04-27T15:20:02Z</time>
      </trkpt>
      <trkpt lat="42.78276" lon="1.48051">
        <ele>962</ele>
        <time>2019-04-27T15:20:03Z</time>
      </trkpt>
      <trkpt lat="42.78275" lon="1.48053">
        <ele>963</ele>
        <time>2019-04-27T15:20:04Z</time>
      </trkpt>
      <trkpt lat="42.78275" lon="1.48055">
        <ele>963</ele>
        <time>2019-04-27T15:20:05Z</time>
      </trkpt>
      <trkpt lat="42.78277" lon="1.48057">
        <ele>963</ele>
        <time>2019-04-27T15:20:06Z</time>
      </trkpt>
      <trkpt lat="42.78281" lon="1.4806">
        <ele>963</ele>
        <time>2019-04-27T15:20:07Z</time>
      </trkpt>
      <trkpt lat="42.78283" lon="1.48061">
        <ele>964</ele>
        <time>2019-04-27T15:20:08Z</time>
      </trkpt>
      <trkpt lat="42.78285" lon="1.48063">
        <ele>965</ele>
        <time>2019-04-27T15:20:09Z</time>
      </trkpt>
      <trkpt lat="42.78287" lon="1.48066">
        <ele>966</ele>
        <time>2019-04-27T15:20:10Z</time>
      </trkpt>
      <trkpt lat="42.78288" lon="1.48067">
        <ele>967</ele>
        <time>2019-04-27T15:20:11Z</time>
      </trkpt>
      <trkpt lat="42.78288" lon="1.48069">
        <ele>968</ele>
        <time>2019-04-27T15:20:12Z</time>
      </trkpt>
      <trkpt lat="42.78288" lon="1.48071">
        <ele>968</ele>
        <time>2019-04-27T15:20:13Z</time>
      </trkpt>
      <trkpt lat="42.78289" lon="1.48074">
        <ele>968</ele>
        <time>2019-04-27T15:20:14Z</time>
      </trkpt>
      <trkpt lat="42.78289" lon="1.48076">
        <ele>968</ele>
        <time>2019-04-27T15:20:15Z</time>
      </trkpt>
      <trkpt lat="42.78292" lon="1.48077">
        <ele>969</ele>
        <time>2019-04-27T15:20:16Z</time>
      </trkpt>
      <trkpt lat="42.78292" lon="1.48079">
        <ele>970</ele>
        <time>2019-04-27T15:20:17Z</time>
      </trkpt>
      <trkpt lat="42.78294" lon="1.48081">
        <ele>970</ele>
        <time>2019-04-27T15:20:18Z</time>
      </trkpt>
      <trkpt lat="42.78297" lon="1.48083">
        <ele>970</ele>
        <time>2019-04-27T15:20:19Z</time>
      </trkpt>
      <trkpt lat="42.783" lon="1.48084">
        <ele>970</ele>
        <time>2019-04-27T15:20:20Z</time>
      </trkpt>
      <trkpt lat="42.78302" lon="1.48086">
        <ele>971</ele>
        <time>2019-04-27T15:20:21Z</time>
      </trkpt>
      <trkpt lat="42.78306" lon="1.48087">
        <ele>972</ele>
        <time>2019-04-27T15:20:22Z</time>
      </trkpt>
      <trkpt lat="42.7831" lon="1.48088">
        <ele>972</ele>
        <time>2019-04-27T15:20:23Z</time>
      </trkpt>
      <trkpt lat="42.78314" lon="1.48089">
        <ele>973</ele>
        <time>2019-04-27T15:20:24Z</time>
      </trkpt>
      <trkpt lat="42.78319" lon="1.4809">
        <ele>973</ele>
        <time>2019-04-27T15:20:25Z</time>
      </trkpt>
      <trkpt lat="42.78322" lon="1.48091">
        <ele>973</ele>
        <time>2019-04-27T15:20:26Z</time>
      </trkpt>
      <trkpt lat="42.78325" lon="1.48091">
        <ele>973</ele>
        <time>2019-04-27T15:20:27Z</time>
      </trkpt>
      <trkpt lat="42.78329" lon="1.48091">
        <ele>973</ele>
        <time>2019-04-27T15:20:28Z</time>
      </trkpt>
      <trkpt lat="42.78333" lon="1.48091">
        <ele>973</ele>
        <time>2019-04-27T15:20:29Z</time>
      </trkpt>
      <trkpt lat="42.78336" lon="1.4809">
        <ele>973</ele>
        <time>2019-04-27T15:20:30Z</time>
      </trkpt>
      <trkpt lat="42.7834" lon="1.48089">
        <ele>973</ele>
        <time>2019-04-27T15:20:31Z</time>
      </trkpt>
      <trkpt lat="42.78343" lon="1.48088">
        <ele>973</ele>
        <time>2019-04-27T15:20:32Z</time>
      </trkpt>
      <trkpt lat="42.78345" lon="1.48086">
        <ele>973</ele>
        <time>2019-04-27T15:20:33Z</time>
      </trkpt>
      <trkpt lat="42.78347" lon="1.48084">
        <ele>973</ele>
        <time>2019-04-27T15:20:34Z</time>
      </trkpt>
      <trkpt lat="42.7835" lon="1.48082">
        <ele>973</ele>
        <time>2019-04-27T15:20:35Z</time>
      </trkpt>
      <trkpt lat="42.78352" lon="1.48078">
        <ele>973</ele>
        <time>2019-04-27T15:20:36Z</time>
      </trkpt>
      <trkpt lat="42.78353" lon="1.48075">
        <ele>973</ele>
        <time>2019-04-27T15:20:37Z</time>
      </trkpt>
      <trkpt lat="42.78355" lon="1.48072">
        <ele>973</ele>
        <time>2019-04-27T15:20:38Z</time>
      </trkpt>
      <trkpt lat="42.78367" lon="1.48025">
        <ele>980</ele>
        <time>2019-04-27T15:20:51Z</time>
      </trkpt>
      <trkpt lat="42.78366" lon="1.48022">
        <ele>980</ele>
        <time>2019-04-27T15:20:52Z</time>
      </trkpt>
      <trkpt lat="42.78366" lon="1.48018">
        <ele>981</ele>
        <time>2019-04-27T15:20:53Z</time>
      </trkpt>
      <trkpt lat="42.78365" lon="1.48015">
        <ele>981</ele>
        <time>2019-04-27T15:20:54Z</time>
      </trkpt>
      <trkpt lat="42.78364" lon="1.48011">
        <ele>981</ele>
        <time>2019-04-27T15:20:55Z</time>
      </trkpt>
      <trkpt lat="42.78363" lon="1.48008">
        <ele>982</ele>
        <time>2019-04-27T15:20:56Z</time>
      </trkpt>
      <trkpt lat="42.78362" lon="1.48005">
        <ele>982</ele>
        <time>2019-04-27T15:20:57Z</time>
      </trkpt>
      <trkpt lat="42.78362" lon="1.48002">
        <ele>982</ele>
        <time>2019-04-27T15:20:58Z</time>
      </trkpt>
      <trkpt lat="42.78361" lon="1.47998">
        <ele>983</ele>
        <time>2019-04-27T15:20:59Z</time>
      </trkpt>
      <trkpt lat="42.78359" lon="1.47996">
        <ele>983</ele>
        <time>2019-04-27T15:21:00Z</time>
      </trkpt>
      <trkpt lat="42.78358" lon="1.47994">
        <ele>983</ele>
        <time>2019-04-27T15:21:01Z</time>
      </trkpt>
      <trkpt lat="42.78357" lon="1.47991">
        <ele>983</ele>
        <time>2019-04-27T15:21:02Z</time>
      </trkpt>
      <trkpt lat="42.78356" lon="1.47988">
        <ele>983</ele>
        <time>2019-04-27T15:21:03Z</time>
      </trkpt>
      <trkpt lat="42.78355" lon="1.47986">
        <ele>983</ele>
        <time>2019-04-27T15:21:04Z</time>
      </trkpt>
      <trkpt lat="42.78355" lon="1.47983">
        <ele>983</ele>
        <time>2019-04-27T15:21:05Z</time>
      </trkpt>
      <trkpt lat="42.78353" lon="1.4798">
        <ele>983</ele>
        <time>2019-04-27T15:21:06Z</time>
      </trkpt>
      <trkpt lat="42.78353" lon="1.47978">
        <ele>983</ele>
        <time>2019-04-27T15:21:07Z</time>
      </trkpt>
      <trkpt lat="42.78352" lon="1.47976">
        <ele>983</ele>
        <time>2019-04-27T15:21:08Z</time>
      </trkpt>
      <trkpt lat="42.78351" lon="1.47972">
        <ele>983</ele>
        <time>2019-04-27T15:21:09Z</time>
      </trkpt>
      <trkpt lat="42.7835" lon="1.47971">
        <ele>984</ele>
        <time>2019-04-27T15:21:10Z</time>
      </trkpt>
      <trkpt lat="42.78349" lon="1.47969">
        <ele>984</ele>
        <time>2019-04-27T15:21:11Z</time>
      </trkpt>
      <trkpt lat="42.78348" lon="1.47966">
        <ele>984</ele>
        <time>2019-04-27T15:21:12Z</time>
      </trkpt>
      <trkpt lat="42.78347" lon="1.47962">
        <ele>984</ele>
        <time>2019-04-27T15:21:13Z</time>
      </trkpt>
      <trkpt lat="42.78347" lon="1.47958">
        <ele>984</ele>
        <time>2019-04-27T15:21:14Z</time>
      </trkpt>
      <trkpt lat="42.7833" lon="1.47918">
        <ele>984</ele>
        <time>2019-04-27T15:21:26Z</time>
      </trkpt>
      <trkpt lat="42.78329" lon="1.47915">
        <ele>984</ele>
        <time>2019-04-27T15:21:27Z</time>
      </trkpt>
      <trkpt lat="42.78328" lon="1.47913">
        <ele>984</ele>
        <time>2019-04-27T15:21:28Z</time>
      </trkpt>
      <trkpt lat="42.78327" lon="1.4791">
        <ele>984</ele>
        <time>2019-04-27T15:21:29Z</time>
      </trkpt>
      <trkpt lat="42.78326" lon="1.47908">
        <ele>984</ele>
        <time>2019-04-27T15:21:30Z</time>
      </trkpt>
      <trkpt lat="42.78327" lon="1.47903">
        <ele>984</ele>
        <time>2019-04-27T15:21:31Z</time>
      </trkpt>
      <trkpt lat="42.78328" lon="1.47901">
        <ele>984</ele>
        <time>2019-04-27T15:21:32Z</time>
      </trkpt>
      <trkpt lat="42.78328" lon="1.47897">
        <ele>986</ele>
        <time>2019-04-27T15:21:33Z</time>
      </trkpt>
      <trkpt lat="42.78327" lon="1.47893">
        <ele>986</ele>
        <time>2019-04-27T15:21:34Z</time>
      </trkpt>
      <trkpt lat="42.78326" lon="1.47889">
        <ele>986</ele>
        <time>2019-04-27T15:21:35Z</time>
      </trkpt>
      <trkpt lat="42.78325" lon="1.47886">
        <ele>986</ele>
        <time>2019-04-27T15:21:36Z</time>
      </trkpt>
      <trkpt lat="42.78324" lon="1.47883">
        <ele>987</ele>
        <time>2019-04-27T15:21:37Z</time>
      </trkpt>
      <trkpt lat="42.78323" lon="1.4788">
        <ele>987</ele>
        <time>2019-04-27T15:21:38Z</time>
      </trkpt>
      <trkpt lat="42.78321" lon="1.47878">
        <ele>987</ele>
        <time>2019-04-27T15:21:39Z</time>
      </trkpt>
      <trkpt lat="42.78318" lon="1.47876">
        <ele>987</ele>
        <time>2019-04-27T15:21:40Z</time>
      </trkpt>
      <trkpt lat="42.78316" lon="1.47874">
        <ele>988</ele>
        <time>2019-04-27T15:21:41Z</time>
      </trkpt>
      <trkpt lat="42.78314" lon="1.47872">
        <ele>988</ele>
        <time>2019-04-27T15:21:42Z</time>
      </trkpt>
      <trkpt lat="42.78312" lon="1.47869">
        <ele>988</ele>
        <time>2019-04-27T15:21:43Z</time>
      </trkpt>
      <trkpt lat="42.78309" lon="1.47867">
        <ele>988</ele>
        <time>2019-04-27T15:21:44Z</time>
      </trkpt>
      <trkpt lat="42.78307" lon="1.47865">
        <ele>988</ele>
        <time>2019-04-27T15:21:45Z</time>
      </trkpt>
      <trkpt lat="42.78304" lon="1.47863">
        <ele>989</ele>
        <time>2019-04-27T15:21:46Z</time>
      </trkpt>
      <trkpt lat="42.78301" lon="1.47861">
        <ele>989</ele>
        <time>2019-04-27T15:21:47Z</time>
      </trkpt>
      <trkpt lat="42.78297" lon="1.47858">
        <ele>989</ele>
        <time>2019-04-27T15:21:48Z</time>
      </trkpt>
      <trkpt lat="42.78295" lon="1.47856">
        <ele>989</ele>
        <time>2019-04-27T15:21:49Z</time>
      </trkpt>
      <trkpt lat="42.78293" lon="1.47853">
        <ele>989</ele>
        <time>2019-04-27T15:21:50Z</time>
      </trkpt>
      <trkpt lat="42.78291" lon="1.47849">
        <ele>990</ele>
        <time>2019-04-27T15:21:51Z</time>
      </trkpt>
      <trkpt lat="42.78288" lon="1.47846">
        <ele>991</ele>
        <time>2019-04-27T15:21:52Z</time>
      </trkpt>
      <trkpt lat="42.78286" lon="1.47842">
        <ele>991</ele>
        <time>2019-04-27T15:21:53Z</time>
      </trkpt>
      <trkpt lat="42.78285" lon="1.47838">
        <ele>991</ele>
        <time>2019-04-27T15:21:55Z</time>
      </trkpt>
      <trkpt lat="42.78283" lon="1.47835">
        <ele>991</ele>
        <time>2019-04-27T15:21:57Z</time>
      </trkpt>
      <trkpt lat="42.78282" lon="1.47831">
        <ele>992</ele>
        <time>2019-04-27T15:21:58Z</time>
      </trkpt>
      <trkpt lat="42.7828" lon="1.47826">
        <ele>992</ele>
        <time>2019-04-27T15:21:59Z</time>
      </trkpt>
      <trkpt lat="42.78279" lon="1.47822">
        <ele>992</ele>
        <time>2019-04-27T15:22:00Z</time>
      </trkpt>
      <trkpt lat="42.78278" lon="1.47818">
        <ele>993</ele>
        <time>2019-04-27T15:22:01Z</time>
      </trkpt>
      <trkpt lat="42.78277" lon="1.47813">
        <ele>993</ele>
        <time>2019-04-27T15:22:02Z</time>
      </trkpt>
      <trkpt lat="42.78275" lon="1.47809">
        <ele>993</ele>
        <time>2019-04-27T15:22:03Z</time>
      </trkpt>
      <trkpt lat="42.78274" lon="1.47805">
        <ele>992</ele>
        <time>2019-04-27T15:22:04Z</time>
      </trkpt>
      <trkpt lat="42.78272" lon="1.47801">
        <ele>991</ele>
        <time>2019-04-27T15:22:05Z</time>
      </trkpt>
      <trkpt lat="42.78271" lon="1.47796">
        <ele>991</ele>
        <time>2019-04-27T15:22:06Z</time>
      </trkpt>
      <trkpt lat="42.78269" lon="1.47792">
        <ele>991</ele>
        <time>2019-04-27T15:22:07Z</time>
      </trkpt>
      <trkpt lat="42.78267" lon="1.47788">
        <ele>991</ele>
        <time>2019-04-27T15:22:08Z</time>
      </trkpt>
      <trkpt lat="42.78265" lon="1.47784">
        <ele>991</ele>
        <time>2019-04-27T15:22:09Z</time>
      </trkpt>
      <trkpt lat="42.78263" lon="1.4778">
        <ele>992</ele>
        <time>2019-04-27T15:22:10Z</time>
      </trkpt>
      <trkpt lat="42.78261" lon="1.47775">
        <ele>993</ele>
        <time>2019-04-27T15:22:11Z</time>
      </trkpt>
      <trkpt lat="42.78259" lon="1.47771">
        <ele>993</ele>
        <time>2019-04-27T15:22:12Z</time>
      </trkpt>
      <trkpt lat="42.78256" lon="1.47767">
        <ele>993</ele>
        <time>2019-04-27T15:22:13Z</time>
      </trkpt>
      <trkpt lat="42.78237" lon="1.47742">
        <ele>993</ele>
        <time>2019-04-27T15:22:20Z</time>
      </trkpt>
      <trkpt lat="42.78234" lon="1.47739">
        <ele>993</ele>
        <time>2019-04-27T15:22:21Z</time>
      </trkpt>
      <trkpt lat="42.78231" lon="1.47736">
        <ele>993</ele>
        <time>2019-04-27T15:22:22Z</time>
      </trkpt>
      <trkpt lat="42.78228" lon="1.47733">
        <ele>993</ele>
        <time>2019-04-27T15:22:23Z</time>
      </trkpt>
      <trkpt lat="42.78225" lon="1.4773">
        <ele>993</ele>
        <time>2019-04-27T15:22:24Z</time>
      </trkpt>
      <trkpt lat="42.78222" lon="1.47727">
        <ele>993</ele>
        <time>2019-04-27T15:22:25Z</time>
      </trkpt>
      <trkpt lat="42.78219" lon="1.47724">
        <ele>993</ele>
        <time>2019-04-27T15:22:26Z</time>
      </trkpt>
      <trkpt lat="42.78216" lon="1.47721">
        <ele>993</ele>
        <time>2019-04-27T15:22:27Z</time>
      </trkpt>
      <trkpt lat="42.78214" lon="1.47718">
        <ele>994</ele>
        <time>2019-04-27T15:22:28Z</time>
      </trkpt>
      <trkpt lat="42.78211" lon="1.47716">
        <ele>994</ele>
        <time>2019-04-27T15:22:29Z</time>
      </trkpt>
      <trkpt lat="42.78208" lon="1.47713">
        <ele>994</ele>
        <time>2019-04-27T15:22:30Z</time>
      </trkpt>
      <trkpt lat="42.78206" lon="1.4771">
        <ele>993</ele>
        <time>2019-04-27T15:22:31Z</time>
      </trkpt>
      <trkpt lat="42.78203" lon="1.47708">
        <ele>992</ele>
        <time>2019-04-27T15:22:32Z</time>
      </trkpt>
      <trkpt lat="42.78201" lon="1.47706">
        <ele>991</ele>
        <time>2019-04-27T15:22:33Z</time>
      </trkpt>
      <trkpt lat="42.78199" lon="1.47703">
        <ele>991</ele>
        <time>2019-04-27T15:22:34Z</time>
      </trkpt>
      <trkpt lat="42.78196" lon="1.47701">
        <ele>991</ele>
        <time>2019-04-27T15:22:35Z</time>
      </trkpt>
      <trkpt lat="42.78194" lon="1.47698">
        <ele>991</ele>
        <time>2019-04-27T15:22:36Z</time>
      </trkpt>
      <trkpt lat="42.78193" lon="1.47695">
        <ele>991</ele>
        <time>2019-04-27T15:22:37Z</time>
      </trkpt>
      <trkpt lat="42.78191" lon="1.47692">
        <ele>991</ele>
        <time>2019-04-27T15:22:38Z</time>
      </trkpt>
      <trkpt lat="42.78188" lon="1.47689">
        <ele>990</ele>
        <time>2019-04-27T15:22:39Z</time>
      </trkpt>
      <trkpt lat="42.78188" lon="1.47685">
        <ele>990</ele>
        <time>2019-04-27T15:22:40Z</time>
      </trkpt>
      <trkpt lat="42.78189" lon="1.47682">
        <ele>990</ele>
        <time>2019-04-27T15:22:41Z</time>
      </trkpt>
      <trkpt lat="42.7819" lon="1.47678">
        <ele>989</ele>
        <time>2019-04-27T15:22:42Z</time>
      </trkpt>
      <trkpt lat="42.78192" lon="1.47675">
        <ele>989</ele>
        <time>2019-04-27T15:22:43Z</time>
      </trkpt>
      <trkpt lat="42.78193" lon="1.47671">
        <ele>989</ele>
        <time>2019-04-27T15:22:44Z</time>
      </trkpt>
      <trkpt lat="42.78194" lon="1.47668">
        <ele>989</ele>
        <time>2019-04-27T15:22:45Z</time>
      </trkpt>
      <trkpt lat="42.78196" lon="1.47665">
        <ele>989</ele>
        <time>2019-04-27T15:22:46Z</time>
      </trkpt>
      <trkpt lat="42.78196" lon="1.4766">
        <ele>988</ele>
        <time>2019-04-27T15:22:47Z</time>
      </trkpt>
      <trkpt lat="42.78196" lon="1.47655">
        <ele>987</ele>
        <time>2019-04-27T15:22:48Z</time>
      </trkpt>
      <trkpt lat="42.78195" lon="1.47649">
        <ele>986</ele>
        <time>2019-04-27T15:22:49Z</time>
      </trkpt>
      <trkpt lat="42.78194" lon="1.47642">
        <ele>985</ele>
        <time>2019-04-27T15:22:50Z</time>
      </trkpt>
      <trkpt lat="42.78193" lon="1.47635">
        <ele>984</ele>
        <time>2019-04-27T15:22:51Z</time>
      </trkpt>
      <trkpt lat="42.78193" lon="1.47626">
        <ele>983</ele>
        <time>2019-04-27T15:22:52Z</time>
      </trkpt>
      <trkpt lat="42.78193" lon="1.47617">
        <ele>982</ele>
        <time>2019-04-27T15:22:53Z</time>
      </trkpt>
      <trkpt lat="42.78195" lon="1.47608">
        <ele>981</ele>
        <time>2019-04-27T15:22:54Z</time>
      </trkpt>
      <trkpt lat="42.78196" lon="1.476">
        <ele>981</ele>
        <time>2019-04-27T15:22:55Z</time>
      </trkpt>
      <trkpt lat="42.78199" lon="1.47591">
        <ele>980</ele>
        <time>2019-04-27T15:22:56Z</time>
      </trkpt>
      <trkpt lat="42.78202" lon="1.47585">
        <ele>980</ele>
        <time>2019-04-27T15:22:57Z</time>
      </trkpt>
      <trkpt lat="42.78205" lon="1.47579">
        <ele>980</ele>
        <time>2019-04-27T15:22:58Z</time>
      </trkpt>
      <trkpt lat="42.7821" lon="1.47574">
        <ele>980</ele>
        <time>2019-04-27T15:22:59Z</time>
      </trkpt>
      <trkpt lat="42.78209" lon="1.47569">
        <ele>980</ele>
        <time>2019-04-27T15:23:00Z</time>
      </trkpt>
      <trkpt lat="42.78208" lon="1.47563">
        <ele>980</ele>
        <time>2019-04-27T15:23:01Z</time>
      </trkpt>
      <trkpt lat="42.78216" lon="1.47448">
        <ele>969</ele>
        <time>2019-04-27T15:23:16Z</time>
      </trkpt>
      <trkpt lat="42.78218" lon="1.47441">
        <ele>968</ele>
        <time>2019-04-27T15:23:17Z</time>
      </trkpt>
      <trkpt lat="42.78218" lon="1.47432">
        <ele>968</ele>
        <time>2019-04-27T15:23:18Z</time>
      </trkpt>
      <trkpt lat="42.78219" lon="1.47424">
        <ele>968</ele>
        <time>2019-04-27T15:23:19Z</time>
      </trkpt>
      <trkpt lat="42.78219" lon="1.47416">
        <ele>968</ele>
        <time>2019-04-27T15:23:20Z</time>
      </trkpt>
      <trkpt lat="42.78218" lon="1.47407">
        <ele>968</ele>
        <time>2019-04-27T15:23:21Z</time>
      </trkpt>
      <trkpt lat="42.78218" lon="1.47398">
        <ele>968</ele>
        <time>2019-04-27T15:23:22Z</time>
      </trkpt>
      <trkpt lat="42.78218" lon="1.4739">
        <ele>968</ele>
        <time>2019-04-27T15:23:23Z</time>
      </trkpt>
      <trkpt lat="42.78217" lon="1.47381">
        <ele>968</ele>
        <time>2019-04-27T15:23:24Z</time>
      </trkpt>
      <trkpt lat="42.78217" lon="1.47371">
        <ele>968</ele>
        <time>2019-04-27T15:23:25Z</time>
      </trkpt>
      <trkpt lat="42.78216" lon="1.47362">
        <ele>968</ele>
        <time>2019-04-27T15:23:26Z</time>
      </trkpt>
      <trkpt lat="42.78215" lon="1.47352">
        <ele>968</ele>
        <time>2019-04-27T15:23:27Z</time>
      </trkpt>
      <trkpt lat="42.78215" lon="1.47343">
        <ele>968</ele>
        <time>2019-04-27T15:23:28Z</time>
      </trkpt>
      <trkpt lat="42.78214" lon="1.47333">
        <ele>968</ele>
        <time>2019-04-27T15:23:29Z</time>
      </trkpt>
      <trkpt lat="42.78214" lon="1.47322">
        <ele>968</ele>
        <time>2019-04-27T15:23:30Z</time>
      </trkpt>
      <trkpt lat="42.78215" lon="1.47312">
        <ele>968</ele>
        <time>2019-04-27T15:23:31Z</time>
      </trkpt>
      <trkpt lat="42.78216" lon="1.47302">
        <ele>968</ele>
        <time>2019-04-27T15:23:32Z</time>
      </trkpt>
      <trkpt lat="42.78218" lon="1.47291">
        <ele>968</ele>
        <time>2019-04-27T15:23:33Z</time>
      </trkpt>
      <trkpt lat="42.78219" lon="1.4728">
        <ele>968</ele>
        <time>2019-04-27T15:23:34Z</time>
      </trkpt>
      <trkpt lat="42.78219" lon="1.47269">
        <ele>968</ele>
        <time>2019-04-27T15:23:35Z</time>
      </trkpt>
      <trkpt lat="42.7822" lon="1.47258">
        <ele>968</ele>
        <time>2019-04-27T15:23:36Z</time>
      </trkpt>
      <trkpt lat="42.78219" lon="1.47247">
        <ele>968</ele>
        <time>2019-04-27T15:23:37Z</time>
      </trkpt>
      <trkpt lat="42.78219" lon="1.47235">
        <ele>968</ele>
        <time>2019-04-27T15:23:38Z</time>
      </trkpt>
      <trkpt lat="42.78218" lon="1.47223">
        <ele>967</ele>
        <time>2019-04-27T15:23:39Z</time>
      </trkpt>
      <trkpt lat="42.78217" lon="1.47211">
        <ele>966</ele>
        <time>2019-04-27T15:23:40Z</time>
      </trkpt>
      <trkpt lat="42.78218" lon="1.47198">
        <ele>965</ele>
        <time>2019-04-27T15:23:41Z</time>
      </trkpt>
      <trkpt lat="42.78217" lon="1.47185">
        <ele>964</ele>
        <time>2019-04-27T15:23:42Z</time>
      </trkpt>
      <trkpt lat="42.78218" lon="1.47172">
        <ele>964</ele>
        <time>2019-04-27T15:23:43Z</time>
      </trkpt>
      <trkpt lat="42.78218" lon="1.47158">
        <ele>964</ele>
        <time>2019-04-27T15:23:44Z</time>
      </trkpt>
      <trkpt lat="42.78219" lon="1.47144">
        <ele>964</ele>
        <time>2019-04-27T15:23:45Z</time>
      </trkpt>
      <trkpt lat="42.7822" lon="1.47131">
        <ele>964</ele>
        <time>2019-04-27T15:23:46Z</time>
      </trkpt>
      <trkpt lat="42.7822" lon="1.47116">
        <ele>964</ele>
        <time>2019-04-27T15:23:47Z</time>
      </trkpt>
      <trkpt lat="42.78221" lon="1.47102">
        <ele>964</ele>
        <time>2019-04-27T15:23:48Z</time>
      </trkpt>
      <trkpt lat="42.7822" lon="1.46998">
        <ele>963</ele>
        <time>2019-04-27T15:23:55Z</time>
      </trkpt>
      <trkpt lat="42.78221" lon="1.46983">
        <ele>963</ele>
        <time>2019-04-27T15:23:56Z</time>
      </trkpt>
      <trkpt lat="42.78223" lon="1.46968">
        <ele>963</ele>
        <time>2019-04-27T15:23:57Z</time>
      </trkpt>
      <trkpt lat="42.78224" lon="1.46952">
        <ele>963</ele>
        <time>2019-04-27T15:23:58Z</time>
      </trkpt>
      <trkpt lat="42.78226" lon="1.46937">
        <ele>963</ele>
        <time>2019-04-27T15:23:59Z</time>
      </trkpt>
      <trkpt lat="42.78229" lon="1.46923">
        <ele>963</ele>
        <time>2019-04-27T15:24:00Z</time>
      </trkpt>
      <trkpt lat="42.78234" lon="1.46909">
        <ele>963</ele>
        <time>2019-04-27T15:24:01Z</time>
      </trkpt>
      <trkpt lat="42.78241" lon="1.46898">
        <ele>963</ele>
        <time>2019-04-27T15:24:02Z</time>
      </trkpt>
      <trkpt lat="42.78249" lon="1.46887">
        <ele>963</ele>
        <time>2019-04-27T15:24:03Z</time>
      </trkpt>
      <trkpt lat="42.78255" lon="1.46875">
        <ele>963</ele>
        <time>2019-04-27T15:24:04Z</time>
      </trkpt>
      <trkpt lat="42.78261" lon="1.46864">
        <ele>963</ele>
        <time>2019-04-27T15:24:05Z</time>
      </trkpt>
      <trkpt lat="42.78267" lon="1.46852">
        <ele>963</ele>
        <time>2019-04-27T15:24:06Z</time>
      </trkpt>
      <trkpt lat="42.78344" lon="1.46641">
        <ele>965</ele>
        <time>2019-04-27T15:24:28Z</time>
      </trkpt>
      <trkpt lat="42.78343" lon="1.46634">
        <ele>965</ele>
        <time>2019-04-27T15:24:29Z</time>
      </trkpt>
      <trkpt lat="42.78347" lon="1.46627">
        <ele>965</ele>
        <time>2019-04-27T15:24:30Z</time>
      </trkpt>
      <trkpt lat="42.78341" lon="1.46556">
        <ele>965</ele>
        <time>2019-04-27T15:24:41Z</time>
      </trkpt>
      <trkpt lat="42.78342" lon="1.4655">
        <ele>965</ele>
        <time>2019-04-27T15:24:42Z</time>
      </trkpt>
      <trkpt lat="42.78343" lon="1.46545">
        <ele>968</ele>
        <time>2019-04-27T15:25:00Z</time>
      </trkpt>
      <trkpt lat="42.78413" lon="1.4636">
        <ele>975</ele>
        <time>2019-04-27T15:25:32Z</time>
      </trkpt>
      <trkpt lat="42.78548" lon="1.46194">
        <ele>975</ele>
        <time>2019-04-27T15:25:46Z</time>
      </trkpt>
      <trkpt lat="42.78614" lon="1.46113">
        <ele>979</ele>
        <time>2019-04-27T15:26:03Z</time>
      </trkpt>
      <trkpt lat="42.7862" lon="1.46109">
        <ele>979</ele>
        <time>2019-04-27T15:26:04Z</time>
      </trkpt>
      <trkpt lat="42.78624" lon="1.46105">
        <ele>979</ele>
        <time>2019-04-27T15:26:05Z</time>
      </trkpt>
      <trkpt lat="42.78629" lon="1.46102">
        <ele>979</ele>
        <time>2019-04-27T15:26:06Z</time>
      </trkpt>
      <trkpt lat="42.78643" lon="1.46064">
        <ele>979</ele>
        <time>2019-04-27T15:26:16Z</time>
      </trkpt>
      <trkpt lat="42.78649" lon="1.46062">
        <ele>979</ele>
        <time>2019-04-27T15:26:17Z</time>
      </trkpt>
      <trkpt lat="42.78653" lon="1.46057">
        <ele>980</ele>
        <time>2019-04-27T15:26:18Z</time>
      </trkpt>
      <trkpt lat="42.78592" lon="1.45947">
        <ele>985</ele>
        <time>2019-04-27T15:26:35Z</time>
      </trkpt>
      <trkpt lat="42.78631" lon="1.45785">
        <ele>994</ele>
        <time>2019-04-27T15:27:07Z</time>
      </trkpt>
      <trkpt lat="42.78659" lon="1.45779">
        <ele>994</ele>
        <time>2019-04-27T15:27:09Z</time>
      </trkpt>
      <trkpt lat="42.78721" lon="1.45743">
        <ele>994</ele>
        <time>2019-04-27T15:27:20Z</time>
      </trkpt>
      <trkpt lat="42.78727" lon="1.45741">
        <ele>994</ele>
        <time>2019-04-27T15:27:21Z</time>
      </trkpt>
      <trkpt lat="42.78729" lon="1.45736">
        <ele>994</ele>
        <time>2019-04-27T15:27:22Z</time>
      </trkpt>
      <trkpt lat="42.78754" lon="1.45672">
        <ele>999</ele>
        <time>2019-04-27T15:27:39Z</time>
      </trkpt>
      <trkpt lat="42.78745" lon="1.4566">
        <ele>999</ele>
        <time>2019-04-27T15:27:41Z</time>
      </trkpt>
      <trkpt lat="42.78748" lon="1.45656">
        <ele>999</ele>
        <time>2019-04-27T15:27:42Z</time>
      </trkpt>
      <trkpt lat="42.78825" lon="1.45616">
        <ele>999</ele>
        <time>2019-04-27T15:27:53Z</time>
      </trkpt>
      <trkpt lat="42.78833" lon="1.45613">
        <ele>999</ele>
        <time>2019-04-27T15:27:54Z</time>
      </trkpt>
      <trkpt lat="42.78934" lon="1.4556">
        <ele>1006</ele>
        <time>2019-04-27T15:28:11Z</time>
      </trkpt>
      <trkpt lat="42.78933" lon="1.45556">
        <ele>1007</ele>
        <time>2019-04-27T15:28:12Z</time>
      </trkpt>
      <trkpt lat="42.7894" lon="1.45502">
        <ele>1007</ele>
        <time>2019-04-27T15:28:25Z</time>
      </trkpt>
      <trkpt lat="42.78925" lon="1.45491">
        <ele>1007</ele>
        <time>2019-04-27T15:28:27Z</time>
      </trkpt>
      <trkpt lat="42.78926" lon="1.45487">
        <ele>1008</ele>
        <time>2019-04-27T15:28:28Z</time>
      </trkpt>
      <trkpt lat="42.78914" lon="1.4537">
        <ele>1020</ele>
        <time>2019-04-27T15:29:16Z</time>
      </trkpt>
      <trkpt lat="42.79029" lon="1.45282">
        <ele>1025</ele>
        <time>2019-04-27T15:29:30Z</time>
      </trkpt>
      <trkpt lat="42.79034" lon="1.45279">
        <ele>1025</ele>
        <time>2019-04-27T15:29:31Z</time>
      </trkpt>
      <trkpt lat="42.79037" lon="1.45277">
        <ele>1025</ele>
        <time>2019-04-27T15:29:32Z</time>
      </trkpt>
      <trkpt lat="42.79039" lon="1.45275">
        <ele>1025</ele>
        <time>2019-04-27T15:29:33Z</time>
      </trkpt>
      <trkpt lat="42.79111" lon="1.4524">
        <ele>1029</ele>
        <time>2019-04-27T15:29:52Z</time>
      </trkpt>
      <trkpt lat="42.7911" lon="1.45238">
        <ele>1030</ele>
        <time>2019-04-27T15:29:53Z</time>
      </trkpt>
      <trkpt lat="42.79116" lon="1.45237">
        <ele>1031</ele>
        <time>2019-04-27T15:29:54Z</time>
      </trkpt>
      <trkpt lat="42.79121" lon="1.45235">
        <ele>1034</ele>
        <time>2019-04-27T15:30:04Z</time>
      </trkpt>
      <trkpt lat="42.79231" lon="1.45103">
        <ele>1044</ele>
        <time>2019-04-27T15:30:39Z</time>
      </trkpt>
      <trkpt lat="42.79237" lon="1.451">
        <ele>1044</ele>
        <time>2019-04-27T15:30:40Z</time>
      </trkpt>
      <trkpt lat="42.79242" lon="1.45097">
        <ele>1044</ele>
        <time>2019-04-27T15:30:41Z</time>
      </trkpt>
      <trkpt lat="42.79247" lon="1.45094">
        <ele>1044</ele>
        <time>2019-04-27T15:30:42Z</time>
      </trkpt>
      <trkpt lat="42.79251" lon="1.45091">
        <ele>1044</ele>
        <time>2019-04-27T15:30:43Z</time>
      </trkpt>
      <trkpt lat="42.79255" lon="1.45088">
        <ele>1044</ele>
        <time>2019-04-27T15:30:44Z</time>
      </trkpt>
      <trkpt lat="42.79261" lon="1.45085">
        <ele>1044</ele>
        <time>2019-04-27T15:30:45Z</time>
      </trkpt>
      <trkpt lat="42.79313" lon="1.45023">
        <ele>1046</ele>
        <time>2019-04-27T15:31:02Z</time>
      </trkpt>
      <trkpt lat="42.79317" lon="1.4502">
        <ele>1048</ele>
        <time>2019-04-27T15:31:03Z</time>
      </trkpt>
      <trkpt lat="42.79322" lon="1.45017">
        <ele>1049</ele>
        <time>2019-04-27T15:31:04Z</time>
      </trkpt>
      <trkpt lat="42.79364" lon="1.44994">
        <ele>1050</ele>
        <time>2019-04-27T15:31:15Z</time>
      </trkpt>
      <trkpt lat="42.79368" lon="1.44992">
        <ele>1050</ele>
        <time>2019-04-27T15:31:16Z</time>
      </trkpt>
      <trkpt lat="42.79373" lon="1.4499">
        <ele>1050</ele>
        <time>2019-04-27T15:31:17Z</time>
      </trkpt>
      <trkpt lat="42.79376" lon="1.44988">
        <ele>1050</ele>
        <time>2019-04-27T15:31:18Z</time>
      </trkpt>
      <trkpt lat="42.79381" lon="1.44986">
        <ele>1050</ele>
        <time>2019-04-27T15:31:19Z</time>
      </trkpt>
      <trkpt lat="42.79385" lon="1.44984">
        <ele>1050</ele>
        <time>2019-04-27T15:31:20Z</time>
      </trkpt>
      <trkpt lat="42.79387" lon="1.44982">
        <ele>1050</ele>
        <time>2019-04-27T15:31:21Z</time>
      </trkpt>
      <trkpt lat="42.7939" lon="1.4498">
        <ele>1050</ele>
        <time>2019-04-27T15:31:22Z</time>
      </trkpt>
      <trkpt lat="42.79444" lon="1.44942">
        <ele>1056</ele>
        <time>2019-04-27T15:31:38Z</time>
      </trkpt>
      <trkpt lat="42.79447" lon="1.4494">
        <ele>1057</ele>
        <time>2019-04-27T15:31:39Z</time>
      </trkpt>
      <trkpt lat="42.79475" lon="1.44905">
        <ele>1060</ele>
        <time>2019-04-27T15:31:52Z</time>
      </trkpt>
      <trkpt lat="42.79477" lon="1.44902">
        <ele>1060</ele>
        <time>2019-04-27T15:31:53Z</time>
      </trkpt>
      <trkpt lat="42.79485" lon="1.44899">
        <ele>1060</ele>
        <time>2019-04-27T15:31:54Z</time>
      </trkpt>
      <trkpt lat="42.79509" lon="1.44849">
        <ele>1064</ele>
        <time>2019-04-27T15:32:13Z</time>
      </trkpt>
      <trkpt lat="42.7951" lon="1.44846">
        <ele>1065</ele>
        <time>2019-04-27T15:32:14Z</time>
      </trkpt>
      <trkpt lat="42.79513" lon="1.44844">
        <ele>1066</ele>
        <time>2019-04-27T15:32:15Z</time>
      </trkpt>
      <trkpt lat="42.79545" lon="1.44819">
        <ele>1069</ele>
        <time>2019-04-27T15:32:26Z</time>
      </trkpt>
      <trkpt lat="42.79549" lon="1.44817">
        <ele>1069</ele>
        <time>2019-04-27T15:32:27Z</time>
      </trkpt>
      <trkpt lat="42.79549" lon="1.44814">
        <ele>1069</ele>
        <time>2019-04-27T15:32:28Z</time>
      </trkpt>
      <trkpt lat="42.79552" lon="1.44812">
        <ele>1069</ele>
        <time>2019-04-27T15:32:29Z</time>
      </trkpt>
      <trkpt lat="42.79555" lon="1.44809">
        <ele>1069</ele>
        <time>2019-04-27T15:32:30Z</time>
      </trkpt>
      <trkpt lat="42.79559" lon="1.44807">
        <ele>1069</ele>
        <time>2019-04-27T15:32:31Z</time>
      </trkpt>
      <trkpt lat="42.79601" lon="1.44766">
        <ele>1073</ele>
        <time>2019-04-27T15:32:47Z</time>
      </trkpt>
      <trkpt lat="42.79604" lon="1.44763">
        <ele>1074</ele>
        <time>2019-04-27T15:32:48Z</time>
      </trkpt>
      <trkpt lat="42.79616" lon="1.44717">
        <ele>1080</ele>
        <time>2019-04-27T15:33:01Z</time>
      </trkpt>
      <trkpt lat="42.79614" lon="1.44713">
        <ele>1080</ele>
        <time>2019-04-27T15:33:02Z</time>
      </trkpt>
      <trkpt lat="42.79614" lon="1.4471">
        <ele>1080</ele>
        <time>2019-04-27T15:33:03Z</time>
      </trkpt>
      <trkpt lat="42.79611" lon="1.44707">
        <ele>1080</ele>
        <time>2019-04-27T15:33:04Z</time>
      </trkpt>
      <trkpt lat="42.79611" lon="1.44703">
        <ele>1080</ele>
        <time>2019-04-27T15:33:05Z</time>
      </trkpt>
      <trkpt lat="42.79617" lon="1.447">
        <ele>1080</ele>
        <time>2019-04-27T15:33:06Z</time>
      </trkpt>
      <trkpt lat="42.79659" lon="1.44649">
        <ele>1082</ele>
        <time>2019-04-27T15:33:23Z</time>
      </trkpt>
      <trkpt lat="42.79662" lon="1.44646">
        <ele>1084</ele>
        <time>2019-04-27T15:33:24Z</time>
      </trkpt>
      <trkpt lat="42.79667" lon="1.44643">
        <ele>1085</ele>
        <time>2019-04-27T15:33:25Z</time>
      </trkpt>
      <trkpt lat="42.79699" lon="1.44613">
        <ele>1087</ele>
        <time>2019-04-27T15:33:36Z</time>
      </trkpt>
      <trkpt lat="42.79701" lon="1.4461">
        <ele>1087</ele>
        <time>2019-04-27T15:33:37Z</time>
      </trkpt>
      <trkpt lat="42.79704" lon="1.44608">
        <ele>1087</ele>
        <time>2019-04-27T15:33:38Z</time>
      </trkpt>
      <trkpt lat="42.79706" lon="1.44605">
        <ele>1087</ele>
        <time>2019-04-27T15:33:39Z</time>
      </trkpt>
      <trkpt lat="42.79708" lon="1.44602">
        <ele>1087</ele>
        <time>2019-04-27T15:33:40Z</time>
      </trkpt>
      <trkpt lat="42.79711" lon="1.446">
        <ele>1087</ele>
        <time>2019-04-27T15:33:41Z</time>
      </trkpt>
      <trkpt lat="42.79714" lon="1.44598">
        <ele>1087</ele>
        <time>2019-04-27T15:33:42Z</time>
      </trkpt>
      <trkpt lat="42.79716" lon="1.44595">
        <ele>1087</ele>
        <time>2019-04-27T15:33:43Z</time>
      </trkpt>
      <trkpt lat="42.79757" lon="1.44555">
        <ele>1093</ele>
        <time>2019-04-27T15:33:59Z</time>
      </trkpt>
      <trkpt lat="42.79759" lon="1.44553">
        <ele>1094</ele>
        <time>2019-04-27T15:34:00Z</time>
      </trkpt>
      <trkpt lat="42.79794" lon="1.44529">
        <ele>1097</ele>
        <time>2019-04-27T15:34:13Z</time>
      </trkpt>
      <trkpt lat="42.79798" lon="1.44527">
        <ele>1097</ele>
        <time>2019-04-27T15:34:14Z</time>
      </trkpt>
      <trkpt lat="42.79801" lon="1.44525">
        <ele>1097</ele>
        <time>2019-04-27T15:34:15Z</time>
      </trkpt>
      <trkpt lat="42.79857" lon="1.44513">
        <ele>1101</ele>
        <time>2019-04-27T15:34:34Z</time>
      </trkpt>
      <trkpt lat="42.7986" lon="1.44512">
        <ele>1102</ele>
        <time>2019-04-27T15:34:35Z</time>
      </trkpt>
      <trkpt lat="42.79862" lon="1.44511">
        <ele>1103</ele>
        <time>2019-04-27T15:34:36Z</time>
      </trkpt>
      <trkpt lat="42.7989" lon="1.44498">
        <ele>1106</ele>
        <time>2019-04-27T15:34:47Z</time>
      </trkpt>
      <trkpt lat="42.79893" lon="1.44497">
        <ele>1106</ele>
        <time>2019-04-27T15:34:48Z</time>
      </trkpt>
      <trkpt lat="42.79895" lon="1.44497">
        <ele>1106</ele>
        <time>2019-04-27T15:34:49Z</time>
      </trkpt>
      <trkpt lat="42.79897" lon="1.44496">
        <ele>1106</ele>
        <time>2019-04-27T15:34:50Z</time>
      </trkpt>
      <trkpt lat="42.799" lon="1.44495">
        <ele>1106</ele>
        <time>2019-04-27T15:34:51Z</time>
      </trkpt>
      <trkpt lat="42.79902" lon="1.44494">
        <ele>1106</ele>
        <time>2019-04-27T15:34:52Z</time>
      </trkpt>
      <trkpt lat="42.79944" lon="1.44476">
        <ele>1108</ele>
        <time>2019-04-27T15:35:08Z</time>
      </trkpt>
      <trkpt lat="42.79949" lon="1.44474">
        <ele>1109</ele>
        <time>2019-04-27T15:35:09Z</time>
      </trkpt>
      <trkpt lat="42.7999" lon="1.44442">
        <ele>1115</ele>
        <time>2019-04-27T15:35:22Z</time>
      </trkpt>
      <trkpt lat="42.79992" lon="1.44439">
        <ele>1115</ele>
        <time>2019-04-27T15:35:23Z</time>
      </trkpt>
      <trkpt lat="42.79994" lon="1.44436">
        <ele>1115</ele>
        <time>2019-04-27T15:35:24Z</time>
      </trkpt>
      <trkpt lat="42.79996" lon="1.44432">
        <ele>1115</ele>
        <time>2019-04-27T15:35:25Z</time>
      </trkpt>
      <trkpt lat="42.8" lon="1.44429">
        <ele>1115</ele>
        <time>2019-04-27T15:35:26Z</time>
      </trkpt>
      <trkpt lat="42.80003" lon="1.44425">
        <ele>1115</ele>
        <time>2019-04-27T15:35:27Z</time>
      </trkpt>
      <trkpt lat="42.80067" lon="1.44296">
        <ele>1122</ele>
        <time>2019-04-27T15:35:58Z</time>
      </trkpt>
      <trkpt lat="42.80069" lon="1.44291">
        <ele>1122</ele>
        <time>2019-04-27T15:35:59Z</time>
      </trkpt>
      <trkpt lat="42.8007" lon="1.44287">
        <ele>1122</ele>
        <time>2019-04-27T15:36:00Z</time>
      </trkpt>
      <trkpt lat="42.80072" lon="1.44283">
        <ele>1122</ele>
        <time>2019-04-27T15:36:01Z</time>
      </trkpt>
      <trkpt lat="42.80073" lon="1.44279">
        <ele>1122</ele>
        <time>2019-04-27T15:36:02Z</time>
      </trkpt>
      <trkpt lat="42.80074" lon="1.44274">
        <ele>1122</ele>
        <time>2019-04-27T15:36:03Z</time>
      </trkpt>
      <trkpt lat="42.80076" lon="1.4427">
        <ele>1122</ele>
        <time>2019-04-27T15:36:04Z</time>
      </trkpt>
      <trkpt lat="42.80111" lon="1.44251">
        <ele>1123</ele>
        <time>2019-04-27T15:36:20Z</time>
      </trkpt>
      <trkpt lat="42.80111" lon="1.44255">
        <ele>1124</ele>
        <time>2019-04-27T15:36:21Z</time>
      </trkpt>
      <trkpt lat="42.8011" lon="1.4426">
        <ele>1125</ele>
        <time>2019-04-27T15:36:22Z</time>
      </trkpt>
      <trkpt lat="42.80097" lon="1.44312">
        <ele>1126</ele>
        <time>2019-04-27T15:36:33Z</time>
      </trkpt>
      <trkpt lat="42.80096" lon="1.44317">
        <ele>1126</ele>
        <time>2019-04-27T15:36:34Z</time>
      </trkpt>
      <trkpt lat="42.80096" lon="1.44323">
        <ele>1126</ele>
        <time>2019-04-27T15:36:35Z</time>
      </trkpt>
      <trkpt lat="42.80095" lon="1.44328">
        <ele>1126</ele>
        <time>2019-04-27T15:36:36Z</time>
      </trkpt>
      <trkpt lat="42.80095" lon="1.44334">
        <ele>1126</ele>
        <time>2019-04-27T15:36:37Z</time>
      </trkpt>
      <trkpt lat="42.80095" lon="1.44421">
        <ele>1128</ele>
        <time>2019-04-27T15:36:54Z</time>
      </trkpt>
      <trkpt lat="42.80095" lon="1.44426">
        <ele>1128</ele>
        <time>2019-04-27T15:36:55Z</time>
      </trkpt>
      <trkpt lat="42.80078" lon="1.4447">
        <ele>1133</ele>
        <time>2019-04-27T15:37:06Z</time>
      </trkpt>
      <trkpt lat="42.80076" lon="1.44475">
        <ele>1133</ele>
        <time>2019-04-27T15:37:07Z</time>
      </trkpt>
      <trkpt lat="42.80075" lon="1.44479">
        <ele>1133</ele>
        <time>2019-04-27T15:37:08Z</time>
      </trkpt>
      <trkpt lat="42.80073" lon="1.44483">
        <ele>1133</ele>
        <time>2019-04-27T15:37:09Z</time>
      </trkpt>
      <trkpt lat="42.80071" lon="1.44487">
        <ele>1133</ele>
        <time>2019-04-27T15:37:10Z</time>
      </trkpt>
      <trkpt lat="42.80069" lon="1.44492">
        <ele>1133</ele>
        <time>2019-04-27T15:37:11Z</time>
      </trkpt>
      <trkpt lat="42.80067" lon="1.44496">
        <ele>1133</ele>
        <time>2019-04-27T15:37:12Z</time>
      </trkpt>
      <trkpt lat="42.80065" lon="1.44501">
        <ele>1133</ele>
        <time>2019-04-27T15:37:13Z</time>
      </trkpt>
      <trkpt lat="42.80036" lon="1.44569">
        <ele>1137</ele>
        <time>2019-04-27T15:37:31Z</time>
      </trkpt>
      <trkpt lat="42.80034" lon="1.44573">
        <ele>1138</ele>
        <time>2019-04-27T15:37:32Z</time>
      </trkpt>
      <trkpt lat="42.80032" lon="1.44576">
        <ele>1139</ele>
        <time>2019-04-27T15:37:33Z</time>
      </trkpt>
      <trkpt lat="42.80008" lon="1.44606">
        <ele>1142</ele>
        <time>2019-04-27T15:37:44Z</time>
      </trkpt>
      <trkpt lat="42.80006" lon="1.44608">
        <ele>1142</ele>
        <time>2019-04-27T15:37:45Z</time>
      </trkpt>
      <trkpt lat="42.80004" lon="1.44611">
        <ele>1142</ele>
        <time>2019-04-27T15:37:46Z</time>
      </trkpt>
      <trkpt lat="42.80001" lon="1.44614">
        <ele>1142</ele>
        <time>2019-04-27T15:37:47Z</time>
      </trkpt>
      <trkpt lat="42.79998" lon="1.44617">
        <ele>1142</ele>
        <time>2019-04-27T15:37:48Z</time>
      </trkpt>
      <trkpt lat="42.79994" lon="1.4462">
        <ele>1142</ele>
        <time>2019-04-27T15:37:49Z</time>
      </trkpt>
      <trkpt lat="42.7995" lon="1.44657">
        <ele>1146</ele>
        <time>2019-04-27T15:38:05Z</time>
      </trkpt>
      <trkpt lat="42.79948" lon="1.4466">
        <ele>1147</ele>
        <time>2019-04-27T15:38:06Z</time>
      </trkpt>
      <trkpt lat="42.79965" lon="1.44679">
        <ele>1153</ele>
        <time>2019-04-27T15:38:19Z</time>
      </trkpt>
      <trkpt lat="42.79967" lon="1.44679">
        <ele>1153</ele>
        <time>2019-04-27T15:38:20Z</time>
      </trkpt>
      <trkpt lat="42.79969" lon="1.44679">
        <ele>1153</ele>
        <time>2019-04-27T15:38:21Z</time>
      </trkpt>
      <trkpt lat="42.79972" lon="1.44678">
        <ele>1153</ele>
        <time>2019-04-27T15:38:22Z</time>
      </trkpt>
      <trkpt lat="42.79974" lon="1.44677">
        <ele>1153</ele>
        <time>2019-04-27T15:38:23Z</time>
      </trkpt>
      <trkpt lat="42.79976" lon="1.44677">
        <ele>1153</ele>
        <time>2019-04-27T15:38:24Z</time>
      </trkpt>
      <trkpt lat="42.80021" lon="1.44674">
        <ele>1157</ele>
        <time>2019-04-27T15:38:41Z</time>
      </trkpt>
      <trkpt lat="42.80022" lon="1.44674">
        <ele>1158</ele>
        <time>2019-04-27T15:38:42Z</time>
      </trkpt>
      <trkpt lat="42.80049" lon="1.4466">
        <ele>1161</ele>
        <time>2019-04-27T15:38:53Z</time>
      </trkpt>
      <trkpt lat="42.80052" lon="1.44658">
        <ele>1161</ele>
        <time>2019-04-27T15:38:54Z</time>
      </trkpt>
      <trkpt lat="42.80054" lon="1.44656">
        <ele>1161</ele>
        <time>2019-04-27T15:38:55Z</time>
      </trkpt>
      <trkpt lat="42.80057" lon="1.44655">
        <ele>1161</ele>
        <time>2019-04-27T15:38:56Z</time>
      </trkpt>
      <trkpt lat="42.8006" lon="1.44653">
        <ele>1161</ele>
        <time>2019-04-27T15:38:57Z</time>
      </trkpt>
      <trkpt lat="42.80063" lon="1.44651">
        <ele>1161</ele>
        <time>2019-04-27T15:38:58Z</time>
      </trkpt>
      <trkpt lat="42.80066" lon="1.44649">
        <ele>1161</ele>
        <time>2019-04-27T15:38:59Z</time>
      </trkpt>
      <trkpt lat="42.80068" lon="1.44646">
        <ele>1161</ele>
        <time>2019-04-27T15:39:00Z</time>
      </trkpt>
      <trkpt lat="42.8007" lon="1.44643">
        <ele>1161</ele>
        <time>2019-04-27T15:39:01Z</time>
      </trkpt>
      <trkpt lat="42.80109" lon="1.44614">
        <ele>1167</ele>
        <time>2019-04-27T15:39:17Z</time>
      </trkpt>
      <trkpt lat="42.80111" lon="1.44612">
        <ele>1168</ele>
        <time>2019-04-27T15:39:18Z</time>
      </trkpt>
      <trkpt lat="42.80137" lon="1.4459">
        <ele>1171</ele>
        <time>2019-04-27T15:39:29Z</time>
      </trkpt>
      <trkpt lat="42.80139" lon="1.44588">
        <ele>1171</ele>
        <time>2019-04-27T15:39:30Z</time>
      </trkpt>
      <trkpt lat="42.8014" lon="1.44585">
        <ele>1171</ele>
        <time>2019-04-27T15:39:31Z</time>
      </trkpt>
      <trkpt lat="42.80142" lon="1.44582">
        <ele>1171</ele>
        <time>2019-04-27T15:39:32Z</time>
      </trkpt>
      <trkpt lat="42.80144" lon="1.4458">
        <ele>1171</ele>
        <time>2019-04-27T15:39:33Z</time>
      </trkpt>
      <trkpt lat="42.80146" lon="1.44577">
        <ele>1171</ele>
        <time>2019-04-27T15:39:34Z</time>
      </trkpt>
      <trkpt lat="42.80173" lon="1.44526">
        <ele>1175</ele>
        <time>2019-04-27T15:39:52Z</time>
      </trkpt>
      <trkpt lat="42.80175" lon="1.44522">
        <ele>1176</ele>
        <time>2019-04-27T15:39:53Z</time>
      </trkpt>
      <trkpt lat="42.80178" lon="1.44518">
        <ele>1177</ele>
        <time>2019-04-27T15:39:54Z</time>
      </trkpt>
      <trkpt lat="42.80198" lon="1.44489">
        <ele>1180</ele>
        <time>2019-04-27T15:40:05Z</time>
      </trkpt>
      <trkpt lat="42.802" lon="1.44486">
        <ele>1180</ele>
        <time>2019-04-27T15:40:06Z</time>
      </trkpt>
      <trkpt lat="42.80202" lon="1.44484">
        <ele>1180</ele>
        <time>2019-04-27T15:40:07Z</time>
      </trkpt>
      <trkpt lat="42.80204" lon="1.44481">
        <ele>1180</ele>
        <time>2019-04-27T15:40:08Z</time>
      </trkpt>
      <trkpt lat="42.80206" lon="1.44478">
        <ele>1180</ele>
        <time>2019-04-27T15:40:09Z</time>
      </trkpt>
      <trkpt lat="42.80207" lon="1.44475">
        <ele>1180</ele>
        <time>2019-04-27T15:40:10Z</time>
      </trkpt>
      <trkpt lat="42.80233" lon="1.44432">
        <ele>1184</ele>
        <time>2019-04-27T15:40:26Z</time>
      </trkpt>
      <trkpt lat="42.80235" lon="1.44428">
        <ele>1185</ele>
        <time>2019-04-27T15:40:27Z</time>
      </trkpt>
      <trkpt lat="42.80237" lon="1.44425">
        <ele>1186</ele>
        <time>2019-04-27T15:40:28Z</time>
      </trkpt>
      <trkpt lat="42.80263" lon="1.44388">
        <ele>1191</ele>
        <time>2019-04-27T15:40:41Z</time>
      </trkpt>
      <trkpt lat="42.80264" lon="1.44385">
        <ele>1191</ele>
        <time>2019-04-27T15:40:42Z</time>
      </trkpt>
      <trkpt lat="42.80266" lon="1.44381">
        <ele>1191</ele>
        <time>2019-04-27T15:40:43Z</time>
      </trkpt>
      <trkpt lat="42.80267" lon="1.44378">
        <ele>1191</ele>
        <time>2019-04-27T15:40:44Z</time>
      </trkpt>
      <trkpt lat="42.80268" lon="1.44375">
        <ele>1191</ele>
        <time>2019-04-27T15:40:45Z</time>
      </trkpt>
      <trkpt lat="42.80296" lon="1.44321">
        <ele>1195</ele>
        <time>2019-04-27T15:41:02Z</time>
      </trkpt>
      <trkpt lat="42.80297" lon="1.44318">
        <ele>1197</ele>
        <time>2019-04-27T15:41:03Z</time>
      </trkpt>
      <trkpt lat="42.8031" lon="1.44285">
        <ele>1200</ele>
        <time>2019-04-27T15:41:14Z</time>
      </trkpt>
      <trkpt lat="42.80312" lon="1.44282">
        <ele>1200</ele>
        <time>2019-04-27T15:41:15Z</time>
      </trkpt>
      <trkpt lat="42.80314" lon="1.44279">
        <ele>1200</ele>
        <time>2019-04-27T15:41:16Z</time>
      </trkpt>
      <trkpt lat="42.80314" lon="1.44274">
        <ele>1200</ele>
        <time>2019-04-27T15:41:17Z</time>
      </trkpt>
      <trkpt lat="42.80314" lon="1.44271">
        <ele>1200</ele>
        <time>2019-04-27T15:41:18Z</time>
      </trkpt>
      <trkpt lat="42.80315" lon="1.44267">
        <ele>1200</ele>
        <time>2019-04-27T15:41:19Z</time>
      </trkpt>
      <trkpt lat="42.80316" lon="1.44262">
        <ele>1200</ele>
        <time>2019-04-27T15:41:20Z</time>
      </trkpt>
      <trkpt lat="42.80317" lon="1.44258">
        <ele>1200</ele>
        <time>2019-04-27T15:41:21Z</time>
      </trkpt>
      <trkpt lat="42.80318" lon="1.44254">
        <ele>1200</ele>
        <time>2019-04-27T15:41:22Z</time>
      </trkpt>
      <trkpt lat="42.80319" lon="1.44189">
        <ele>1206</ele>
        <time>2019-04-27T15:41:38Z</time>
      </trkpt>
      <trkpt lat="42.80319" lon="1.44185">
        <ele>1207</ele>
        <time>2019-04-27T15:41:39Z</time>
      </trkpt>
      <trkpt lat="42.80323" lon="1.44136">
        <ele>1209</ele>
        <time>2019-04-27T15:41:50Z</time>
      </trkpt>
      <trkpt lat="42.80323" lon="1.44132">
        <ele>1209</ele>
        <time>2019-04-27T15:41:51Z</time>
      </trkpt>
      <trkpt lat="42.80323" lon="1.44128">
        <ele>1209</ele>
        <time>2019-04-27T15:41:52Z</time>
      </trkpt>
      <trkpt lat="42.80322" lon="1.44124">
        <ele>1209</ele>
        <time>2019-04-27T15:41:53Z</time>
      </trkpt>
      <trkpt lat="42.80322" lon="1.4412">
        <ele>1209</ele>
        <time>2019-04-27T15:41:54Z</time>
      </trkpt>
      <trkpt lat="42.80336" lon="1.44025">
        <ele>1211</ele>
        <time>2019-04-27T15:42:12Z</time>
      </trkpt>
      <trkpt lat="42.80338" lon="1.44022">
        <ele>1212</ele>
        <time>2019-04-27T15:42:13Z</time>
      </trkpt>
      <trkpt lat="42.8034" lon="1.44017">
        <ele>1213</ele>
        <time>2019-04-27T15:42:14Z</time>
      </trkpt>
      <trkpt lat="42.80341" lon="1.44012">
        <ele>1214</ele>
        <time>2019-04-27T15:42:15Z</time>
      </trkpt>
      <trkpt lat="42.80358" lon="1.43959">
        <ele>1217</ele>
        <time>2019-04-27T15:42:26Z</time>
      </trkpt>
      <trkpt lat="42.8036" lon="1.43956">
        <ele>1217</ele>
        <time>2019-04-27T15:42:27Z</time>
      </trkpt>
      <trkpt lat="42.80362" lon="1.43953">
        <ele>1217</ele>
        <time>2019-04-27T15:42:28Z</time>
      </trkpt>
      <trkpt lat="42.80364" lon="1.4395">
        <ele>1217</ele>
        <time>2019-04-27T15:42:29Z</time>
      </trkpt>
      <trkpt lat="42.80366" lon="1.43947">
        <ele>1217</ele>
        <time>2019-04-27T15:42:30Z</time>
      </trkpt>
      <trkpt lat="42.80367" lon="1.43943">
        <ele>1217</ele>
        <time>2019-04-27T15:42:31Z</time>
      </trkpt>
      <trkpt lat="42.80402" lon="1.43876">
        <ele>1221</ele>
        <time>2019-04-27T15:42:49Z</time>
      </trkpt>
      <trkpt lat="42.80425" lon="1.43842">
        <ele>1226</ele>
        <time>2019-04-27T15:43:01Z</time>
      </trkpt>
      <trkpt lat="42.80425" lon="1.43838">
        <ele>1226</ele>
        <time>2019-04-27T15:43:02Z</time>
      </trkpt>
      <trkpt lat="42.80426" lon="1.43833">
        <ele>1226</ele>
        <time>2019-04-27T15:43:03Z</time>
      </trkpt>
      <trkpt lat="42.80427" lon="1.43831">
        <ele>1226</ele>
        <time>2019-04-27T15:43:04Z</time>
      </trkpt>
      <trkpt lat="42.80429" lon="1.43828">
        <ele>1226</ele>
        <time>2019-04-27T15:43:05Z</time>
      </trkpt>
      <trkpt lat="42.80431" lon="1.43825">
        <ele>1226</ele>
        <time>2019-04-27T15:43:06Z</time>
      </trkpt>
      <trkpt lat="42.8045" lon="1.43767">
        <ele>1230</ele>
        <time>2019-04-27T15:43:24Z</time>
      </trkpt>
      <trkpt lat="42.80451" lon="1.43765">
        <ele>1231</ele>
        <time>2019-04-27T15:43:25Z</time>
      </trkpt>
      <trkpt lat="42.80473" lon="1.4372">
        <ele>1233</ele>
        <time>2019-04-27T15:43:37Z</time>
      </trkpt>
      <trkpt lat="42.80476" lon="1.43718">
        <ele>1233</ele>
        <time>2019-04-27T15:43:38Z</time>
      </trkpt>
      <trkpt lat="42.80477" lon="1.43712">
        <ele>1233</ele>
        <time>2019-04-27T15:43:39Z</time>
      </trkpt>
      <trkpt lat="42.80478" lon="1.43709">
        <ele>1233</ele>
        <time>2019-04-27T15:43:40Z</time>
      </trkpt>
      <trkpt lat="42.80481" lon="1.43705">
        <ele>1233</ele>
        <time>2019-04-27T15:43:41Z</time>
      </trkpt>
      <trkpt lat="42.80483" lon="1.43702">
        <ele>1233</ele>
        <time>2019-04-27T15:43:42Z</time>
      </trkpt>
      <trkpt lat="42.80485" lon="1.43699">
        <ele>1233</ele>
        <time>2019-04-27T15:43:43Z</time>
      </trkpt>
      <trkpt lat="42.80517" lon="1.43652">
        <ele>1236</ele>
        <time>2019-04-27T15:43:58Z</time>
      </trkpt>
      <trkpt lat="42.8052" lon="1.43649">
        <ele>1237</ele>
        <time>2019-04-27T15:43:59Z</time>
      </trkpt>
      <trkpt lat="42.80522" lon="1.43644">
        <ele>1238</ele>
        <time>2019-04-27T15:44:00Z</time>
      </trkpt>
      <trkpt lat="42.80524" lon="1.43642">
        <ele>1239</ele>
        <time>2019-04-27T15:44:01Z</time>
      </trkpt>
      <trkpt lat="42.80545" lon="1.43609">
        <ele>1241</ele>
        <time>2019-04-27T15:44:11Z</time>
      </trkpt>
      <trkpt lat="42.80547" lon="1.43606">
        <ele>1241</ele>
        <time>2019-04-27T15:44:12Z</time>
      </trkpt>
      <trkpt lat="42.8055" lon="1.43603">
        <ele>1241</ele>
        <time>2019-04-27T15:44:13Z</time>
      </trkpt>
      <trkpt lat="42.80553" lon="1.436">
        <ele>1241</ele>
        <time>2019-04-27T15:44:14Z</time>
      </trkpt>
      <trkpt lat="42.80555" lon="1.43597">
        <ele>1241</ele>
        <time>2019-04-27T15:44:15Z</time>
      </trkpt>
      <trkpt lat="42.80557" lon="1.43594">
        <ele>1241</ele>
        <time>2019-04-27T15:44:16Z</time>
      </trkpt>
      <trkpt lat="42.80595" lon="1.4354">
        <ele>1245</ele>
        <time>2019-04-27T15:44:33Z</time>
      </trkpt>
      <trkpt lat="42.80597" lon="1.43537">
        <ele>1246</ele>
        <time>2019-04-27T15:44:34Z</time>
      </trkpt>
      <trkpt lat="42.80599" lon="1.43534">
        <ele>1247</ele>
        <time>2019-04-27T15:44:35Z</time>
      </trkpt>
      <trkpt lat="42.80626" lon="1.43502">
        <ele>1250</ele>
        <time>2019-04-27T15:44:47Z</time>
      </trkpt>
      <trkpt lat="42.80628" lon="1.43499">
        <ele>1250</ele>
        <time>2019-04-27T15:44:48Z</time>
      </trkpt>
      <trkpt lat="42.80628" lon="1.43495">
        <ele>1250</ele>
        <time>2019-04-27T15:44:49Z</time>
      </trkpt>
      <trkpt lat="42.8063" lon="1.43491">
        <ele>1250</ele>
        <time>2019-04-27T15:44:50Z</time>
      </trkpt>
      <trkpt lat="42.80632" lon="1.43488">
        <ele>1250</ele>
        <time>2019-04-27T15:44:51Z</time>
      </trkpt>
      <trkpt lat="42.80674" lon="1.4345">
        <ele>1253</ele>
        <time>2019-04-27T15:45:09Z</time>
      </trkpt>
      <trkpt lat="42.80677" lon="1.43448">
        <ele>1254</ele>
        <time>2019-04-27T15:45:10Z</time>
      </trkpt>
      <trkpt lat="42.8068" lon="1.43447">
        <ele>1255</ele>
        <time>2019-04-27T15:45:11Z</time>
      </trkpt>
      <trkpt lat="42.80682" lon="1.43444">
        <ele>1256</ele>
        <time>2019-04-27T15:45:12Z</time>
      </trkpt>
      <trkpt lat="42.80685" lon="1.43441">
        <ele>1257</ele>
        <time>2019-04-27T15:45:13Z</time>
      </trkpt>
      <trkpt lat="42.80709" lon="1.43414">
        <ele>1259</ele>
        <time>2019-04-27T15:45:23Z</time>
      </trkpt>
      <trkpt lat="42.80712" lon="1.43411">
        <ele>1259</ele>
        <time>2019-04-27T15:45:24Z</time>
      </trkpt>
      <trkpt lat="42.80714" lon="1.43407">
        <ele>1259</ele>
        <time>2019-04-27T15:45:25Z</time>
      </trkpt>
      <trkpt lat="42.80717" lon="1.43404">
        <ele>1259</ele>
        <time>2019-04-27T15:45:26Z</time>
      </trkpt>
      <trkpt lat="42.8072" lon="1.43401">
        <ele>1259</ele>
        <time>2019-04-27T15:45:27Z</time>
      </trkpt>
      <trkpt lat="42.80722" lon="1.43398">
        <ele>1259</ele>
        <time>2019-04-27T15:45:28Z</time>
      </trkpt>
      <trkpt lat="42.80773" lon="1.43373">
        <ele>1264</ele>
        <time>2019-04-27T15:45:45Z</time>
      </trkpt>
      <trkpt lat="42.80775" lon="1.43372">
        <ele>1265</ele>
        <time>2019-04-27T15:45:46Z</time>
      </trkpt>
      <trkpt lat="42.80809" lon="1.43357">
        <ele>1269</ele>
        <time>2019-04-27T15:45:58Z</time>
      </trkpt>
      <trkpt lat="42.80812" lon="1.43355">
        <ele>1269</ele>
        <time>2019-04-27T15:45:59Z</time>
      </trkpt>
      <trkpt lat="42.80815" lon="1.43353">
        <ele>1269</ele>
        <time>2019-04-27T15:46:00Z</time>
      </trkpt>
      <trkpt lat="42.80818" lon="1.4335">
        <ele>1269</ele>
        <time>2019-04-27T15:46:01Z</time>
      </trkpt>
      <trkpt lat="42.80821" lon="1.43348">
        <ele>1269</ele>
        <time>2019-04-27T15:46:02Z</time>
      </trkpt>
      <trkpt lat="42.80824" lon="1.43346">
        <ele>1269</ele>
        <time>2019-04-27T15:46:03Z</time>
      </trkpt>
      <trkpt lat="42.80857" lon="1.43294">
        <ele>1271</ele>
        <time>2019-04-27T15:46:19Z</time>
      </trkpt>
      <trkpt lat="42.80858" lon="1.43289">
        <ele>1271</ele>
        <time>2019-04-27T15:46:20Z</time>
      </trkpt>
      <trkpt lat="42.80859" lon="1.43285">
        <ele>1272</ele>
        <time>2019-04-27T15:46:21Z</time>
      </trkpt>
      <trkpt lat="42.8086" lon="1.4328">
        <ele>1273</ele>
        <time>2019-04-27T15:46:22Z</time>
      </trkpt>
      <trkpt lat="42.80864" lon="1.43234">
        <ele>1275</ele>
        <time>2019-04-27T15:46:32Z</time>
      </trkpt>
      <trkpt lat="42.80865" lon="1.4323">
        <ele>1275</ele>
        <time>2019-04-27T15:46:33Z</time>
      </trkpt>
      <trkpt lat="42.80865" lon="1.43225">
        <ele>1275</ele>
        <time>2019-04-27T15:46:34Z</time>
      </trkpt>
      <trkpt lat="42.80866" lon="1.43221">
        <ele>1275</ele>
        <time>2019-04-27T15:46:35Z</time>
      </trkpt>
      <trkpt lat="42.80867" lon="1.43217">
        <ele>1275</ele>
        <time>2019-04-27T15:46:36Z</time>
      </trkpt>
      <trkpt lat="42.80868" lon="1.43212">
        <ele>1275</ele>
        <time>2019-04-27T15:46:37Z</time>
      </trkpt>
      <trkpt lat="42.80868" lon="1.43208">
        <ele>1275</ele>
        <time>2019-04-27T15:46:38Z</time>
      </trkpt>
      <trkpt lat="42.80869" lon="1.43203">
        <ele>1275</ele>
        <time>2019-04-27T15:46:39Z</time>
      </trkpt>
      <trkpt lat="42.80868" lon="1.43135">
        <ele>1281</ele>
        <time>2019-04-27T15:46:57Z</time>
      </trkpt>
      <trkpt lat="42.80853" lon="1.43089">
        <ele>1284</ele>
        <time>2019-04-27T15:47:09Z</time>
      </trkpt>
      <trkpt lat="42.80853" lon="1.43087">
        <ele>1284</ele>
        <time>2019-04-27T15:47:10Z</time>
      </trkpt>
      <trkpt lat="42.80851" lon="1.43081">
        <ele>1284</ele>
        <time>2019-04-27T15:47:11Z</time>
      </trkpt>
      <trkpt lat="42.80849" lon="1.43076">
        <ele>1284</ele>
        <time>2019-04-27T15:47:12Z</time>
      </trkpt>
      <trkpt lat="42.80808" lon="1.43026">
        <ele>1287</ele>
        <time>2019-04-27T15:47:30Z</time>
      </trkpt>
      <trkpt lat="42.80775" lon="1.43005">
        <ele>1293</ele>
        <time>2019-04-27T15:47:43Z</time>
      </trkpt>
      <trkpt lat="42.80773" lon="1.43003">
        <ele>1293</ele>
        <time>2019-04-27T15:47:44Z</time>
      </trkpt>
      <trkpt lat="42.80769" lon="1.43003">
        <ele>1293</ele>
        <time>2019-04-27T15:47:45Z</time>
      </trkpt>
      <trkpt lat="42.80767" lon="1.43001">
        <ele>1293</ele>
        <time>2019-04-27T15:47:46Z</time>
      </trkpt>
      <trkpt lat="42.80765" lon="1.42999">
        <ele>1293</ele>
        <time>2019-04-27T15:47:47Z</time>
      </trkpt>
      <trkpt lat="42.80761" lon="1.42999">
        <ele>1293</ele>
        <time>2019-04-27T15:47:48Z</time>
      </trkpt>
      <trkpt lat="42.80759" lon="1.42999">
        <ele>1293</ele>
        <time>2019-04-27T15:47:49Z</time>
      </trkpt>
      <trkpt lat="42.80715" lon="1.42984">
        <ele>1296</ele>
        <time>2019-04-27T15:48:06Z</time>
      </trkpt>
      <trkpt lat="42.80713" lon="1.4298">
        <ele>1297</ele>
        <time>2019-04-27T15:48:07Z</time>
      </trkpt>
      <trkpt lat="42.80703" lon="1.42947">
        <ele>1302</ele>
        <time>2019-04-27T15:48:19Z</time>
      </trkpt>
      <trkpt lat="42.80702" lon="1.42944">
        <ele>1302</ele>
        <time>2019-04-27T15:48:20Z</time>
      </trkpt>
      <trkpt lat="42.80702" lon="1.4294">
        <ele>1302</ele>
        <time>2019-04-27T15:48:21Z</time>
      </trkpt>
      <trkpt lat="42.80702" lon="1.42937">
        <ele>1302</ele>
        <time>2019-04-27T15:48:22Z</time>
      </trkpt>
      <trkpt lat="42.80702" lon="1.42933">
        <ele>1302</ele>
        <time>2019-04-27T15:48:23Z</time>
      </trkpt>
      <trkpt lat="42.807" lon="1.42929">
        <ele>1302</ele>
        <time>2019-04-27T15:48:24Z</time>
      </trkpt>
      <trkpt lat="42.80677" lon="1.42862">
        <ele>1307</ele>
        <time>2019-04-27T15:48:42Z</time>
      </trkpt>
      <trkpt lat="42.80676" lon="1.42859">
        <ele>1308</ele>
        <time>2019-04-27T15:48:43Z</time>
      </trkpt>
      <trkpt lat="42.80663" lon="1.42821">
        <ele>1310</ele>
        <time>2019-04-27T15:48:55Z</time>
      </trkpt>
      <trkpt lat="42.80661" lon="1.42817">
        <ele>1310</ele>
        <time>2019-04-27T15:48:56Z</time>
      </trkpt>
      <trkpt lat="42.8066" lon="1.42812">
        <ele>1310</ele>
        <time>2019-04-27T15:48:57Z</time>
      </trkpt>
      <trkpt lat="42.80659" lon="1.4281">
        <ele>1310</ele>
        <time>2019-04-27T15:48:58Z</time>
      </trkpt>
      <trkpt lat="42.80658" lon="1.42806">
        <ele>1310</ele>
        <time>2019-04-27T15:48:59Z</time>
      </trkpt>
      <trkpt lat="42.80656" lon="1.42803">
        <ele>1310</ele>
        <time>2019-04-27T15:49:00Z</time>
      </trkpt>
      <trkpt lat="42.80656" lon="1.428">
        <ele>1310</ele>
        <time>2019-04-27T15:49:01Z</time>
      </trkpt>
      <trkpt lat="42.80652" lon="1.42744">
        <ele>1315</ele>
        <time>2019-04-27T15:49:16Z</time>
      </trkpt>
      <trkpt lat="42.80652" lon="1.42741">
        <ele>1316</ele>
        <time>2019-04-27T15:49:17Z</time>
      </trkpt>
      <trkpt lat="42.80651" lon="1.42737">
        <ele>1317</ele>
        <time>2019-04-27T15:49:18Z</time>
      </trkpt>
      <trkpt lat="42.80651" lon="1.42732">
        <ele>1318</ele>
        <time>2019-04-27T15:49:19Z</time>
      </trkpt>
      <trkpt lat="42.80657" lon="1.42697">
        <ele>1320</ele>
        <time>2019-04-27T15:49:29Z</time>
      </trkpt>
      <trkpt lat="42.80658" lon="1.42694">
        <ele>1320</ele>
        <time>2019-04-27T15:49:30Z</time>
      </trkpt>
      <trkpt lat="42.8066" lon="1.42692">
        <ele>1320</ele>
        <time>2019-04-27T15:49:31Z</time>
      </trkpt>
      <trkpt lat="42.80662" lon="1.4269">
        <ele>1320</ele>
        <time>2019-04-27T15:49:32Z</time>
      </trkpt>
      <trkpt lat="42.80664" lon="1.42687">
        <ele>1320</ele>
        <time>2019-04-27T15:49:33Z</time>
      </trkpt>
      <trkpt lat="42.80665" lon="1.42683">
        <ele>1320</ele>
        <time>2019-04-27T15:49:34Z</time>
      </trkpt>
      <trkpt lat="42.80681" lon="1.42624">
        <ele>1323</ele>
        <time>2019-04-27T15:49:51Z</time>
      </trkpt>
      <trkpt lat="42.80682" lon="1.42621">
        <ele>1324</ele>
        <time>2019-04-27T15:49:52Z</time>
      </trkpt>
      <trkpt lat="42.80682" lon="1.42617">
        <ele>1325</ele>
        <time>2019-04-27T15:49:53Z</time>
      </trkpt>
      <trkpt lat="42.80682" lon="1.42613">
        <ele>1326</ele>
        <time>2019-04-27T15:49:54Z</time>
      </trkpt>
      <trkpt lat="42.80689" lon="1.42576">
        <ele>1329</ele>
        <time>2019-04-27T15:50:05Z</time>
      </trkpt>
      <trkpt lat="42.80689" lon="1.42572">
        <ele>1329</ele>
        <time>2019-04-27T15:50:06Z</time>
      </trkpt>
      <trkpt lat="42.80689" lon="1.42568">
        <ele>1329</ele>
        <time>2019-04-27T15:50:07Z</time>
      </trkpt>
      <trkpt lat="42.80688" lon="1.42562">
        <ele>1329</ele>
        <time>2019-04-27T15:50:08Z</time>
      </trkpt>
      <trkpt lat="42.80688" lon="1.42557">
        <ele>1329</ele>
        <time>2019-04-27T15:50:09Z</time>
      </trkpt>
      <trkpt lat="42.80692" lon="1.42487">
        <ele>1332</ele>
        <time>2019-04-27T15:50:27Z</time>
      </trkpt>
      <trkpt lat="42.80692" lon="1.42483">
        <ele>1333</ele>
        <time>2019-04-27T15:50:28Z</time>
      </trkpt>
      <trkpt lat="42.80684" lon="1.42437">
        <ele>1338</ele>
        <time>2019-04-27T15:50:40Z</time>
      </trkpt>
      <trkpt lat="42.80682" lon="1.42433">
        <ele>1338</ele>
        <time>2019-04-27T15:50:41Z</time>
      </trkpt>
      <trkpt lat="42.8068" lon="1.4243">
        <ele>1338</ele>
        <time>2019-04-27T15:50:42Z</time>
      </trkpt>
      <trkpt lat="42.80678" lon="1.42427">
        <ele>1338</ele>
        <time>2019-04-27T15:50:43Z</time>
      </trkpt>
      <trkpt lat="42.80676" lon="1.42423">
        <ele>1338</ele>
        <time>2019-04-27T15:50:44Z</time>
      </trkpt>
      <trkpt lat="42.80674" lon="1.4242">
        <ele>1338</ele>
        <time>2019-04-27T15:50:45Z</time>
      </trkpt>
      <trkpt lat="42.80671" lon="1.42417">
        <ele>1338</ele>
        <time>2019-04-27T15:50:46Z</time>
      </trkpt>
      <trkpt lat="42.80629" lon="1.42417">
        <ele>1343</ele>
        <time>2019-04-27T15:51:03Z</time>
      </trkpt>
      <trkpt lat="42.8061" lon="1.42456">
        <ele>1346</ele>
        <time>2019-04-27T15:51:15Z</time>
      </trkpt>
      <trkpt lat="42.80608" lon="1.42459">
        <ele>1346</ele>
        <time>2019-04-27T15:51:16Z</time>
      </trkpt>
      <trkpt lat="42.80606" lon="1.42462">
        <ele>1346</ele>
        <time>2019-04-27T15:51:17Z</time>
      </trkpt>
      <trkpt lat="42.80604" lon="1.42463">
        <ele>1346</ele>
        <time>2019-04-27T15:51:18Z</time>
      </trkpt>
      <trkpt lat="42.806" lon="1.42464">
        <ele>1346</ele>
        <time>2019-04-27T15:51:19Z</time>
      </trkpt>
      <trkpt lat="42.80598" lon="1.42461">
        <ele>1346</ele>
        <time>2019-04-27T15:51:20Z</time>
      </trkpt>
      <trkpt lat="42.80597" lon="1.42458">
        <ele>1346</ele>
        <time>2019-04-27T15:51:21Z</time>
      </trkpt>
      <trkpt lat="42.80614" lon="1.42398">
        <ele>1351</ele>
        <time>2019-04-27T15:51:37Z</time>
      </trkpt>
      <trkpt lat="42.80615" lon="1.42394">
        <ele>1352</ele>
        <time>2019-04-27T15:51:38Z</time>
      </trkpt>
      <trkpt lat="42.80617" lon="1.4239">
        <ele>1353</ele>
        <time>2019-04-27T15:51:39Z</time>
      </trkpt>
      <trkpt lat="42.80617" lon="1.42387">
        <ele>1354</ele>
        <time>2019-04-27T15:51:40Z</time>
      </trkpt>
      <trkpt lat="42.80629" lon="1.42349">
        <ele>1359</ele>
        <time>2019-04-27T15:51:50Z</time>
      </trkpt>
      <trkpt lat="42.80631" lon="1.42346">
        <ele>1359</ele>
        <time>2019-04-27T15:51:51Z</time>
      </trkpt>
      <trkpt lat="42.80632" lon="1.42343">
        <ele>1359</ele>
        <time>2019-04-27T15:51:52Z</time>
      </trkpt>
      <trkpt lat="42.80634" lon="1.42339">
        <ele>1359</ele>
        <time>2019-04-27T15:51:53Z</time>
      </trkpt>
      <trkpt lat="42.80635" lon="1.42336">
        <ele>1359</ele>
        <time>2019-04-27T15:51:54Z</time>
      </trkpt>
      <trkpt lat="42.80637" lon="1.42332">
        <ele>1359</ele>
        <time>2019-04-27T15:51:55Z</time>
      </trkpt>
      <trkpt lat="42.80615" lon="1.42335">
        <ele>1363</ele>
        <time>2019-04-27T15:52:13Z</time>
      </trkpt>
      <trkpt lat="42.80614" lon="1.42338">
        <ele>1364</ele>
        <time>2019-04-27T15:52:14Z</time>
      </trkpt>
      <trkpt lat="42.80612" lon="1.42341">
        <ele>1365</ele>
        <time>2019-04-27T15:52:15Z</time>
      </trkpt>
      <trkpt lat="42.8061" lon="1.42345">
        <ele>1366</ele>
        <time>2019-04-27T15:52:16Z</time>
      </trkpt>
      <trkpt lat="42.80595" lon="1.42374">
        <ele>1368</ele>
        <time>2019-04-27T15:52:26Z</time>
      </trkpt>
      <trkpt lat="42.80595" lon="1.42376">
        <ele>1368</ele>
        <time>2019-04-27T15:52:27Z</time>
      </trkpt>
      <trkpt lat="42.80596" lon="1.42379">
        <ele>1368</ele>
        <time>2019-04-27T15:52:28Z</time>
      </trkpt>
      <trkpt lat="42.80594" lon="1.42382">
        <ele>1368</ele>
        <time>2019-04-27T15:52:29Z</time>
      </trkpt>
      <trkpt lat="42.80594" lon="1.42385">
        <ele>1368</ele>
        <time>2019-04-27T15:52:30Z</time>
      </trkpt>
      <trkpt lat="42.80593" lon="1.42389">
        <ele>1368</ele>
        <time>2019-04-27T15:52:31Z</time>
      </trkpt>
      <trkpt lat="42.80591" lon="1.42392">
        <ele>1368</ele>
        <time>2019-04-27T15:52:32Z</time>
      </trkpt>
      <trkpt lat="42.80589" lon="1.42396">
        <ele>1368</ele>
        <time>2019-04-27T15:52:33Z</time>
      </trkpt>
      <trkpt lat="42.80568" lon="1.42455">
        <ele>1372</ele>
        <time>2019-04-27T15:52:49Z</time>
      </trkpt>
      <trkpt lat="42.80566" lon="1.42459">
        <ele>1373</ele>
        <time>2019-04-27T15:52:50Z</time>
      </trkpt>
      <trkpt lat="42.80565" lon="1.42463">
        <ele>1374</ele>
        <time>2019-04-27T15:52:51Z</time>
      </trkpt>
      <trkpt lat="42.80541" lon="1.42495">
        <ele>1375</ele>
        <time>2019-04-27T15:53:02Z</time>
      </trkpt>
      <trkpt lat="42.80537" lon="1.42494">
        <ele>1375</ele>
        <time>2019-04-27T15:53:03Z</time>
      </trkpt>
      <trkpt lat="42.80534" lon="1.42492">
        <ele>1375</ele>
        <time>2019-04-27T15:53:04Z</time>
      </trkpt>
      <trkpt lat="42.8053" lon="1.4249">
        <ele>1375</ele>
        <time>2019-04-27T15:53:05Z</time>
      </trkpt>
      <trkpt lat="42.80528" lon="1.42486">
        <ele>1375</ele>
        <time>2019-04-27T15:53:06Z</time>
      </trkpt>
      <trkpt lat="42.80526" lon="1.42481">
        <ele>1375</ele>
        <time>2019-04-27T15:53:07Z</time>
      </trkpt>
      <trkpt lat="42.80546" lon="1.4241">
        <ele>1378</ele>
        <time>2019-04-27T15:53:24Z</time>
      </trkpt>
      <trkpt lat="42.80548" lon="1.42406">
        <ele>1379</ele>
        <time>2019-04-27T15:53:25Z</time>
      </trkpt>
      <trkpt lat="42.80559" lon="1.42363">
        <ele>1384</ele>
        <time>2019-04-27T15:53:37Z</time>
      </trkpt>
      <trkpt lat="42.8056" lon="1.42359">
        <ele>1384</ele>
        <time>2019-04-27T15:53:38Z</time>
      </trkpt>
      <trkpt lat="42.80561" lon="1.42356">
        <ele>1384</ele>
        <time>2019-04-27T15:53:39Z</time>
      </trkpt>
      <trkpt lat="42.80563" lon="1.42354">
        <ele>1384</ele>
        <time>2019-04-27T15:53:40Z</time>
      </trkpt>
      <trkpt lat="42.80565" lon="1.42353">
        <ele>1384</ele>
        <time>2019-04-27T15:53:41Z</time>
      </trkpt>
      <trkpt lat="42.80565" lon="1.4235">
        <ele>1384</ele>
        <time>2019-04-27T15:53:42Z</time>
      </trkpt>
      <trkpt lat="42.8057" lon="1.4229">
        <ele>1388</ele>
        <time>2019-04-27T15:53:58Z</time>
      </trkpt>
      <trkpt lat="42.80568" lon="1.42285">
        <ele>1389</ele>
        <time>2019-04-27T15:53:59Z</time>
      </trkpt>
      <trkpt lat="42.80568" lon="1.4228">
        <ele>1390</ele>
        <time>2019-04-27T15:54:00Z</time>
      </trkpt>
      <trkpt lat="42.80565" lon="1.42244">
        <ele>1393</ele>
        <time>2019-04-27T15:54:11Z</time>
      </trkpt>
      <trkpt lat="42.80565" lon="1.4224">
        <ele>1393</ele>
        <time>2019-04-27T15:54:12Z</time>
      </trkpt>
      <trkpt lat="42.80565" lon="1.42237">
        <ele>1393</ele>
        <time>2019-04-27T15:54:13Z</time>
      </trkpt>
      <trkpt lat="42.80565" lon="1.42234">
        <ele>1393</ele>
        <time>2019-04-27T15:54:14Z</time>
      </trkpt>
      <trkpt lat="42.80565" lon="1.4223">
        <ele>1393</ele>
        <time>2019-04-27T15:54:15Z</time>
      </trkpt>
      <trkpt lat="42.80566" lon="1.42226">
        <ele>1393</ele>
        <time>2019-04-27T15:54:16Z</time>
      </trkpt>
      <trkpt lat="42.80566" lon="1.42221">
        <ele>1393</ele>
        <time>2019-04-27T15:54:17Z</time>
      </trkpt>
      <trkpt lat="42.80565" lon="1.42217">
        <ele>1393</ele>
        <time>2019-04-27T15:54:18Z</time>
      </trkpt>
      <trkpt lat="42.80568" lon="1.42154">
        <ele>1398</ele>
        <time>2019-04-27T15:54:34Z</time>
      </trkpt>
      <trkpt lat="42.80568" lon="1.4215">
        <ele>1399</ele>
        <time>2019-04-27T15:54:35Z</time>
      </trkpt>
      <trkpt lat="42.80568" lon="1.42147">
        <ele>1400</ele>
        <time>2019-04-27T15:54:36Z</time>
      </trkpt>
      <trkpt lat="42.80568" lon="1.42142">
        <ele>1401</ele>
        <time>2019-04-27T15:54:37Z</time>
      </trkpt>
      <trkpt lat="42.80569" lon="1.42105">
        <ele>1403</ele>
        <time>2019-04-27T15:54:47Z</time>
      </trkpt>
      <trkpt lat="42.8057" lon="1.42102">
        <ele>1403</ele>
        <time>2019-04-27T15:54:48Z</time>
      </trkpt>
      <trkpt lat="42.8057" lon="1.42099">
        <ele>1403</ele>
        <time>2019-04-27T15:54:49Z</time>
      </trkpt>
      <trkpt lat="42.80569" lon="1.42094">
        <ele>1403</ele>
        <time>2019-04-27T15:54:50Z</time>
      </trkpt>
      <trkpt lat="42.80568" lon="1.4209">
        <ele>1403</ele>
        <time>2019-04-27T15:54:51Z</time>
      </trkpt>
      <trkpt lat="42.80574" lon="1.42024">
        <ele>1406</ele>
        <time>2019-04-27T15:55:09Z</time>
      </trkpt>
      <trkpt lat="42.80576" lon="1.42023">
        <ele>1407</ele>
        <time>2019-04-27T15:55:10Z</time>
      </trkpt>
      <trkpt lat="42.80579" lon="1.42023">
        <ele>1408</ele>
        <time>2019-04-27T15:55:11Z</time>
      </trkpt>
      <trkpt lat="42.80581" lon="1.42023">
        <ele>1409</ele>
        <time>2019-04-27T15:55:12Z</time>
      </trkpt>
      <trkpt lat="42.80584" lon="1.42025">
        <ele>1410</ele>
        <time>2019-04-27T15:55:13Z</time>
      </trkpt>
      <trkpt lat="42.80602" lon="1.42049">
        <ele>1411</ele>
        <time>2019-04-27T15:55:22Z</time>
      </trkpt>
      <trkpt lat="42.80605" lon="1.4205">
        <ele>1411</ele>
        <time>2019-04-27T15:55:23Z</time>
      </trkpt>
      <trkpt lat="42.80607" lon="1.42051">
        <ele>1411</ele>
        <time>2019-04-27T15:55:24Z</time>
      </trkpt>
      <trkpt lat="42.8061" lon="1.42052">
        <ele>1411</ele>
        <time>2019-04-27T15:55:25Z</time>
      </trkpt>
      <trkpt lat="42.80612" lon="1.42053">
        <ele>1411</ele>
        <time>2019-04-27T15:55:26Z</time>
      </trkpt>
      <trkpt lat="42.80615" lon="1.42055">
        <ele>1411</ele>
        <time>2019-04-27T15:55:27Z</time>
      </trkpt>
      <trkpt lat="42.80618" lon="1.42056">
        <ele>1411</ele>
        <time>2019-04-27T15:55:28Z</time>
      </trkpt>
      <trkpt lat="42.80635" lon="1.42037">
        <ele>1414</ele>
        <time>2019-04-27T15:55:45Z</time>
      </trkpt>
      <trkpt lat="42.80633" lon="1.42035">
        <ele>1415</ele>
        <time>2019-04-27T15:55:46Z</time>
      </trkpt>
      <trkpt lat="42.80614" lon="1.42">
        <ele>1420</ele>
        <time>2019-04-27T15:55:58Z</time>
      </trkpt>
      <trkpt lat="42.80613" lon="1.41996">
        <ele>1420</ele>
        <time>2019-04-27T15:55:59Z</time>
      </trkpt>
      <trkpt lat="42.80613" lon="1.41992">
        <ele>1420</ele>
        <time>2019-04-27T15:56:00Z</time>
      </trkpt>
      <trkpt lat="42.80612" lon="1.41988">
        <ele>1420</ele>
        <time>2019-04-27T15:56:01Z</time>
      </trkpt>
      <trkpt lat="42.80612" lon="1.41985">
        <ele>1420</ele>
        <time>2019-04-27T15:56:02Z</time>
      </trkpt>
      <trkpt lat="42.80612" lon="1.41981">
        <ele>1420</ele>
        <time>2019-04-27T15:56:03Z</time>
      </trkpt>
      <trkpt lat="42.80596" lon="1.41915">
        <ele>1425</ele>
        <time>2019-04-27T15:56:21Z</time>
      </trkpt>
      <trkpt lat="42.80595" lon="1.41911">
        <ele>1426</ele>
        <time>2019-04-27T15:56:22Z</time>
      </trkpt>
      <trkpt lat="42.8059" lon="1.41867">
        <ele>1428</ele>
        <time>2019-04-27T15:56:34Z</time>
      </trkpt>
      <trkpt lat="42.80591" lon="1.41864">
        <ele>1428</ele>
        <time>2019-04-27T15:56:35Z</time>
      </trkpt>
      <trkpt lat="42.80591" lon="1.41861">
        <ele>1428</ele>
        <time>2019-04-27T15:56:36Z</time>
      </trkpt>
      <trkpt lat="42.80591" lon="1.41858">
        <ele>1428</ele>
        <time>2019-04-27T15:56:37Z</time>
      </trkpt>
      <trkpt lat="42.80591" lon="1.41854">
        <ele>1428</ele>
        <time>2019-04-27T15:56:38Z</time>
      </trkpt>
      <trkpt lat="42.80592" lon="1.4185">
        <ele>1428</ele>
        <time>2019-04-27T15:56:39Z</time>
      </trkpt>
      <trkpt lat="42.80592" lon="1.41847">
        <ele>1428</ele>
        <time>2019-04-27T15:56:40Z</time>
      </trkpt>
      <trkpt lat="42.80596" lon="1.41792">
        <ele>1432</ele>
        <time>2019-04-27T15:56:55Z</time>
      </trkpt>
      <trkpt lat="42.80596" lon="1.41789">
        <ele>1433</ele>
        <time>2019-04-27T15:56:56Z</time>
      </trkpt>
      <trkpt lat="42.80597" lon="1.41785">
        <ele>1434</ele>
        <time>2019-04-27T15:56:57Z</time>
      </trkpt>
      <trkpt lat="42.80597" lon="1.41781">
        <ele>1435</ele>
        <time>2019-04-27T15:56:58Z</time>
      </trkpt>
      <trkpt lat="42.80599" lon="1.41745">
        <ele>1437</ele>
        <time>2019-04-27T15:57:08Z</time>
      </trkpt>
      <trkpt lat="42.80599" lon="1.41741">
        <ele>1437</ele>
        <time>2019-04-27T15:57:09Z</time>
      </trkpt>
      <trkpt lat="42.80599" lon="1.41737">
        <ele>1437</ele>
        <time>2019-04-27T15:57:10Z</time>
      </trkpt>
      <trkpt lat="42.80599" lon="1.41733">
        <ele>1437</ele>
        <time>2019-04-27T15:57:11Z</time>
      </trkpt>
      <trkpt lat="42.80599" lon="1.41729">
        <ele>1437</ele>
        <time>2019-04-27T15:57:12Z</time>
      </trkpt>
      <trkpt lat="42.80598" lon="1.41665">
        <ele>1440</ele>
        <time>2019-04-27T15:57:30Z</time>
      </trkpt>
      <trkpt lat="42.80568" lon="1.41637">
        <ele>1446</ele>
        <time>2019-04-27T15:57:42Z</time>
      </trkpt>
      <trkpt lat="42.80565" lon="1.41635">
        <ele>1446</ele>
        <time>2019-04-27T15:57:43Z</time>
      </trkpt>
      <trkpt lat="42.80563" lon="1.41634">
        <ele>1446</ele>
        <time>2019-04-27T15:57:44Z</time>
      </trkpt>
      <trkpt lat="42.8056" lon="1.41633">
        <ele>1446</ele>
        <time>2019-04-27T15:57:45Z</time>
      </trkpt>
      <trkpt lat="42.80557" lon="1.41631">
        <ele>1446</ele>
        <time>2019-04-27T15:57:46Z</time>
      </trkpt>
      <trkpt lat="42.80555" lon="1.4163">
        <ele>1446</ele>
        <time>2019-04-27T15:57:47Z</time>
      </trkpt>
      <trkpt lat="42.80552" lon="1.41627">
        <ele>1446</ele>
        <time>2019-04-27T15:57:48Z</time>
      </trkpt>
      <trkpt lat="42.8055" lon="1.41625">
        <ele>1446</ele>
        <time>2019-04-27T15:57:49Z</time>
      </trkpt>
      <trkpt lat="42.8058" lon="1.41598">
        <ele>1450</ele>
        <time>2019-04-27T15:58:06Z</time>
      </trkpt>
      <trkpt lat="42.80583" lon="1.416">
        <ele>1451</ele>
        <time>2019-04-27T15:58:07Z</time>
      </trkpt>
      <trkpt lat="42.80616" lon="1.4163">
        <ele>1456</ele>
        <time>2019-04-27T15:58:19Z</time>
      </trkpt>
      <trkpt lat="42.80618" lon="1.41633">
        <ele>1456</ele>
        <time>2019-04-27T15:58:20Z</time>
      </trkpt>
      <trkpt lat="42.80621" lon="1.41636">
        <ele>1456</ele>
        <time>2019-04-27T15:58:21Z</time>
      </trkpt>
      <trkpt lat="42.80623" lon="1.41639">
        <ele>1456</ele>
        <time>2019-04-27T15:58:22Z</time>
      </trkpt>
      <trkpt lat="42.80625" lon="1.41642">
        <ele>1456</ele>
        <time>2019-04-27T15:58:23Z</time>
      </trkpt>
      <trkpt lat="42.80627" lon="1.41646">
        <ele>1456</ele>
        <time>2019-04-27T15:58:24Z</time>
      </trkpt>
      <trkpt lat="42.80661" lon="1.41708">
        <ele>1460</ele>
        <time>2019-04-27T15:58:42Z</time>
      </trkpt>
      <trkpt lat="42.80663" lon="1.41712">
        <ele>1461</ele>
        <time>2019-04-27T15:58:43Z</time>
      </trkpt>
      <trkpt lat="42.80681" lon="1.41758">
        <ele>1466</ele>
        <time>2019-04-27T15:58:55Z</time>
      </trkpt>
      <trkpt lat="42.80683" lon="1.41762">
        <ele>1466</ele>
        <time>2019-04-27T15:58:56Z</time>
      </trkpt>
      <trkpt lat="42.80684" lon="1.41766">
        <ele>1466</ele>
        <time>2019-04-27T15:58:57Z</time>
      </trkpt>
      <trkpt lat="42.80685" lon="1.4177">
        <ele>1466</ele>
        <time>2019-04-27T15:58:58Z</time>
      </trkpt>
      <trkpt lat="42.80687" lon="1.41773">
        <ele>1466</ele>
        <time>2019-04-27T15:58:59Z</time>
      </trkpt>
      <trkpt lat="42.80688" lon="1.41777">
        <ele>1466</ele>
        <time>2019-04-27T15:59:00Z</time>
      </trkpt>
      <trkpt lat="42.80689" lon="1.41781">
        <ele>1466</ele>
        <time>2019-04-27T15:59:01Z</time>
      </trkpt>
      <trkpt lat="42.80701" lon="1.4184">
        <ele>1469</ele>
        <time>2019-04-27T15:59:16Z</time>
      </trkpt>
      <trkpt lat="42.80702" lon="1.41845">
        <ele>1470</ele>
        <time>2019-04-27T15:59:17Z</time>
      </trkpt>
      <trkpt lat="42.80703" lon="1.41849">
        <ele>1471</ele>
        <time>2019-04-27T15:59:18Z</time>
      </trkpt>
      <trkpt lat="42.80703" lon="1.41853">
        <ele>1472</ele>
        <time>2019-04-27T15:59:19Z</time>
      </trkpt>
      <trkpt lat="42.80711" lon="1.41895">
        <ele>1474</ele>
        <time>2019-04-27T15:59:29Z</time>
      </trkpt>
      <trkpt lat="42.80712" lon="1.41899">
        <ele>1474</ele>
        <time>2019-04-27T15:59:30Z</time>
      </trkpt>
      <trkpt lat="42.80713" lon="1.41903">
        <ele>1474</ele>
        <time>2019-04-27T15:59:31Z</time>
      </trkpt>
      <trkpt lat="42.80713" lon="1.41908">
        <ele>1474</ele>
        <time>2019-04-27T15:59:32Z</time>
      </trkpt>
      <trkpt lat="42.80714" lon="1.41912">
        <ele>1474</ele>
        <time>2019-04-27T15:59:33Z</time>
      </trkpt>
      <trkpt lat="42.80715" lon="1.41916">
        <ele>1474</ele>
        <time>2019-04-27T15:59:34Z</time>
      </trkpt>
      <trkpt lat="42.80716" lon="1.4192">
        <ele>1474</ele>
        <time>2019-04-27T15:59:35Z</time>
      </trkpt>
      <trkpt lat="42.80716" lon="1.41924">
        <ele>1474</ele>
        <time>2019-04-27T15:59:36Z</time>
      </trkpt>
      <trkpt lat="42.80711" lon="1.41989">
        <ele>1478</ele>
        <time>2019-04-27T15:59:52Z</time>
      </trkpt>
      <trkpt lat="42.80711" lon="1.41993">
        <ele>1479</ele>
        <time>2019-04-27T15:59:53Z</time>
      </trkpt>
      <trkpt lat="42.80712" lon="1.41997">
        <ele>1480</ele>
        <time>2019-04-27T15:59:54Z</time>
      </trkpt>
      <trkpt lat="42.80713" lon="1.42">
        <ele>1481</ele>
        <time>2019-04-27T15:59:55Z</time>
      </trkpt>
      <trkpt lat="42.80732" lon="1.41995">
        <ele>1483</ele>
        <time>2019-04-27T16:00:05Z</time>
      </trkpt>
      <trkpt lat="42.80733" lon="1.4199">
        <ele>1483</ele>
        <time>2019-04-27T16:00:06Z</time>
      </trkpt>
      <trkpt lat="42.80733" lon="1.41986">
        <ele>1483</ele>
        <time>2019-04-27T16:00:07Z</time>
      </trkpt>
      <trkpt lat="42.80733" lon="1.41981">
        <ele>1483</ele>
        <time>2019-04-27T16:00:08Z</time>
      </trkpt>
      <trkpt lat="42.80734" lon="1.41976">
        <ele>1483</ele>
        <time>2019-04-27T16:00:09Z</time>
      </trkpt>
      <trkpt lat="42.80734" lon="1.41972">
        <ele>1483</ele>
        <time>2019-04-27T16:00:10Z</time>
      </trkpt>
      <trkpt lat="42.80738" lon="1.41894">
        <ele>1486</ele>
        <time>2019-04-27T16:00:27Z</time>
      </trkpt>
      <trkpt lat="42.80739" lon="1.4189">
        <ele>1487</ele>
        <time>2019-04-27T16:00:28Z</time>
      </trkpt>
      <trkpt lat="42.80739" lon="1.41885">
        <ele>1488</ele>
        <time>2019-04-27T16:00:29Z</time>
      </trkpt>
      <trkpt lat="42.80744" lon="1.41829">
        <ele>1492</ele>
        <time>2019-04-27T16:00:41Z</time>
      </trkpt>
      <trkpt lat="42.80745" lon="1.41824">
        <ele>1492</ele>
        <time>2019-04-27T16:00:42Z</time>
      </trkpt>
      <trkpt lat="42.80745" lon="1.4182">
        <ele>1492</ele>
        <time>2019-04-27T16:00:43Z</time>
      </trkpt>
      <trkpt lat="42.80745" lon="1.41815">
        <ele>1492</ele>
        <time>2019-04-27T16:00:44Z</time>
      </trkpt>
      <trkpt lat="42.80746" lon="1.4181">
        <ele>1492</ele>
        <time>2019-04-27T16:00:45Z</time>
      </trkpt>
      <trkpt lat="42.80746" lon="1.41728">
        <ele>1496</ele>
        <time>2019-04-27T16:01:03Z</time>
      </trkpt>
      <trkpt lat="42.80727" lon="1.41676">
        <ele>1499</ele>
        <time>2019-04-27T16:01:15Z</time>
      </trkpt>
      <trkpt lat="42.80724" lon="1.41673">
        <ele>1499</ele>
        <time>2019-04-27T16:01:16Z</time>
      </trkpt>
      <trkpt lat="42.80723" lon="1.41669">
        <ele>1499</ele>
        <time>2019-04-27T16:01:17Z</time>
      </trkpt>
      <trkpt lat="42.80721" lon="1.41666">
        <ele>1499</ele>
        <time>2019-04-27T16:01:18Z</time>
      </trkpt>
      <trkpt lat="42.80719" lon="1.41662">
        <ele>1499</ele>
        <time>2019-04-27T16:01:19Z</time>
      </trkpt>
      <trkpt lat="42.80718" lon="1.41657">
        <ele>1499</ele>
        <time>2019-04-27T16:01:20Z</time>
      </trkpt>
      <trkpt lat="42.80717" lon="1.41653">
        <ele>1499</ele>
        <time>2019-04-27T16:01:21Z</time>
      </trkpt>
      <trkpt lat="42.80707" lon="1.41573">
        <ele>1505</ele>
        <time>2019-04-27T16:01:38Z</time>
      </trkpt>
      <trkpt lat="42.80706" lon="1.41568">
        <ele>1506</ele>
        <time>2019-04-27T16:01:39Z</time>
      </trkpt>
      <trkpt lat="42.80705" lon="1.41563">
        <ele>1507</ele>
        <time>2019-04-27T16:01:40Z</time>
      </trkpt>
      <trkpt lat="42.80691" lon="1.41519">
        <ele>1509</ele>
        <time>2019-04-27T16:01:50Z</time>
      </trkpt>
      <trkpt lat="42.80689" lon="1.41514">
        <ele>1509</ele>
        <time>2019-04-27T16:01:51Z</time>
      </trkpt>
      <trkpt lat="42.80688" lon="1.4151">
        <ele>1509</ele>
        <time>2019-04-27T16:01:52Z</time>
      </trkpt>
      <trkpt lat="42.80686" lon="1.41506">
        <ele>1509</ele>
        <time>2019-04-27T16:01:53Z</time>
      </trkpt>
      <trkpt lat="42.80685" lon="1.41501">
        <ele>1509</ele>
        <time>2019-04-27T16:01:54Z</time>
      </trkpt>
      <trkpt lat="42.80665" lon="1.41417">
        <ele>1514</ele>
        <time>2019-04-27T16:02:12Z</time>
      </trkpt>
      <trkpt lat="42.80664" lon="1.41412">
        <ele>1514</ele>
        <time>2019-04-27T16:02:13Z</time>
      </trkpt>
      <trkpt lat="42.80663" lon="1.41407">
        <ele>1515</ele>
        <time>2019-04-27T16:02:14Z</time>
      </trkpt>
      <trkpt lat="42.80662" lon="1.41402">
        <ele>1516</ele>
        <time>2019-04-27T16:02:15Z</time>
      </trkpt>
      <trkpt lat="42.80662" lon="1.41397">
        <ele>1517</ele>
        <time>2019-04-27T16:02:16Z</time>
      </trkpt>
      <trkpt lat="42.80654" lon="1.41348">
        <ele>1519</ele>
        <time>2019-04-27T16:02:26Z</time>
      </trkpt>
      <trkpt lat="42.80653" lon="1.41343">
        <ele>1519</ele>
        <time>2019-04-27T16:02:27Z</time>
      </trkpt>
      <trkpt lat="42.80652" lon="1.41338">
        <ele>1519</ele>
        <time>2019-04-27T16:02:28Z</time>
      </trkpt>
      <trkpt lat="42.80651" lon="1.41334">
        <ele>1519</ele>
        <time>2019-04-27T16:02:29Z</time>
      </trkpt>
      <trkpt lat="42.80651" lon="1.41329">
        <ele>1519</ele>
        <time>2019-04-27T16:02:30Z</time>
      </trkpt>
      <trkpt lat="42.8065" lon="1.41324">
        <ele>1519</ele>
        <time>2019-04-27T16:02:31Z</time>
      </trkpt>
      <trkpt lat="42.8064" lon="1.41244">
        <ele>1521</ele>
        <time>2019-04-27T16:02:48Z</time>
      </trkpt>
      <trkpt lat="42.8064" lon="1.41239">
        <ele>1520</ele>
        <time>2019-04-27T16:02:49Z</time>
      </trkpt>
      <trkpt lat="42.8064" lon="1.41234">
        <ele>1519</ele>
        <time>2019-04-27T16:02:50Z</time>
      </trkpt>
      <trkpt lat="42.80641" lon="1.41229">
        <ele>1518</ele>
        <time>2019-04-27T16:02:51Z</time>
      </trkpt>
      <trkpt lat="42.80641" lon="1.41224">
        <ele>1517</ele>
        <time>2019-04-27T16:02:52Z</time>
      </trkpt>
      <trkpt lat="42.80644" lon="1.41176">
        <ele>1516</ele>
        <time>2019-04-27T16:03:02Z</time>
      </trkpt>
      <trkpt lat="42.80644" lon="1.41171">
        <ele>1516</ele>
        <time>2019-04-27T16:03:03Z</time>
      </trkpt>
      <trkpt lat="42.80644" lon="1.41166">
        <ele>1516</ele>
        <time>2019-04-27T16:03:04Z</time>
      </trkpt>
      <trkpt lat="42.80644" lon="1.41162">
        <ele>1516</ele>
        <time>2019-04-27T16:03:05Z</time>
      </trkpt>
      <trkpt lat="42.80644" lon="1.41158">
        <ele>1516</ele>
        <time>2019-04-27T16:03:06Z</time>
      </trkpt>
      <trkpt lat="42.80664" lon="1.4107">
        <ele>1513</ele>
        <time>2019-04-27T16:03:24Z</time>
      </trkpt>
      <trkpt lat="42.80652" lon="1.40972">
        <ele>1507</ele>
        <time>2019-04-27T16:03:36Z</time>
      </trkpt>
      <trkpt lat="42.80644" lon="1.40965">
        <ele>1507</ele>
        <time>2019-04-27T16:03:37Z</time>
      </trkpt>
      <trkpt lat="42.80635" lon="1.4096">
        <ele>1507</ele>
        <time>2019-04-27T16:03:38Z</time>
      </trkpt>
      <trkpt lat="42.80626" lon="1.40953">
        <ele>1507</ele>
        <time>2019-04-27T16:03:39Z</time>
      </trkpt>
      <trkpt lat="42.80617" lon="1.40946">
        <ele>1507</ele>
        <time>2019-04-27T16:03:40Z</time>
      </trkpt>
      <trkpt lat="42.80609" lon="1.40936">
        <ele>1507</ele>
        <time>2019-04-27T16:03:41Z</time>
      </trkpt>
      <trkpt lat="42.80603" lon="1.40924">
        <ele>1507</ele>
        <time>2019-04-27T16:03:42Z</time>
      </trkpt>
      <trkpt lat="42.80599" lon="1.4091">
        <ele>1507</ele>
        <time>2019-04-27T16:03:43Z</time>
      </trkpt>
      <trkpt lat="42.80564" lon="1.40657">
        <ele>1502</ele>
        <time>2019-04-27T16:04:00Z</time>
      </trkpt>
      <trkpt lat="42.80563" lon="1.4064">
        <ele>1501</ele>
        <time>2019-04-27T16:04:01Z</time>
      </trkpt>
      <trkpt lat="42.80591" lon="1.40443">
        <ele>1499</ele>
        <time>2019-04-27T16:04:13Z</time>
      </trkpt>
      <trkpt lat="42.80588" lon="1.40427">
        <ele>1499</ele>
        <time>2019-04-27T16:04:14Z</time>
      </trkpt>
      <trkpt lat="42.80584" lon="1.40411">
        <ele>1499</ele>
        <time>2019-04-27T16:04:15Z</time>
      </trkpt>
      <trkpt lat="42.8058" lon="1.40394">
        <ele>1499</ele>
        <time>2019-04-27T16:04:16Z</time>
      </trkpt>
      <trkpt lat="42.80577" lon="1.40377">
        <ele>1499</ele>
        <time>2019-04-27T16:04:17Z</time>
      </trkpt>
      <trkpt lat="42.80576" lon="1.4036">
        <ele>1499</ele>
        <time>2019-04-27T16:04:18Z</time>
      </trkpt>
      <trkpt lat="42.80552" lon="1.40079">
        <ele>1494</ele>
        <time>2019-04-27T16:04:34Z</time>
      </trkpt>
      <trkpt lat="42.80549" lon="1.4006">
        <ele>1493</ele>
        <time>2019-04-27T16:04:35Z</time>
      </trkpt>
      <trkpt lat="42.80548" lon="1.40041">
        <ele>1492</ele>
        <time>2019-04-27T16:04:36Z</time>
      </trkpt>
      <trkpt lat="42.80607" lon="1.39883">
        <ele>1489</ele>
        <time>2019-04-27T16:04:47Z</time>
      </trkpt>
      <trkpt lat="42.80619" lon="1.39881">
        <ele>1489</ele>
        <time>2019-04-27T16:04:48Z</time>
      </trkpt>
      <trkpt lat="42.80629" lon="1.39884">
        <ele>1489</ele>
        <time>2019-04-27T16:04:49Z</time>
      </trkpt>
      <trkpt lat="42.80639" lon="1.39889">
        <ele>1489</ele>
        <time>2019-04-27T16:04:50Z</time>
      </trkpt>
      <trkpt lat="42.80648" lon="1.39895">
        <ele>1489</ele>
        <time>2019-04-27T16:04:51Z</time>
      </trkpt>
      <trkpt lat="42.80657" lon="1.39901">
        <ele>1489</ele>
        <time>2019-04-27T16:04:52Z</time>
      </trkpt>
      <trkpt lat="42.80811" lon="1.39858">
        <ele>1486</ele>
        <time>2019-04-27T16:05:10Z</time>
      </trkpt>
      <trkpt lat="42.80818" lon="1.39853">
        <ele>1485</ele>
        <time>2019-04-27T16:05:11Z</time>
      </trkpt>
      <trkpt lat="42.80825" lon="1.39847">
        <ele>1484</ele>
        <time>2019-04-27T16:05:12Z</time>
      </trkpt>
      <trkpt lat="42.80832" lon="1.39842">
        <ele>1483</ele>
        <time>2019-04-27T16:05:13Z</time>
      </trkpt>
      <trkpt lat="42.80904" lon="1.39778">
        <ele>1481</ele>
        <time>2019-04-27T16:05:24Z</time>
      </trkpt>
      <trkpt lat="42.8091" lon="1.39772">
        <ele>1481</ele>
        <time>2019-04-27T16:05:25Z</time>
      </trkpt>
      <trkpt lat="42.80916" lon="1.39765">
        <ele>1481</ele>
        <time>2019-04-27T16:05:26Z</time>
      </trkpt>
      <trkpt lat="42.80922" lon="1.39758">
        <ele>1481</ele>
        <time>2019-04-27T16:05:27Z</time>
      </trkpt>
      <trkpt lat="42.81001" lon="1.39608">
        <ele>1478</ele>
        <time>2019-04-27T16:05:46Z</time>
      </trkpt>
      <trkpt lat="42.81054" lon="1.39519">
        <ele>1473</ele>
        <time>2019-04-27T16:05:58Z</time>
      </trkpt>
      <trkpt lat="42.81058" lon="1.39512">
        <ele>1473</ele>
        <time>2019-04-27T16:05:59Z</time>
      </trkpt>
      <trkpt lat="42.81063" lon="1.39504">
        <ele>1473</ele>
        <time>2019-04-27T16:06:00Z</time>
      </trkpt>
      <trkpt lat="42.81067" lon="1.39496">
        <ele>1473</ele>
        <time>2019-04-27T16:06:01Z</time>
      </trkpt>
      <trkpt lat="42.81071" lon="1.39489">
        <ele>1473</ele>
        <time>2019-04-27T16:06:02Z</time>
      </trkpt>
      <trkpt lat="42.81075" lon="1.39481">
        <ele>1473</ele>
        <time>2019-04-27T16:06:03Z</time>
      </trkpt>
      <trkpt lat="42.81182" lon="1.39404">
        <ele>1469</ele>
        <time>2019-04-27T16:06:21Z</time>
      </trkpt>
      <trkpt lat="42.81188" lon="1.39399">
        <ele>1468</ele>
        <time>2019-04-27T16:06:22Z</time>
      </trkpt>
      <trkpt lat="42.81222" lon="1.39309">
        <ele>1466</ele>
        <time>2019-04-27T16:06:34Z</time>
      </trkpt>
      <trkpt lat="42.81217" lon="1.39299">
        <ele>1466</ele>
        <time>2019-04-27T16:06:35Z</time>
      </trkpt>
      <trkpt lat="42.81211" lon="1.3929">
        <ele>1466</ele>
        <time>2019-04-27T16:06:36Z</time>
      </trkpt>
      <trkpt lat="42.81205" lon="1.3928">
        <ele>1466</ele>
        <time>2019-04-27T16:06:37Z</time>
      </trkpt>
      <trkpt lat="42.81197" lon="1.39273">
        <ele>1466</ele>
        <time>2019-04-27T16:06:38Z</time>
      </trkpt>
      <trkpt lat="42.81189" lon="1.39269">
        <ele>1466</ele>
        <time>2019-04-27T16:06:39Z</time>
      </trkpt>
      <trkpt lat="42.81129" lon="1.39091">
        <ele>1461</ele>
        <time>2019-04-27T16:06:56Z</time>
      </trkpt>
      <trkpt lat="42.81125" lon="1.3908">
        <ele>1460</ele>
        <time>2019-04-27T16:06:57Z</time>
      </trkpt>
      <trkpt lat="42.81022" lon="1.39157">
        <ele>1457</ele>
        <time>2019-04-27T16:07:09Z</time>
      </trkpt>
      <trkpt lat="42.81014" lon="1.39168">
        <ele>1457</ele>
        <time>2019-04-27T16:07:10Z</time>
      </trkpt>
      <trkpt lat="42.81006" lon="1.39181">
        <ele>1457</ele>
        <time>2019-04-27T16:07:11Z</time>
      </trkpt>
      <trkpt lat="42.80999" lon="1.39193">
        <ele>1457</ele>
        <time>2019-04-27T16:07:12Z</time>
      </trkpt>
      <trkpt lat="42.80794" lon="1.39298">
        <ele>1453</ele>
        <time>2019-04-27T16:07:30Z</time>
      </trkpt>
      <trkpt lat="42.80783" lon="1.39289">
        <ele>1452</ele>
        <time>2019-04-27T16:07:31Z</time>
      </trkpt>
      <trkpt lat="42.80772" lon="1.3928">
        <ele>1451</ele>
        <time>2019-04-27T16:07:32Z</time>
      </trkpt>
      <trkpt lat="42.8076" lon="1.39272">
        <ele>1450</ele>
        <time>2019-04-27T16:07:33Z</time>
      </trkpt>
      <trkpt lat="42.80748" lon="1.39262">
        <ele>1449</ele>
        <time>2019-04-27T16:07:34Z</time>
      </trkpt>
      <trkpt lat="42.8069" lon="1.39112">
        <ele>1447</ele>
        <time>2019-04-27T16:07:44Z</time>
      </trkpt>
      <trkpt lat="42.80695" lon="1.39095">
        <ele>1447</ele>
        <time>2019-04-27T16:07:45Z</time>
      </trkpt>
      <trkpt lat="42.80701" lon="1.39079">
        <ele>1447</ele>
        <time>2019-04-27T16:07:46Z</time>
      </trkpt>
      <trkpt lat="42.80709" lon="1.39066">
        <ele>1447</ele>
        <time>2019-04-27T16:07:47Z</time>
      </trkpt>
      <trkpt lat="42.80716" lon="1.39053">
        <ele>1447</ele>
        <time>2019-04-27T16:07:48Z</time>
      </trkpt>
      <trkpt lat="42.80798" lon="1.38781">
        <ele>1444</ele>
        <time>2019-04-27T16:08:06Z</time>
      </trkpt>
      <trkpt lat="42.80808" lon="1.3877">
        <ele>1443</ele>
        <time>2019-04-27T16:08:07Z</time>
      </trkpt>
      <trkpt lat="42.80817" lon="1.38758">
        <ele>1442</ele>
        <time>2019-04-27T16:08:08Z</time>
      </trkpt>
      <trkpt lat="42.80823" lon="1.38745">
        <ele>1441</ele>
        <time>2019-04-27T16:08:09Z</time>
      </trkpt>
      <trkpt lat="42.80756" lon="1.38624">
        <ele>1438</ele>
        <time>2019-04-27T16:08:20Z</time>
      </trkpt>
      <trkpt lat="42.80755" lon="1.38607">
        <ele>1438</ele>
        <time>2019-04-27T16:08:21Z</time>
      </trkpt>
      <trkpt lat="42.80756" lon="1.38592">
        <ele>1438</ele>
        <time>2019-04-27T16:08:22Z</time>
      </trkpt>
      <trkpt lat="42.80759" lon="1.38578">
        <ele>1438</ele>
        <time>2019-04-27T16:08:23Z</time>
      </trkpt>
      <trkpt lat="42.80759" lon="1.38564">
        <ele>1438</ele>
        <time>2019-04-27T16:08:24Z</time>
      </trkpt>
      <trkpt lat="42.80789" lon="1.38388">
        <ele>1433</ele>
        <time>2019-04-27T16:08:42Z</time>
      </trkpt>
      <trkpt lat="42.80797" lon="1.38379">
        <ele>1432</ele>
        <time>2019-04-27T16:08:43Z</time>
      </trkpt>
      <trkpt lat="42.80891" lon="1.38366">
        <ele>1427</ele>
        <time>2019-04-27T16:08:55Z</time>
      </trkpt>
      <trkpt lat="42.809" lon="1.38371">
        <ele>1427</ele>
        <time>2019-04-27T16:08:56Z</time>
      </trkpt>
      <trkpt lat="42.80909" lon="1.38377">
        <ele>1427</ele>
        <time>2019-04-27T16:08:57Z</time>
      </trkpt>
      <trkpt lat="42.80918" lon="1.38384">
        <ele>1427</ele>
        <time>2019-04-27T16:08:58Z</time>
      </trkpt>
      <trkpt lat="42.80927" lon="1.38392">
        <ele>1427</ele>
        <time>2019-04-27T16:08:59Z</time>
      </trkpt>
      <trkpt lat="42.80936" lon="1.38399">
        <ele>1427</ele>
        <time>2019-04-27T16:09:00Z</time>
      </trkpt>
      <trkpt lat="42.8109" lon="1.38536">
        <ele>1424</ele>
        <time>2019-04-27T16:09:16Z</time>
      </trkpt>
      <trkpt lat="42.81101" lon="1.38538">
        <ele>1423</ele>
        <time>2019-04-27T16:09:17Z</time>
      </trkpt>
      <trkpt lat="42.81111" lon="1.38539">
        <ele>1422</ele>
        <time>2019-04-27T16:09:18Z</time>
      </trkpt>
      <trkpt lat="42.81054" lon="1.38559">
        <ele>1419</ele>
        <time>2019-04-27T16:09:30Z</time>
      </trkpt>
      <trkpt lat="42.81045" lon="1.3856">
        <ele>1419</ele>
        <time>2019-04-27T16:09:31Z</time>
      </trkpt>
      <trkpt lat="42.81037" lon="1.3856">
        <ele>1419</ele>
        <time>2019-04-27T16:09:32Z</time>
      </trkpt>
      <trkpt lat="42.81028" lon="1.3856">
        <ele>1419</ele>
        <time>2019-04-27T16:09:33Z</time>
      </trkpt>
      <trkpt lat="42.8102" lon="1.38559">
        <ele>1419</ele>
        <time>2019-04-27T16:09:34Z</time>
      </trkpt>
      <trkpt lat="42.81013" lon="1.38562">
        <ele>1419</ele>
        <time>2019-04-27T16:09:35Z</time>
      </trkpt>
      <trkpt lat="42.81009" lon="1.3857">
        <ele>1419</ele>
        <time>2019-04-27T16:09:36Z</time>
      </trkpt>
      <trkpt lat="42.81138" lon="1.38677">
        <ele>1413</ele>
        <time>2019-04-27T16:09:53Z</time>
      </trkpt>
      <trkpt lat="42.81135" lon="1.3869">
        <ele>1412</ele>
        <time>2019-04-27T16:09:54Z</time>
      </trkpt>
      <trkpt lat="42.8113" lon="1.38701">
        <ele>1411</ele>
        <time>2019-04-27T16:09:55Z</time>
      </trkpt>
      <trkpt lat="42.81209" lon="1.3877">
        <ele>1409</ele>
        <time>2019-04-27T16:10:07Z</time>
      </trkpt>
      <trkpt lat="42.81219" lon="1.38776">
        <ele>1409</ele>
        <time>2019-04-27T16:10:08Z</time>
      </trkpt>
      <trkpt lat="42.8123" lon="1.38781">
        <ele>1409</ele>
        <time>2019-04-27T16:10:09Z</time>
      </trkpt>
      <trkpt lat="42.81241" lon="1.38786">
        <ele>1409</ele>
        <time>2019-04-27T16:10:10Z</time>
      </trkpt>
      <trkpt lat="42.81445" lon="1.38916">
        <ele>1406</ele>
        <time>2019-04-27T16:10:27Z</time>
      </trkpt>
      <trkpt lat="42.81459" lon="1.38917">
        <ele>1405</ele>
        <time>2019-04-27T16:10:28Z</time>
      </trkpt>
      <trkpt lat="42.81473" lon="1.38917">
        <ele>1404</ele>
        <time>2019-04-27T16:10:29Z</time>
      </trkpt>
      <trkpt lat="42.81486" lon="1.38919">
        <ele>1403</ele>
        <time>2019-04-27T16:10:30Z</time>
      </trkpt>
      <trkpt lat="42.81498" lon="1.38923">
        <ele>1402</ele>
        <time>2019-04-27T16:10:31Z</time>
      </trkpt>
      <trkpt lat="42.81623" lon="1.38993">
        <ele>1400</ele>
        <time>2019-04-27T16:10:41Z</time>
      </trkpt>
      <trkpt lat="42.81636" lon="1.38997">
        <ele>1400</ele>
        <time>2019-04-27T16:10:42Z</time>
      </trkpt>
      <trkpt lat="42.81648" lon="1.39">
        <ele>1400</ele>
        <time>2019-04-27T16:10:43Z</time>
      </trkpt>
      <trkpt lat="42.81659" lon="1.39001">
        <ele>1400</ele>
        <time>2019-04-27T16:10:44Z</time>
      </trkpt>
      <trkpt lat="42.81667" lon="1.38998">
        <ele>1400</ele>
        <time>2019-04-27T16:10:45Z</time>
      </trkpt>
      <trkpt lat="42.81741" lon="1.38764">
        <ele>1396</ele>
        <time>2019-04-27T16:11:03Z</time>
      </trkpt>
      <trkpt lat="42.81748" lon="1.3875">
        <ele>1395</ele>
        <time>2019-04-27T16:11:04Z</time>
      </trkpt>
      <trkpt lat="42.81863" lon="1.38596">
        <ele>1391</ele>
        <time>2019-04-27T16:11:16Z</time>
      </trkpt>
      <trkpt lat="42.81873" lon="1.38588">
        <ele>1391</ele>
        <time>2019-04-27T16:11:17Z</time>
      </trkpt>
      <trkpt lat="42.81883" lon="1.38583">
        <ele>1391</ele>
        <time>2019-04-27T16:11:18Z</time>
      </trkpt>
      <trkpt lat="42.8189" lon="1.3858">
        <ele>1391</ele>
        <time>2019-04-27T16:11:19Z</time>
      </trkpt>
      <trkpt lat="42.81896" lon="1.38576">
        <ele>1391</ele>
        <time>2019-04-27T16:11:20Z</time>
      </trkpt>
      <trkpt lat="42.81898" lon="1.38569">
        <ele>1391</ele>
        <time>2019-04-27T16:11:21Z</time>
      </trkpt>
      <trkpt lat="42.81894" lon="1.38562">
        <ele>1391</ele>
        <time>2019-04-27T16:11:22Z</time>
      </trkpt>
      <trkpt lat="42.8176" lon="1.38627">
        <ele>1387</ele>
        <time>2019-04-27T16:11:38Z</time>
      </trkpt>
      <trkpt lat="42.81754" lon="1.38634">
        <ele>1386</ele>
        <time>2019-04-27T16:11:39Z</time>
      </trkpt>
      <trkpt lat="42.81747" lon="1.38637">
        <ele>1385</ele>
        <time>2019-04-27T16:11:40Z</time>
      </trkpt>
      <trkpt lat="42.81801" lon="1.38523">
        <ele>1383</ele>
        <time>2019-04-27T16:11:52Z</time>
      </trkpt>
      <trkpt lat="42.81808" lon="1.38511">
        <ele>1383</ele>
        <time>2019-04-27T16:11:53Z</time>
      </trkpt>
      <trkpt lat="42.81815" lon="1.38498">
        <ele>1383</ele>
        <time>2019-04-27T16:11:54Z</time>
      </trkpt>
      <trkpt lat="42.81823" lon="1.38484">
        <ele>1383</ele>
        <time>2019-04-27T16:11:55Z</time>
      </trkpt>
      <trkpt lat="42.8183" lon="1.38469">
        <ele>1383</ele>
        <time>2019-04-27T16:11:56Z</time>
      </trkpt>
      <trkpt lat="42.81837" lon="1.38455">
        <ele>1383</ele>
        <time>2019-04-27T16:11:57Z</time>
      </trkpt>
      <trkpt lat="42.8198" lon="1.3839">
        <ele>1378</ele>
        <time>2019-04-27T16:12:13Z</time>
      </trkpt>
      <trkpt lat="42.81991" lon="1.38389">
        <ele>1377</ele>
        <time>2019-04-27T16:12:14Z</time>
      </trkpt>
      <trkpt lat="42.82001" lon="1.38388">
        <ele>1376</ele>
        <time>2019-04-27T16:12:15Z</time>
      </trkpt>
      <trkpt lat="42.8201" lon="1.38388">
        <ele>1375</ele>
        <time>2019-04-27T16:12:16Z</time>
      </trkpt>
      <trkpt lat="42.81971" lon="1.38339">
        <ele>1371</ele>
        <time>2019-04-27T16:12:26Z</time>
      </trkpt>
      <trkpt lat="42.81965" lon="1.3833">
        <ele>1371</ele>
        <time>2019-04-27T16:12:27Z</time>
      </trkpt>
      <trkpt lat="42.8196" lon="1.38321">
        <ele>1371</ele>
        <time>2019-04-27T16:12:28Z</time>
      </trkpt>
      <trkpt lat="42.81954" lon="1.38312">
        <ele>1371</ele>
        <time>2019-04-27T16:12:29Z</time>
      </trkpt>
      <trkpt lat="42.81947" lon="1.38303">
        <ele>1371</ele>
        <time>2019-04-27T16:12:30Z</time>
      </trkpt>
      <trkpt lat="42.81869" lon="1.38248">
        <ele>1367</ele>
        <time>2019-04-27T16:12:48Z</time>
      </trkpt>
      <trkpt lat="42.81877" lon="1.38244">
        <ele>1367</ele>
        <time>2019-04-27T16:12:49Z</time>
      </trkpt>
      <trkpt lat="42.81886" lon="1.3824">
        <ele>1366</ele>
        <time>2019-04-27T16:12:50Z</time>
      </trkpt>
      <trkpt lat="42.81894" lon="1.38235">
        <ele>1365</ele>
        <time>2019-04-27T16:12:51Z</time>
      </trkpt>
      <trkpt lat="42.81902" lon="1.38229">
        <ele>1364</ele>
        <time>2019-04-27T16:12:52Z</time>
      </trkpt>
      <trkpt lat="42.8201" lon="1.38196">
        <ele>1362</ele>
        <time>2019-04-27T16:13:02Z</time>
      </trkpt>
      <trkpt lat="42.82023" lon="1.38196">
        <ele>1362</ele>
        <time>2019-04-27T16:13:03Z</time>
      </trkpt>
      <trkpt lat="42.82035" lon="1.38196">
        <ele>1362</ele>
        <time>2019-04-27T16:13:04Z</time>
      </trkpt>
      <trkpt lat="42.82047" lon="1.38197">
        <ele>1362</ele>
        <time>2019-04-27T16:13:05Z</time>
      </trkpt>
      <trkpt lat="42.82059" lon="1.38201">
        <ele>1362</ele>
        <time>2019-04-27T16:13:06Z</time>
      </trkpt>
      <trkpt lat="42.8207" lon="1.38207">
        <ele>1362</ele>
        <time>2019-04-27T16:13:07Z</time>
      </trkpt>
      <trkpt lat="42.82081" lon="1.38217">
        <ele>1362</ele>
        <time>2019-04-27T16:13:08Z</time>
      </trkpt>
      <trkpt lat="42.82331" lon="1.38157">
        <ele>1358</ele>
        <time>2019-04-27T16:13:26Z</time>
      </trkpt>
      <trkpt lat="42.82345" lon="1.38145">
        <ele>1357</ele>
        <time>2019-04-27T16:13:27Z</time>
      </trkpt>
      <trkpt lat="42.82497" lon="1.38014">
        <ele>1354</ele>
        <time>2019-04-27T16:13:38Z</time>
      </trkpt>
      <trkpt lat="42.82511" lon="1.38001">
        <ele>1354</ele>
        <time>2019-04-27T16:13:39Z</time>
      </trkpt>
      <trkpt lat="42.82525" lon="1.37988">
        <ele>1354</ele>
        <time>2019-04-27T16:13:40Z</time>
      </trkpt>
      <trkpt lat="42.82539" lon="1.37975">
        <ele>1354</ele>
        <time>2019-04-27T16:13:41Z</time>
      </trkpt>
      <trkpt lat="42.82553" lon="1.37963">
        <ele>1354</ele>
        <time>2019-04-27T16:13:42Z</time>
      </trkpt>
      <trkpt lat="42.82565" lon="1.37952">
        <ele>1354</ele>
        <time>2019-04-27T16:13:43Z</time>
      </trkpt>
      <trkpt lat="42.82735" lon="1.37985">
        <ele>1350</ele>
        <time>2019-04-27T16:13:59Z</time>
      </trkpt>
      <trkpt lat="42.82743" lon="1.37993">
        <ele>1349</ele>
        <time>2019-04-27T16:14:00Z</time>
      </trkpt>
      <trkpt lat="42.82753" lon="1.37998">
        <ele>1348</ele>
        <time>2019-04-27T16:14:01Z</time>
      </trkpt>
      <trkpt lat="42.82888" lon="1.38021">
        <ele>1346</ele>
        <time>2019-04-27T16:14:13Z</time>
      </trkpt>
      <trkpt lat="42.82899" lon="1.38021">
        <ele>1346</ele>
        <time>2019-04-27T16:14:14Z</time>
      </trkpt>
      <trkpt lat="42.82911" lon="1.3802">
        <ele>1346</ele>
        <time>2019-04-27T16:14:15Z</time>
      </trkpt>
      <trkpt lat="42.82922" lon="1.38017">
        <ele>1346</ele>
        <time>2019-04-27T16:14:16Z</time>
      </trkpt>
      <trkpt lat="42.82931" lon="1.38013">
        <ele>1346</ele>
        <time>2019-04-27T16:14:17Z</time>
      </trkpt>
      <trkpt lat="42.82941" lon="1.3801">
        <ele>1346</ele>
        <time>2019-04-27T16:14:18Z</time>
      </trkpt>
      <trkpt lat="42.8313" lon="1.38016">
        <ele>1341</ele>
        <time>2019-04-27T16:14:34Z</time>
      </trkpt>
      <trkpt lat="42.83142" lon="1.3801">
        <ele>1340</ele>
        <time>2019-04-27T16:14:35Z</time>
      </trkpt>
      <trkpt lat="42.83154" lon="1.38003">
        <ele>1339</ele>
        <time>2019-04-27T16:14:36Z</time>
      </trkpt>
      <trkpt lat="42.83303" lon="1.37895">
        <ele>1336</ele>
        <time>2019-04-27T16:14:47Z</time>
      </trkpt>
      <trkpt lat="42.83314" lon="1.3788">
        <ele>1336</ele>
        <time>2019-04-27T16:14:48Z</time>
      </trkpt>
      <trkpt lat="42.83327" lon="1.37867">
        <ele>1336</ele>
        <time>2019-04-27T16:14:49Z</time>
      </trkpt>
      <trkpt lat="42.83341" lon="1.37855">
        <ele>1336</ele>
        <time>2019-04-27T16:14:50Z</time>
      </trkpt>
      <trkpt lat="42.83354" lon="1.37844">
        <ele>1336</ele>
        <time>2019-04-27T16:14:51Z</time>
      </trkpt>
      <trkpt lat="42.83559" lon="1.37726">
        <ele>1332</ele>
        <time>2019-04-27T16:15:09Z</time>
      </trkpt>
      <trkpt lat="42.83567" lon="1.37735">
        <ele>1331</ele>
        <time>2019-04-27T16:15:10Z</time>
      </trkpt>
      <trkpt lat="42.83696" lon="1.37685">
        <ele>1326</ele>
        <time>2019-04-27T16:15:22Z</time>
      </trkpt>
      <trkpt lat="42.83707" lon="1.37675">
        <ele>1326</ele>
        <time>2019-04-27T16:15:23Z</time>
      </trkpt>
      <trkpt lat="42.83718" lon="1.37665">
        <ele>1326</ele>
        <time>2019-04-27T16:15:24Z</time>
      </trkpt>
      <trkpt lat="42.83731" lon="1.37657">
        <ele>1326</ele>
        <time>2019-04-27T16:15:25Z</time>
      </trkpt>
      <trkpt lat="42.83744" lon="1.37651">
        <ele>1326</ele>
        <time>2019-04-27T16:15:26Z</time>
      </trkpt>
      <trkpt lat="42.83757" lon="1.37647">
        <ele>1326</ele>
        <time>2019-04-27T16:15:27Z</time>
      </trkpt>
      <trkpt lat="42.83969" lon="1.3754">
        <ele>1323</ele>
        <time>2019-04-27T16:15:45Z</time>
      </trkpt>
      <trkpt lat="42.83983" lon="1.37536">
        <ele>1322</ele>
        <time>2019-04-27T16:15:46Z</time>
      </trkpt>
      <trkpt lat="42.83998" lon="1.37532">
        <ele>1321</ele>
        <time>2019-04-27T16:15:47Z</time>
      </trkpt>
      <trkpt lat="42.84013" lon="1.37528">
        <ele>1320</ele>
        <time>2019-04-27T16:15:48Z</time>
      </trkpt>
      <trkpt lat="42.84171" lon="1.37523">
        <ele>1317</ele>
        <time>2019-04-27T16:15:59Z</time>
      </trkpt>
      <trkpt lat="42.84183" lon="1.37528">
        <ele>1317</ele>
        <time>2019-04-27T16:16:00Z</time>
      </trkpt>
      <trkpt lat="42.84194" lon="1.37532">
        <ele>1317</ele>
        <time>2019-04-27T16:16:01Z</time>
      </trkpt>
      <trkpt lat="42.84206" lon="1.37533">
        <ele>1317</ele>
        <time>2019-04-27T16:16:02Z</time>
      </trkpt>
      <trkpt lat="42.84217" lon="1.3753">
        <ele>1317</ele>
        <time>2019-04-27T16:16:03Z</time>
      </trkpt>
      <trkpt lat="42.84437" lon="1.37463">
        <ele>1312</ele>
        <time>2019-04-27T16:16:21Z</time>
      </trkpt>
      <trkpt lat="42.84448" lon="1.37456">
        <ele>1311</ele>
        <time>2019-04-27T16:16:22Z</time>
      </trkpt>
      <trkpt lat="42.84573" lon="1.37365">
        <ele>1306</ele>
        <time>2019-04-27T16:16:34Z</time>
      </trkpt>
      <trkpt lat="42.84582" lon="1.37353">
        <ele>1306</ele>
        <time>2019-04-27T16:16:35Z</time>
      </trkpt>
      <trkpt lat="42.8459" lon="1.37338">
        <ele>1306</ele>
        <time>2019-04-27T16:16:36Z</time>
      </trkpt>
      <trkpt lat="42.84599" lon="1.37324">
        <ele>1306</ele>
        <time>2019-04-27T16:16:37Z</time>
      </trkpt>
      <trkpt lat="42.84607" lon="1.3731">
        <ele>1306</ele>
        <time>2019-04-27T16:16:38Z</time>
      </trkpt>
      <trkpt lat="42.84616" lon="1.37295">
        <ele>1306</ele>
        <time>2019-04-27T16:16:39Z</time>
      </trkpt>
      <trkpt lat="42.84625" lon="1.37281">
        <ele>1306</ele>
        <time>2019-04-27T16:16:40Z</time>
      </trkpt>
      <trkpt lat="42.84828" lon="1.37186">
        <ele>1303</ele>
        <time>2019-04-27T16:16:56Z</time>
      </trkpt>
      <trkpt lat="42.8484" lon="1.37181">
        <ele>1302</ele>
        <time>2019-04-27T16:16:57Z</time>
      </trkpt>
      <trkpt lat="42.84974" lon="1.37163">
        <ele>1299</ele>
        <time>2019-04-27T16:17:08Z</time>
      </trkpt>
      <trkpt lat="42.84986" lon="1.37162">
        <ele>1299</ele>
        <time>2019-04-27T16:17:09Z</time>
      </trkpt>
      <trkpt lat="42.84999" lon="1.37162">
        <ele>1299</ele>
        <time>2019-04-27T16:17:10Z</time>
      </trkpt>
      <trkpt lat="42.85011" lon="1.37162">
        <ele>1299</ele>
        <time>2019-04-27T16:17:11Z</time>
      </trkpt>
      <trkpt lat="42.85023" lon="1.37161">
        <ele>1299</ele>
        <time>2019-04-27T16:17:12Z</time>
      </trkpt>
      <trkpt lat="42.85036" lon="1.3716">
        <ele>1299</ele>
        <time>2019-04-27T16:17:13Z</time>
      </trkpt>
      <trkpt lat="42.85049" lon="1.37159">
        <ele>1299</ele>
        <time>2019-04-27T16:17:14Z</time>
      </trkpt>
      <trkpt lat="42.85063" lon="1.37159">
        <ele>1299</ele>
        <time>2019-04-27T16:17:15Z</time>
      </trkpt>
      <trkpt lat="42.85076" lon="1.37163">
        <ele>1299</ele>
        <time>2019-04-27T16:17:16Z</time>
      </trkpt>
      <trkpt lat="42.85249" lon="1.3722">
        <ele>1294</ele>
        <time>2019-04-27T16:17:32Z</time>
      </trkpt>
      <trkpt lat="42.85258" lon="1.37214">
        <ele>1293</ele>
        <time>2019-04-27T16:17:33Z</time>
      </trkpt>
      <trkpt lat="42.85267" lon="1.37208">
        <ele>1292</ele>
        <time>2019-04-27T16:17:34Z</time>
      </trkpt>
      <trkpt lat="42.85365" lon="1.37125">
        <ele>1290</ele>
        <time>2019-04-27T16:17:45Z</time>
      </trkpt>
      <trkpt lat="42.85374" lon="1.37118">
        <ele>1290</ele>
        <time>2019-04-27T16:17:46Z</time>
      </trkpt>
      <trkpt lat="42.85383" lon="1.3711">
        <ele>1290</ele>
        <time>2019-04-27T16:17:47Z</time>
      </trkpt>
      <trkpt lat="42.85393" lon="1.37102">
        <ele>1290</ele>
        <time>2019-04-27T16:17:48Z</time>
      </trkpt>
      <trkpt lat="42.85402" lon="1.37095">
        <ele>1290</ele>
        <time>2019-04-27T16:17:49Z</time>
      </trkpt>
      <trkpt lat="42.85594" lon="1.37008">
        <ele>1286</ele>
        <time>2019-04-27T16:18:06Z</time>
      </trkpt>
      <trkpt lat="42.85605" lon="1.37015">
        <ele>1285</ele>
        <time>2019-04-27T16:18:07Z</time>
      </trkpt>
      <trkpt lat="42.85712" lon="1.37116">
        <ele>1280</ele>
        <time>2019-04-27T16:18:18Z</time>
      </trkpt>
      <trkpt lat="42.85724" lon="1.37117">
        <ele>1280</ele>
        <time>2019-04-27T16:18:19Z</time>
      </trkpt>
      <trkpt lat="42.85736" lon="1.37119">
        <ele>1280</ele>
        <time>2019-04-27T16:18:20Z</time>
      </trkpt>
      <trkpt lat="42.85748" lon="1.37121">
        <ele>1280</ele>
        <time>2019-04-27T16:18:21Z</time>
      </trkpt>
      <trkpt lat="42.85759" lon="1.37124">
        <ele>1280</ele>
        <time>2019-04-27T16:18:22Z</time>
      </trkpt>
      <trkpt lat="42.8577" lon="1.37128">
        <ele>1280</ele>
        <time>2019-04-27T16:18:23Z</time>
      </trkpt>
      <trkpt lat="42.85782" lon="1.37131">
        <ele>1280</ele>
        <time>2019-04-27T16:18:24Z</time>
      </trkpt>
      <trkpt lat="42.85793" lon="1.37135">
        <ele>1280</ele>
        <time>2019-04-27T16:18:25Z</time>
      </trkpt>
      <trkpt lat="42.85987" lon="1.37112">
        <ele>1278</ele>
        <time>2019-04-27T16:18:41Z</time>
      </trkpt>
      <trkpt lat="42.85999" lon="1.37112">
        <ele>1277</ele>
        <time>2019-04-27T16:18:42Z</time>
      </trkpt>
      <trkpt lat="42.86012" lon="1.37113">
        <ele>1276</ele>
        <time>2019-04-27T16:18:43Z</time>
      </trkpt>
      <trkpt lat="42.86025" lon="1.37115">
        <ele>1275</ele>
        <time>2019-04-27T16:18:44Z</time>
      </trkpt>
      <trkpt lat="42.86038" lon="1.37115">
        <ele>1274</ele>
        <time>2019-04-27T16:18:45Z</time>
      </trkpt>
      <trkpt lat="42.8614" lon="1.37023">
        <ele>1271</ele>
        <time>2019-04-27T16:18:56Z</time>
      </trkpt>
      <trkpt lat="42.8615" lon="1.37019">
        <ele>1271</ele>
        <time>2019-04-27T16:18:57Z</time>
      </trkpt>
      <trkpt lat="42.8616" lon="1.37015">
        <ele>1271</ele>
        <time>2019-04-27T16:18:58Z</time>
      </trkpt>
      <trkpt lat="42.8617" lon="1.37012">
        <ele>1271</ele>
        <time>2019-04-27T16:18:59Z</time>
      </trkpt>
      <trkpt lat="42.86181" lon="1.37012">
        <ele>1271</ele>
        <time>2019-04-27T16:19:00Z</time>
      </trkpt>
      <trkpt lat="42.86306" lon="1.37177">
        <ele>1268</ele>
        <time>2019-04-27T16:19:17Z</time>
      </trkpt>
      <trkpt lat="42.86317" lon="1.37179">
        <ele>1268</ele>
        <time>2019-04-27T16:19:18Z</time>
      </trkpt>
      <trkpt lat="42.86435" lon="1.37185">
        <ele>1266</ele>
        <time>2019-04-27T16:19:31Z</time>
      </trkpt>
      <trkpt lat="42.86442" lon="1.3719">
        <ele>1266</ele>
        <time>2019-04-27T16:19:32Z</time>
      </trkpt>
      <trkpt lat="42.8645" lon="1.37195">
        <ele>1266</ele>
        <time>2019-04-27T16:19:33Z</time>
      </trkpt>
      <trkpt lat="42.86457" lon="1.37201">
        <ele>1266</ele>
        <time>2019-04-27T16:19:34Z</time>
      </trkpt>
      <trkpt lat="42.86463" lon="1.37209">
        <ele>1266</ele>
        <time>2019-04-27T16:19:35Z</time>
      </trkpt>
      <trkpt lat="42.86469" lon="1.37217">
        <ele>1266</ele>
        <time>2019-04-27T16:19:36Z</time>
      </trkpt>
      <trkpt lat="42.86476" lon="1.37225">
        <ele>1266</ele>
        <time>2019-04-27T16:19:37Z</time>
      </trkpt>
      <trkpt lat="42.86478" lon="1.37392">
        <ele>1260</ele>
        <time>2019-04-27T16:19:53Z</time>
      </trkpt>
      <trkpt lat="42.86482" lon="1.37402">
        <ele>1259</ele>
        <time>2019-04-27T16:19:54Z</time>
      </trkpt>
      <trkpt lat="42.86553" lon="1.37452">
        <ele>1256</ele>
        <time>2019-04-27T16:20:05Z</time>
      </trkpt>
      <trkpt lat="42.86559" lon="1.3745">
        <ele>1256</ele>
        <time>2019-04-27T16:20:06Z</time>
      </trkpt>
      <trkpt lat="42.86566" lon="1.37447">
        <ele>1256</ele>
        <time>2019-04-27T16:20:07Z</time>
      </trkpt>
      <trkpt lat="42.86571" lon="1.37441">
        <ele>1256</ele>
        <time>2019-04-27T16:20:08Z</time>
      </trkpt>
      <trkpt lat="42.86576" lon="1.37435">
        <ele>1256</ele>
        <time>2019-04-27T16:20:09Z</time>
      </trkpt>
      <trkpt lat="42.8658" lon="1.37428">
        <ele>1256</ele>
        <time>2019-04-27T16:20:10Z</time>
      </trkpt>
      <trkpt lat="42.86606" lon="1.37389">
        <ele>1250</ele>
        <time>2019-04-27T16:20:28Z</time>
      </trkpt>
      <trkpt lat="42.86608" lon="1.37387">
        <ele>1245</ele>
        <time>2019-04-27T16:20:41Z</time>
      </trkpt>
      <trkpt lat="42.86608" lon="1.37386">
        <ele>1245</ele>
        <time>2019-04-27T16:20:42Z</time>
      </trkpt>
      <trkpt lat="42.86664" lon="1.37343">
        <ele>1243</ele>
        <time>2019-04-27T16:21:02Z</time>
      </trkpt>
      <trkpt lat="42.86674" lon="1.37338">
        <ele>1242</ele>
        <time>2019-04-27T16:21:03Z</time>
      </trkpt>
      <trkpt lat="42.86684" lon="1.37332">
        <ele>1241</ele>
        <time>2019-04-27T16:21:04Z</time>
      </trkpt>
      <trkpt lat="42.86694" lon="1.37326">
        <ele>1240</ele>
        <time>2019-04-27T16:21:05Z</time>
      </trkpt>
      <trkpt lat="42.86705" lon="1.37321">
        <ele>1239</ele>
        <time>2019-04-27T16:21:06Z</time>
      </trkpt>
      <trkpt lat="42.86815" lon="1.37244">
        <ele>1236</ele>
        <time>2019-04-27T16:21:17Z</time>
      </trkpt>
      <trkpt lat="42.86826" lon="1.37241">
        <ele>1236</ele>
        <time>2019-04-27T16:21:18Z</time>
      </trkpt>
      <trkpt lat="42.86837" lon="1.37239">
        <ele>1236</ele>
        <time>2019-04-27T16:21:19Z</time>
      </trkpt>
      <trkpt lat="42.86848" lon="1.37237">
        <ele>1236</ele>
        <time>2019-04-27T16:21:20Z</time>
      </trkpt>
      <trkpt lat="42.86859" lon="1.37237">
        <ele>1236</ele>
        <time>2019-04-27T16:21:21Z</time>
      </trkpt>
      <trkpt lat="42.8687" lon="1.37238">
        <ele>1236</ele>
        <time>2019-04-27T16:21:22Z</time>
      </trkpt>
      <trkpt lat="42.87037" lon="1.37272">
        <ele>1231</ele>
        <time>2019-04-27T16:21:39Z</time>
      </trkpt>
      <trkpt lat="42.87047" lon="1.37272">
        <ele>1230</ele>
        <time>2019-04-27T16:21:40Z</time>
      </trkpt>
      <trkpt lat="42.87145" lon="1.37222">
        <ele>1226</ele>
        <time>2019-04-27T16:21:52Z</time>
      </trkpt>
      <trkpt lat="42.87153" lon="1.37217">
        <ele>1226</ele>
        <time>2019-04-27T16:21:53Z</time>
      </trkpt>
      <trkpt lat="42.8716" lon="1.37211">
        <ele>1226</ele>
        <time>2019-04-27T16:21:54Z</time>
      </trkpt>
      <trkpt lat="42.87168" lon="1.37205">
        <ele>1226</ele>
        <time>2019-04-27T16:21:55Z</time>
      </trkpt>
      <trkpt lat="42.87175" lon="1.37198">
        <ele>1226</ele>
        <time>2019-04-27T16:21:56Z</time>
      </trkpt>
      <trkpt lat="42.87181" lon="1.37189">
        <ele>1226</ele>
        <time>2019-04-27T16:21:57Z</time>
      </trkpt>
      <trkpt lat="42.87187" lon="1.3718">
        <ele>1226</ele>
        <time>2019-04-27T16:21:58Z</time>
      </trkpt>
      <trkpt lat="42.87274" lon="1.37015">
        <ele>1222</ele>
        <time>2019-04-27T16:22:14Z</time>
      </trkpt>
      <trkpt lat="42.87279" lon="1.37004">
        <ele>1221</ele>
        <time>2019-04-27T16:22:15Z</time>
      </trkpt>
      <trkpt lat="42.87338" lon="1.36882">
        <ele>1218</ele>
        <time>2019-04-27T16:22:26Z</time>
      </trkpt>
      <trkpt lat="42.87343" lon="1.36871">
        <ele>1218</ele>
        <time>2019-04-27T16:22:27Z</time>
      </trkpt>
      <trkpt lat="42.87348" lon="1.3686">
        <ele>1218</ele>
        <time>2019-04-27T16:22:28Z</time>
      </trkpt>
      <trkpt lat="42.87354" lon="1.36849">
        <ele>1218</ele>
        <time>2019-04-27T16:22:29Z</time>
      </trkpt>
      <trkpt lat="42.87359" lon="1.36838">
        <ele>1218</ele>
        <time>2019-04-27T16:22:30Z</time>
      </trkpt>
      <trkpt lat="42.87365" lon="1.36828">
        <ele>1218</ele>
        <time>2019-04-27T16:22:31Z</time>
      </trkpt>
      <trkpt lat="42.8737" lon="1.36817">
        <ele>1218</ele>
        <time>2019-04-27T16:22:32Z</time>
      </trkpt>
      <trkpt lat="42.8748" lon="1.36648">
        <ele>1212</ele>
        <time>2019-04-27T16:22:50Z</time>
      </trkpt>
      <trkpt lat="42.87486" lon="1.36641">
        <ele>1211</ele>
        <time>2019-04-27T16:22:51Z</time>
      </trkpt>
      <trkpt lat="42.87492" lon="1.36634">
        <ele>1210</ele>
        <time>2019-04-27T16:22:52Z</time>
      </trkpt>
      <trkpt lat="42.87547" lon="1.36536">
        <ele>1208</ele>
        <time>2019-04-27T16:23:04Z</time>
      </trkpt>
      <trkpt lat="42.87552" lon="1.36528">
        <ele>1208</ele>
        <time>2019-04-27T16:23:05Z</time>
      </trkpt>
      <trkpt lat="42.87557" lon="1.36524">
        <ele>1208</ele>
        <time>2019-04-27T16:23:06Z</time>
      </trkpt>
      <trkpt lat="42.87561" lon="1.36516">
        <ele>1208</ele>
        <time>2019-04-27T16:23:07Z</time>
      </trkpt>
      <trkpt lat="42.87678" lon="1.36437">
        <ele>1204</ele>
        <time>2019-04-27T16:23:25Z</time>
      </trkpt>
      <trkpt lat="42.87686" lon="1.36435">
        <ele>1203</ele>
        <time>2019-04-27T16:23:26Z</time>
      </trkpt>
      <trkpt lat="42.87694" lon="1.36433">
        <ele>1202</ele>
        <time>2019-04-27T16:23:27Z</time>
      </trkpt>
      <trkpt lat="42.87771" lon="1.36379">
        <ele>1199</ele>
        <time>2019-04-27T16:23:38Z</time>
      </trkpt>
      <trkpt lat="42.87777" lon="1.36372">
        <ele>1199</ele>
        <time>2019-04-27T16:23:39Z</time>
      </trkpt>
      <trkpt lat="42.87782" lon="1.36364">
        <ele>1199</ele>
        <time>2019-04-27T16:23:40Z</time>
      </trkpt>
      <trkpt lat="42.87786" lon="1.36355">
        <ele>1199</ele>
        <time>2019-04-27T16:23:41Z</time>
      </trkpt>
      <trkpt lat="42.87789" lon="1.36347">
        <ele>1199</ele>
        <time>2019-04-27T16:23:42Z</time>
      </trkpt>
      <trkpt lat="42.87792" lon="1.36338">
        <ele>1199</ele>
        <time>2019-04-27T16:23:43Z</time>
      </trkpt>
      <trkpt lat="42.87812" lon="1.36137">
        <ele>1193</ele>
        <time>2019-04-27T16:24:01Z</time>
      </trkpt>
      <trkpt lat="42.87871" lon="1.36023">
        <ele>1189</ele>
        <time>2019-04-27T16:24:13Z</time>
      </trkpt>
      <trkpt lat="42.8788" lon="1.36016">
        <ele>1189</ele>
        <time>2019-04-27T16:24:14Z</time>
      </trkpt>
      <trkpt lat="42.87887" lon="1.36009">
        <ele>1189</ele>
        <time>2019-04-27T16:24:15Z</time>
      </trkpt>
      <trkpt lat="42.87895" lon="1.36002">
        <ele>1189</ele>
        <time>2019-04-27T16:24:16Z</time>
      </trkpt>
      <trkpt lat="42.87905" lon="1.35996">
        <ele>1189</ele>
        <time>2019-04-27T16:24:17Z</time>
      </trkpt>
      <trkpt lat="42.87914" lon="1.35989">
        <ele>1189</ele>
        <time>2019-04-27T16:24:18Z</time>
      </trkpt>
      <trkpt lat="42.88031" lon="1.35852">
        <ele>1185</ele>
        <time>2019-04-27T16:24:34Z</time>
      </trkpt>
      <trkpt lat="42.8804" lon="1.35855">
        <ele>1185</ele>
        <time>2019-04-27T16:24:35Z</time>
      </trkpt>
      <trkpt lat="42.88049" lon="1.3586">
        <ele>1184</ele>
        <time>2019-04-27T16:24:36Z</time>
      </trkpt>
      <trkpt lat="42.88153" lon="1.3581">
        <ele>1181</ele>
        <time>2019-04-27T16:24:47Z</time>
      </trkpt>
      <trkpt lat="42.88163" lon="1.35808">
        <ele>1181</ele>
        <time>2019-04-27T16:24:48Z</time>
      </trkpt>
      <trkpt lat="42.88172" lon="1.35808">
        <ele>1181</ele>
        <time>2019-04-27T16:24:49Z</time>
      </trkpt>
      <trkpt lat="42.8818" lon="1.35809">
        <ele>1181</ele>
        <time>2019-04-27T16:24:50Z</time>
      </trkpt>
      <trkpt lat="42.88189" lon="1.35812">
        <ele>1181</ele>
        <time>2019-04-27T16:24:51Z</time>
      </trkpt>
      <trkpt lat="42.88197" lon="1.35814">
        <ele>1181</ele>
        <time>2019-04-27T16:24:52Z</time>
      </trkpt>
      <trkpt lat="42.88206" lon="1.35818">
        <ele>1181</ele>
        <time>2019-04-27T16:24:53Z</time>
      </trkpt>
      <trkpt lat="42.8839" lon="1.35836">
        <ele>1175</ele>
        <time>2019-04-27T16:25:10Z</time>
      </trkpt>
      <trkpt lat="42.88403" lon="1.35835">
        <ele>1174</ele>
        <time>2019-04-27T16:25:11Z</time>
      </trkpt>
      <trkpt lat="42.88415" lon="1.35833">
        <ele>1173</ele>
        <time>2019-04-27T16:25:12Z</time>
      </trkpt>
      <trkpt lat="42.88485" lon="1.35737">
        <ele>1170</ele>
        <time>2019-04-27T16:25:23Z</time>
      </trkpt>
      <trkpt lat="42.88484" lon="1.35725">
        <ele>1170</ele>
        <time>2019-04-27T16:25:24Z</time>
      </trkpt>
      <trkpt lat="42.88484" lon="1.35714">
        <ele>1170</ele>
        <time>2019-04-27T16:25:25Z</time>
      </trkpt>
      <trkpt lat="42.88483" lon="1.35705">
        <ele>1170</ele>
        <time>2019-04-27T16:25:26Z</time>
      </trkpt>
      <trkpt lat="42.88482" lon="1.35695">
        <ele>1170</ele>
        <time>2019-04-27T16:25:27Z</time>
      </trkpt>
      <trkpt lat="42.88483" lon="1.35687">
        <ele>1170</ele>
        <time>2019-04-27T16:25:28Z</time>
      </trkpt>
      <trkpt lat="42.88516" lon="1.35558">
        <ele>1167</ele>
        <time>2019-04-27T16:25:44Z</time>
      </trkpt>
      <trkpt lat="42.88519" lon="1.3555">
        <ele>1166</ele>
        <time>2019-04-27T16:25:45Z</time>
      </trkpt>
      <trkpt lat="42.88521" lon="1.35541">
        <ele>1165</ele>
        <time>2019-04-27T16:25:46Z</time>
      </trkpt>
      <trkpt lat="42.88523" lon="1.35532">
        <ele>1164</ele>
        <time>2019-04-27T16:25:47Z</time>
      </trkpt>
      <trkpt lat="42.88525" lon="1.35523">
        <ele>1163</ele>
        <time>2019-04-27T16:25:48Z</time>
      </trkpt>
      <trkpt lat="42.88528" lon="1.35514">
        <ele>1162</ele>
        <time>2019-04-27T16:25:49Z</time>
      </trkpt>
      <trkpt lat="42.8855" lon="1.3543">
        <ele>1160</ele>
        <time>2019-04-27T16:25:58Z</time>
      </trkpt>
      <trkpt lat="42.88552" lon="1.35421">
        <ele>1160</ele>
        <time>2019-04-27T16:25:59Z</time>
      </trkpt>
      <trkpt lat="42.88555" lon="1.35411">
        <ele>1160</ele>
        <time>2019-04-27T16:26:00Z</time>
      </trkpt>
      <trkpt lat="42.88557" lon="1.35401">
        <ele>1160</ele>
        <time>2019-04-27T16:26:01Z</time>
      </trkpt>
      <trkpt lat="42.88559" lon="1.35391">
        <ele>1160</ele>
        <time>2019-04-27T16:26:02Z</time>
      </trkpt>
      <trkpt lat="42.88562" lon="1.35382">
        <ele>1160</ele>
        <time>2019-04-27T16:26:03Z</time>
      </trkpt>
      <trkpt lat="42.88566" lon="1.35212">
        <ele>1158</ele>
        <time>2019-04-27T16:26:20Z</time>
      </trkpt>
      <trkpt lat="42.88563" lon="1.35201">
        <ele>1157</ele>
        <time>2019-04-27T16:26:21Z</time>
      </trkpt>
      <trkpt lat="42.88561" lon="1.35191">
        <ele>1156</ele>
        <time>2019-04-27T16:26:22Z</time>
      </trkpt>
      <trkpt lat="42.88625" lon="1.35107">
        <ele>1152</ele>
        <time>2019-04-27T16:26:34Z</time>
      </trkpt>
      <trkpt lat="42.8863" lon="1.351">
        <ele>1152</ele>
        <time>2019-04-27T16:26:35Z</time>
      </trkpt>
      <trkpt lat="42.88636" lon="1.35094">
        <ele>1152</ele>
        <time>2019-04-27T16:26:36Z</time>
      </trkpt>
      <trkpt lat="42.88641" lon="1.35087">
        <ele>1152</ele>
        <time>2019-04-27T16:26:37Z</time>
      </trkpt>
      <trkpt lat="42.88646" lon="1.3508">
        <ele>1152</ele>
        <time>2019-04-27T16:26:38Z</time>
      </trkpt>
      <trkpt lat="42.8865" lon="1.35074">
        <ele>1152</ele>
        <time>2019-04-27T16:26:39Z</time>
      </trkpt>
      <trkpt lat="42.88732" lon="1.34944">
        <ele>1148</ele>
        <time>2019-04-27T16:26:57Z</time>
      </trkpt>
      <trkpt lat="42.8877" lon="1.3484">
        <ele>1145</ele>
        <time>2019-04-27T16:27:10Z</time>
      </trkpt>
      <trkpt lat="42.88775" lon="1.34835">
        <ele>1145</ele>
        <time>2019-04-27T16:27:11Z</time>
      </trkpt>
      <trkpt lat="42.88779" lon="1.34829">
        <ele>1145</ele>
        <time>2019-04-27T16:27:12Z</time>
      </trkpt>
      <trkpt lat="42.88783" lon="1.34824">
        <ele>1145</ele>
        <time>2019-04-27T16:27:13Z</time>
      </trkpt>
      <trkpt lat="42.88785" lon="1.34818">
        <ele>1145</ele>
        <time>2019-04-27T16:27:14Z</time>
      </trkpt>
      <trkpt lat="42.88833" lon="1.34755">
        <ele>1140</ele>
        <time>2019-04-27T16:27:31Z</time>
      </trkpt>
      <trkpt lat="42.88839" lon="1.34751">
        <ele>1139</ele>
        <time>2019-04-27T16:27:32Z</time>
      </trkpt>
      <trkpt lat="42.88845" lon="1.34746">
        <ele>1138</ele>
        <time>2019-04-27T16:27:33Z</time>
      </trkpt>
      <trkpt lat="42.8885" lon="1.34741">
        <ele>1137</ele>
        <time>2019-04-27T16:27:34Z</time>
      </trkpt>
      <trkpt lat="42.88916" lon="1.34732">
        <ele>1135</ele>
        <time>2019-04-27T16:27:45Z</time>
      </trkpt>
      <trkpt lat="42.88918" lon="1.34733">
        <ele>1135</ele>
        <time>2019-04-27T16:27:46Z</time>
      </trkpt>
      <trkpt lat="42.8892" lon="1.34734">
        <ele>1135</ele>
        <time>2019-04-27T16:27:47Z</time>
      </trkpt>
      <trkpt lat="42.88921" lon="1.34734">
        <ele>1135</ele>
        <time>2019-04-27T16:27:48Z</time>
      </trkpt>
      <trkpt lat="42.88922" lon="1.34734">
        <ele>1135</ele>
        <time>2019-04-27T16:27:49Z</time>
      </trkpt>
      <trkpt lat="42.88988" lon="1.3478">
        <ele>1128</ele>
        <time>2019-04-27T16:28:07Z</time>
      </trkpt>
      <trkpt lat="42.88996" lon="1.34784">
        <ele>1127</ele>
        <time>2019-04-27T16:28:08Z</time>
      </trkpt>
      <trkpt lat="42.89003" lon="1.34789">
        <ele>1126</ele>
        <time>2019-04-27T16:28:09Z</time>
      </trkpt>
      <trkpt lat="42.89104" lon="1.34853">
        <ele>1123</ele>
        <time>2019-04-27T16:28:20Z</time>
      </trkpt>
      <trkpt lat="42.89114" lon="1.34859">
        <ele>1123</ele>
        <time>2019-04-27T16:28:21Z</time>
      </trkpt>
      <trkpt lat="42.89125" lon="1.34865">
        <ele>1123</ele>
        <time>2019-04-27T16:28:22Z</time>
      </trkpt>
      <trkpt lat="42.89135" lon="1.34872">
        <ele>1123</ele>
        <time>2019-04-27T16:28:23Z</time>
      </trkpt>
      <trkpt lat="42.89146" lon="1.34878">
        <ele>1123</ele>
        <time>2019-04-27T16:28:24Z</time>
      </trkpt>
      <trkpt lat="42.89307" lon="1.34982">
        <ele>1118</ele>
        <time>2019-04-27T16:28:41Z</time>
      </trkpt>
      <trkpt lat="42.89312" lon="1.34989">
        <ele>1118</ele>
        <time>2019-04-27T16:28:42Z</time>
      </trkpt>
      <trkpt lat="42.89315" lon="1.34998">
        <ele>1117</ele>
        <time>2019-04-27T16:28:43Z</time>
      </trkpt>
      <trkpt lat="42.89317" lon="1.35006">
        <ele>1116</ele>
        <time>2019-04-27T16:28:44Z</time>
      </trkpt>
      <trkpt lat="42.89318" lon="1.35014">
        <ele>1115</ele>
        <time>2019-04-27T16:28:45Z</time>
      </trkpt>
      <trkpt lat="42.8934" lon="1.35076">
        <ele>1113</ele>
        <time>2019-04-27T16:28:56Z</time>
      </trkpt>
      <trkpt lat="42.89343" lon="1.35079">
        <ele>1113</ele>
        <time>2019-04-27T16:28:57Z</time>
      </trkpt>
      <trkpt lat="42.89347" lon="1.35083">
        <ele>1113</ele>
        <time>2019-04-27T16:28:58Z</time>
      </trkpt>
      <trkpt lat="42.8935" lon="1.35087">
        <ele>1113</ele>
        <time>2019-04-27T16:28:59Z</time>
      </trkpt>
      <trkpt lat="42.89353" lon="1.35091">
        <ele>1113</ele>
        <time>2019-04-27T16:29:00Z</time>
      </trkpt>
      <trkpt lat="42.89417" lon="1.35124">
        <ele>1110</ele>
        <time>2019-04-27T16:29:17Z</time>
      </trkpt>
      <trkpt lat="42.89421" lon="1.35125">
        <ele>1109</ele>
        <time>2019-04-27T16:29:18Z</time>
      </trkpt>
      <trkpt lat="42.89425" lon="1.35126">
        <ele>1108</ele>
        <time>2019-04-27T16:29:19Z</time>
      </trkpt>
      <trkpt lat="42.8943" lon="1.35128">
        <ele>1107</ele>
        <time>2019-04-27T16:29:20Z</time>
      </trkpt>
      <trkpt lat="42.89434" lon="1.35129">
        <ele>1106</ele>
        <time>2019-04-27T16:29:21Z</time>
      </trkpt>
      <trkpt lat="42.89472" lon="1.35155">
        <ele>1103</ele>
        <time>2019-04-27T16:29:32Z</time>
      </trkpt>
      <trkpt lat="42.89473" lon="1.3516">
        <ele>1103</ele>
        <time>2019-04-27T16:29:33Z</time>
      </trkpt>
      <trkpt lat="42.89474" lon="1.35165">
        <ele>1103</ele>
        <time>2019-04-27T16:29:34Z</time>
      </trkpt>
      <trkpt lat="42.89474" lon="1.3517">
        <ele>1103</ele>
        <time>2019-04-27T16:29:35Z</time>
      </trkpt>
      <trkpt lat="42.89442" lon="1.35185">
        <ele>1100</ele>
        <time>2019-04-27T16:29:52Z</time>
      </trkpt>
      <trkpt lat="42.89439" lon="1.35182">
        <ele>1098</ele>
        <time>2019-04-27T16:29:53Z</time>
      </trkpt>
      <trkpt lat="42.89436" lon="1.35178">
        <ele>1097</ele>
        <time>2019-04-27T16:29:54Z</time>
      </trkpt>
      <trkpt lat="42.89399" lon="1.35165">
        <ele>1094</ele>
        <time>2019-04-27T16:30:05Z</time>
      </trkpt>
      <trkpt lat="42.89394" lon="1.35166">
        <ele>1094</ele>
        <time>2019-04-27T16:30:06Z</time>
      </trkpt>
      <trkpt lat="42.8939" lon="1.35168">
        <ele>1094</ele>
        <time>2019-04-27T16:30:07Z</time>
      </trkpt>
      <trkpt lat="42.89387" lon="1.35172">
        <ele>1094</ele>
        <time>2019-04-27T16:30:08Z</time>
      </trkpt>
      <trkpt lat="42.89385" lon="1.35176">
        <ele>1094</ele>
        <time>2019-04-27T16:30:09Z</time>
      </trkpt>
      <trkpt lat="42.89384" lon="1.35181">
        <ele>1094</ele>
        <time>2019-04-27T16:30:10Z</time>
      </trkpt>
      <trkpt lat="42.89384" lon="1.35187">
        <ele>1094</ele>
        <time>2019-04-27T16:30:11Z</time>
      </trkpt>
      <trkpt lat="42.89385" lon="1.35192">
        <ele>1094</ele>
        <time>2019-04-27T16:30:12Z</time>
      </trkpt>
      <trkpt lat="42.89387" lon="1.35198">
        <ele>1094</ele>
        <time>2019-04-27T16:30:13Z</time>
      </trkpt>
      <trkpt lat="42.89432" lon="1.35252">
        <ele>1090</ele>
        <time>2019-04-27T16:30:28Z</time>
      </trkpt>
      <trkpt lat="42.89434" lon="1.35257">
        <ele>1089</ele>
        <time>2019-04-27T16:30:29Z</time>
      </trkpt>
      <trkpt lat="42.89436" lon="1.35261">
        <ele>1088</ele>
        <time>2019-04-27T16:30:30Z</time>
      </trkpt>
      <trkpt lat="42.89454" lon="1.35313">
        <ele>1085</ele>
        <time>2019-04-27T16:30:41Z</time>
      </trkpt>
      <trkpt lat="42.89456" lon="1.35318">
        <ele>1085</ele>
        <time>2019-04-27T16:30:42Z</time>
      </trkpt>
      <trkpt lat="42.89458" lon="1.35322">
        <ele>1085</ele>
        <time>2019-04-27T16:30:43Z</time>
      </trkpt>
      <trkpt lat="42.8946" lon="1.35327">
        <ele>1085</ele>
        <time>2019-04-27T16:30:44Z</time>
      </trkpt>
      <trkpt lat="42.89462" lon="1.35331">
        <ele>1085</ele>
        <time>2019-04-27T16:30:45Z</time>
      </trkpt>
      <trkpt lat="42.89507" lon="1.35403">
        <ele>1080</ele>
        <time>2019-04-27T16:31:04Z</time>
      </trkpt>
      <trkpt lat="42.89509" lon="1.35408">
        <ele>1079</ele>
        <time>2019-04-27T16:31:05Z</time>
      </trkpt>
      <trkpt lat="42.89511" lon="1.35413">
        <ele>1078</ele>
        <time>2019-04-27T16:31:06Z</time>
      </trkpt>
      <trkpt lat="42.89528" lon="1.35464">
        <ele>1076</ele>
        <time>2019-04-27T16:31:17Z</time>
      </trkpt>
      <trkpt lat="42.89529" lon="1.35468">
        <ele>1076</ele>
        <time>2019-04-27T16:31:18Z</time>
      </trkpt>
      <trkpt lat="42.89531" lon="1.35473">
        <ele>1076</ele>
        <time>2019-04-27T16:31:19Z</time>
      </trkpt>
      <trkpt lat="42.89533" lon="1.35477">
        <ele>1076</ele>
        <time>2019-04-27T16:31:20Z</time>
      </trkpt>
      <trkpt lat="42.89535" lon="1.35482">
        <ele>1076</ele>
        <time>2019-04-27T16:31:21Z</time>
      </trkpt>
      <trkpt lat="42.89537" lon="1.35486">
        <ele>1076</ele>
        <time>2019-04-27T16:31:22Z</time>
      </trkpt>
      <trkpt lat="42.89555" lon="1.3556">
        <ele>1073</ele>
        <time>2019-04-27T16:31:38Z</time>
      </trkpt>
      <trkpt lat="42.89556" lon="1.35565">
        <ele>1072</ele>
        <time>2019-04-27T16:31:39Z</time>
      </trkpt>
      <trkpt lat="42.89555" lon="1.35641">
        <ele>1066</ele>
        <time>2019-04-27T16:31:52Z</time>
      </trkpt>
      <trkpt lat="42.89555" lon="1.35646">
        <ele>1066</ele>
        <time>2019-04-27T16:31:53Z</time>
      </trkpt>
      <trkpt lat="42.89555" lon="1.35652">
        <ele>1066</ele>
        <time>2019-04-27T16:31:54Z</time>
      </trkpt>
      <trkpt lat="42.89555" lon="1.35657">
        <ele>1066</ele>
        <time>2019-04-27T16:31:55Z</time>
      </trkpt>
      <trkpt lat="42.89555" lon="1.35663">
        <ele>1066</ele>
        <time>2019-04-27T16:31:56Z</time>
      </trkpt>
      <trkpt lat="42.89557" lon="1.35756">
        <ele>1063</ele>
        <time>2019-04-27T16:32:14Z</time>
      </trkpt>
      <trkpt lat="42.89557" lon="1.35761">
        <ele>1061</ele>
        <time>2019-04-27T16:32:15Z</time>
      </trkpt>
      <trkpt lat="42.89556" lon="1.35766">
        <ele>1060</ele>
        <time>2019-04-27T16:32:16Z</time>
      </trkpt>
      <trkpt lat="42.89552" lon="1.35819">
        <ele>1058</ele>
        <time>2019-04-27T16:32:26Z</time>
      </trkpt>
      <trkpt lat="42.89552" lon="1.35824">
        <ele>1058</ele>
        <time>2019-04-27T16:32:27Z</time>
      </trkpt>
      <trkpt lat="42.89552" lon="1.35829">
        <ele>1058</ele>
        <time>2019-04-27T16:32:28Z</time>
      </trkpt>
      <trkpt lat="42.89553" lon="1.35835">
        <ele>1058</ele>
        <time>2019-04-27T16:32:29Z</time>
      </trkpt>
      <trkpt lat="42.89554" lon="1.35839">
        <ele>1058</ele>
        <time>2019-04-27T16:32:30Z</time>
      </trkpt>
      <trkpt lat="42.89555" lon="1.35844">
        <ele>1058</ele>
        <time>2019-04-27T16:32:31Z</time>
      </trkpt>
      <trkpt lat="42.89557" lon="1.35848">
        <ele>1058</ele>
        <time>2019-04-27T16:32:32Z</time>
      </trkpt>
      <trkpt lat="42.89557" lon="1.35853">
        <ele>1058</ele>
        <time>2019-04-27T16:32:33Z</time>
      </trkpt>
      <trkpt lat="42.89557" lon="1.35857">
        <ele>1058</ele>
        <time>2019-04-27T16:32:34Z</time>
      </trkpt>
      <trkpt lat="42.89547" lon="1.35936">
        <ele>1052</ele>
        <time>2019-04-27T16:32:50Z</time>
      </trkpt>
      <trkpt lat="42.89545" lon="1.35941">
        <ele>1051</ele>
        <time>2019-04-27T16:32:51Z</time>
      </trkpt>
      <trkpt lat="42.89551" lon="1.36019">
        <ele>1038</ele>
        <time>2019-04-27T16:33:21Z</time>
      </trkpt>
      <trkpt lat="42.89607" lon="1.36031">
        <ele>1036</ele>
        <time>2019-04-27T16:33:23Z</time>
      </trkpt>
      <trkpt lat="42.89611" lon="1.36031">
        <ele>1035</ele>
        <time>2019-04-27T16:33:24Z</time>
      </trkpt>
      <trkpt lat="42.89615" lon="1.3603">
        <ele>1034</ele>
        <time>2019-04-27T16:33:25Z</time>
      </trkpt>
      <trkpt lat="42.89618" lon="1.36029">
        <ele>1033</ele>
        <time>2019-04-27T16:33:26Z</time>
      </trkpt>
      <trkpt lat="42.89622" lon="1.36028">
        <ele>1032</ele>
        <time>2019-04-27T16:33:27Z</time>
      </trkpt>
      <trkpt lat="42.89625" lon="1.36027">
        <ele>1031</ele>
        <time>2019-04-27T16:33:28Z</time>
      </trkpt>
      <trkpt lat="42.89661" lon="1.36021">
        <ele>1022</ele>
        <time>2019-04-27T16:33:37Z</time>
      </trkpt>
      <trkpt lat="42.89665" lon="1.36021">
        <ele>1021</ele>
        <time>2019-04-27T16:33:38Z</time>
      </trkpt>
      <trkpt lat="42.89668" lon="1.36023">
        <ele>1020</ele>
        <time>2019-04-27T16:33:39Z</time>
      </trkpt>
      <trkpt lat="42.89672" lon="1.36023">
        <ele>1020</ele>
        <time>2019-04-27T16:33:40Z</time>
      </trkpt>
      <trkpt lat="42.89676" lon="1.36024">
        <ele>1020</ele>
        <time>2019-04-27T16:33:41Z</time>
      </trkpt>
      <trkpt lat="42.89679" lon="1.36024">
        <ele>1020</ele>
        <time>2019-04-27T16:33:42Z</time>
      </trkpt>
      <trkpt lat="42.89731" lon="1.36058">
        <ele>1015</ele>
        <time>2019-04-27T16:33:59Z</time>
      </trkpt>
      <trkpt lat="42.89732" lon="1.36061">
        <ele>1015</ele>
        <time>2019-04-27T16:34:00Z</time>
      </trkpt>
      <trkpt lat="42.89734" lon="1.36064">
        <ele>1015</ele>
        <time>2019-04-27T16:34:01Z</time>
      </trkpt>
      <trkpt lat="42.89738" lon="1.36066">
        <ele>1015</ele>
        <time>2019-04-27T16:34:02Z</time>
      </trkpt>
      <trkpt lat="42.89741" lon="1.36068">
        <ele>1015</ele>
        <time>2019-04-27T16:34:03Z</time>
      </trkpt>
      <trkpt lat="42.89743" lon="1.3607">
        <ele>1015</ele>
        <time>2019-04-27T16:34:04Z</time>
      </trkpt>
      <trkpt lat="42.89746" lon="1.36072">
        <ele>1015</ele>
        <time>2019-04-27T16:34:05Z</time>
      </trkpt>
      <trkpt lat="42.89749" lon="1.36075">
        <ele>1015</ele>
        <time>2019-04-27T16:34:06Z</time>
      </trkpt>
      <trkpt lat="42.89751" lon="1.36077">
        <ele>1015</ele>
        <time>2019-04-27T16:34:07Z</time>
      </trkpt>
      <trkpt lat="42.89754" lon="1.3608">
        <ele>1015</ele>
        <time>2019-04-27T16:34:08Z</time>
      </trkpt>
      <trkpt lat="42.89757" lon="1.36083">
        <ele>1015</ele>
        <time>2019-04-27T16:34:09Z</time>
      </trkpt>
      <trkpt lat="42.8976" lon="1.36086">
        <ele>1015</ele>
        <time>2019-04-27T16:34:10Z</time>
      </trkpt>
      <trkpt lat="42.89763" lon="1.36089">
        <ele>1015</ele>
        <time>2019-04-27T16:34:11Z</time>
      </trkpt>
      <trkpt lat="42.89766" lon="1.36092">
        <ele>1015</ele>
        <time>2019-04-27T16:34:12Z</time>
      </trkpt>
      <trkpt lat="42.89769" lon="1.36095">
        <ele>1015</ele>
        <time>2019-04-27T16:34:13Z</time>
      </trkpt>
      <trkpt lat="42.89771" lon="1.36098">
        <ele>1013</ele>
        <time>2019-04-27T16:34:14Z</time>
      </trkpt>
      <trkpt lat="42.89774" lon="1.36101">
        <ele>1012</ele>
        <time>2019-04-27T16:34:15Z</time>
      </trkpt>
      <trkpt lat="42.89778" lon="1.36104">
        <ele>1012</ele>
        <time>2019-04-27T16:34:16Z</time>
      </trkpt>
      <trkpt lat="42.8978" lon="1.36107">
        <ele>1012</ele>
        <time>2019-04-27T16:34:17Z</time>
      </trkpt>
      <trkpt lat="42.89782" lon="1.3611">
        <ele>1012</ele>
        <time>2019-04-27T16:34:18Z</time>
      </trkpt>
      <trkpt lat="42.89784" lon="1.36113">
        <ele>1012</ele>
        <time>2019-04-27T16:34:19Z</time>
      </trkpt>
      <trkpt lat="42.89786" lon="1.36117">
        <ele>1012</ele>
        <time>2019-04-27T16:34:20Z</time>
      </trkpt>
      <trkpt lat="42.89787" lon="1.36121">
        <ele>1012</ele>
        <time>2019-04-27T16:34:21Z</time>
      </trkpt>
      <trkpt lat="42.89789" lon="1.36124">
        <ele>1012</ele>
        <time>2019-04-27T16:34:22Z</time>
      </trkpt>
      <trkpt lat="42.8979" lon="1.36127">
        <ele>1012</ele>
        <time>2019-04-27T16:34:23Z</time>
      </trkpt>
      <trkpt lat="42.89792" lon="1.36129">
        <ele>1012</ele>
        <time>2019-04-27T16:34:24Z</time>
      </trkpt>
      <trkpt lat="42.89794" lon="1.36131">
        <ele>1012</ele>
        <time>2019-04-27T16:34:25Z</time>
      </trkpt>
      <trkpt lat="42.89797" lon="1.36134">
        <ele>1012</ele>
        <time>2019-04-27T16:34:26Z</time>
      </trkpt>
      <trkpt lat="42.89801" lon="1.36136">
        <ele>1011</ele>
        <time>2019-04-27T16:34:27Z</time>
      </trkpt>
      <trkpt lat="42.89804" lon="1.36138">
        <ele>1010</ele>
        <time>2019-04-27T16:34:28Z</time>
      </trkpt>
      <trkpt lat="42.89842" lon="1.36141">
        <ele>1005</ele>
        <time>2019-04-27T16:34:39Z</time>
      </trkpt>
      <trkpt lat="42.89846" lon="1.36141">
        <ele>1005</ele>
        <time>2019-04-27T16:34:40Z</time>
      </trkpt>
      <trkpt lat="42.8985" lon="1.36141">
        <ele>1005</ele>
        <time>2019-04-27T16:34:41Z</time>
      </trkpt>
      <trkpt lat="42.89853" lon="1.36141">
        <ele>1005</ele>
        <time>2019-04-27T16:34:42Z</time>
      </trkpt>
      <trkpt lat="42.89857" lon="1.3614">
        <ele>1005</ele>
        <time>2019-04-27T16:34:43Z</time>
      </trkpt>
      <trkpt lat="42.8986" lon="1.36139">
        <ele>1005</ele>
        <time>2019-04-27T16:34:44Z</time>
      </trkpt>
      <trkpt lat="42.89864" lon="1.36137">
        <ele>1005</ele>
        <time>2019-04-27T16:34:45Z</time>
      </trkpt>
      <trkpt lat="42.89929" lon="1.36099">
        <ele>1003</ele>
        <time>2019-04-27T16:35:02Z</time>
      </trkpt>
      <trkpt lat="42.89932" lon="1.36096">
        <ele>1001</ele>
        <time>2019-04-27T16:35:03Z</time>
      </trkpt>
      <trkpt lat="42.89972" lon="1.36075">
        <ele>998</ele>
        <time>2019-04-27T16:35:16Z</time>
      </trkpt>
      <trkpt lat="42.89972" lon="1.3608">
        <ele>998</ele>
        <time>2019-04-27T16:35:17Z</time>
      </trkpt>
      <trkpt lat="42.89973" lon="1.36085">
        <ele>998</ele>
        <time>2019-04-27T16:35:18Z</time>
      </trkpt>
      <trkpt lat="42.89972" lon="1.3609">
        <ele>998</ele>
        <time>2019-04-27T16:35:19Z</time>
      </trkpt>
      <trkpt lat="42.89971" lon="1.36095">
        <ele>998</ele>
        <time>2019-04-27T16:35:20Z</time>
      </trkpt>
      <trkpt lat="42.89971" lon="1.361">
        <ele>998</ele>
        <time>2019-04-27T16:35:21Z</time>
      </trkpt>
      <trkpt lat="42.89969" lon="1.36105">
        <ele>998</ele>
        <time>2019-04-27T16:35:22Z</time>
      </trkpt>
      <trkpt lat="42.89922" lon="1.36168">
        <ele>992</ele>
        <time>2019-04-27T16:35:38Z</time>
      </trkpt>
      <trkpt lat="42.8992" lon="1.36172">
        <ele>991</ele>
        <time>2019-04-27T16:35:39Z</time>
      </trkpt>
      <trkpt lat="42.89918" lon="1.36177">
        <ele>990</ele>
        <time>2019-04-27T16:35:40Z</time>
      </trkpt>
      <trkpt lat="42.89947" lon="1.3623">
        <ele>988</ele>
        <time>2019-04-27T16:35:51Z</time>
      </trkpt>
      <trkpt lat="42.89952" lon="1.36232">
        <ele>988</ele>
        <time>2019-04-27T16:35:52Z</time>
      </trkpt>
      <trkpt lat="42.89956" lon="1.36235">
        <ele>988</ele>
        <time>2019-04-27T16:35:53Z</time>
      </trkpt>
      <trkpt lat="42.89961" lon="1.36237">
        <ele>988</ele>
        <time>2019-04-27T16:35:54Z</time>
      </trkpt>
      <trkpt lat="42.90031" lon="1.36287">
        <ele>984</ele>
        <time>2019-04-27T16:36:11Z</time>
      </trkpt>
      <trkpt lat="42.90035" lon="1.3629">
        <ele>984</ele>
        <time>2019-04-27T16:36:12Z</time>
      </trkpt>
      <trkpt lat="42.90038" lon="1.36294">
        <ele>983</ele>
        <time>2019-04-27T16:36:13Z</time>
      </trkpt>
      <trkpt lat="42.90042" lon="1.36298">
        <ele>982</ele>
        <time>2019-04-27T16:36:14Z</time>
      </trkpt>
      <trkpt lat="42.90045" lon="1.36302">
        <ele>981</ele>
        <time>2019-04-27T16:36:15Z</time>
      </trkpt>
      <trkpt lat="42.90095" lon="1.36305">
        <ele>978</ele>
        <time>2019-04-27T16:36:26Z</time>
      </trkpt>
      <trkpt lat="42.901" lon="1.36305">
        <ele>978</ele>
        <time>2019-04-27T16:36:27Z</time>
      </trkpt>
      <trkpt lat="42.90104" lon="1.36304">
        <ele>978</ele>
        <time>2019-04-27T16:36:28Z</time>
      </trkpt>
      <trkpt lat="42.90109" lon="1.36304">
        <ele>978</ele>
        <time>2019-04-27T16:36:29Z</time>
      </trkpt>
      <trkpt lat="42.90113" lon="1.36303">
        <ele>978</ele>
        <time>2019-04-27T16:36:30Z</time>
      </trkpt>
      <trkpt lat="42.90118" lon="1.36303">
        <ele>978</ele>
        <time>2019-04-27T16:36:31Z</time>
      </trkpt>
      <trkpt lat="42.90191" lon="1.36287">
        <ele>973</ele>
        <time>2019-04-27T16:36:49Z</time>
      </trkpt>
      <trkpt lat="42.90195" lon="1.36288">
        <ele>972</ele>
        <time>2019-04-27T16:36:50Z</time>
      </trkpt>
      <trkpt lat="42.90199" lon="1.36291">
        <ele>971</ele>
        <time>2019-04-27T16:36:51Z</time>
      </trkpt>
      <trkpt lat="42.90201" lon="1.36295">
        <ele>970</ele>
        <time>2019-04-27T16:36:52Z</time>
      </trkpt>
      <trkpt lat="42.90194" lon="1.3634">
        <ele>968</ele>
        <time>2019-04-27T16:37:01Z</time>
      </trkpt>
      <trkpt lat="42.90192" lon="1.36345">
        <ele>968</ele>
        <time>2019-04-27T16:37:02Z</time>
      </trkpt>
      <trkpt lat="42.90191" lon="1.3635">
        <ele>968</ele>
        <time>2019-04-27T16:37:03Z</time>
      </trkpt>
      <trkpt lat="42.9019" lon="1.36355">
        <ele>968</ele>
        <time>2019-04-27T16:37:04Z</time>
      </trkpt>
      <trkpt lat="42.90188" lon="1.3636">
        <ele>968</ele>
        <time>2019-04-27T16:37:05Z</time>
      </trkpt>
      <trkpt lat="42.90187" lon="1.36365">
        <ele>968</ele>
        <time>2019-04-27T16:37:06Z</time>
      </trkpt>
      <trkpt lat="42.90235" lon="1.36416">
        <ele>965</ele>
        <time>2019-04-27T16:37:23Z</time>
      </trkpt>
      <trkpt lat="42.90239" lon="1.36418">
        <ele>964</ele>
        <time>2019-04-27T16:37:24Z</time>
      </trkpt>
      <trkpt lat="42.90266" lon="1.36476">
        <ele>958</ele>
        <time>2019-04-27T16:37:37Z</time>
      </trkpt>
      <trkpt lat="42.90267" lon="1.36481">
        <ele>958</ele>
        <time>2019-04-27T16:37:38Z</time>
      </trkpt>
      <trkpt lat="42.90268" lon="1.36487">
        <ele>958</ele>
        <time>2019-04-27T16:37:39Z</time>
      </trkpt>
      <trkpt lat="42.90268" lon="1.36493">
        <ele>958</ele>
        <time>2019-04-27T16:37:40Z</time>
      </trkpt>
      <trkpt lat="42.90269" lon="1.36498">
        <ele>958</ele>
        <time>2019-04-27T16:37:41Z</time>
      </trkpt>
      <trkpt lat="42.90271" lon="1.36504">
        <ele>958</ele>
        <time>2019-04-27T16:37:42Z</time>
      </trkpt>
      <trkpt lat="42.90272" lon="1.36509">
        <ele>958</ele>
        <time>2019-04-27T16:37:43Z</time>
      </trkpt>
      <trkpt lat="42.90336" lon="1.36539">
        <ele>955</ele>
        <time>2019-04-27T16:37:59Z</time>
      </trkpt>
      <trkpt lat="42.9034" lon="1.3654">
        <ele>953</ele>
        <time>2019-04-27T16:38:00Z</time>
      </trkpt>
      <trkpt lat="42.90344" lon="1.36542">
        <ele>952</ele>
        <time>2019-04-27T16:38:01Z</time>
      </trkpt>
      <trkpt lat="42.90341" lon="1.36593">
        <ele>950</ele>
        <time>2019-04-27T16:38:12Z</time>
      </trkpt>
      <trkpt lat="42.90338" lon="1.36598">
        <ele>950</ele>
        <time>2019-04-27T16:38:13Z</time>
      </trkpt>
      <trkpt lat="42.90337" lon="1.36603">
        <ele>950</ele>
        <time>2019-04-27T16:38:14Z</time>
      </trkpt>
      <trkpt lat="42.90335" lon="1.36608">
        <ele>950</ele>
        <time>2019-04-27T16:38:15Z</time>
      </trkpt>
      <trkpt lat="42.90333" lon="1.36614">
        <ele>950</ele>
        <time>2019-04-27T16:38:16Z</time>
      </trkpt>
      <trkpt lat="42.90331" lon="1.36619">
        <ele>950</ele>
        <time>2019-04-27T16:38:17Z</time>
      </trkpt>
      <trkpt lat="42.9033" lon="1.36625">
        <ele>950</ele>
        <time>2019-04-27T16:38:18Z</time>
      </trkpt>
      <trkpt lat="42.90325" lon="1.3672">
        <ele>944</ele>
        <time>2019-04-27T16:38:35Z</time>
      </trkpt>
      <trkpt lat="42.90327" lon="1.36725">
        <ele>943</ele>
        <time>2019-04-27T16:38:36Z</time>
      </trkpt>
      <trkpt lat="42.90329" lon="1.3673">
        <ele>942</ele>
        <time>2019-04-27T16:38:37Z</time>
      </trkpt>
      <trkpt lat="42.90359" lon="1.36786">
        <ele>940</ele>
        <time>2019-04-27T16:38:49Z</time>
      </trkpt>
      <trkpt lat="42.90361" lon="1.36792">
        <ele>940</ele>
        <time>2019-04-27T16:38:50Z</time>
      </trkpt>
      <trkpt lat="42.90362" lon="1.36797">
        <ele>940</ele>
        <time>2019-04-27T16:38:51Z</time>
      </trkpt>
      <trkpt lat="42.90364" lon="1.36803">
        <ele>940</ele>
        <time>2019-04-27T16:38:52Z</time>
      </trkpt>
      <trkpt lat="42.90393" lon="1.36895">
        <ele>936</ele>
        <time>2019-04-27T16:39:10Z</time>
      </trkpt>
      <trkpt lat="42.90397" lon="1.36898">
        <ele>935</ele>
        <time>2019-04-27T16:39:11Z</time>
      </trkpt>
      <trkpt lat="42.90401" lon="1.36901">
        <ele>934</ele>
        <time>2019-04-27T16:39:12Z</time>
      </trkpt>
      <trkpt lat="42.90451" lon="1.36906">
        <ele>931</ele>
        <time>2019-04-27T16:39:23Z</time>
      </trkpt>
      <trkpt lat="42.90456" lon="1.36904">
        <ele>931</ele>
        <time>2019-04-27T16:39:24Z</time>
      </trkpt>
      <trkpt lat="42.90461" lon="1.36904">
        <ele>931</ele>
        <time>2019-04-27T16:39:25Z</time>
      </trkpt>
      <trkpt lat="42.90466" lon="1.36903">
        <ele>931</ele>
        <time>2019-04-27T16:39:26Z</time>
      </trkpt>
      <trkpt lat="42.9047" lon="1.36902">
        <ele>931</ele>
        <time>2019-04-27T16:39:27Z</time>
      </trkpt>
      <trkpt lat="42.90529" lon="1.36927">
        <ele>929</ele>
        <time>2019-04-27T16:39:44Z</time>
      </trkpt>
      <trkpt lat="42.90531" lon="1.36933">
        <ele>928</ele>
        <time>2019-04-27T16:39:45Z</time>
      </trkpt>
      <trkpt lat="42.90576" lon="1.36994">
        <ele>922</ele>
        <time>2019-04-27T16:39:58Z</time>
      </trkpt>
      <trkpt lat="42.9058" lon="1.36998">
        <ele>922</ele>
        <time>2019-04-27T16:39:59Z</time>
      </trkpt>
      <trkpt lat="42.90584" lon="1.37001">
        <ele>922</ele>
        <time>2019-04-27T16:40:00Z</time>
      </trkpt>
      <trkpt lat="42.90588" lon="1.37004">
        <ele>922</ele>
        <time>2019-04-27T16:40:01Z</time>
      </trkpt>
      <trkpt lat="42.90593" lon="1.37007">
        <ele>922</ele>
        <time>2019-04-27T16:40:02Z</time>
      </trkpt>
      <trkpt lat="42.90597" lon="1.3701">
        <ele>922</ele>
        <time>2019-04-27T16:40:03Z</time>
      </trkpt>
      <trkpt lat="42.90602" lon="1.37011">
        <ele>922</ele>
        <time>2019-04-27T16:40:04Z</time>
      </trkpt>
      <trkpt lat="42.90678" lon="1.37038">
        <ele>919</ele>
        <time>2019-04-27T16:40:20Z</time>
      </trkpt>
      <trkpt lat="42.90683" lon="1.37037">
        <ele>918</ele>
        <time>2019-04-27T16:40:21Z</time>
      </trkpt>
      <trkpt lat="42.90688" lon="1.37036">
        <ele>917</ele>
        <time>2019-04-27T16:40:22Z</time>
      </trkpt>
      <trkpt lat="42.90742" lon="1.37042">
        <ele>915</ele>
        <time>2019-04-27T16:40:33Z</time>
      </trkpt>
      <trkpt lat="42.90746" lon="1.37042">
        <ele>915</ele>
        <time>2019-04-27T16:40:34Z</time>
      </trkpt>
      <trkpt lat="42.90751" lon="1.37041">
        <ele>915</ele>
        <time>2019-04-27T16:40:35Z</time>
      </trkpt>
      <trkpt lat="42.90755" lon="1.37041">
        <ele>915</ele>
        <time>2019-04-27T16:40:36Z</time>
      </trkpt>
      <trkpt lat="42.9076" lon="1.37041">
        <ele>915</ele>
        <time>2019-04-27T16:40:37Z</time>
      </trkpt>
      <trkpt lat="42.90764" lon="1.37044">
        <ele>915</ele>
        <time>2019-04-27T16:40:38Z</time>
      </trkpt>
      <trkpt lat="42.90768" lon="1.37048">
        <ele>915</ele>
        <time>2019-04-27T16:40:39Z</time>
      </trkpt>
      <trkpt lat="42.90718" lon="1.37103">
        <ele>912</ele>
        <time>2019-04-27T16:40:55Z</time>
      </trkpt>
      <trkpt lat="42.90715" lon="1.37107">
        <ele>911</ele>
        <time>2019-04-27T16:40:56Z</time>
      </trkpt>
      <trkpt lat="42.90711" lon="1.37172">
        <ele>908</ele>
        <time>2019-04-27T16:41:09Z</time>
      </trkpt>
      <trkpt lat="42.90711" lon="1.37176">
        <ele>908</ele>
        <time>2019-04-27T16:41:10Z</time>
      </trkpt>
      <trkpt lat="42.90712" lon="1.37183">
        <ele>908</ele>
        <time>2019-04-27T16:41:11Z</time>
      </trkpt>
      <trkpt lat="42.90712" lon="1.37187">
        <ele>908</ele>
        <time>2019-04-27T16:41:12Z</time>
      </trkpt>
      <trkpt lat="42.90657" lon="1.3724">
        <ele>904</ele>
        <time>2019-04-27T16:41:31Z</time>
      </trkpt>
      <trkpt lat="42.90653" lon="1.37243">
        <ele>903</ele>
        <time>2019-04-27T16:41:32Z</time>
      </trkpt>
      <trkpt lat="42.90622" lon="1.37286">
        <ele>899</ele>
        <time>2019-04-27T16:41:44Z</time>
      </trkpt>
      <trkpt lat="42.9062" lon="1.37291">
        <ele>899</ele>
        <time>2019-04-27T16:41:45Z</time>
      </trkpt>
      <trkpt lat="42.90618" lon="1.37295">
        <ele>899</ele>
        <time>2019-04-27T16:41:46Z</time>
      </trkpt>
      <trkpt lat="42.90616" lon="1.37299">
        <ele>899</ele>
        <time>2019-04-27T16:41:47Z</time>
      </trkpt>
      <trkpt lat="42.90611" lon="1.37387">
        <ele>897</ele>
        <time>2019-04-27T16:42:05Z</time>
      </trkpt>
      <trkpt lat="42.90611" lon="1.37393">
        <ele>897</ele>
        <time>2019-04-27T16:42:06Z</time>
      </trkpt>
      <trkpt lat="42.90612" lon="1.37399">
        <ele>896</ele>
        <time>2019-04-27T16:42:07Z</time>
      </trkpt>
      <trkpt lat="42.90644" lon="1.37445">
        <ele>891</ele>
        <time>2019-04-27T16:42:19Z</time>
      </trkpt>
      <trkpt lat="42.90648" lon="1.37447">
        <ele>891</ele>
        <time>2019-04-27T16:42:20Z</time>
      </trkpt>
      <trkpt lat="42.90651" lon="1.37449">
        <ele>891</ele>
        <time>2019-04-27T16:42:21Z</time>
      </trkpt>
      <trkpt lat="42.90655" lon="1.37452">
        <ele>891</ele>
        <time>2019-04-27T16:42:22Z</time>
      </trkpt>
      <trkpt lat="42.90658" lon="1.37455">
        <ele>891</ele>
        <time>2019-04-27T16:42:23Z</time>
      </trkpt>
      <trkpt lat="42.90662" lon="1.37458">
        <ele>891</ele>
        <time>2019-04-27T16:42:24Z</time>
      </trkpt>
      <trkpt lat="42.90665" lon="1.37461">
        <ele>891</ele>
        <time>2019-04-27T16:42:25Z</time>
      </trkpt>
      <trkpt lat="42.90723" lon="1.37487">
        <ele>886</ele>
        <time>2019-04-27T16:42:42Z</time>
      </trkpt>
      <trkpt lat="42.90727" lon="1.37487">
        <ele>885</ele>
        <time>2019-04-27T16:42:43Z</time>
      </trkpt>
      <trkpt lat="42.90735" lon="1.37527">
        <ele>883</ele>
        <time>2019-04-27T16:42:55Z</time>
      </trkpt>
      <trkpt lat="42.90733" lon="1.3753">
        <ele>883</ele>
        <time>2019-04-27T16:42:56Z</time>
      </trkpt>
      <trkpt lat="42.90731" lon="1.37532">
        <ele>883</ele>
        <time>2019-04-27T16:42:57Z</time>
      </trkpt>
      <trkpt lat="42.9073" lon="1.37534">
        <ele>883</ele>
        <time>2019-04-27T16:42:58Z</time>
      </trkpt>
      <trkpt lat="42.90728" lon="1.37538">
        <ele>883</ele>
        <time>2019-04-27T16:42:59Z</time>
      </trkpt>
      <trkpt lat="42.90727" lon="1.37541">
        <ele>883</ele>
        <time>2019-04-27T16:43:00Z</time>
      </trkpt>
      <trkpt lat="42.90719" lon="1.37625">
        <ele>878</ele>
        <time>2019-04-27T16:43:16Z</time>
      </trkpt>
      <trkpt lat="42.90717" lon="1.37631">
        <ele>877</ele>
        <time>2019-04-27T16:43:17Z</time>
      </trkpt>
      <trkpt lat="42.90716" lon="1.37636">
        <ele>876</ele>
        <time>2019-04-27T16:43:18Z</time>
      </trkpt>
      <trkpt lat="42.90704" lon="1.37687">
        <ele>873</ele>
        <time>2019-04-27T16:43:29Z</time>
      </trkpt>
      <trkpt lat="42.90705" lon="1.37692">
        <ele>873</ele>
        <time>2019-04-27T16:43:30Z</time>
      </trkpt>
      <trkpt lat="42.90705" lon="1.37696">
        <ele>873</ele>
        <time>2019-04-27T16:43:31Z</time>
      </trkpt>
      <trkpt lat="42.90705" lon="1.37701">
        <ele>873</ele>
        <time>2019-04-27T16:43:32Z</time>
      </trkpt>
      <trkpt lat="42.90707" lon="1.37706">
        <ele>873</ele>
        <time>2019-04-27T16:43:33Z</time>
      </trkpt>
      <trkpt lat="42.90709" lon="1.37711">
        <ele>873</ele>
        <time>2019-04-27T16:43:34Z</time>
      </trkpt>
      <trkpt lat="42.90759" lon="1.37761">
        <ele>870</ele>
        <time>2019-04-27T16:43:51Z</time>
      </trkpt>
      <trkpt lat="42.90762" lon="1.37763">
        <ele>870</ele>
        <time>2019-04-27T16:43:52Z</time>
      </trkpt>
      <trkpt lat="42.90765" lon="1.37765">
        <ele>871</ele>
        <time>2019-04-27T16:43:53Z</time>
      </trkpt>
      <trkpt lat="42.90769" lon="1.37767">
        <ele>872</ele>
        <time>2019-04-27T16:43:54Z</time>
      </trkpt>
      <trkpt lat="42.90772" lon="1.37769">
        <ele>873</ele>
        <time>2019-04-27T16:43:55Z</time>
      </trkpt>
      <trkpt lat="42.90783" lon="1.37804">
        <ele>874</ele>
        <time>2019-04-27T16:44:05Z</time>
      </trkpt>
      <trkpt lat="42.90783" lon="1.37808">
        <ele>874</ele>
        <time>2019-04-27T16:44:06Z</time>
      </trkpt>
      <trkpt lat="42.9078" lon="1.37812">
        <ele>874</ele>
        <time>2019-04-27T16:44:07Z</time>
      </trkpt>
      <trkpt lat="42.90777" lon="1.37814">
        <ele>874</ele>
        <time>2019-04-27T16:44:08Z</time>
      </trkpt>
      <trkpt lat="42.90774" lon="1.37818">
        <ele>874</ele>
        <time>2019-04-27T16:44:09Z</time>
      </trkpt>
      <trkpt lat="42.90736" lon="1.37888">
        <ele>874</ele>
        <time>2019-04-27T16:44:27Z</time>
      </trkpt>
      <trkpt lat="42.90735" lon="1.37892">
        <ele>875</ele>
        <time>2019-04-27T16:44:28Z</time>
      </trkpt>
      <trkpt lat="42.90733" lon="1.37896">
        <ele>876</ele>
        <time>2019-04-27T16:44:29Z</time>
      </trkpt>
      <trkpt lat="42.90719" lon="1.37951">
        <ele>879</ele>
        <time>2019-04-27T16:44:41Z</time>
      </trkpt>
      <trkpt lat="42.90718" lon="1.37957">
        <ele>879</ele>
        <time>2019-04-27T16:44:42Z</time>
      </trkpt>
      <trkpt lat="42.90717" lon="1.37962">
        <ele>879</ele>
        <time>2019-04-27T16:44:43Z</time>
      </trkpt>
      <trkpt lat="42.90717" lon="1.37967">
        <ele>879</ele>
        <time>2019-04-27T16:44:44Z</time>
      </trkpt>
      <trkpt lat="42.90716" lon="1.37972">
        <ele>879</ele>
        <time>2019-04-27T16:44:45Z</time>
      </trkpt>
      <trkpt lat="42.90715" lon="1.37978">
        <ele>879</ele>
        <time>2019-04-27T16:44:46Z</time>
      </trkpt>
      <trkpt lat="42.90731" lon="1.38055">
        <ele>883</ele>
        <time>2019-04-27T16:45:03Z</time>
      </trkpt>
      <trkpt lat="42.90734" lon="1.38058">
        <ele>884</ele>
        <time>2019-04-27T16:45:04Z</time>
      </trkpt>
      <trkpt lat="42.90776" lon="1.38083">
        <ele>887</ele>
        <time>2019-04-27T16:45:16Z</time>
      </trkpt>
      <trkpt lat="42.9078" lon="1.38084">
        <ele>887</ele>
        <time>2019-04-27T16:45:17Z</time>
      </trkpt>
      <trkpt lat="42.90784" lon="1.38084">
        <ele>887</ele>
        <time>2019-04-27T16:45:18Z</time>
      </trkpt>
      <trkpt lat="42.90788" lon="1.38085">
        <ele>887</ele>
        <time>2019-04-27T16:45:19Z</time>
      </trkpt>
      <trkpt lat="42.90791" lon="1.38086">
        <ele>887</ele>
        <time>2019-04-27T16:45:20Z</time>
      </trkpt>
      <trkpt lat="42.90859" lon="1.38102">
        <ele>891</ele>
        <time>2019-04-27T16:45:38Z</time>
      </trkpt>
      <trkpt lat="42.90863" lon="1.38104">
        <ele>892</ele>
        <time>2019-04-27T16:45:39Z</time>
      </trkpt>
      <trkpt lat="42.90903" lon="1.3811">
        <ele>895</ele>
        <time>2019-04-27T16:45:50Z</time>
      </trkpt>
      <trkpt lat="42.90907" lon="1.38111">
        <ele>895</ele>
        <time>2019-04-27T16:45:51Z</time>
      </trkpt>
      <trkpt lat="42.9091" lon="1.38111">
        <ele>895</ele>
        <time>2019-04-27T16:45:52Z</time>
      </trkpt>
      <trkpt lat="42.90914" lon="1.3811">
        <ele>895</ele>
        <time>2019-04-27T16:45:53Z</time>
      </trkpt>
      <trkpt lat="42.90918" lon="1.3811">
        <ele>895</ele>
        <time>2019-04-27T16:45:54Z</time>
      </trkpt>
      <trkpt lat="42.90921" lon="1.3811">
        <ele>895</ele>
        <time>2019-04-27T16:45:55Z</time>
      </trkpt>
      <trkpt lat="42.90944" lon="1.38184">
        <ele>898</ele>
        <time>2019-04-27T16:46:13Z</time>
      </trkpt>
      <trkpt lat="42.90943" lon="1.38188">
        <ele>899</ele>
        <time>2019-04-27T16:46:14Z</time>
      </trkpt>
      <trkpt lat="42.90943" lon="1.38193">
        <ele>900</ele>
        <time>2019-04-27T16:46:15Z</time>
      </trkpt>
      <trkpt lat="42.90941" lon="1.38247">
        <ele>903</ele>
        <time>2019-04-27T16:46:26Z</time>
      </trkpt>
      <trkpt lat="42.90942" lon="1.38252">
        <ele>903</ele>
        <time>2019-04-27T16:46:27Z</time>
      </trkpt>
      <trkpt lat="42.90944" lon="1.38256">
        <ele>903</ele>
        <time>2019-04-27T16:46:28Z</time>
      </trkpt>
      <trkpt lat="42.90946" lon="1.38261">
        <ele>903</ele>
        <time>2019-04-27T16:46:29Z</time>
      </trkpt>
      <trkpt lat="42.90948" lon="1.38265">
        <ele>903</ele>
        <time>2019-04-27T16:46:30Z</time>
      </trkpt>
      <trkpt lat="42.90952" lon="1.38337">
        <ele>906</ele>
        <time>2019-04-27T16:46:48Z</time>
      </trkpt>
      <trkpt lat="42.9095" lon="1.38341">
        <ele>907</ele>
        <time>2019-04-27T16:46:49Z</time>
      </trkpt>
      <trkpt lat="42.90912" lon="1.38387">
        <ele>911</ele>
        <time>2019-04-27T16:47:02Z</time>
      </trkpt>
      <trkpt lat="42.9091" lon="1.38391">
        <ele>911</ele>
        <time>2019-04-27T16:47:03Z</time>
      </trkpt>
      <trkpt lat="42.90908" lon="1.38396">
        <ele>911</ele>
        <time>2019-04-27T16:47:04Z</time>
      </trkpt>
      <trkpt lat="42.90906" lon="1.384">
        <ele>911</ele>
        <time>2019-04-27T16:47:05Z</time>
      </trkpt>
      <trkpt lat="42.90903" lon="1.38405">
        <ele>911</ele>
        <time>2019-04-27T16:47:06Z</time>
      </trkpt>
      <trkpt lat="42.90852" lon="1.38466">
        <ele>916</ele>
        <time>2019-04-27T16:47:24Z</time>
      </trkpt>
      <trkpt lat="42.9085" lon="1.38471">
        <ele>917</ele>
        <time>2019-04-27T16:47:25Z</time>
      </trkpt>
      <trkpt lat="42.90855" lon="1.38526">
        <ele>926</ele>
        <time>2019-04-27T16:47:36Z</time>
      </trkpt>
      <trkpt lat="42.90859" lon="1.38529">
        <ele>927</ele>
        <time>2019-04-27T16:47:37Z</time>
      </trkpt>
      <trkpt lat="42.90862" lon="1.38531">
        <ele>928</ele>
        <time>2019-04-27T16:47:38Z</time>
      </trkpt>
      <trkpt lat="42.90865" lon="1.38533">
        <ele>928</ele>
        <time>2019-04-27T16:47:39Z</time>
      </trkpt>
      <trkpt lat="42.90869" lon="1.38534">
        <ele>929</ele>
        <time>2019-04-27T16:47:40Z</time>
      </trkpt>
      <trkpt lat="42.90872" lon="1.38534">
        <ele>929</ele>
        <time>2019-04-27T16:47:41Z</time>
      </trkpt>
      <trkpt lat="42.90875" lon="1.38536">
        <ele>929</ele>
        <time>2019-04-27T16:47:42Z</time>
      </trkpt>
      <trkpt lat="42.90903" lon="1.38588">
        <ele>930</ele>
        <time>2019-04-27T16:47:58Z</time>
      </trkpt>
      <trkpt lat="42.909" lon="1.38591">
        <ele>930</ele>
        <time>2019-04-27T16:47:59Z</time>
      </trkpt>
      <trkpt lat="42.90897" lon="1.38593">
        <ele>931</ele>
        <time>2019-04-27T16:48:00Z</time>
      </trkpt>
      <trkpt lat="42.90867" lon="1.3862">
        <ele>934</ele>
        <time>2019-04-27T16:48:11Z</time>
      </trkpt>
      <trkpt lat="42.90864" lon="1.38623">
        <ele>934</ele>
        <time>2019-04-27T16:48:12Z</time>
      </trkpt>
      <trkpt lat="42.90861" lon="1.38626">
        <ele>934</ele>
        <time>2019-04-27T16:48:13Z</time>
      </trkpt>
      <trkpt lat="42.90859" lon="1.38631">
        <ele>934</ele>
        <time>2019-04-27T16:48:14Z</time>
      </trkpt>
      <trkpt lat="42.90858" lon="1.38635">
        <ele>934</ele>
        <time>2019-04-27T16:48:15Z</time>
      </trkpt>
      <trkpt lat="42.90856" lon="1.3864">
        <ele>934</ele>
        <time>2019-04-27T16:48:16Z</time>
      </trkpt>
      <trkpt lat="42.90854" lon="1.38644">
        <ele>934</ele>
        <time>2019-04-27T16:48:17Z</time>
      </trkpt>
      <trkpt lat="42.90852" lon="1.38659">
        <ele>934</ele>
        <time>2019-04-27T16:48:20Z</time>
      </trkpt>
      <trkpt lat="42.90852" lon="1.38665">
        <ele>934</ele>
        <time>2019-04-27T16:48:21Z</time>
      </trkpt>
      <trkpt lat="42.90852" lon="1.3867">
        <ele>934</ele>
        <time>2019-04-27T16:48:22Z</time>
      </trkpt>
      <trkpt lat="42.90853" lon="1.38675">
        <ele>934</ele>
        <time>2019-04-27T16:48:23Z</time>
      </trkpt>
      <trkpt lat="42.90855" lon="1.38679">
        <ele>934</ele>
        <time>2019-04-27T16:48:24Z</time>
      </trkpt>
      <trkpt lat="42.90856" lon="1.38684">
        <ele>934</ele>
        <time>2019-04-27T16:48:25Z</time>
      </trkpt>
      <trkpt lat="42.90858" lon="1.38688">
        <ele>934</ele>
        <time>2019-04-27T16:48:26Z</time>
      </trkpt>
      <trkpt lat="42.9086" lon="1.38692">
        <ele>934</ele>
        <time>2019-04-27T16:48:27Z</time>
      </trkpt>
      <trkpt lat="42.90862" lon="1.38696">
        <ele>934</ele>
        <time>2019-04-27T16:48:28Z</time>
      </trkpt>
      <trkpt lat="42.90864" lon="1.38701">
        <ele>934</ele>
        <time>2019-04-27T16:48:29Z</time>
      </trkpt>
      <trkpt lat="42.90866" lon="1.38704">
        <ele>934</ele>
        <time>2019-04-27T16:48:30Z</time>
      </trkpt>
      <trkpt lat="42.9087" lon="1.38712">
        <ele>934</ele>
        <time>2019-04-27T16:48:32Z</time>
      </trkpt>
      <trkpt lat="42.90872" lon="1.38716">
        <ele>936</ele>
        <time>2019-04-27T16:48:33Z</time>
      </trkpt>
      <trkpt lat="42.90873" lon="1.3872">
        <ele>937</ele>
        <time>2019-04-27T16:48:34Z</time>
      </trkpt>
      <trkpt lat="42.90853" lon="1.38738">
        <ele>942</ele>
        <time>2019-04-27T16:48:45Z</time>
      </trkpt>
      <trkpt lat="42.9085" lon="1.38737">
        <ele>942</ele>
        <time>2019-04-27T16:48:46Z</time>
      </trkpt>
      <trkpt lat="42.90847" lon="1.38736">
        <ele>942</ele>
        <time>2019-04-27T16:48:47Z</time>
      </trkpt>
      <trkpt lat="42.90844" lon="1.38735">
        <ele>942</ele>
        <time>2019-04-27T16:48:48Z</time>
      </trkpt>
      <trkpt lat="42.90842" lon="1.38733">
        <ele>942</ele>
        <time>2019-04-27T16:48:49Z</time>
      </trkpt>
      <trkpt lat="42.90838" lon="1.38732">
        <ele>942</ele>
        <time>2019-04-27T16:48:50Z</time>
      </trkpt>
      <trkpt lat="42.90836" lon="1.38732">
        <ele>942</ele>
        <time>2019-04-27T16:48:51Z</time>
      </trkpt>
      <trkpt lat="42.90775" lon="1.38756">
        <ele>945</ele>
        <time>2019-04-27T16:49:09Z</time>
      </trkpt>
      <trkpt lat="42.90744" lon="1.38805">
        <ele>951</ele>
        <time>2019-04-27T16:49:22Z</time>
      </trkpt>
      <trkpt lat="42.90743" lon="1.3881">
        <ele>951</ele>
        <time>2019-04-27T16:49:23Z</time>
      </trkpt>
      <trkpt lat="42.90741" lon="1.38815">
        <ele>951</ele>
        <time>2019-04-27T16:49:24Z</time>
      </trkpt>
      <trkpt lat="42.9074" lon="1.38821">
        <ele>951</ele>
        <time>2019-04-27T16:49:25Z</time>
      </trkpt>
      <trkpt lat="42.90738" lon="1.38826">
        <ele>951</ele>
        <time>2019-04-27T16:49:26Z</time>
      </trkpt>
      <trkpt lat="42.90734" lon="1.38831">
        <ele>951</ele>
        <time>2019-04-27T16:49:27Z</time>
      </trkpt>
      <trkpt lat="42.90732" lon="1.38835">
        <ele>951</ele>
        <time>2019-04-27T16:49:28Z</time>
      </trkpt>
      <trkpt lat="42.90698" lon="1.38909">
        <ele>953</ele>
        <time>2019-04-27T16:49:44Z</time>
      </trkpt>
      <trkpt lat="42.90697" lon="1.38914">
        <ele>954</ele>
        <time>2019-04-27T16:49:45Z</time>
      </trkpt>
      <trkpt lat="42.90695" lon="1.38919">
        <ele>955</ele>
        <time>2019-04-27T16:49:46Z</time>
      </trkpt>
      <trkpt lat="42.90667" lon="1.38975">
        <ele>958</ele>
        <time>2019-04-27T16:49:58Z</time>
      </trkpt>
      <trkpt lat="42.90664" lon="1.3898">
        <ele>958</ele>
        <time>2019-04-27T16:49:59Z</time>
      </trkpt>
      <trkpt lat="42.90662" lon="1.38985">
        <ele>958</ele>
        <time>2019-04-27T16:50:00Z</time>
      </trkpt>
      <trkpt lat="42.90659" lon="1.3899">
        <ele>958</ele>
        <time>2019-04-27T16:50:01Z</time>
      </trkpt>
      <trkpt lat="42.90657" lon="1.38995">
        <ele>958</ele>
        <time>2019-04-27T16:50:02Z</time>
      </trkpt>
      <trkpt lat="42.90655" lon="1.39">
        <ele>958</ele>
        <time>2019-04-27T16:50:03Z</time>
      </trkpt>
      <trkpt lat="42.90646" lon="1.391">
        <ele>964</ele>
        <time>2019-04-27T16:50:21Z</time>
      </trkpt>
      <trkpt lat="42.90658" lon="1.39157">
        <ele>967</ele>
        <time>2019-04-27T16:50:32Z</time>
      </trkpt>
      <trkpt lat="42.90659" lon="1.39162">
        <ele>967</ele>
        <time>2019-04-27T16:50:33Z</time>
      </trkpt>
      <trkpt lat="42.9066" lon="1.39167">
        <ele>967</ele>
        <time>2019-04-27T16:50:34Z</time>
      </trkpt>
      <trkpt lat="42.90661" lon="1.39172">
        <ele>967</ele>
        <time>2019-04-27T16:50:35Z</time>
      </trkpt>
      <trkpt lat="42.90662" lon="1.39177">
        <ele>967</ele>
        <time>2019-04-27T16:50:36Z</time>
      </trkpt>
      <trkpt lat="42.90664" lon="1.39182">
        <ele>967</ele>
        <time>2019-04-27T16:50:37Z</time>
      </trkpt>
      <trkpt lat="42.90665" lon="1.39188">
        <ele>967</ele>
        <time>2019-04-27T16:50:38Z</time>
      </trkpt>
      <trkpt lat="42.90705" lon="1.39258">
        <ele>970</ele>
        <time>2019-04-27T16:50:54Z</time>
      </trkpt>
      <trkpt lat="42.90707" lon="1.39262">
        <ele>971</ele>
        <time>2019-04-27T16:50:55Z</time>
      </trkpt>
      <trkpt lat="42.90717" lon="1.39326">
        <ele>976</ele>
        <time>2019-04-27T16:51:08Z</time>
      </trkpt>
      <trkpt lat="42.90716" lon="1.39331">
        <ele>976</ele>
        <time>2019-04-27T16:51:09Z</time>
      </trkpt>
      <trkpt lat="42.90714" lon="1.39336">
        <ele>976</ele>
        <time>2019-04-27T16:51:10Z</time>
      </trkpt>
      <trkpt lat="42.90712" lon="1.3934">
        <ele>976</ele>
        <time>2019-04-27T16:51:11Z</time>
      </trkpt>
      <trkpt lat="42.90711" lon="1.39345">
        <ele>976</ele>
        <time>2019-04-27T16:51:12Z</time>
      </trkpt>
      <trkpt lat="42.90721" lon="1.39437">
        <ele>980</ele>
        <time>2019-04-27T16:51:30Z</time>
      </trkpt>
      <trkpt lat="42.90748" lon="1.39495">
        <ele>985</ele>
        <time>2019-04-27T16:51:43Z</time>
      </trkpt>
      <trkpt lat="42.9075" lon="1.39499">
        <ele>985</ele>
        <time>2019-04-27T16:51:44Z</time>
      </trkpt>
      <trkpt lat="42.90752" lon="1.39502">
        <ele>985</ele>
        <time>2019-04-27T16:51:45Z</time>
      </trkpt>
      <trkpt lat="42.90754" lon="1.39507">
        <ele>985</ele>
        <time>2019-04-27T16:51:46Z</time>
      </trkpt>
      <trkpt lat="42.90755" lon="1.39512">
        <ele>985</ele>
        <time>2019-04-27T16:51:47Z</time>
      </trkpt>
      <trkpt lat="42.90756" lon="1.39518">
        <ele>985</ele>
        <time>2019-04-27T16:51:48Z</time>
      </trkpt>
      <trkpt lat="42.90757" lon="1.39524">
        <ele>985</ele>
        <time>2019-04-27T16:51:49Z</time>
      </trkpt>
      <trkpt lat="42.90722" lon="1.39585">
        <ele>985</ele>
        <time>2019-04-27T16:52:05Z</time>
      </trkpt>
      <trkpt lat="42.9072" lon="1.3959">
        <ele>986</ele>
        <time>2019-04-27T16:52:06Z</time>
      </trkpt>
      <trkpt lat="42.90719" lon="1.39595">
        <ele>987</ele>
        <time>2019-04-27T16:52:07Z</time>
      </trkpt>
      <trkpt lat="42.90718" lon="1.396">
        <ele>988</ele>
        <time>2019-04-27T16:52:08Z</time>
      </trkpt>
      <trkpt lat="42.90718" lon="1.39605">
        <ele>989</ele>
        <time>2019-04-27T16:52:09Z</time>
      </trkpt>
      <trkpt lat="42.90727" lon="1.39663">
        <ele>992</ele>
        <time>2019-04-27T16:52:20Z</time>
      </trkpt>
      <trkpt lat="42.90727" lon="1.39668">
        <ele>992</ele>
        <time>2019-04-27T16:52:21Z</time>
      </trkpt>
      <trkpt lat="42.90728" lon="1.39674">
        <ele>992</ele>
        <time>2019-04-27T16:52:22Z</time>
      </trkpt>
      <trkpt lat="42.90729" lon="1.39678">
        <ele>992</ele>
        <time>2019-04-27T16:52:23Z</time>
      </trkpt>
      <trkpt lat="42.9073" lon="1.39683">
        <ele>992</ele>
        <time>2019-04-27T16:52:24Z</time>
      </trkpt>
      <trkpt lat="42.90726" lon="1.3977">
        <ele>996</ele>
        <time>2019-04-27T16:52:41Z</time>
      </trkpt>
      <trkpt lat="42.90724" lon="1.39775">
        <ele>997</ele>
        <time>2019-04-27T16:52:42Z</time>
      </trkpt>
      <trkpt lat="42.90698" lon="1.39824">
        <ele>1001</ele>
        <time>2019-04-27T16:52:53Z</time>
      </trkpt>
      <trkpt lat="42.90696" lon="1.39829">
        <ele>1001</ele>
        <time>2019-04-27T16:52:54Z</time>
      </trkpt>
      <trkpt lat="42.90695" lon="1.39833">
        <ele>1001</ele>
        <time>2019-04-27T16:52:55Z</time>
      </trkpt>
      <trkpt lat="42.90693" lon="1.39838">
        <ele>1001</ele>
        <time>2019-04-27T16:52:56Z</time>
      </trkpt>
      <trkpt lat="42.90691" lon="1.39843">
        <ele>1001</ele>
        <time>2019-04-27T16:52:57Z</time>
      </trkpt>
      <trkpt lat="42.9069" lon="1.39848">
        <ele>1001</ele>
        <time>2019-04-27T16:52:58Z</time>
      </trkpt>
      <trkpt lat="42.90688" lon="1.39853">
        <ele>1001</ele>
        <time>2019-04-27T16:52:59Z</time>
      </trkpt>
      <trkpt lat="42.90686" lon="1.39858">
        <ele>1001</ele>
        <time>2019-04-27T16:53:00Z</time>
      </trkpt>
      <trkpt lat="42.90685" lon="1.39863">
        <ele>1001</ele>
        <time>2019-04-27T16:53:01Z</time>
      </trkpt>
      <trkpt lat="42.90674" lon="1.39947">
        <ele>1004</ele>
        <time>2019-04-27T16:53:17Z</time>
      </trkpt>
      <trkpt lat="42.90674" lon="1.39953">
        <ele>1005</ele>
        <time>2019-04-27T16:53:18Z</time>
      </trkpt>
      <trkpt lat="42.90674" lon="1.39958">
        <ele>1006</ele>
        <time>2019-04-27T16:53:19Z</time>
      </trkpt>
      <trkpt lat="42.90673" lon="1.40017">
        <ele>1007</ele>
        <time>2019-04-27T16:53:30Z</time>
      </trkpt>
      <trkpt lat="42.90674" lon="1.40023">
        <ele>1007</ele>
        <time>2019-04-27T16:53:31Z</time>
      </trkpt>
      <trkpt lat="42.90674" lon="1.40028">
        <ele>1007</ele>
        <time>2019-04-27T16:53:32Z</time>
      </trkpt>
      <trkpt lat="42.90674" lon="1.40033">
        <ele>1007</ele>
        <time>2019-04-27T16:53:33Z</time>
      </trkpt>
      <trkpt lat="42.90675" lon="1.40039">
        <ele>1007</ele>
        <time>2019-04-27T16:53:34Z</time>
      </trkpt>
      <trkpt lat="42.90676" lon="1.40044">
        <ele>1007</ele>
        <time>2019-04-27T16:53:35Z</time>
      </trkpt>
      <trkpt lat="42.90677" lon="1.4005">
        <ele>1007</ele>
        <time>2019-04-27T16:53:36Z</time>
      </trkpt>
      <trkpt lat="42.907" lon="1.40139">
        <ele>1009</ele>
        <time>2019-04-27T16:53:53Z</time>
      </trkpt>
      <trkpt lat="42.90701" lon="1.40144">
        <ele>1010</ele>
        <time>2019-04-27T16:53:54Z</time>
      </trkpt>
      <trkpt lat="42.9072" lon="1.40192">
        <ele>1013</ele>
        <time>2019-04-27T16:54:05Z</time>
      </trkpt>
      <trkpt lat="42.90722" lon="1.40196">
        <ele>1013</ele>
        <time>2019-04-27T16:54:06Z</time>
      </trkpt>
      <trkpt lat="42.90724" lon="1.402">
        <ele>1013</ele>
        <time>2019-04-27T16:54:07Z</time>
      </trkpt>
      <trkpt lat="42.90726" lon="1.40205">
        <ele>1013</ele>
        <time>2019-04-27T16:54:08Z</time>
      </trkpt>
      <trkpt lat="42.90729" lon="1.40209">
        <ele>1013</ele>
        <time>2019-04-27T16:54:09Z</time>
      </trkpt>
      <trkpt lat="42.90731" lon="1.40214">
        <ele>1013</ele>
        <time>2019-04-27T16:54:10Z</time>
      </trkpt>
      <trkpt lat="42.90752" lon="1.40291">
        <ele>1015</ele>
        <time>2019-04-27T16:54:26Z</time>
      </trkpt>
      <trkpt lat="42.90753" lon="1.40296">
        <ele>1017</ele>
        <time>2019-04-27T16:54:27Z</time>
      </trkpt>
      <trkpt lat="42.90753" lon="1.40301">
        <ele>1018</ele>
        <time>2019-04-27T16:54:28Z</time>
      </trkpt>
      <trkpt lat="42.90759" lon="1.40357">
        <ele>1022</ele>
        <time>2019-04-27T16:54:39Z</time>
      </trkpt>
      <trkpt lat="42.90758" lon="1.40362">
        <ele>1022</ele>
        <time>2019-04-27T16:54:40Z</time>
      </trkpt>
      <trkpt lat="42.90758" lon="1.40367">
        <ele>1022</ele>
        <time>2019-04-27T16:54:41Z</time>
      </trkpt>
      <trkpt lat="42.90757" lon="1.40372">
        <ele>1022</ele>
        <time>2019-04-27T16:54:42Z</time>
      </trkpt>
      <trkpt lat="42.90756" lon="1.40378">
        <ele>1022</ele>
        <time>2019-04-27T16:54:43Z</time>
      </trkpt>
      <trkpt lat="42.90756" lon="1.40383">
        <ele>1022</ele>
        <time>2019-04-27T16:54:44Z</time>
      </trkpt>
      <trkpt lat="42.90755" lon="1.40389">
        <ele>1022</ele>
        <time>2019-04-27T16:54:45Z</time>
      </trkpt>
      <trkpt lat="42.90714" lon="1.40462">
        <ele>1024</ele>
        <time>2019-04-27T16:55:03Z</time>
      </trkpt>
      <trkpt lat="42.907" lon="1.40518">
        <ele>1029</ele>
        <time>2019-04-27T16:55:14Z</time>
      </trkpt>
      <trkpt lat="42.907" lon="1.40523">
        <ele>1029</ele>
        <time>2019-04-27T16:55:15Z</time>
      </trkpt>
      <trkpt lat="42.90699" lon="1.40529">
        <ele>1029</ele>
        <time>2019-04-27T16:55:16Z</time>
      </trkpt>
      <trkpt lat="42.90699" lon="1.40534">
        <ele>1029</ele>
        <time>2019-04-27T16:55:17Z</time>
      </trkpt>
      <trkpt lat="42.90699" lon="1.4054">
        <ele>1029</ele>
        <time>2019-04-27T16:55:18Z</time>
      </trkpt>
      <trkpt lat="42.90699" lon="1.40546">
        <ele>1029</ele>
        <time>2019-04-27T16:55:19Z</time>
      </trkpt>
      <trkpt lat="42.90699" lon="1.40551">
        <ele>1029</ele>
        <time>2019-04-27T16:55:20Z</time>
      </trkpt>
      <trkpt lat="42.90699" lon="1.40556">
        <ele>1029</ele>
        <time>2019-04-27T16:55:21Z</time>
      </trkpt>
      <trkpt lat="42.90699" lon="1.40562">
        <ele>1029</ele>
        <time>2019-04-27T16:55:22Z</time>
      </trkpt>
      <trkpt lat="42.90697" lon="1.40648">
        <ele>1031</ele>
        <time>2019-04-27T16:55:39Z</time>
      </trkpt>
      <trkpt lat="42.90697" lon="1.40651">
        <ele>1032</ele>
        <time>2019-04-27T16:55:40Z</time>
      </trkpt>
      <trkpt lat="42.90687" lon="1.40705">
        <ele>1034</ele>
        <time>2019-04-27T16:55:51Z</time>
      </trkpt>
      <trkpt lat="42.90684" lon="1.4071">
        <ele>1034</ele>
        <time>2019-04-27T16:55:52Z</time>
      </trkpt>
      <trkpt lat="42.90683" lon="1.40715">
        <ele>1034</ele>
        <time>2019-04-27T16:55:53Z</time>
      </trkpt>
      <trkpt lat="42.90681" lon="1.4072">
        <ele>1034</ele>
        <time>2019-04-27T16:55:54Z</time>
      </trkpt>
      <trkpt lat="42.90679" lon="1.40726">
        <ele>1034</ele>
        <time>2019-04-27T16:55:55Z</time>
      </trkpt>
      <trkpt lat="42.90678" lon="1.40731">
        <ele>1034</ele>
        <time>2019-04-27T16:55:56Z</time>
      </trkpt>
      <trkpt lat="42.90678" lon="1.40736">
        <ele>1034</ele>
        <time>2019-04-27T16:55:57Z</time>
      </trkpt>
      <trkpt lat="42.90669" lon="1.40834">
        <ele>1041</ele>
        <time>2019-04-27T16:56:14Z</time>
      </trkpt>
      <trkpt lat="42.90669" lon="1.40839">
        <ele>1042</ele>
        <time>2019-04-27T16:56:15Z</time>
      </trkpt>
      <trkpt lat="42.90684" lon="1.40897">
        <ele>1044</ele>
        <time>2019-04-27T16:56:26Z</time>
      </trkpt>
      <trkpt lat="42.90687" lon="1.40901">
        <ele>1044</ele>
        <time>2019-04-27T16:56:27Z</time>
      </trkpt>
      <trkpt lat="42.90689" lon="1.40905">
        <ele>1044</ele>
        <time>2019-04-27T16:56:28Z</time>
      </trkpt>
      <trkpt lat="42.90691" lon="1.40909">
        <ele>1044</ele>
        <time>2019-04-27T16:56:29Z</time>
      </trkpt>
      <trkpt lat="42.90694" lon="1.40914">
        <ele>1044</ele>
        <time>2019-04-27T16:56:30Z</time>
      </trkpt>
      <trkpt lat="42.90687" lon="1.40996">
        <ele>1044</ele>
        <time>2019-04-27T16:56:47Z</time>
      </trkpt>
      <trkpt lat="42.90686" lon="1.41001">
        <ele>1044</ele>
        <time>2019-04-27T16:56:48Z</time>
      </trkpt>
      <trkpt lat="42.90685" lon="1.41006">
        <ele>1045</ele>
        <time>2019-04-27T16:56:49Z</time>
      </trkpt>
      <trkpt lat="42.90684" lon="1.41011">
        <ele>1046</ele>
        <time>2019-04-27T16:56:50Z</time>
      </trkpt>
      <trkpt lat="42.90683" lon="1.41016">
        <ele>1047</ele>
        <time>2019-04-27T16:56:51Z</time>
      </trkpt>
      <trkpt lat="42.90682" lon="1.41021">
        <ele>1048</ele>
        <time>2019-04-27T16:56:52Z</time>
      </trkpt>
      <trkpt lat="42.90684" lon="1.4107">
        <ele>1050</ele>
        <time>2019-04-27T16:57:01Z</time>
      </trkpt>
      <trkpt lat="42.90686" lon="1.41075">
        <ele>1050</ele>
        <time>2019-04-27T16:57:02Z</time>
      </trkpt>
      <trkpt lat="42.90687" lon="1.4108">
        <ele>1050</ele>
        <time>2019-04-27T16:57:03Z</time>
      </trkpt>
      <trkpt lat="42.90688" lon="1.41085">
        <ele>1050</ele>
        <time>2019-04-27T16:57:04Z</time>
      </trkpt>
      <trkpt lat="42.90689" lon="1.4109">
        <ele>1050</ele>
        <time>2019-04-27T16:57:05Z</time>
      </trkpt>
      <trkpt lat="42.9069" lon="1.41095">
        <ele>1050</ele>
        <time>2019-04-27T16:57:06Z</time>
      </trkpt>
      <trkpt lat="42.90692" lon="1.41099">
        <ele>1050</ele>
        <time>2019-04-27T16:57:07Z</time>
      </trkpt>
      <trkpt lat="42.9068" lon="1.41171">
        <ele>1053</ele>
        <time>2019-04-27T16:57:23Z</time>
      </trkpt>
      <trkpt lat="42.90677" lon="1.41175">
        <ele>1054</ele>
        <time>2019-04-27T16:57:24Z</time>
      </trkpt>
      <trkpt lat="42.90647" lon="1.41236">
        <ele>1060</ele>
        <time>2019-04-27T16:57:37Z</time>
      </trkpt>
      <trkpt lat="42.90646" lon="1.41241">
        <ele>1060</ele>
        <time>2019-04-27T16:57:38Z</time>
      </trkpt>
      <trkpt lat="42.90645" lon="1.41246">
        <ele>1060</ele>
        <time>2019-04-27T16:57:39Z</time>
      </trkpt>
      <trkpt lat="42.90644" lon="1.41251">
        <ele>1060</ele>
        <time>2019-04-27T16:57:40Z</time>
      </trkpt>
      <trkpt lat="42.90643" lon="1.41256">
        <ele>1060</ele>
        <time>2019-04-27T16:57:41Z</time>
      </trkpt>
      <trkpt lat="42.90641" lon="1.41261">
        <ele>1060</ele>
        <time>2019-04-27T16:57:42Z</time>
      </trkpt>
      <trkpt lat="42.9064" lon="1.41266">
        <ele>1060</ele>
        <time>2019-04-27T16:57:43Z</time>
      </trkpt>
      <trkpt lat="42.90627" lon="1.41354">
        <ele>1064</ele>
        <time>2019-04-27T16:57:59Z</time>
      </trkpt>
      <trkpt lat="42.90626" lon="1.41359">
        <ele>1065</ele>
        <time>2019-04-27T16:58:00Z</time>
      </trkpt>
      <trkpt lat="42.90625" lon="1.41364">
        <ele>1066</ele>
        <time>2019-04-27T16:58:01Z</time>
      </trkpt>
      <trkpt lat="42.90629" lon="1.41424">
        <ele>1067</ele>
        <time>2019-04-27T16:58:12Z</time>
      </trkpt>
      <trkpt lat="42.90632" lon="1.41428">
        <ele>1067</ele>
        <time>2019-04-27T16:58:13Z</time>
      </trkpt>
      <trkpt lat="42.90635" lon="1.41432">
        <ele>1067</ele>
        <time>2019-04-27T16:58:14Z</time>
      </trkpt>
      <trkpt lat="42.90639" lon="1.41435">
        <ele>1067</ele>
        <time>2019-04-27T16:58:15Z</time>
      </trkpt>
      <trkpt lat="42.90641" lon="1.41439">
        <ele>1067</ele>
        <time>2019-04-27T16:58:16Z</time>
      </trkpt>
      <trkpt lat="42.90644" lon="1.41443">
        <ele>1067</ele>
        <time>2019-04-27T16:58:17Z</time>
      </trkpt>
      <trkpt lat="42.90647" lon="1.41447">
        <ele>1067</ele>
        <time>2019-04-27T16:58:18Z</time>
      </trkpt>
      <trkpt lat="42.90692" lon="1.41515">
        <ele>1073</ele>
        <time>2019-04-27T16:58:35Z</time>
      </trkpt>
      <trkpt lat="42.90694" lon="1.4152">
        <ele>1074</ele>
        <time>2019-04-27T16:58:36Z</time>
      </trkpt>
      <trkpt lat="42.9073" lon="1.41556">
        <ele>1076</ele>
        <time>2019-04-27T16:58:47Z</time>
      </trkpt>
      <trkpt lat="42.90733" lon="1.41559">
        <ele>1076</ele>
        <time>2019-04-27T16:58:48Z</time>
      </trkpt>
      <trkpt lat="42.90737" lon="1.41563">
        <ele>1076</ele>
        <time>2019-04-27T16:58:49Z</time>
      </trkpt>
      <trkpt lat="42.9074" lon="1.41566">
        <ele>1076</ele>
        <time>2019-04-27T16:58:50Z</time>
      </trkpt>
      <trkpt lat="42.90744" lon="1.4157">
        <ele>1076</ele>
        <time>2019-04-27T16:58:51Z</time>
      </trkpt>
      <trkpt lat="42.90747" lon="1.41573">
        <ele>1076</ele>
        <time>2019-04-27T16:58:52Z</time>
      </trkpt>
      <trkpt lat="42.90795" lon="1.41628">
        <ele>1077</ele>
        <time>2019-04-27T16:59:08Z</time>
      </trkpt>
      <trkpt lat="42.90796" lon="1.41634">
        <ele>1078</ele>
        <time>2019-04-27T16:59:09Z</time>
      </trkpt>
      <trkpt lat="42.90796" lon="1.41639">
        <ele>1079</ele>
        <time>2019-04-27T16:59:10Z</time>
      </trkpt>
      <trkpt lat="42.90794" lon="1.41644">
        <ele>1080</ele>
        <time>2019-04-27T16:59:11Z</time>
      </trkpt>
      <trkpt lat="42.90791" lon="1.41648">
        <ele>1081</ele>
        <time>2019-04-27T16:59:12Z</time>
      </trkpt>
      <trkpt lat="42.90787" lon="1.4165">
        <ele>1082</ele>
        <time>2019-04-27T16:59:13Z</time>
      </trkpt>
      <trkpt lat="42.90754" lon="1.41662">
        <ele>1084</ele>
        <time>2019-04-27T16:59:22Z</time>
      </trkpt>
      <trkpt lat="42.9075" lon="1.41664">
        <ele>1084</ele>
        <time>2019-04-27T16:59:23Z</time>
      </trkpt>
      <trkpt lat="42.90747" lon="1.41667">
        <ele>1084</ele>
        <time>2019-04-27T16:59:24Z</time>
      </trkpt>
      <trkpt lat="42.90744" lon="1.41669">
        <ele>1084</ele>
        <time>2019-04-27T16:59:25Z</time>
      </trkpt>
      <trkpt lat="42.90741" lon="1.41672">
        <ele>1084</ele>
        <time>2019-04-27T16:59:26Z</time>
      </trkpt>
      <trkpt lat="42.90738" lon="1.41676">
        <ele>1084</ele>
        <time>2019-04-27T16:59:27Z</time>
      </trkpt>
      <trkpt lat="42.90697" lon="1.4176">
        <ele>1087</ele>
        <time>2019-04-27T16:59:45Z</time>
      </trkpt>
      <trkpt lat="42.90695" lon="1.41765">
        <ele>1088</ele>
        <time>2019-04-27T16:59:46Z</time>
      </trkpt>
      <trkpt lat="42.90677" lon="1.4182">
        <ele>1092</ele>
        <time>2019-04-27T16:59:57Z</time>
      </trkpt>
      <trkpt lat="42.90675" lon="1.41825">
        <ele>1092</ele>
        <time>2019-04-27T16:59:58Z</time>
      </trkpt>
      <trkpt lat="42.90673" lon="1.4183">
        <ele>1092</ele>
        <time>2019-04-27T16:59:59Z</time>
      </trkpt>
      <trkpt lat="42.90672" lon="1.41835">
        <ele>1092</ele>
        <time>2019-04-27T17:00:00Z</time>
      </trkpt>
      <trkpt lat="42.9067" lon="1.4184">
        <ele>1092</ele>
        <time>2019-04-27T17:00:01Z</time>
      </trkpt>
      <trkpt lat="42.90669" lon="1.41845">
        <ele>1092</ele>
        <time>2019-04-27T17:00:02Z</time>
      </trkpt>
      <trkpt lat="42.90667" lon="1.4185">
        <ele>1092</ele>
        <time>2019-04-27T17:00:03Z</time>
      </trkpt>
      <trkpt lat="42.90666" lon="1.41855">
        <ele>1092</ele>
        <time>2019-04-27T17:00:04Z</time>
      </trkpt>
      <trkpt lat="42.90694" lon="1.41925">
        <ele>1096</ele>
        <time>2019-04-27T17:00:20Z</time>
      </trkpt>
      <trkpt lat="42.90695" lon="1.41929">
        <ele>1097</ele>
        <time>2019-04-27T17:00:21Z</time>
      </trkpt>
      <trkpt lat="42.90697" lon="1.41993">
        <ele>1103</ele>
        <time>2019-04-27T17:00:34Z</time>
      </trkpt>
      <trkpt lat="42.90698" lon="1.41998">
        <ele>1103</ele>
        <time>2019-04-27T17:00:35Z</time>
      </trkpt>
      <trkpt lat="42.907" lon="1.42002">
        <ele>1103</ele>
        <time>2019-04-27T17:00:36Z</time>
      </trkpt>
      <trkpt lat="42.90702" lon="1.42007">
        <ele>1103</ele>
        <time>2019-04-27T17:00:37Z</time>
      </trkpt>
      <trkpt lat="42.90703" lon="1.42012">
        <ele>1103</ele>
        <time>2019-04-27T17:00:38Z</time>
      </trkpt>
      <trkpt lat="42.90703" lon="1.42017">
        <ele>1103</ele>
        <time>2019-04-27T17:00:39Z</time>
      </trkpt>
      <trkpt lat="42.90673" lon="1.42085">
        <ele>1107</ele>
        <time>2019-04-27T17:00:56Z</time>
      </trkpt>
      <trkpt lat="42.9067" lon="1.42088">
        <ele>1108</ele>
        <time>2019-04-27T17:00:57Z</time>
      </trkpt>
      <trkpt lat="42.90641" lon="1.42121">
        <ele>1111</ele>
        <time>2019-04-27T17:01:08Z</time>
      </trkpt>
      <trkpt lat="42.9064" lon="1.42126">
        <ele>1111</ele>
        <time>2019-04-27T17:01:09Z</time>
      </trkpt>
      <trkpt lat="42.90639" lon="1.4213">
        <ele>1111</ele>
        <time>2019-04-27T17:01:10Z</time>
      </trkpt>
      <trkpt lat="42.90638" lon="1.42134">
        <ele>1111</ele>
        <time>2019-04-27T17:01:11Z</time>
      </trkpt>
      <trkpt lat="42.90636" lon="1.42139">
        <ele>1111</ele>
        <time>2019-04-27T17:01:12Z</time>
      </trkpt>
      <trkpt lat="42.90634" lon="1.42144">
        <ele>1111</ele>
        <time>2019-04-27T17:01:13Z</time>
      </trkpt>
      <trkpt lat="42.90633" lon="1.4215">
        <ele>1111</ele>
        <time>2019-04-27T17:01:14Z</time>
      </trkpt>
      <trkpt lat="42.90631" lon="1.42155">
        <ele>1111</ele>
        <time>2019-04-27T17:01:15Z</time>
      </trkpt>
      <trkpt lat="42.9063" lon="1.4216">
        <ele>1111</ele>
        <time>2019-04-27T17:01:16Z</time>
      </trkpt>
      <trkpt lat="42.9062" lon="1.42245">
        <ele>1114</ele>
        <time>2019-04-27T17:01:32Z</time>
      </trkpt>
      <trkpt lat="42.9062" lon="1.4225">
        <ele>1115</ele>
        <time>2019-04-27T17:01:33Z</time>
      </trkpt>
      <trkpt lat="42.90637" lon="1.42304">
        <ele>1118</ele>
        <time>2019-04-27T17:01:44Z</time>
      </trkpt>
      <trkpt lat="42.9064" lon="1.42308">
        <ele>1118</ele>
        <time>2019-04-27T17:01:45Z</time>
      </trkpt>
      <trkpt lat="42.90643" lon="1.42311">
        <ele>1118</ele>
        <time>2019-04-27T17:01:46Z</time>
      </trkpt>
      <trkpt lat="42.90646" lon="1.42314">
        <ele>1118</ele>
        <time>2019-04-27T17:01:47Z</time>
      </trkpt>
      <trkpt lat="42.90649" lon="1.42316">
        <ele>1118</ele>
        <time>2019-04-27T17:01:48Z</time>
      </trkpt>
      <trkpt lat="42.9072" lon="1.42337">
        <ele>1122</ele>
        <time>2019-04-27T17:02:07Z</time>
      </trkpt>
      <trkpt lat="42.90723" lon="1.42339">
        <ele>1123</ele>
        <time>2019-04-27T17:02:08Z</time>
      </trkpt>
      <trkpt lat="42.90726" lon="1.42342">
        <ele>1124</ele>
        <time>2019-04-27T17:02:09Z</time>
      </trkpt>
      <trkpt lat="42.90757" lon="1.42376">
        <ele>1126</ele>
        <time>2019-04-27T17:02:20Z</time>
      </trkpt>
      <trkpt lat="42.90759" lon="1.42381">
        <ele>1126</ele>
        <time>2019-04-27T17:02:21Z</time>
      </trkpt>
      <trkpt lat="42.9076" lon="1.42386">
        <ele>1126</ele>
        <time>2019-04-27T17:02:22Z</time>
      </trkpt>
      <trkpt lat="42.90761" lon="1.42391">
        <ele>1126</ele>
        <time>2019-04-27T17:02:23Z</time>
      </trkpt>
      <trkpt lat="42.90763" lon="1.42395">
        <ele>1126</ele>
        <time>2019-04-27T17:02:24Z</time>
      </trkpt>
      <trkpt lat="42.90763" lon="1.424">
        <ele>1126</ele>
        <time>2019-04-27T17:02:25Z</time>
      </trkpt>
      <trkpt lat="42.90778" lon="1.42477">
        <ele>1126</ele>
        <time>2019-04-27T17:02:41Z</time>
      </trkpt>
      <trkpt lat="42.90778" lon="1.42482">
        <ele>1126</ele>
        <time>2019-04-27T17:02:42Z</time>
      </trkpt>
      <trkpt lat="42.90748" lon="1.42521">
        <ele>1132</ele>
        <time>2019-04-27T17:02:55Z</time>
      </trkpt>
      <trkpt lat="42.90745" lon="1.42521">
        <ele>1132</ele>
        <time>2019-04-27T17:02:56Z</time>
      </trkpt>
      <trkpt lat="42.90743" lon="1.42522">
        <ele>1132</ele>
        <time>2019-04-27T17:02:57Z</time>
      </trkpt>
      <trkpt lat="42.9074" lon="1.42523">
        <ele>1132</ele>
        <time>2019-04-27T17:02:58Z</time>
      </trkpt>
      <trkpt lat="42.90737" lon="1.42524">
        <ele>1132</ele>
        <time>2019-04-27T17:02:59Z</time>
      </trkpt>
      <trkpt lat="42.90734" lon="1.42525">
        <ele>1132</ele>
        <time>2019-04-27T17:03:00Z</time>
      </trkpt>
      <trkpt lat="42.9067" lon="1.42571">
        <ele>1138</ele>
        <time>2019-04-27T17:03:18Z</time>
      </trkpt>
      <trkpt lat="42.90637" lon="1.42607">
        <ele>1141</ele>
        <time>2019-04-27T17:03:29Z</time>
      </trkpt>
      <trkpt lat="42.90634" lon="1.4261">
        <ele>1141</ele>
        <time>2019-04-27T17:03:30Z</time>
      </trkpt>
      <trkpt lat="42.90631" lon="1.42613">
        <ele>1141</ele>
        <time>2019-04-27T17:03:31Z</time>
      </trkpt>
      <trkpt lat="42.90628" lon="1.42616">
        <ele>1141</ele>
        <time>2019-04-27T17:03:32Z</time>
      </trkpt>
      <trkpt lat="42.90626" lon="1.42619">
        <ele>1141</ele>
        <time>2019-04-27T17:03:33Z</time>
      </trkpt>
      <trkpt lat="42.90623" lon="1.42623">
        <ele>1141</ele>
        <time>2019-04-27T17:03:34Z</time>
      </trkpt>
      <trkpt lat="42.9062" lon="1.42626">
        <ele>1141</ele>
        <time>2019-04-27T17:03:35Z</time>
      </trkpt>
      <trkpt lat="42.90618" lon="1.4263">
        <ele>1141</ele>
        <time>2019-04-27T17:03:36Z</time>
      </trkpt>
      <trkpt lat="42.90616" lon="1.42634">
        <ele>1141</ele>
        <time>2019-04-27T17:03:37Z</time>
      </trkpt>
      <trkpt lat="42.90604" lon="1.42711">
        <ele>1145</ele>
        <time>2019-04-27T17:03:53Z</time>
      </trkpt>
      <trkpt lat="42.90604" lon="1.42716">
        <ele>1146</ele>
        <time>2019-04-27T17:03:54Z</time>
      </trkpt>
      <trkpt lat="42.90604" lon="1.42721">
        <ele>1147</ele>
        <time>2019-04-27T17:03:55Z</time>
      </trkpt>
      <trkpt lat="42.9061" lon="1.42776">
        <ele>1147</ele>
        <time>2019-04-27T17:04:06Z</time>
      </trkpt>
      <trkpt lat="42.90611" lon="1.42781">
        <ele>1147</ele>
        <time>2019-04-27T17:04:07Z</time>
      </trkpt>
      <trkpt lat="42.90612" lon="1.42787">
        <ele>1147</ele>
        <time>2019-04-27T17:04:08Z</time>
      </trkpt>
      <trkpt lat="42.90614" lon="1.42792">
        <ele>1147</ele>
        <time>2019-04-27T17:04:09Z</time>
      </trkpt>
      <trkpt lat="42.90654" lon="1.42862">
        <ele>1148</ele>
        <time>2019-04-27T17:04:27Z</time>
      </trkpt>
      <trkpt lat="42.90628" lon="1.42901">
        <ele>1153</ele>
        <time>2019-04-27T17:04:40Z</time>
      </trkpt>
      <trkpt lat="42.90624" lon="1.42903">
        <ele>1153</ele>
        <time>2019-04-27T17:04:41Z</time>
      </trkpt>
      <trkpt lat="42.90621" lon="1.42904">
        <ele>1153</ele>
        <time>2019-04-27T17:04:42Z</time>
      </trkpt>
      <trkpt lat="42.90618" lon="1.42905">
        <ele>1153</ele>
        <time>2019-04-27T17:04:43Z</time>
      </trkpt>
      <trkpt lat="42.90614" lon="1.42907">
        <ele>1153</ele>
        <time>2019-04-27T17:04:44Z</time>
      </trkpt>
      <trkpt lat="42.90611" lon="1.42909">
        <ele>1153</ele>
        <time>2019-04-27T17:04:45Z</time>
      </trkpt>
      <trkpt lat="42.90608" lon="1.4291">
        <ele>1153</ele>
        <time>2019-04-27T17:04:46Z</time>
      </trkpt>
      <trkpt lat="42.90551" lon="1.4294">
        <ele>1155</ele>
        <time>2019-04-27T17:05:02Z</time>
      </trkpt>
      <trkpt lat="42.90548" lon="1.42941">
        <ele>1156</ele>
        <time>2019-04-27T17:05:03Z</time>
      </trkpt>
      <trkpt lat="42.90502" lon="1.42978">
        <ele>1159</ele>
        <time>2019-04-27T17:05:14Z</time>
      </trkpt>
      <trkpt lat="42.90499" lon="1.42982">
        <ele>1159</ele>
        <time>2019-04-27T17:05:15Z</time>
      </trkpt>
      <trkpt lat="42.90496" lon="1.42985">
        <ele>1159</ele>
        <time>2019-04-27T17:05:16Z</time>
      </trkpt>
      <trkpt lat="42.90493" lon="1.42989">
        <ele>1159</ele>
        <time>2019-04-27T17:05:17Z</time>
      </trkpt>
      <trkpt lat="42.9049" lon="1.42993">
        <ele>1159</ele>
        <time>2019-04-27T17:05:18Z</time>
      </trkpt>
      <trkpt lat="42.90488" lon="1.42997">
        <ele>1159</ele>
        <time>2019-04-27T17:05:19Z</time>
      </trkpt>
      <trkpt lat="42.90485" lon="1.43001">
        <ele>1159</ele>
        <time>2019-04-27T17:05:20Z</time>
      </trkpt>
      <trkpt lat="42.90482" lon="1.43005">
        <ele>1159</ele>
        <time>2019-04-27T17:05:21Z</time>
      </trkpt>
      <trkpt lat="42.90448" lon="1.431">
        <ele>1164</ele>
        <time>2019-04-27T17:05:39Z</time>
      </trkpt>
      <trkpt lat="42.9048" lon="1.43156">
        <ele>1164</ele>
        <time>2019-04-27T17:05:52Z</time>
      </trkpt>
      <trkpt lat="42.90484" lon="1.43161">
        <ele>1164</ele>
        <time>2019-04-27T17:05:53Z</time>
      </trkpt>
      <trkpt lat="42.90487" lon="1.43165">
        <ele>1164</ele>
        <time>2019-04-27T17:05:54Z</time>
      </trkpt>
      <trkpt lat="42.90491" lon="1.43168">
        <ele>1164</ele>
        <time>2019-04-27T17:05:55Z</time>
      </trkpt>
      <trkpt lat="42.90494" lon="1.43171">
        <ele>1164</ele>
        <time>2019-04-27T17:05:56Z</time>
      </trkpt>
      <trkpt lat="42.90497" lon="1.43175">
        <ele>1164</ele>
        <time>2019-04-27T17:05:57Z</time>
      </trkpt>
      <trkpt lat="42.905" lon="1.43178">
        <ele>1164</ele>
        <time>2019-04-27T17:05:58Z</time>
      </trkpt>
      <trkpt lat="42.90543" lon="1.43246">
        <ele>1166</ele>
        <time>2019-04-27T17:06:14Z</time>
      </trkpt>
      <trkpt lat="42.90546" lon="1.4325">
        <ele>1167</ele>
        <time>2019-04-27T17:06:15Z</time>
      </trkpt>
      <trkpt lat="42.90548" lon="1.43254">
        <ele>1168</ele>
        <time>2019-04-27T17:06:16Z</time>
      </trkpt>
      <trkpt lat="42.9053" lon="1.43292">
        <ele>1170</ele>
        <time>2019-04-27T17:06:27Z</time>
      </trkpt>
      <trkpt lat="42.90527" lon="1.43293">
        <ele>1170</ele>
        <time>2019-04-27T17:06:28Z</time>
      </trkpt>
      <trkpt lat="42.90523" lon="1.43294">
        <ele>1170</ele>
        <time>2019-04-27T17:06:29Z</time>
      </trkpt>
      <trkpt lat="42.90518" lon="1.43296">
        <ele>1170</ele>
        <time>2019-04-27T17:06:30Z</time>
      </trkpt>
      <trkpt lat="42.90462" lon="1.43358">
        <ele>1172</ele>
        <time>2019-04-27T17:06:48Z</time>
      </trkpt>
      <trkpt lat="42.90425" lon="1.4341">
        <ele>1175</ele>
        <time>2019-04-27T17:07:01Z</time>
      </trkpt>
      <trkpt lat="42.90423" lon="1.43415">
        <ele>1175</ele>
        <time>2019-04-27T17:07:02Z</time>
      </trkpt>
      <trkpt lat="42.9042" lon="1.4342">
        <ele>1175</ele>
        <time>2019-04-27T17:07:03Z</time>
      </trkpt>
      <trkpt lat="42.90418" lon="1.43424">
        <ele>1175</ele>
        <time>2019-04-27T17:07:04Z</time>
      </trkpt>
      <trkpt lat="42.90416" lon="1.4343">
        <ele>1175</ele>
        <time>2019-04-27T17:07:05Z</time>
      </trkpt>
      <trkpt lat="42.90414" lon="1.43435">
        <ele>1175</ele>
        <time>2019-04-27T17:07:06Z</time>
      </trkpt>
      <trkpt lat="42.90412" lon="1.4344">
        <ele>1175</ele>
        <time>2019-04-27T17:07:07Z</time>
      </trkpt>
      <trkpt lat="42.90457" lon="1.43581">
        <ele>1180</ele>
        <time>2019-04-27T17:07:37Z</time>
      </trkpt>
      <trkpt lat="42.9046" lon="1.43585">
        <ele>1180</ele>
        <time>2019-04-27T17:07:38Z</time>
      </trkpt>
      <trkpt lat="42.90463" lon="1.43591">
        <ele>1180</ele>
        <time>2019-04-27T17:07:39Z</time>
      </trkpt>
      <trkpt lat="42.90465" lon="1.43597">
        <ele>1180</ele>
        <time>2019-04-27T17:07:40Z</time>
      </trkpt>
      <trkpt lat="42.90467" lon="1.43602">
        <ele>1180</ele>
        <time>2019-04-27T17:07:41Z</time>
      </trkpt>
      <trkpt lat="42.90469" lon="1.43607">
        <ele>1180</ele>
        <time>2019-04-27T17:07:42Z</time>
      </trkpt>
      <trkpt lat="42.9052" lon="1.43672">
        <ele>1183</ele>
        <time>2019-04-27T17:07:59Z</time>
      </trkpt>
      <trkpt lat="42.90521" lon="1.43678">
        <ele>1184</ele>
        <time>2019-04-27T17:08:00Z</time>
      </trkpt>
      <trkpt lat="42.90517" lon="1.4374">
        <ele>1188</ele>
        <time>2019-04-27T17:08:11Z</time>
      </trkpt>
      <trkpt lat="42.90518" lon="1.43746">
        <ele>1188</ele>
        <time>2019-04-27T17:08:12Z</time>
      </trkpt>
      <trkpt lat="42.90518" lon="1.43751">
        <ele>1188</ele>
        <time>2019-04-27T17:08:13Z</time>
      </trkpt>
      <trkpt lat="42.90519" lon="1.43757">
        <ele>1188</ele>
        <time>2019-04-27T17:08:14Z</time>
      </trkpt>
      <trkpt lat="42.90519" lon="1.43762">
        <ele>1188</ele>
        <time>2019-04-27T17:08:15Z</time>
      </trkpt>
      <trkpt lat="42.90519" lon="1.43768">
        <ele>1188</ele>
        <time>2019-04-27T17:08:16Z</time>
      </trkpt>
      <trkpt lat="42.90519" lon="1.43773">
        <ele>1188</ele>
        <time>2019-04-27T17:08:17Z</time>
      </trkpt>
      <trkpt lat="42.90519" lon="1.43778">
        <ele>1188</ele>
        <time>2019-04-27T17:08:18Z</time>
      </trkpt>
      <trkpt lat="42.90519" lon="1.43784">
        <ele>1188</ele>
        <time>2019-04-27T17:08:19Z</time>
      </trkpt>
      <trkpt lat="42.90471" lon="1.43816">
        <ele>1188</ele>
        <time>2019-04-27T17:08:35Z</time>
      </trkpt>
      <trkpt lat="42.90469" lon="1.43815">
        <ele>1189</ele>
        <time>2019-04-27T17:08:36Z</time>
      </trkpt>
      <trkpt lat="42.90423" lon="1.43824">
        <ele>1192</ele>
        <time>2019-04-27T17:08:47Z</time>
      </trkpt>
      <trkpt lat="42.90419" lon="1.43826">
        <ele>1192</ele>
        <time>2019-04-27T17:08:48Z</time>
      </trkpt>
      <trkpt lat="42.90415" lon="1.43828">
        <ele>1192</ele>
        <time>2019-04-27T17:08:49Z</time>
      </trkpt>
      <trkpt lat="42.90412" lon="1.4383">
        <ele>1192</ele>
        <time>2019-04-27T17:08:50Z</time>
      </trkpt>
      <trkpt lat="42.90408" lon="1.43832">
        <ele>1192</ele>
        <time>2019-04-27T17:08:51Z</time>
      </trkpt>
      <trkpt lat="42.90405" lon="1.43835">
        <ele>1192</ele>
        <time>2019-04-27T17:08:52Z</time>
      </trkpt>
      <trkpt lat="42.90402" lon="1.43839">
        <ele>1192</ele>
        <time>2019-04-27T17:08:53Z</time>
      </trkpt>
      <trkpt lat="42.90399" lon="1.43843">
        <ele>1192</ele>
        <time>2019-04-27T17:08:54Z</time>
      </trkpt>
      <trkpt lat="42.90396" lon="1.43934">
        <ele>1195</ele>
        <time>2019-04-27T17:09:11Z</time>
      </trkpt>
      <trkpt lat="42.90398" lon="1.43939">
        <ele>1196</ele>
        <time>2019-04-27T17:09:12Z</time>
      </trkpt>
      <trkpt lat="42.90407" lon="1.44">
        <ele>1199</ele>
        <time>2019-04-27T17:09:23Z</time>
      </trkpt>
      <trkpt lat="42.90406" lon="1.44005">
        <ele>1199</ele>
        <time>2019-04-27T17:09:24Z</time>
      </trkpt>
      <trkpt lat="42.90406" lon="1.44011">
        <ele>1199</ele>
        <time>2019-04-27T17:09:25Z</time>
      </trkpt>
      <trkpt lat="42.90405" lon="1.44017">
        <ele>1199</ele>
        <time>2019-04-27T17:09:26Z</time>
      </trkpt>
      <trkpt lat="42.90403" lon="1.44023">
        <ele>1199</ele>
        <time>2019-04-27T17:09:27Z</time>
      </trkpt>
      <trkpt lat="42.90402" lon="1.44028">
        <ele>1199</ele>
        <time>2019-04-27T17:09:28Z</time>
      </trkpt>
      <trkpt lat="42.90357" lon="1.44055">
        <ele>1204</ele>
        <time>2019-04-27T17:09:46Z</time>
      </trkpt>
      <trkpt lat="42.90355" lon="1.44051">
        <ele>1205</ele>
        <time>2019-04-27T17:09:47Z</time>
      </trkpt>
      <trkpt lat="42.90352" lon="1.44046">
        <ele>1206</ele>
        <time>2019-04-27T17:09:48Z</time>
      </trkpt>
      <trkpt lat="42.90312" lon="1.44044">
        <ele>1207</ele>
        <time>2019-04-27T17:09:59Z</time>
      </trkpt>
      <trkpt lat="42.90309" lon="1.44046">
        <ele>1207</ele>
        <time>2019-04-27T17:10:00Z</time>
      </trkpt>
      <trkpt lat="42.90306" lon="1.4405">
        <ele>1207</ele>
        <time>2019-04-27T17:10:01Z</time>
      </trkpt>
      <trkpt lat="42.90303" lon="1.44053">
        <ele>1207</ele>
        <time>2019-04-27T17:10:02Z</time>
      </trkpt>
      <trkpt lat="42.903" lon="1.44057">
        <ele>1207</ele>
        <time>2019-04-27T17:10:03Z</time>
      </trkpt>
      <trkpt lat="42.90272" lon="1.44149">
        <ele>1210</ele>
        <time>2019-04-27T17:10:21Z</time>
      </trkpt>
      <trkpt lat="42.90267" lon="1.44211">
        <ele>1214</ele>
        <time>2019-04-27T17:10:32Z</time>
      </trkpt>
      <trkpt lat="42.90267" lon="1.44216">
        <ele>1214</ele>
        <time>2019-04-27T17:10:33Z</time>
      </trkpt>
      <trkpt lat="42.90267" lon="1.44222">
        <ele>1214</ele>
        <time>2019-04-27T17:10:34Z</time>
      </trkpt>
      <trkpt lat="42.90267" lon="1.44227">
        <ele>1214</ele>
        <time>2019-04-27T17:10:35Z</time>
      </trkpt>
      <trkpt lat="42.90267" lon="1.44233">
        <ele>1214</ele>
        <time>2019-04-27T17:10:36Z</time>
      </trkpt>
      <trkpt lat="42.90267" lon="1.44239">
        <ele>1214</ele>
        <time>2019-04-27T17:10:37Z</time>
      </trkpt>
      <trkpt lat="42.90268" lon="1.44244">
        <ele>1214</ele>
        <time>2019-04-27T17:10:38Z</time>
      </trkpt>
      <trkpt lat="42.90268" lon="1.44249">
        <ele>1214</ele>
        <time>2019-04-27T17:10:39Z</time>
      </trkpt>
      <trkpt lat="42.90269" lon="1.44255">
        <ele>1214</ele>
        <time>2019-04-27T17:10:40Z</time>
      </trkpt>
      <trkpt lat="42.90286" lon="1.44339">
        <ele>1216</ele>
        <time>2019-04-27T17:10:56Z</time>
      </trkpt>
      <trkpt lat="42.90288" lon="1.44344">
        <ele>1217</ele>
        <time>2019-04-27T17:10:57Z</time>
      </trkpt>
      <trkpt lat="42.90312" lon="1.44394">
        <ele>1220</ele>
        <time>2019-04-27T17:11:08Z</time>
      </trkpt>
      <trkpt lat="42.90314" lon="1.44398">
        <ele>1220</ele>
        <time>2019-04-27T17:11:09Z</time>
      </trkpt>
      <trkpt lat="42.90316" lon="1.44403">
        <ele>1220</ele>
        <time>2019-04-27T17:11:10Z</time>
      </trkpt>
      <trkpt lat="42.90318" lon="1.44408">
        <ele>1220</ele>
        <time>2019-04-27T17:11:11Z</time>
      </trkpt>
      <trkpt lat="42.9032" lon="1.44412">
        <ele>1220</ele>
        <time>2019-04-27T17:11:12Z</time>
      </trkpt>
      <trkpt lat="42.90322" lon="1.44417">
        <ele>1220</ele>
        <time>2019-04-27T17:11:13Z</time>
      </trkpt>
      <trkpt lat="42.90324" lon="1.44421">
        <ele>1220</ele>
        <time>2019-04-27T17:11:14Z</time>
      </trkpt>
      <trkpt lat="42.90326" lon="1.44425">
        <ele>1220</ele>
        <time>2019-04-27T17:11:15Z</time>
      </trkpt>
      <trkpt lat="42.90329" lon="1.4443">
        <ele>1220</ele>
        <time>2019-04-27T17:11:16Z</time>
      </trkpt>
      <trkpt lat="42.90354" lon="1.44509">
        <ele>1224</ele>
        <time>2019-04-27T17:11:32Z</time>
      </trkpt>
      <trkpt lat="42.90354" lon="1.44514">
        <ele>1225</ele>
        <time>2019-04-27T17:11:33Z</time>
      </trkpt>
      <trkpt lat="42.90322" lon="1.44534">
        <ele>1228</ele>
        <time>2019-04-27T17:11:44Z</time>
      </trkpt>
      <trkpt lat="42.90319" lon="1.44532">
        <ele>1228</ele>
        <time>2019-04-27T17:11:45Z</time>
      </trkpt>
      <trkpt lat="42.90315" lon="1.44531">
        <ele>1228</ele>
        <time>2019-04-27T17:11:46Z</time>
      </trkpt>
      <trkpt lat="42.90311" lon="1.44529">
        <ele>1228</ele>
        <time>2019-04-27T17:11:47Z</time>
      </trkpt>
      <trkpt lat="42.90307" lon="1.44527">
        <ele>1228</ele>
        <time>2019-04-27T17:11:48Z</time>
      </trkpt>
      <trkpt lat="42.90304" lon="1.44526">
        <ele>1228</ele>
        <time>2019-04-27T17:11:49Z</time>
      </trkpt>
      <trkpt lat="42.90243" lon="1.44523">
        <ele>1232</ele>
        <time>2019-04-27T17:12:05Z</time>
      </trkpt>
      <trkpt lat="42.90239" lon="1.44523">
        <ele>1232</ele>
        <time>2019-04-27T17:12:06Z</time>
      </trkpt>
      <trkpt lat="42.90236" lon="1.44523">
        <ele>1233</ele>
        <time>2019-04-27T17:12:07Z</time>
      </trkpt>
      <trkpt lat="42.9019" lon="1.44535">
        <ele>1236</ele>
        <time>2019-04-27T17:12:18Z</time>
      </trkpt>
      <trkpt lat="42.90186" lon="1.44537">
        <ele>1236</ele>
        <time>2019-04-27T17:12:19Z</time>
      </trkpt>
      <trkpt lat="42.90182" lon="1.44538">
        <ele>1236</ele>
        <time>2019-04-27T17:12:20Z</time>
      </trkpt>
      <trkpt lat="42.90178" lon="1.4454">
        <ele>1236</ele>
        <time>2019-04-27T17:12:21Z</time>
      </trkpt>
      <trkpt lat="42.90175" lon="1.44542">
        <ele>1236</ele>
        <time>2019-04-27T17:12:22Z</time>
      </trkpt>
      <trkpt lat="42.90171" lon="1.44544">
        <ele>1236</ele>
        <time>2019-04-27T17:12:23Z</time>
      </trkpt>
      <trkpt lat="42.90167" lon="1.44547">
        <ele>1236</ele>
        <time>2019-04-27T17:12:24Z</time>
      </trkpt>
      <trkpt lat="42.90164" lon="1.44549">
        <ele>1236</ele>
        <time>2019-04-27T17:12:25Z</time>
      </trkpt>
      <trkpt lat="42.90127" lon="1.44617">
        <ele>1239</ele>
        <time>2019-04-27T17:12:41Z</time>
      </trkpt>
      <trkpt lat="42.90125" lon="1.44622">
        <ele>1240</ele>
        <time>2019-04-27T17:12:42Z</time>
      </trkpt>
      <trkpt lat="42.90123" lon="1.44626">
        <ele>1241</ele>
        <time>2019-04-27T17:12:43Z</time>
      </trkpt>
      <trkpt lat="42.90121" lon="1.44631">
        <ele>1242</ele>
        <time>2019-04-27T17:12:44Z</time>
      </trkpt>
      <trkpt lat="42.90119" lon="1.44636">
        <ele>1243</ele>
        <time>2019-04-27T17:12:45Z</time>
      </trkpt>
      <trkpt lat="42.90096" lon="1.44689">
        <ele>1244</ele>
        <time>2019-04-27T17:12:56Z</time>
      </trkpt>
      <trkpt lat="42.90094" lon="1.44694">
        <ele>1244</ele>
        <time>2019-04-27T17:12:57Z</time>
      </trkpt>
      <trkpt lat="42.90092" lon="1.44698">
        <ele>1244</ele>
        <time>2019-04-27T17:12:58Z</time>
      </trkpt>
      <trkpt lat="42.9009" lon="1.44703">
        <ele>1244</ele>
        <time>2019-04-27T17:12:59Z</time>
      </trkpt>
      <trkpt lat="42.90088" lon="1.44708">
        <ele>1244</ele>
        <time>2019-04-27T17:13:00Z</time>
      </trkpt>
      <trkpt lat="42.90059" lon="1.44792">
        <ele>1246</ele>
        <time>2019-04-27T17:13:17Z</time>
      </trkpt>
      <trkpt lat="42.90058" lon="1.44797">
        <ele>1247</ele>
        <time>2019-04-27T17:13:18Z</time>
      </trkpt>
      <trkpt lat="42.90052" lon="1.44857">
        <ele>1250</ele>
        <time>2019-04-27T17:13:29Z</time>
      </trkpt>
      <trkpt lat="42.90052" lon="1.44862">
        <ele>1250</ele>
        <time>2019-04-27T17:13:30Z</time>
      </trkpt>
      <trkpt lat="42.90053" lon="1.44868">
        <ele>1250</ele>
        <time>2019-04-27T17:13:31Z</time>
      </trkpt>
      <trkpt lat="42.90054" lon="1.44873">
        <ele>1250</ele>
        <time>2019-04-27T17:13:32Z</time>
      </trkpt>
      <trkpt lat="42.90056" lon="1.44879">
        <ele>1250</ele>
        <time>2019-04-27T17:13:33Z</time>
      </trkpt>
      <trkpt lat="42.90057" lon="1.44884">
        <ele>1250</ele>
        <time>2019-04-27T17:13:34Z</time>
      </trkpt>
      <trkpt lat="42.90057" lon="1.4489">
        <ele>1250</ele>
        <time>2019-04-27T17:13:35Z</time>
      </trkpt>
      <trkpt lat="42.90058" lon="1.44896">
        <ele>1250</ele>
        <time>2019-04-27T17:13:36Z</time>
      </trkpt>
      <trkpt lat="42.90059" lon="1.44902">
        <ele>1250</ele>
        <time>2019-04-27T17:13:37Z</time>
      </trkpt>
      <trkpt lat="42.90034" lon="1.44984">
        <ele>1254</ele>
        <time>2019-04-27T17:13:53Z</time>
      </trkpt>
      <trkpt lat="42.90032" lon="1.4499">
        <ele>1255</ele>
        <time>2019-04-27T17:13:54Z</time>
      </trkpt>
      <trkpt lat="42.90012" lon="1.45046">
        <ele>1258</ele>
        <time>2019-04-27T17:14:05Z</time>
      </trkpt>
      <trkpt lat="42.9001" lon="1.45051">
        <ele>1258</ele>
        <time>2019-04-27T17:14:06Z</time>
      </trkpt>
      <trkpt lat="42.90009" lon="1.45056">
        <ele>1258</ele>
        <time>2019-04-27T17:14:07Z</time>
      </trkpt>
      <trkpt lat="42.90007" lon="1.45061">
        <ele>1258</ele>
        <time>2019-04-27T17:14:08Z</time>
      </trkpt>
      <trkpt lat="42.90005" lon="1.45067">
        <ele>1258</ele>
        <time>2019-04-27T17:14:09Z</time>
      </trkpt>
      <trkpt lat="42.89982" lon="1.45168">
        <ele>1259</ele>
        <time>2019-04-27T17:14:27Z</time>
      </trkpt>
      <trkpt lat="42.89981" lon="1.45174">
        <ele>1259</ele>
        <time>2019-04-27T17:14:28Z</time>
      </trkpt>
      <trkpt lat="42.89964" lon="1.45242">
        <ele>1255</ele>
        <time>2019-04-27T17:14:40Z</time>
      </trkpt>
      <trkpt lat="42.89961" lon="1.45246">
        <ele>1255</ele>
        <time>2019-04-27T17:14:41Z</time>
      </trkpt>
      <trkpt lat="42.89957" lon="1.45249">
        <ele>1255</ele>
        <time>2019-04-27T17:14:42Z</time>
      </trkpt>
      <trkpt lat="42.89953" lon="1.45252">
        <ele>1255</ele>
        <time>2019-04-27T17:14:43Z</time>
      </trkpt>
      <trkpt lat="42.89949" lon="1.45253">
        <ele>1255</ele>
        <time>2019-04-27T17:14:44Z</time>
      </trkpt>
      <trkpt lat="42.89945" lon="1.45254">
        <ele>1255</ele>
        <time>2019-04-27T17:14:45Z</time>
      </trkpt>
      <trkpt lat="42.89901" lon="1.45313">
        <ele>1251</ele>
        <time>2019-04-27T17:15:03Z</time>
      </trkpt>
      <trkpt lat="42.89902" lon="1.4532">
        <ele>1250</ele>
        <time>2019-04-27T17:15:04Z</time>
      </trkpt>
      <trkpt lat="42.89903" lon="1.45328">
        <ele>1249</ele>
        <time>2019-04-27T17:15:05Z</time>
      </trkpt>
      <trkpt lat="42.89905" lon="1.45336">
        <ele>1248</ele>
        <time>2019-04-27T17:15:06Z</time>
      </trkpt>
      <trkpt lat="42.89922" lon="1.45446">
        <ele>1245</ele>
        <time>2019-04-27T17:15:17Z</time>
      </trkpt>
      <trkpt lat="42.89922" lon="1.45459">
        <ele>1245</ele>
        <time>2019-04-27T17:15:18Z</time>
      </trkpt>
      <trkpt lat="42.89922" lon="1.45471">
        <ele>1245</ele>
        <time>2019-04-27T17:15:19Z</time>
      </trkpt>
      <trkpt lat="42.89922" lon="1.45484">
        <ele>1245</ele>
        <time>2019-04-27T17:15:20Z</time>
      </trkpt>
      <trkpt lat="42.89921" lon="1.45497">
        <ele>1245</ele>
        <time>2019-04-27T17:15:21Z</time>
      </trkpt>
      <trkpt lat="42.89921" lon="1.45511">
        <ele>1245</ele>
        <time>2019-04-27T17:15:22Z</time>
      </trkpt>
      <trkpt lat="42.89869" lon="1.45748">
        <ele>1242</ele>
        <time>2019-04-27T17:15:38Z</time>
      </trkpt>
      <trkpt lat="42.89864" lon="1.45762">
        <ele>1241</ele>
        <time>2019-04-27T17:15:39Z</time>
      </trkpt>
      <trkpt lat="42.8986" lon="1.45776">
        <ele>1240</ele>
        <time>2019-04-27T17:15:40Z</time>
      </trkpt>
      <trkpt lat="42.89889" lon="1.45913">
        <ele>1235</ele>
        <time>2019-04-27T17:15:52Z</time>
      </trkpt>
      <trkpt lat="42.89879" lon="1.45921">
        <ele>1235</ele>
        <time>2019-04-27T17:15:53Z</time>
      </trkpt>
      <trkpt lat="42.89868" lon="1.45925">
        <ele>1235</ele>
        <time>2019-04-27T17:15:54Z</time>
      </trkpt>
      <trkpt lat="42.89857" lon="1.45926">
        <ele>1235</ele>
        <time>2019-04-27T17:15:55Z</time>
      </trkpt>
      <trkpt lat="42.89845" lon="1.45926">
        <ele>1235</ele>
        <time>2019-04-27T17:15:56Z</time>
      </trkpt>
      <trkpt lat="42.89835" lon="1.4593">
        <ele>1235</ele>
        <time>2019-04-27T17:15:57Z</time>
      </trkpt>
      <trkpt lat="42.89794" lon="1.46091">
        <ele>1231</ele>
        <time>2019-04-27T17:16:13Z</time>
      </trkpt>
      <trkpt lat="42.89794" lon="1.46106">
        <ele>1230</ele>
        <time>2019-04-27T17:16:14Z</time>
      </trkpt>
      <trkpt lat="42.89797" lon="1.46122">
        <ele>1229</ele>
        <time>2019-04-27T17:16:15Z</time>
      </trkpt>
      <trkpt lat="42.89848" lon="1.46294">
        <ele>1226</ele>
        <time>2019-04-27T17:16:26Z</time>
      </trkpt>
      <trkpt lat="42.89853" lon="1.4631">
        <ele>1226</ele>
        <time>2019-04-27T17:16:27Z</time>
      </trkpt>
      <trkpt lat="42.89856" lon="1.46327">
        <ele>1226</ele>
        <time>2019-04-27T17:16:28Z</time>
      </trkpt>
      <trkpt lat="42.89857" lon="1.46345">
        <ele>1226</ele>
        <time>2019-04-27T17:16:29Z</time>
      </trkpt>
      <trkpt lat="42.89855" lon="1.46362">
        <ele>1226</ele>
        <time>2019-04-27T17:16:30Z</time>
      </trkpt>
      <trkpt lat="42.8985" lon="1.46378">
        <ele>1226</ele>
        <time>2019-04-27T17:16:31Z</time>
      </trkpt>
      <trkpt lat="42.89842" lon="1.46393">
        <ele>1226</ele>
        <time>2019-04-27T17:16:32Z</time>
      </trkpt>
      <trkpt lat="42.89834" lon="1.46406">
        <ele>1226</ele>
        <time>2019-04-27T17:16:33Z</time>
      </trkpt>
      <trkpt lat="42.89825" lon="1.46419">
        <ele>1226</ele>
        <time>2019-04-27T17:16:34Z</time>
      </trkpt>
      <trkpt lat="42.89709" lon="1.46686">
        <ele>1220</ele>
        <time>2019-04-27T17:16:50Z</time>
      </trkpt>
      <trkpt lat="42.89703" lon="1.46705">
        <ele>1219</ele>
        <time>2019-04-27T17:16:51Z</time>
      </trkpt>
      <trkpt lat="42.89697" lon="1.46724">
        <ele>1218</ele>
        <time>2019-04-27T17:16:52Z</time>
      </trkpt>
      <trkpt lat="42.89695" lon="1.46841">
        <ele>1217</ele>
        <time>2019-04-27T17:17:02Z</time>
      </trkpt>
      <trkpt lat="42.89704" lon="1.46843">
        <ele>1217</ele>
        <time>2019-04-27T17:17:03Z</time>
      </trkpt>
      <trkpt lat="42.89712" lon="1.46847">
        <ele>1217</ele>
        <time>2019-04-27T17:17:04Z</time>
      </trkpt>
      <trkpt lat="42.89719" lon="1.46854">
        <ele>1217</ele>
        <time>2019-04-27T17:17:05Z</time>
      </trkpt>
      <trkpt lat="42.89725" lon="1.46863">
        <ele>1217</ele>
        <time>2019-04-27T17:17:06Z</time>
      </trkpt>
      <trkpt lat="42.89655" lon="1.46803">
        <ele>1213</ele>
        <time>2019-04-27T17:17:24Z</time>
      </trkpt>
      <trkpt lat="42.89657" lon="1.4679">
        <ele>1212</ele>
        <time>2019-04-27T17:17:25Z</time>
      </trkpt>
      <trkpt lat="42.8966" lon="1.46777">
        <ele>1211</ele>
        <time>2019-04-27T17:17:26Z</time>
      </trkpt>
      <trkpt lat="42.89662" lon="1.46764">
        <ele>1210</ele>
        <time>2019-04-27T17:17:27Z</time>
      </trkpt>
      <trkpt lat="42.8968" lon="1.46618">
        <ele>1207</ele>
        <time>2019-04-27T17:17:38Z</time>
      </trkpt>
      <trkpt lat="42.8968" lon="1.46605">
        <ele>1207</ele>
        <time>2019-04-27T17:17:39Z</time>
      </trkpt>
      <trkpt lat="42.89679" lon="1.46591">
        <ele>1207</ele>
        <time>2019-04-27T17:17:40Z</time>
      </trkpt>
      <trkpt lat="42.89679" lon="1.46577">
        <ele>1207</ele>
        <time>2019-04-27T17:17:41Z</time>
      </trkpt>
      <trkpt lat="42.89679" lon="1.46564">
        <ele>1207</ele>
        <time>2019-04-27T17:17:42Z</time>
      </trkpt>
      <trkpt lat="42.89679" lon="1.4655">
        <ele>1207</ele>
        <time>2019-04-27T17:17:43Z</time>
      </trkpt>
      <trkpt lat="42.89722" lon="1.46346">
        <ele>1205</ele>
        <time>2019-04-27T17:17:59Z</time>
      </trkpt>
      <trkpt lat="42.89723" lon="1.46333">
        <ele>1203</ele>
        <time>2019-04-27T17:18:00Z</time>
      </trkpt>
      <trkpt lat="42.89725" lon="1.4632">
        <ele>1202</ele>
        <time>2019-04-27T17:18:01Z</time>
      </trkpt>
      <trkpt lat="42.89704" lon="1.4618">
        <ele>1197</ele>
        <time>2019-04-27T17:18:13Z</time>
      </trkpt>
      <trkpt lat="42.89697" lon="1.46174">
        <ele>1197</ele>
        <time>2019-04-27T17:18:14Z</time>
      </trkpt>
      <trkpt lat="42.89689" lon="1.46174">
        <ele>1197</ele>
        <time>2019-04-27T17:18:15Z</time>
      </trkpt>
      <trkpt lat="42.89682" lon="1.46179">
        <ele>1197</ele>
        <time>2019-04-27T17:18:16Z</time>
      </trkpt>
      <trkpt lat="42.89678" lon="1.46189">
        <ele>1197</ele>
        <time>2019-04-27T17:18:17Z</time>
      </trkpt>
      <trkpt lat="42.89677" lon="1.462">
        <ele>1197</ele>
        <time>2019-04-27T17:18:18Z</time>
      </trkpt>
      <trkpt lat="42.89678" lon="1.46402">
        <ele>1193</ele>
        <time>2019-04-27T17:18:35Z</time>
      </trkpt>
      <trkpt lat="42.89673" lon="1.46414">
        <ele>1192</ele>
        <time>2019-04-27T17:18:36Z</time>
      </trkpt>
      <trkpt lat="42.89611" lon="1.46599">
        <ele>1189</ele>
        <time>2019-04-27T17:18:49Z</time>
      </trkpt>
      <trkpt lat="42.89608" lon="1.46615">
        <ele>1189</ele>
        <time>2019-04-27T17:18:50Z</time>
      </trkpt>
      <trkpt lat="42.89605" lon="1.46632">
        <ele>1189</ele>
        <time>2019-04-27T17:18:51Z</time>
      </trkpt>
      <trkpt lat="42.89603" lon="1.46649">
        <ele>1189</ele>
        <time>2019-04-27T17:18:52Z</time>
      </trkpt>
      <trkpt lat="42.89601" lon="1.46666">
        <ele>1189</ele>
        <time>2019-04-27T17:18:53Z</time>
      </trkpt>
      <trkpt lat="42.896" lon="1.46684">
        <ele>1189</ele>
        <time>2019-04-27T17:18:54Z</time>
      </trkpt>
      <trkpt lat="42.89599" lon="1.46701">
        <ele>1189</ele>
        <time>2019-04-27T17:18:55Z</time>
      </trkpt>
      <trkpt lat="42.89557" lon="1.46979">
        <ele>1182</ele>
        <time>2019-04-27T17:19:11Z</time>
      </trkpt>
      <trkpt lat="42.89558" lon="1.46998">
        <ele>1181</ele>
        <time>2019-04-27T17:19:12Z</time>
      </trkpt>
      <trkpt lat="42.89539" lon="1.47184">
        <ele>1178</ele>
        <time>2019-04-27T17:19:23Z</time>
      </trkpt>
      <trkpt lat="42.89532" lon="1.47198">
        <ele>1178</ele>
        <time>2019-04-27T17:19:24Z</time>
      </trkpt>
      <trkpt lat="42.89525" lon="1.47213">
        <ele>1178</ele>
        <time>2019-04-27T17:19:25Z</time>
      </trkpt>
      <trkpt lat="42.89519" lon="1.47228">
        <ele>1178</ele>
        <time>2019-04-27T17:19:26Z</time>
      </trkpt>
      <trkpt lat="42.89512" lon="1.47244">
        <ele>1178</ele>
        <time>2019-04-27T17:19:27Z</time>
      </trkpt>
      <trkpt lat="42.89442" lon="1.47551">
        <ele>1175</ele>
        <time>2019-04-27T17:19:45Z</time>
      </trkpt>
      <trkpt lat="42.89429" lon="1.47559">
        <ele>1174</ele>
        <time>2019-04-27T17:19:46Z</time>
      </trkpt>
      <trkpt lat="42.89417" lon="1.47568">
        <ele>1173</ele>
        <time>2019-04-27T17:19:47Z</time>
      </trkpt>
      <trkpt lat="42.89405" lon="1.47579">
        <ele>1172</ele>
        <time>2019-04-27T17:19:48Z</time>
      </trkpt>
      <trkpt lat="42.89394" lon="1.47591">
        <ele>1171</ele>
        <time>2019-04-27T17:19:49Z</time>
      </trkpt>
      <trkpt lat="42.89359" lon="1.4777">
        <ele>1169</ele>
        <time>2019-04-27T17:19:58Z</time>
      </trkpt>
      <trkpt lat="42.89355" lon="1.47791">
        <ele>1169</ele>
        <time>2019-04-27T17:19:59Z</time>
      </trkpt>
      <trkpt lat="42.89353" lon="1.47813">
        <ele>1169</ele>
        <time>2019-04-27T17:20:00Z</time>
      </trkpt>
      <trkpt lat="42.89352" lon="1.47836">
        <ele>1169</ele>
        <time>2019-04-27T17:20:01Z</time>
      </trkpt>
      <trkpt lat="42.89353" lon="1.47859">
        <ele>1169</ele>
        <time>2019-04-27T17:20:02Z</time>
      </trkpt>
      <trkpt lat="42.89355" lon="1.47882">
        <ele>1169</ele>
        <time>2019-04-27T17:20:03Z</time>
      </trkpt>
      <trkpt lat="42.89356" lon="1.47904">
        <ele>1169</ele>
        <time>2019-04-27T17:20:04Z</time>
      </trkpt>
      <trkpt lat="42.89204" lon="1.48134">
        <ele>1164</ele>
        <time>2019-04-27T17:20:22Z</time>
      </trkpt>
      <trkpt lat="42.89196" lon="1.48146">
        <ele>1163</ele>
        <time>2019-04-27T17:20:23Z</time>
      </trkpt>
      <trkpt lat="42.89185" lon="1.48153">
        <ele>1162</ele>
        <time>2019-04-27T17:20:24Z</time>
      </trkpt>
      <trkpt lat="42.89074" lon="1.48263">
        <ele>1159</ele>
        <time>2019-04-27T17:20:35Z</time>
      </trkpt>
      <trkpt lat="42.89069" lon="1.48282">
        <ele>1159</ele>
        <time>2019-04-27T17:20:36Z</time>
      </trkpt>
      <trkpt lat="42.89064" lon="1.48301">
        <ele>1159</ele>
        <time>2019-04-27T17:20:37Z</time>
      </trkpt>
      <trkpt lat="42.89061" lon="1.48321">
        <ele>1159</ele>
        <time>2019-04-27T17:20:38Z</time>
      </trkpt>
      <trkpt lat="42.8906" lon="1.48342">
        <ele>1159</ele>
        <time>2019-04-27T17:20:39Z</time>
      </trkpt>
      <trkpt lat="42.88956" lon="1.48571">
        <ele>1153</ele>
        <time>2019-04-27T17:20:57Z</time>
      </trkpt>
      <trkpt lat="42.88947" lon="1.48584">
        <ele>1152</ele>
        <time>2019-04-27T17:20:58Z</time>
      </trkpt>
      <trkpt lat="42.88884" lon="1.48746">
        <ele>1150</ele>
        <time>2019-04-27T17:21:08Z</time>
      </trkpt>
      <trkpt lat="42.88873" lon="1.4876">
        <ele>1150</ele>
        <time>2019-04-27T17:21:09Z</time>
      </trkpt>
      <trkpt lat="42.88863" lon="1.48775">
        <ele>1150</ele>
        <time>2019-04-27T17:21:10Z</time>
      </trkpt>
      <trkpt lat="42.88852" lon="1.4879">
        <ele>1150</ele>
        <time>2019-04-27T17:21:11Z</time>
      </trkpt>
      <trkpt lat="42.88841" lon="1.48806">
        <ele>1150</ele>
        <time>2019-04-27T17:21:12Z</time>
      </trkpt>
      <trkpt lat="42.8883" lon="1.48821">
        <ele>1150</ele>
        <time>2019-04-27T17:21:13Z</time>
      </trkpt>
      <trkpt lat="42.88818" lon="1.48835">
        <ele>1150</ele>
        <time>2019-04-27T17:21:14Z</time>
      </trkpt>
      <trkpt lat="42.88806" lon="1.48846">
        <ele>1150</ele>
        <time>2019-04-27T17:21:15Z</time>
      </trkpt>
      <trkpt lat="42.88795" lon="1.48856">
        <ele>1150</ele>
        <time>2019-04-27T17:21:16Z</time>
      </trkpt>
      <trkpt lat="42.88749" lon="1.49119">
        <ele>1146</ele>
        <time>2019-04-27T17:21:32Z</time>
      </trkpt>
      <trkpt lat="42.88747" lon="1.49137">
        <ele>1145</ele>
        <time>2019-04-27T17:21:33Z</time>
      </trkpt>
      <trkpt lat="42.88703" lon="1.49338">
        <ele>1142</ele>
        <time>2019-04-27T17:21:44Z</time>
      </trkpt>
      <trkpt lat="42.88699" lon="1.49356">
        <ele>1142</ele>
        <time>2019-04-27T17:21:45Z</time>
      </trkpt>
      <trkpt lat="42.88698" lon="1.49375">
        <ele>1142</ele>
        <time>2019-04-27T17:21:46Z</time>
      </trkpt>
      <trkpt lat="42.88695" lon="1.49394">
        <ele>1142</ele>
        <time>2019-04-27T17:21:47Z</time>
      </trkpt>
      <trkpt lat="42.8869" lon="1.49413">
        <ele>1142</ele>
        <time>2019-04-27T17:21:48Z</time>
      </trkpt>
      <trkpt lat="42.88533" lon="1.49563">
        <ele>1137</ele>
        <time>2019-04-27T17:22:06Z</time>
      </trkpt>
      <trkpt lat="42.88524" lon="1.49555">
        <ele>1136</ele>
        <time>2019-04-27T17:22:07Z</time>
      </trkpt>
      <trkpt lat="42.88393" lon="1.49562">
        <ele>1131</ele>
        <time>2019-04-27T17:22:18Z</time>
      </trkpt>
      <trkpt lat="42.88385" lon="1.49561">
        <ele>1131</ele>
        <time>2019-04-27T17:22:19Z</time>
      </trkpt>
      <trkpt lat="42.88375" lon="1.49561">
        <ele>1131</ele>
        <time>2019-04-27T17:22:20Z</time>
      </trkpt>
      <trkpt lat="42.88366" lon="1.49564">
        <ele>1131</ele>
        <time>2019-04-27T17:22:21Z</time>
      </trkpt>
      <trkpt lat="42.88358" lon="1.49571">
        <ele>1131</ele>
        <time>2019-04-27T17:22:22Z</time>
      </trkpt>
      <trkpt lat="42.88354" lon="1.49581">
        <ele>1131</ele>
        <time>2019-04-27T17:22:23Z</time>
      </trkpt>
      <trkpt lat="42.8835" lon="1.49588">
        <ele>1131</ele>
        <time>2019-04-27T17:22:24Z</time>
      </trkpt>
      <trkpt lat="42.88352" lon="1.49596">
        <ele>1131</ele>
        <time>2019-04-27T17:22:25Z</time>
      </trkpt>
      <trkpt lat="42.88359" lon="1.49829">
        <ele>1128</ele>
        <time>2019-04-27T17:22:41Z</time>
      </trkpt>
      <trkpt lat="42.88353" lon="1.49846">
        <ele>1127</ele>
        <time>2019-04-27T17:22:42Z</time>
      </trkpt>
      <trkpt lat="42.88346" lon="1.49861">
        <ele>1126</ele>
        <time>2019-04-27T17:22:43Z</time>
      </trkpt>
      <trkpt lat="42.88338" lon="1.49878">
        <ele>1125</ele>
        <time>2019-04-27T17:22:44Z</time>
      </trkpt>
      <trkpt lat="42.8833" lon="1.49894">
        <ele>1124</ele>
        <time>2019-04-27T17:22:45Z</time>
      </trkpt>
      <trkpt lat="42.88186" lon="1.5">
        <ele>1121</ele>
        <time>2019-04-27T17:22:56Z</time>
      </trkpt>
      <trkpt lat="42.88171" lon="1.50011">
        <ele>1121</ele>
        <time>2019-04-27T17:22:57Z</time>
      </trkpt>
      <trkpt lat="42.88157" lon="1.50022">
        <ele>1121</ele>
        <time>2019-04-27T17:22:58Z</time>
      </trkpt>
      <trkpt lat="42.88145" lon="1.50033">
        <ele>1121</ele>
        <time>2019-04-27T17:22:59Z</time>
      </trkpt>
      <trkpt lat="42.88133" lon="1.50044">
        <ele>1121</ele>
        <time>2019-04-27T17:23:00Z</time>
      </trkpt>
      <trkpt lat="42.88122" lon="1.50052">
        <ele>1121</ele>
        <time>2019-04-27T17:23:01Z</time>
      </trkpt>
      <trkpt lat="42.87977" lon="1.49999">
        <ele>1117</ele>
        <time>2019-04-27T17:23:17Z</time>
      </trkpt>
      <trkpt lat="42.87981" lon="1.50009">
        <ele>1116</ele>
        <time>2019-04-27T17:23:18Z</time>
      </trkpt>
      <trkpt lat="42.87987" lon="1.50019">
        <ele>1115</ele>
        <time>2019-04-27T17:23:19Z</time>
      </trkpt>
      <trkpt lat="42.88089" lon="1.50129">
        <ele>1110</ele>
        <time>2019-04-27T17:23:31Z</time>
      </trkpt>
      <trkpt lat="42.881" lon="1.50136">
        <ele>1110</ele>
        <time>2019-04-27T17:23:32Z</time>
      </trkpt>
      <trkpt lat="42.88112" lon="1.50144">
        <ele>1110</ele>
        <time>2019-04-27T17:23:33Z</time>
      </trkpt>
      <trkpt lat="42.88123" lon="1.50153">
        <ele>1110</ele>
        <time>2019-04-27T17:23:34Z</time>
      </trkpt>
      <trkpt lat="42.88135" lon="1.50161">
        <ele>1110</ele>
        <time>2019-04-27T17:23:35Z</time>
      </trkpt>
      <trkpt lat="42.88147" lon="1.5017">
        <ele>1110</ele>
        <time>2019-04-27T17:23:36Z</time>
      </trkpt>
      <trkpt lat="42.88232" lon="1.50265">
        <ele>1106</ele>
        <time>2019-04-27T17:23:53Z</time>
      </trkpt>
      <trkpt lat="42.88225" lon="1.50277">
        <ele>1105</ele>
        <time>2019-04-27T17:23:54Z</time>
      </trkpt>
      <trkpt lat="42.8811" lon="1.50377">
        <ele>1102</ele>
        <time>2019-04-27T17:24:05Z</time>
      </trkpt>
      <trkpt lat="42.88098" lon="1.50386">
        <ele>1102</ele>
        <time>2019-04-27T17:24:06Z</time>
      </trkpt>
      <trkpt lat="42.88087" lon="1.50396">
        <ele>1102</ele>
        <time>2019-04-27T17:24:07Z</time>
      </trkpt>
      <trkpt lat="42.88077" lon="1.50409">
        <ele>1102</ele>
        <time>2019-04-27T17:24:08Z</time>
      </trkpt>
      <trkpt lat="42.88069" lon="1.50424">
        <ele>1102</ele>
        <time>2019-04-27T17:24:09Z</time>
      </trkpt>
      <trkpt lat="42.88063" lon="1.5044">
        <ele>1102</ele>
        <time>2019-04-27T17:24:10Z</time>
      </trkpt>
      <trkpt lat="42.88057" lon="1.50457">
        <ele>1102</ele>
        <time>2019-04-27T17:24:11Z</time>
      </trkpt>
      <trkpt lat="42.88051" lon="1.50475">
        <ele>1102</ele>
        <time>2019-04-27T17:24:12Z</time>
      </trkpt>
      <trkpt lat="42.88063" lon="1.50765">
        <ele>1097</ele>
        <time>2019-04-27T17:24:29Z</time>
      </trkpt>
      <trkpt lat="42.88066" lon="1.50785">
        <ele>1096</ele>
        <time>2019-04-27T17:24:30Z</time>
      </trkpt>
      <trkpt lat="42.8807" lon="1.50804">
        <ele>1095</ele>
        <time>2019-04-27T17:24:31Z</time>
      </trkpt>
      <trkpt lat="42.8808" lon="1.51027">
        <ele>1093</ele>
        <time>2019-04-27T17:24:42Z</time>
      </trkpt>
      <trkpt lat="42.8808" lon="1.51048">
        <ele>1093</ele>
        <time>2019-04-27T17:24:43Z</time>
      </trkpt>
      <trkpt lat="42.88081" lon="1.51069">
        <ele>1093</ele>
        <time>2019-04-27T17:24:44Z</time>
      </trkpt>
      <trkpt lat="42.88082" lon="1.5109">
        <ele>1093</ele>
        <time>2019-04-27T17:24:45Z</time>
      </trkpt>
      <trkpt lat="42.88015" lon="1.51439">
        <ele>1091</ele>
        <time>2019-04-27T17:25:02Z</time>
      </trkpt>
      <trkpt lat="42.88009" lon="1.51459">
        <ele>1090</ele>
        <time>2019-04-27T17:25:03Z</time>
      </trkpt>
      <trkpt lat="42.88005" lon="1.51481">
        <ele>1089</ele>
        <time>2019-04-27T17:25:04Z</time>
      </trkpt>
      <trkpt lat="42.8804" lon="1.51702">
        <ele>1085</ele>
        <time>2019-04-27T17:25:15Z</time>
      </trkpt>
      <trkpt lat="42.88042" lon="1.51722">
        <ele>1085</ele>
        <time>2019-04-27T17:25:16Z</time>
      </trkpt>
      <trkpt lat="42.88041" lon="1.51742">
        <ele>1085</ele>
        <time>2019-04-27T17:25:17Z</time>
      </trkpt>
      <trkpt lat="42.88035" lon="1.51761">
        <ele>1085</ele>
        <time>2019-04-27T17:25:18Z</time>
      </trkpt>
      <trkpt lat="42.88027" lon="1.51777">
        <ele>1085</ele>
        <time>2019-04-27T17:25:19Z</time>
      </trkpt>
      <trkpt lat="42.88016" lon="1.51791">
        <ele>1085</ele>
        <time>2019-04-27T17:25:20Z</time>
      </trkpt>
      <trkpt lat="42.88005" lon="1.51805">
        <ele>1085</ele>
        <time>2019-04-27T17:25:21Z</time>
      </trkpt>
      <trkpt lat="42.87995" lon="1.5182">
        <ele>1085</ele>
        <time>2019-04-27T17:25:22Z</time>
      </trkpt>
      <trkpt lat="42.87935" lon="1.52148">
        <ele>1080</ele>
        <time>2019-04-27T17:25:39Z</time>
      </trkpt>
      <trkpt lat="42.87932" lon="1.52166">
        <ele>1079</ele>
        <time>2019-04-27T17:25:40Z</time>
      </trkpt>
      <trkpt lat="42.8789" lon="1.52384">
        <ele>1074</ele>
        <time>2019-04-27T17:25:52Z</time>
      </trkpt>
      <trkpt lat="42.87887" lon="1.52401">
        <ele>1074</ele>
        <time>2019-04-27T17:25:53Z</time>
      </trkpt>
      <trkpt lat="42.87884" lon="1.52418">
        <ele>1074</ele>
        <time>2019-04-27T17:25:54Z</time>
      </trkpt>
      <trkpt lat="42.8788" lon="1.52435">
        <ele>1074</ele>
        <time>2019-04-27T17:25:55Z</time>
      </trkpt>
      <trkpt lat="42.87877" lon="1.52451">
        <ele>1074</ele>
        <time>2019-04-27T17:25:56Z</time>
      </trkpt>
      <trkpt lat="42.87874" lon="1.52468">
        <ele>1074</ele>
        <time>2019-04-27T17:25:57Z</time>
      </trkpt>
      <trkpt lat="42.87825" lon="1.52724">
        <ele>1070</ele>
        <time>2019-04-27T17:26:14Z</time>
      </trkpt>
      <trkpt lat="42.87822" lon="1.52738">
        <ele>1069</ele>
        <time>2019-04-27T17:26:15Z</time>
      </trkpt>
      <trkpt lat="42.87819" lon="1.52753">
        <ele>1068</ele>
        <time>2019-04-27T17:26:16Z</time>
      </trkpt>
      <trkpt lat="42.87804" lon="1.52916">
        <ele>1066</ele>
        <time>2019-04-27T17:26:27Z</time>
      </trkpt>
      <trkpt lat="42.87806" lon="1.52931">
        <ele>1066</ele>
        <time>2019-04-27T17:26:28Z</time>
      </trkpt>
      <trkpt lat="42.87809" lon="1.52945">
        <ele>1066</ele>
        <time>2019-04-27T17:26:29Z</time>
      </trkpt>
      <trkpt lat="42.87812" lon="1.52959">
        <ele>1066</ele>
        <time>2019-04-27T17:26:30Z</time>
      </trkpt>
      <trkpt lat="42.87815" lon="1.52974">
        <ele>1066</ele>
        <time>2019-04-27T17:26:31Z</time>
      </trkpt>
      <trkpt lat="42.87817" lon="1.52988">
        <ele>1066</ele>
        <time>2019-04-27T17:26:32Z</time>
      </trkpt>
      <trkpt lat="42.8782" lon="1.53003">
        <ele>1066</ele>
        <time>2019-04-27T17:26:33Z</time>
      </trkpt>
      <trkpt lat="42.87823" lon="1.53017">
        <ele>1066</ele>
        <time>2019-04-27T17:26:34Z</time>
      </trkpt>
      <trkpt lat="42.87857" lon="1.53233">
        <ele>1062</ele>
        <time>2019-04-27T17:26:49Z</time>
      </trkpt>
      <trkpt lat="42.87856" lon="1.53247">
        <ele>1061</ele>
        <time>2019-04-27T17:26:50Z</time>
      </trkpt>
      <trkpt lat="42.87855" lon="1.53262">
        <ele>1060</ele>
        <time>2019-04-27T17:26:51Z</time>
      </trkpt>
      <trkpt lat="42.87854" lon="1.53277">
        <ele>1059</ele>
        <time>2019-04-27T17:26:52Z</time>
      </trkpt>
      <trkpt lat="42.87832" lon="1.53434">
        <ele>1057</ele>
        <time>2019-04-27T17:27:03Z</time>
      </trkpt>
      <trkpt lat="42.8783" lon="1.53447">
        <ele>1057</ele>
        <time>2019-04-27T17:27:04Z</time>
      </trkpt>
      <trkpt lat="42.87829" lon="1.5346">
        <ele>1057</ele>
        <time>2019-04-27T17:27:05Z</time>
      </trkpt>
      <trkpt lat="42.87828" lon="1.53473">
        <ele>1057</ele>
        <time>2019-04-27T17:27:06Z</time>
      </trkpt>
      <trkpt lat="42.87827" lon="1.53486">
        <ele>1057</ele>
        <time>2019-04-27T17:27:07Z</time>
      </trkpt>
      <trkpt lat="42.87825" lon="1.53661">
        <ele>1054</ele>
        <time>2019-04-27T17:27:24Z</time>
      </trkpt>
      <trkpt lat="42.87825" lon="1.53806">
        <ele>1048</ele>
        <time>2019-04-27T17:27:37Z</time>
      </trkpt>
      <trkpt lat="42.87825" lon="1.5382">
        <ele>1048</ele>
        <time>2019-04-27T17:27:38Z</time>
      </trkpt>
      <trkpt lat="42.87826" lon="1.53834">
        <ele>1048</ele>
        <time>2019-04-27T17:27:39Z</time>
      </trkpt>
      <trkpt lat="42.87827" lon="1.53847">
        <ele>1048</ele>
        <time>2019-04-27T17:27:40Z</time>
      </trkpt>
      <trkpt lat="42.87828" lon="1.53861">
        <ele>1048</ele>
        <time>2019-04-27T17:27:41Z</time>
      </trkpt>
      <trkpt lat="42.8783" lon="1.53875">
        <ele>1048</ele>
        <time>2019-04-27T17:27:42Z</time>
      </trkpt>
      <trkpt lat="42.87833" lon="1.53888">
        <ele>1048</ele>
        <time>2019-04-27T17:27:43Z</time>
      </trkpt>
      <trkpt lat="42.87875" lon="1.54121">
        <ele>1045</ele>
        <time>2019-04-27T17:28:00Z</time>
      </trkpt>
      <trkpt lat="42.87878" lon="1.54134">
        <ele>1044</ele>
        <time>2019-04-27T17:28:01Z</time>
      </trkpt>
      <trkpt lat="42.87933" lon="1.5428">
        <ele>1039</ele>
        <time>2019-04-27T17:28:13Z</time>
      </trkpt>
      <trkpt lat="42.87939" lon="1.5429">
        <ele>1039</ele>
        <time>2019-04-27T17:28:14Z</time>
      </trkpt>
      <trkpt lat="42.87946" lon="1.54299">
        <ele>1039</ele>
        <time>2019-04-27T17:28:15Z</time>
      </trkpt>
      <trkpt lat="42.87952" lon="1.54309">
        <ele>1039</ele>
        <time>2019-04-27T17:28:16Z</time>
      </trkpt>
      <trkpt lat="42.87959" lon="1.54319">
        <ele>1039</ele>
        <time>2019-04-27T17:28:17Z</time>
      </trkpt>
      <trkpt lat="42.87966" lon="1.54329">
        <ele>1039</ele>
        <time>2019-04-27T17:28:18Z</time>
      </trkpt>
      <trkpt lat="42.87972" lon="1.54341">
        <ele>1039</ele>
        <time>2019-04-27T17:28:19Z</time>
      </trkpt>
      <trkpt lat="42.87983" lon="1.54609">
        <ele>1033</ele>
        <time>2019-04-27T17:28:36Z</time>
      </trkpt>
      <trkpt lat="42.87861" lon="1.54716">
        <ele>1027</ele>
        <time>2019-04-27T17:28:47Z</time>
      </trkpt>
      <trkpt lat="42.87851" lon="1.54729">
        <ele>1027</ele>
        <time>2019-04-27T17:28:48Z</time>
      </trkpt>
      <trkpt lat="42.87842" lon="1.54742">
        <ele>1027</ele>
        <time>2019-04-27T17:28:49Z</time>
      </trkpt>
      <trkpt lat="42.87831" lon="1.54755">
        <ele>1027</ele>
        <time>2019-04-27T17:28:50Z</time>
      </trkpt>
      <trkpt lat="42.87821" lon="1.54766">
        <ele>1027</ele>
        <time>2019-04-27T17:28:51Z</time>
      </trkpt>
      <trkpt lat="42.8781" lon="1.54779">
        <ele>1027</ele>
        <time>2019-04-27T17:28:52Z</time>
      </trkpt>
      <trkpt lat="42.878" lon="1.54793">
        <ele>1027</ele>
        <time>2019-04-27T17:28:53Z</time>
      </trkpt>
      <trkpt lat="42.87791" lon="1.54808">
        <ele>1027</ele>
        <time>2019-04-27T17:28:54Z</time>
      </trkpt>
      <trkpt lat="42.87586" lon="1.5501">
        <ele>1022</ele>
        <time>2019-04-27T17:29:12Z</time>
      </trkpt>
      <trkpt lat="42.87576" lon="1.55018">
        <ele>1021</ele>
        <time>2019-04-27T17:29:13Z</time>
      </trkpt>
      <trkpt lat="42.87539" lon="1.55131">
        <ele>1019</ele>
        <time>2019-04-27T17:29:24Z</time>
      </trkpt>
      <trkpt lat="42.87538" lon="1.5514">
        <ele>1019</ele>
        <time>2019-04-27T17:29:25Z</time>
      </trkpt>
      <trkpt lat="42.87537" lon="1.55148">
        <ele>1019</ele>
        <time>2019-04-27T17:29:26Z</time>
      </trkpt>
      <trkpt lat="42.87537" lon="1.55157">
        <ele>1019</ele>
        <time>2019-04-27T17:29:27Z</time>
      </trkpt>
      <trkpt lat="42.87535" lon="1.55164">
        <ele>1019</ele>
        <time>2019-04-27T17:29:28Z</time>
      </trkpt>
      <trkpt lat="42.87533" lon="1.55172">
        <ele>1019</ele>
        <time>2019-04-27T17:29:29Z</time>
      </trkpt>
      <trkpt lat="42.87532" lon="1.55178">
        <ele>1019</ele>
        <time>2019-04-27T17:29:30Z</time>
      </trkpt>
      <trkpt lat="42.87532" lon="1.55184">
        <ele>1019</ele>
        <time>2019-04-27T17:29:31Z</time>
      </trkpt>
      <trkpt lat="42.87521" lon="1.55299">
        <ele>1014</ele>
        <time>2019-04-27T17:29:46Z</time>
      </trkpt>
      <trkpt lat="42.8752" lon="1.55308">
        <ele>1013</ele>
        <time>2019-04-27T17:29:47Z</time>
      </trkpt>
      <trkpt lat="42.87519" lon="1.55316">
        <ele>1013</ele>
        <time>2019-04-27T17:29:48Z</time>
      </trkpt>
      <trkpt lat="42.87517" lon="1.55324">
        <ele>1012</ele>
        <time>2019-04-27T17:29:49Z</time>
      </trkpt>
      <trkpt lat="42.87525" lon="1.55407">
        <ele>1009</ele>
        <time>2019-04-27T17:30:00Z</time>
      </trkpt>
      <trkpt lat="42.87525" lon="1.55414">
        <ele>1009</ele>
        <time>2019-04-27T17:30:01Z</time>
      </trkpt>
      <trkpt lat="42.87526" lon="1.55421">
        <ele>1009</ele>
        <time>2019-04-27T17:30:02Z</time>
      </trkpt>
      <trkpt lat="42.87527" lon="1.55428">
        <ele>1009</ele>
        <time>2019-04-27T17:30:03Z</time>
      </trkpt>
      <trkpt lat="42.87528" lon="1.55435">
        <ele>1009</ele>
        <time>2019-04-27T17:30:04Z</time>
      </trkpt>
      <trkpt lat="42.87506" lon="1.5556">
        <ele>1006</ele>
        <time>2019-04-27T17:30:21Z</time>
      </trkpt>
      <trkpt lat="42.87505" lon="1.5557">
        <ele>1006</ele>
        <time>2019-04-27T17:30:22Z</time>
      </trkpt>
      <trkpt lat="42.87503" lon="1.55578">
        <ele>1006</ele>
        <time>2019-04-27T17:30:23Z</time>
      </trkpt>
      <trkpt lat="42.87501" lon="1.55585">
        <ele>1006</ele>
        <time>2019-04-27T17:30:24Z</time>
      </trkpt>
      <trkpt lat="42.875" lon="1.55594">
        <ele>1005</ele>
        <time>2019-04-27T17:30:25Z</time>
      </trkpt>
      <trkpt lat="42.8749" lon="1.55666">
        <ele>1003</ele>
        <time>2019-04-27T17:30:34Z</time>
      </trkpt>
      <trkpt lat="42.87491" lon="1.55674">
        <ele>1003</ele>
        <time>2019-04-27T17:30:35Z</time>
      </trkpt>
      <trkpt lat="42.87491" lon="1.55681">
        <ele>1003</ele>
        <time>2019-04-27T17:30:36Z</time>
      </trkpt>
      <trkpt lat="42.87489" lon="1.55686">
        <ele>1003</ele>
        <time>2019-04-27T17:30:37Z</time>
      </trkpt>
      <trkpt lat="42.87489" lon="1.55694">
        <ele>1003</ele>
        <time>2019-04-27T17:30:38Z</time>
      </trkpt>
      <trkpt lat="42.87489" lon="1.55701">
        <ele>1003</ele>
        <time>2019-04-27T17:30:39Z</time>
      </trkpt>
      <trkpt lat="42.87489" lon="1.55709">
        <ele>1003</ele>
        <time>2019-04-27T17:30:40Z</time>
      </trkpt>
      <trkpt lat="42.87497" lon="1.5584">
        <ele>998</ele>
        <time>2019-04-27T17:30:57Z</time>
      </trkpt>
      <trkpt lat="42.87501" lon="1.55922">
        <ele>992</ele>
        <time>2019-04-27T17:31:09Z</time>
      </trkpt>
      <trkpt lat="42.875" lon="1.55929">
        <ele>992</ele>
        <time>2019-04-27T17:31:10Z</time>
      </trkpt>
      <trkpt lat="42.87498" lon="1.55935">
        <ele>992</ele>
        <time>2019-04-27T17:31:11Z</time>
      </trkpt>
      <trkpt lat="42.87497" lon="1.55943">
        <ele>992</ele>
        <time>2019-04-27T17:31:12Z</time>
      </trkpt>
      <trkpt lat="42.87495" lon="1.5595">
        <ele>992</ele>
        <time>2019-04-27T17:31:13Z</time>
      </trkpt>
      <trkpt lat="42.87493" lon="1.55958">
        <ele>992</ele>
        <time>2019-04-27T17:31:14Z</time>
      </trkpt>
      <trkpt lat="42.87491" lon="1.55966">
        <ele>992</ele>
        <time>2019-04-27T17:31:15Z</time>
      </trkpt>
      <trkpt lat="42.87437" lon="1.56136">
        <ele>988</ele>
        <time>2019-04-27T17:31:32Z</time>
      </trkpt>
      <trkpt lat="42.87431" lon="1.56147">
        <ele>987</ele>
        <time>2019-04-27T17:31:33Z</time>
      </trkpt>
      <trkpt lat="42.87424" lon="1.56159">
        <ele>986</ele>
        <time>2019-04-27T17:31:34Z</time>
      </trkpt>
      <trkpt lat="42.87366" lon="1.56291">
        <ele>984</ele>
        <time>2019-04-27T17:31:45Z</time>
      </trkpt>
      <trkpt lat="42.87363" lon="1.56303">
        <ele>984</ele>
        <time>2019-04-27T17:31:46Z</time>
      </trkpt>
      <trkpt lat="42.8736" lon="1.56314">
        <ele>984</ele>
        <time>2019-04-27T17:31:47Z</time>
      </trkpt>
      <trkpt lat="42.87357" lon="1.56325">
        <ele>984</ele>
        <time>2019-04-27T17:31:48Z</time>
      </trkpt>
      <trkpt lat="42.87353" lon="1.56335">
        <ele>984</ele>
        <time>2019-04-27T17:31:49Z</time>
      </trkpt>
      <trkpt lat="42.87349" lon="1.56346">
        <ele>984</ele>
        <time>2019-04-27T17:31:50Z</time>
      </trkpt>
      <trkpt lat="42.87344" lon="1.56356">
        <ele>984</ele>
        <time>2019-04-27T17:31:51Z</time>
      </trkpt>
      <trkpt lat="42.87192" lon="1.5649">
        <ele>977</ele>
        <time>2019-04-27T17:32:08Z</time>
      </trkpt>
      <trkpt lat="42.87182" lon="1.56498">
        <ele>976</ele>
        <time>2019-04-27T17:32:09Z</time>
      </trkpt>
      <trkpt lat="42.87173" lon="1.56507">
        <ele>975</ele>
        <time>2019-04-27T17:32:10Z</time>
      </trkpt>
      <trkpt lat="42.87125" lon="1.56665">
        <ele>973</ele>
        <time>2019-04-27T17:32:21Z</time>
      </trkpt>
      <trkpt lat="42.87122" lon="1.56681">
        <ele>973</ele>
        <time>2019-04-27T17:32:22Z</time>
      </trkpt>
      <trkpt lat="42.87117" lon="1.56696">
        <ele>973</ele>
        <time>2019-04-27T17:32:23Z</time>
      </trkpt>
      <trkpt lat="42.87112" lon="1.56711">
        <ele>973</ele>
        <time>2019-04-27T17:32:24Z</time>
      </trkpt>
      <trkpt lat="42.87106" lon="1.56725">
        <ele>973</ele>
        <time>2019-04-27T17:32:25Z</time>
      </trkpt>
      <trkpt lat="42.86903" lon="1.56815">
        <ele>968</ele>
        <time>2019-04-27T17:32:42Z</time>
      </trkpt>
      <trkpt lat="42.8689" lon="1.56819">
        <ele>967</ele>
        <time>2019-04-27T17:32:43Z</time>
      </trkpt>
      <trkpt lat="42.86876" lon="1.56822">
        <ele>966</ele>
        <time>2019-04-27T17:32:44Z</time>
      </trkpt>
      <trkpt lat="42.86862" lon="1.56824">
        <ele>965</ele>
        <time>2019-04-27T17:32:45Z</time>
      </trkpt>
      <trkpt lat="42.86847" lon="1.56826">
        <ele>964</ele>
        <time>2019-04-27T17:32:46Z</time>
      </trkpt>
      <trkpt lat="42.86725" lon="1.56855">
        <ele>962</ele>
        <time>2019-04-27T17:32:55Z</time>
      </trkpt>
      <trkpt lat="42.86713" lon="1.56864">
        <ele>962</ele>
        <time>2019-04-27T17:32:56Z</time>
      </trkpt>
      <trkpt lat="42.86701" lon="1.56873">
        <ele>962</ele>
        <time>2019-04-27T17:32:57Z</time>
      </trkpt>
      <trkpt lat="42.86689" lon="1.56882">
        <ele>962</ele>
        <time>2019-04-27T17:32:58Z</time>
      </trkpt>
      <trkpt lat="42.86677" lon="1.56891">
        <ele>962</ele>
        <time>2019-04-27T17:32:59Z</time>
      </trkpt>
      <trkpt lat="42.86664" lon="1.569">
        <ele>962</ele>
        <time>2019-04-27T17:33:00Z</time>
      </trkpt>
      <trkpt lat="42.86448" lon="1.57016">
        <ele>960</ele>
        <time>2019-04-27T17:33:17Z</time>
      </trkpt>
      <trkpt lat="42.86435" lon="1.57024">
        <ele>958</ele>
        <time>2019-04-27T17:33:18Z</time>
      </trkpt>
      <trkpt lat="42.86309" lon="1.5716">
        <ele>952</ele>
        <time>2019-04-27T17:33:29Z</time>
      </trkpt>
      <trkpt lat="42.86299" lon="1.57175">
        <ele>952</ele>
        <time>2019-04-27T17:33:30Z</time>
      </trkpt>
      <trkpt lat="42.86289" lon="1.5719">
        <ele>952</ele>
        <time>2019-04-27T17:33:31Z</time>
      </trkpt>
      <trkpt lat="42.86277" lon="1.57204">
        <ele>952</ele>
        <time>2019-04-27T17:33:32Z</time>
      </trkpt>
      <trkpt lat="42.86266" lon="1.57217">
        <ele>952</ele>
        <time>2019-04-27T17:33:33Z</time>
      </trkpt>
      <trkpt lat="42.86253" lon="1.57229">
        <ele>952</ele>
        <time>2019-04-27T17:33:34Z</time>
      </trkpt>
      <trkpt lat="42.86241" lon="1.57239">
        <ele>952</ele>
        <time>2019-04-27T17:33:35Z</time>
      </trkpt>
      <trkpt lat="42.86229" lon="1.57251">
        <ele>952</ele>
        <time>2019-04-27T17:33:36Z</time>
      </trkpt>
      <trkpt lat="42.86218" lon="1.57263">
        <ele>952</ele>
        <time>2019-04-27T17:33:37Z</time>
      </trkpt>
      <trkpt lat="42.86069" lon="1.5753">
        <ele>948</ele>
        <time>2019-04-27T17:33:53Z</time>
      </trkpt>
      <trkpt lat="42.86056" lon="1.57545">
        <ele>947</ele>
        <time>2019-04-27T17:33:54Z</time>
      </trkpt>
      <trkpt lat="42.86043" lon="1.57559">
        <ele>946</ele>
        <time>2019-04-27T17:33:55Z</time>
      </trkpt>
      <trkpt lat="42.85877" lon="1.57681">
        <ele>944</ele>
        <time>2019-04-27T17:34:07Z</time>
      </trkpt>
      <trkpt lat="42.85868" lon="1.57698">
        <ele>944</ele>
        <time>2019-04-27T17:34:08Z</time>
      </trkpt>
      <trkpt lat="42.8586" lon="1.57716">
        <ele>944</ele>
        <time>2019-04-27T17:34:09Z</time>
      </trkpt>
      <trkpt lat="42.85855" lon="1.57736">
        <ele>944</ele>
        <time>2019-04-27T17:34:10Z</time>
      </trkpt>
      <trkpt lat="42.85855" lon="1.57757">
        <ele>944</ele>
        <time>2019-04-27T17:34:11Z</time>
      </trkpt>
      <trkpt lat="42.85859" lon="1.57776">
        <ele>944</ele>
        <time>2019-04-27T17:34:12Z</time>
      </trkpt>
      <trkpt lat="42.85831" lon="1.58108">
        <ele>938</ele>
        <time>2019-04-27T17:34:29Z</time>
      </trkpt>
      <trkpt lat="42.85823" lon="1.58126">
        <ele>937</ele>
        <time>2019-04-27T17:34:30Z</time>
      </trkpt>
      <trkpt lat="42.85729" lon="1.58308">
        <ele>934</ele>
        <time>2019-04-27T17:34:41Z</time>
      </trkpt>
      <trkpt lat="42.85715" lon="1.5831">
        <ele>934</ele>
        <time>2019-04-27T17:34:42Z</time>
      </trkpt>
      <trkpt lat="42.85701" lon="1.58313">
        <ele>934</ele>
        <time>2019-04-27T17:34:43Z</time>
      </trkpt>
      <trkpt lat="42.85687" lon="1.58321">
        <ele>934</ele>
        <time>2019-04-27T17:34:44Z</time>
      </trkpt>
      <trkpt lat="42.85675" lon="1.58333">
        <ele>934</ele>
        <time>2019-04-27T17:34:45Z</time>
      </trkpt>
      <trkpt lat="42.85666" lon="1.58347">
        <ele>934</ele>
        <time>2019-04-27T17:34:46Z</time>
      </trkpt>
      <trkpt lat="42.85508" lon="1.58537">
        <ele>929</ele>
        <time>2019-04-27T17:35:02Z</time>
      </trkpt>
      <trkpt lat="42.855" lon="1.58548">
        <ele>929</ele>
        <time>2019-04-27T17:35:03Z</time>
      </trkpt>
      <trkpt lat="42.85492" lon="1.58559">
        <ele>928</ele>
        <time>2019-04-27T17:35:04Z</time>
      </trkpt>
      <trkpt lat="42.85484" lon="1.5857">
        <ele>927</ele>
        <time>2019-04-27T17:35:05Z</time>
      </trkpt>
      <trkpt lat="42.85477" lon="1.58581">
        <ele>926</ele>
        <time>2019-04-27T17:35:06Z</time>
      </trkpt>
      <trkpt lat="42.85414" lon="1.58716">
        <ele>923</ele>
        <time>2019-04-27T17:35:17Z</time>
      </trkpt>
      <trkpt lat="42.8541" lon="1.58728">
        <ele>923</ele>
        <time>2019-04-27T17:35:18Z</time>
      </trkpt>
      <trkpt lat="42.85406" lon="1.5874">
        <ele>923</ele>
        <time>2019-04-27T17:35:19Z</time>
      </trkpt>
      <trkpt lat="42.85402" lon="1.58753">
        <ele>923</ele>
        <time>2019-04-27T17:35:20Z</time>
      </trkpt>
      <trkpt lat="42.85398" lon="1.58765">
        <ele>923</ele>
        <time>2019-04-27T17:35:21Z</time>
      </trkpt>
      <trkpt lat="42.85303" lon="1.59013">
        <ele>918</ele>
        <time>2019-04-27T17:35:40Z</time>
      </trkpt>
      <trkpt lat="42.85296" lon="1.59023">
        <ele>917</ele>
        <time>2019-04-27T17:35:41Z</time>
      </trkpt>
      <trkpt lat="42.85288" lon="1.59031">
        <ele>916</ele>
        <time>2019-04-27T17:35:42Z</time>
      </trkpt>
      <trkpt lat="42.85279" lon="1.59036">
        <ele>915</ele>
        <time>2019-04-27T17:35:43Z</time>
      </trkpt>
      <trkpt lat="42.85244" lon="1.59136">
        <ele>914</ele>
        <time>2019-04-27T17:35:53Z</time>
      </trkpt>
      <trkpt lat="42.8525" lon="1.59149">
        <ele>914</ele>
        <time>2019-04-27T17:35:54Z</time>
      </trkpt>
      <trkpt lat="42.85254" lon="1.59162">
        <ele>914</ele>
        <time>2019-04-27T17:35:55Z</time>
      </trkpt>
      <trkpt lat="42.85256" lon="1.59177">
        <ele>914</ele>
        <time>2019-04-27T17:35:56Z</time>
      </trkpt>
      <trkpt lat="42.85255" lon="1.59192">
        <ele>914</ele>
        <time>2019-04-27T17:35:57Z</time>
      </trkpt>
      <trkpt lat="42.85251" lon="1.59206">
        <ele>914</ele>
        <time>2019-04-27T17:35:58Z</time>
      </trkpt>
      <trkpt lat="42.85168" lon="1.59443">
        <ele>910</ele>
        <time>2019-04-27T17:36:14Z</time>
      </trkpt>
      <trkpt lat="42.85162" lon="1.59459">
        <ele>909</ele>
        <time>2019-04-27T17:36:15Z</time>
      </trkpt>
      <trkpt lat="42.85088" lon="1.5967">
        <ele>903</ele>
        <time>2019-04-27T17:36:28Z</time>
      </trkpt>
      <trkpt lat="42.85082" lon="1.59686">
        <ele>903</ele>
        <time>2019-04-27T17:36:29Z</time>
      </trkpt>
      <trkpt lat="42.85076" lon="1.59702">
        <ele>903</ele>
        <time>2019-04-27T17:36:30Z</time>
      </trkpt>
      <trkpt lat="42.85071" lon="1.59718">
        <ele>903</ele>
        <time>2019-04-27T17:36:31Z</time>
      </trkpt>
      <trkpt lat="42.85065" lon="1.59734">
        <ele>903</ele>
        <time>2019-04-27T17:36:32Z</time>
      </trkpt>
      <trkpt lat="42.85059" lon="1.59751">
        <ele>903</ele>
        <time>2019-04-27T17:36:33Z</time>
      </trkpt>
      <trkpt lat="42.85054" lon="1.59767">
        <ele>903</ele>
        <time>2019-04-27T17:36:34Z</time>
      </trkpt>
      <trkpt lat="42.85032" lon="1.59931">
        <ele>899</ele>
        <time>2019-04-27T17:36:50Z</time>
      </trkpt>
      <trkpt lat="42.85039" lon="1.59929">
        <ele>898</ele>
        <time>2019-04-27T17:36:51Z</time>
      </trkpt>
      <trkpt lat="42.85047" lon="1.59927">
        <ele>897</ele>
        <time>2019-04-27T17:36:52Z</time>
      </trkpt>
      <trkpt lat="42.85125" lon="1.59904">
        <ele>895</ele>
        <time>2019-04-27T17:37:02Z</time>
      </trkpt>
      <trkpt lat="42.85133" lon="1.59902">
        <ele>895</ele>
        <time>2019-04-27T17:37:03Z</time>
      </trkpt>
      <trkpt lat="42.85141" lon="1.59899">
        <ele>895</ele>
        <time>2019-04-27T17:37:04Z</time>
      </trkpt>
      <trkpt lat="42.85148" lon="1.59897">
        <ele>895</ele>
        <time>2019-04-27T17:37:05Z</time>
      </trkpt>
      <trkpt lat="42.85156" lon="1.59895">
        <ele>895</ele>
        <time>2019-04-27T17:37:06Z</time>
      </trkpt>
      <trkpt lat="42.85163" lon="1.59893">
        <ele>895</ele>
        <time>2019-04-27T17:37:07Z</time>
      </trkpt>
      <trkpt lat="42.85171" lon="1.5989">
        <ele>895</ele>
        <time>2019-04-27T17:37:08Z</time>
      </trkpt>
      <trkpt lat="42.85178" lon="1.59888">
        <ele>895</ele>
        <time>2019-04-27T17:37:09Z</time>
      </trkpt>
      <trkpt lat="42.85186" lon="1.59886">
        <ele>895</ele>
        <time>2019-04-27T17:37:10Z</time>
      </trkpt>
      <trkpt lat="42.85304" lon="1.59864">
        <ele>889</ele>
        <time>2019-04-27T17:37:26Z</time>
      </trkpt>
      <trkpt lat="42.85311" lon="1.59863">
        <ele>888</ele>
        <time>2019-04-27T17:37:27Z</time>
      </trkpt>
      <trkpt lat="42.85392" lon="1.5986">
        <ele>885</ele>
        <time>2019-04-27T17:37:38Z</time>
      </trkpt>
      <trkpt lat="42.854" lon="1.5986">
        <ele>885</ele>
        <time>2019-04-27T17:37:39Z</time>
      </trkpt>
      <trkpt lat="42.85407" lon="1.5986">
        <ele>885</ele>
        <time>2019-04-27T17:37:40Z</time>
      </trkpt>
      <trkpt lat="42.85415" lon="1.59861">
        <ele>885</ele>
        <time>2019-04-27T17:37:41Z</time>
      </trkpt>
      <trkpt lat="42.85422" lon="1.59861">
        <ele>885</ele>
        <time>2019-04-27T17:37:42Z</time>
      </trkpt>
      <trkpt lat="42.85566" lon="1.59862">
        <ele>882</ele>
        <time>2019-04-27T17:38:00Z</time>
      </trkpt>
      <trkpt lat="42.85652" lon="1.59818">
        <ele>876</ele>
        <time>2019-04-27T17:38:13Z</time>
      </trkpt>
      <trkpt lat="42.85657" lon="1.59811">
        <ele>876</ele>
        <time>2019-04-27T17:38:14Z</time>
      </trkpt>
      <trkpt lat="42.85663" lon="1.59805">
        <ele>876</ele>
        <time>2019-04-27T17:38:15Z</time>
      </trkpt>
      <trkpt lat="42.85669" lon="1.59799">
        <ele>876</ele>
        <time>2019-04-27T17:38:16Z</time>
      </trkpt>
      <trkpt lat="42.85675" lon="1.59793">
        <ele>876</ele>
        <time>2019-04-27T17:38:17Z</time>
      </trkpt>
      <trkpt lat="42.8568" lon="1.59787">
        <ele>876</ele>
        <time>2019-04-27T17:38:18Z</time>
      </trkpt>
      <trkpt lat="42.85686" lon="1.59781">
        <ele>876</ele>
        <time>2019-04-27T17:38:19Z</time>
      </trkpt>
      <trkpt lat="42.85801" lon="1.59778">
        <ele>872</ele>
        <time>2019-04-27T17:38:35Z</time>
      </trkpt>
      <trkpt lat="42.85808" lon="1.59782">
        <ele>871</ele>
        <time>2019-04-27T17:38:36Z</time>
      </trkpt>
      <trkpt lat="42.85816" lon="1.59785">
        <ele>870</ele>
        <time>2019-04-27T17:38:37Z</time>
      </trkpt>
      <trkpt lat="42.85899" lon="1.59776">
        <ele>865</ele>
        <time>2019-04-27T17:38:48Z</time>
      </trkpt>
      <trkpt lat="42.85905" lon="1.5977">
        <ele>865</ele>
        <time>2019-04-27T17:38:49Z</time>
      </trkpt>
      <trkpt lat="42.85911" lon="1.59763">
        <ele>865</ele>
        <time>2019-04-27T17:38:50Z</time>
      </trkpt>
      <trkpt lat="42.85917" lon="1.59757">
        <ele>865</ele>
        <time>2019-04-27T17:38:51Z</time>
      </trkpt>
      <trkpt lat="42.85924" lon="1.59751">
        <ele>865</ele>
        <time>2019-04-27T17:38:52Z</time>
      </trkpt>
      <trkpt lat="42.85929" lon="1.59744">
        <ele>865</ele>
        <time>2019-04-27T17:38:53Z</time>
      </trkpt>
      <trkpt lat="42.85936" lon="1.59739">
        <ele>865</ele>
        <time>2019-04-27T17:38:54Z</time>
      </trkpt>
      <trkpt lat="42.8604" lon="1.59692">
        <ele>861</ele>
        <time>2019-04-27T17:39:11Z</time>
      </trkpt>
      <trkpt lat="42.86045" lon="1.5969">
        <ele>860</ele>
        <time>2019-04-27T17:39:12Z</time>
      </trkpt>
      <trkpt lat="42.861" lon="1.59671">
        <ele>857</ele>
        <time>2019-04-27T17:39:23Z</time>
      </trkpt>
      <trkpt lat="42.86106" lon="1.5967">
        <ele>857</ele>
        <time>2019-04-27T17:39:24Z</time>
      </trkpt>
      <trkpt lat="42.86111" lon="1.59668">
        <ele>857</ele>
        <time>2019-04-27T17:39:25Z</time>
      </trkpt>
      <trkpt lat="42.86116" lon="1.59667">
        <ele>857</ele>
        <time>2019-04-27T17:39:26Z</time>
      </trkpt>
      <trkpt lat="42.86121" lon="1.59667">
        <ele>857</ele>
        <time>2019-04-27T17:39:27Z</time>
      </trkpt>
      <trkpt lat="42.86127" lon="1.59667">
        <ele>857</ele>
        <time>2019-04-27T17:39:28Z</time>
      </trkpt>
      <trkpt lat="42.86133" lon="1.59667">
        <ele>857</ele>
        <time>2019-04-27T17:39:29Z</time>
      </trkpt>
      <trkpt lat="42.86139" lon="1.59667">
        <ele>857</ele>
        <time>2019-04-27T17:39:30Z</time>
      </trkpt>
      <trkpt lat="42.86144" lon="1.59667">
        <ele>857</ele>
        <time>2019-04-27T17:39:31Z</time>
      </trkpt>
      <trkpt lat="42.86227" lon="1.59655">
        <ele>851</ele>
        <time>2019-04-27T17:39:47Z</time>
      </trkpt>
      <trkpt lat="42.86233" lon="1.59654">
        <ele>850</ele>
        <time>2019-04-27T17:39:48Z</time>
      </trkpt>
      <trkpt lat="42.86288" lon="1.59646">
        <ele>847</ele>
        <time>2019-04-27T17:39:59Z</time>
      </trkpt>
      <trkpt lat="42.86293" lon="1.59646">
        <ele>847</ele>
        <time>2019-04-27T17:40:00Z</time>
      </trkpt>
      <trkpt lat="42.86298" lon="1.59645">
        <ele>847</ele>
        <time>2019-04-27T17:40:01Z</time>
      </trkpt>
      <trkpt lat="42.86304" lon="1.59645">
        <ele>847</ele>
        <time>2019-04-27T17:40:02Z</time>
      </trkpt>
      <trkpt lat="42.86309" lon="1.59645">
        <ele>847</ele>
        <time>2019-04-27T17:40:03Z</time>
      </trkpt>
      <trkpt lat="42.86422" lon="1.59628">
        <ele>842</ele>
        <time>2019-04-27T17:40:22Z</time>
      </trkpt>
      <trkpt lat="42.86429" lon="1.59627">
        <ele>841</ele>
        <time>2019-04-27T17:40:23Z</time>
      </trkpt>
      <trkpt lat="42.86435" lon="1.59626">
        <ele>840</ele>
        <time>2019-04-27T17:40:24Z</time>
      </trkpt>
      <trkpt lat="42.86507" lon="1.59614">
        <ele>837</ele>
        <time>2019-04-27T17:40:35Z</time>
      </trkpt>
      <trkpt lat="42.86513" lon="1.59613">
        <ele>837</ele>
        <time>2019-04-27T17:40:36Z</time>
      </trkpt>
      <trkpt lat="42.8652" lon="1.59612">
        <ele>837</ele>
        <time>2019-04-27T17:40:37Z</time>
      </trkpt>
      <trkpt lat="42.86526" lon="1.59611">
        <ele>837</ele>
        <time>2019-04-27T17:40:38Z</time>
      </trkpt>
      <trkpt lat="42.86533" lon="1.5961">
        <ele>837</ele>
        <time>2019-04-27T17:40:39Z</time>
      </trkpt>
      <trkpt lat="42.8654" lon="1.5961">
        <ele>837</ele>
        <time>2019-04-27T17:40:40Z</time>
      </trkpt>
      <trkpt lat="42.86642" lon="1.59594">
        <ele>835</ele>
        <time>2019-04-27T17:40:56Z</time>
      </trkpt>
      <trkpt lat="42.86648" lon="1.59593">
        <ele>834</ele>
        <time>2019-04-27T17:40:57Z</time>
      </trkpt>
      <trkpt lat="42.86731" lon="1.59582">
        <ele>828</ele>
        <time>2019-04-27T17:41:10Z</time>
      </trkpt>
      <trkpt lat="42.86737" lon="1.59581">
        <ele>828</ele>
        <time>2019-04-27T17:41:11Z</time>
      </trkpt>
      <trkpt lat="42.86744" lon="1.5958">
        <ele>828</ele>
        <time>2019-04-27T17:41:12Z</time>
      </trkpt>
      <trkpt lat="42.8675" lon="1.5958">
        <ele>828</ele>
        <time>2019-04-27T17:41:13Z</time>
      </trkpt>
      <trkpt lat="42.86757" lon="1.59578">
        <ele>828</ele>
        <time>2019-04-27T17:41:14Z</time>
      </trkpt>
      <trkpt lat="42.86763" lon="1.59576">
        <ele>828</ele>
        <time>2019-04-27T17:41:15Z</time>
      </trkpt>
      <trkpt lat="42.86864" lon="1.59592">
        <ele>824</ele>
        <time>2019-04-27T17:41:32Z</time>
      </trkpt>
      <trkpt lat="42.86868" lon="1.59596">
        <ele>824</ele>
        <time>2019-04-27T17:41:33Z</time>
      </trkpt>
      <trkpt lat="42.86913" lon="1.59647">
        <ele>822</ele>
        <time>2019-04-27T17:41:44Z</time>
      </trkpt>
      <trkpt lat="42.86914" lon="1.59654">
        <ele>822</ele>
        <time>2019-04-27T17:41:45Z</time>
      </trkpt>
      <trkpt lat="42.86915" lon="1.5966">
        <ele>822</ele>
        <time>2019-04-27T17:41:46Z</time>
      </trkpt>
      <trkpt lat="42.86916" lon="1.59667">
        <ele>822</ele>
        <time>2019-04-27T17:41:47Z</time>
      </trkpt>
      <trkpt lat="42.86916" lon="1.59674">
        <ele>822</ele>
        <time>2019-04-27T17:41:48Z</time>
      </trkpt>
      <trkpt lat="42.86915" lon="1.5968">
        <ele>822</ele>
        <time>2019-04-27T17:41:49Z</time>
      </trkpt>
      <trkpt lat="42.86912" lon="1.59686">
        <ele>822</ele>
        <time>2019-04-27T17:41:50Z</time>
      </trkpt>
      <trkpt lat="42.86908" lon="1.59692">
        <ele>822</ele>
        <time>2019-04-27T17:41:51Z</time>
      </trkpt>
      <trkpt lat="42.86905" lon="1.59698">
        <ele>822</ele>
        <time>2019-04-27T17:41:52Z</time>
      </trkpt>
    </trkseg>
  </trk>
</gpx>